# Wetter Temperatur Luftdruck Luftfeuchtigkeit Sichtweite Windgeschwindigkeit Windrichtung Zeit
1 Clear 1 1034 59 10000 4.02 200 07:29 02.10.2022
2 Clear -2 1034 68 10000 3.13 200 02:54 02.10.2022
3 Clear -2 1034 74 10000 3.13 210 00:45 02.10.2022
4 Clear -2 1035 79 10000 2 210 23:43 01.10.2022
5 Clear -4 1035 79 10000 1 0 22:31 01.10.2022
6 Clear -2 1035 79 10000 2 280 19:58 01.10.2022
7 Clear -2 1035 79 10000 1 0 17:49 01.10.2022
8 Clear -1 1035 74 10000 1 240 16:29 01.10.2022
9 Clear 5 1035 45 10000 2 220 14:25 01.10.2022
10 Clear 5 1036 48 10000 2 220 12:59 01.10.2022
11 Clear 5 1036 48 10000 2 250 12:29 01.10.2022
12 Clear 5 1036 48 10000 3.13 240 11:19 01.10.2022
13 Clear 5 1037 48 10000 2 310 10:31 01.10.2022
14 Clear 4 1037 55 10000 1 0 09:27 01.10.2022
15 Clear 3 1037 59 10000 2 310 08:57 01.10.2022
16 Clouds -6 1037 86 10000 1 310 03:59 01.10.2022
17 Clouds -6 1037 93 10000 1 0 03:28 01.10.2022
18 Clear -5 1036 92 10000 1 290 23:47 30.09.2022
19 Clear -4 1036 85 10000 2 290 22:32 30.09.2022
20 Clear -3 1036 86 10000 1 0 21:22 30.09.2022
21 Clear -3 1036 92 10000 1 0 20:43 30.09.2022
22 Clear -2 1036 86 10000 2 20 19:32 30.09.2022
23 Clear -1 1035 80 10000 3.13 340 17:27 30.09.2022
24 Clear 1 1035 64 10000 3.13 340 15:26 30.09.2022
25 Clear 4 1034 51 10000 4.02 350 13:27 30.09.2022
26 Clear 4 1034 44 10000 5 340 11:56 30.09.2022
27 Clear 4 1034 51 10000 4.02 360 10:18 30.09.2022
28 Clear 3 1034 51 10000 4.02 350 08:21 30.09.2022
29 Clear -1 1032 74 10000 3.13 10 04:31 30.09.2022
30 Clear -1 1031 80 10000 3.13 340 02:27 30.09.2022
31 Clear 0 1029 74 10000 2 360 22:24 29.09.2022
32 Clear 0 1029 74 10000 3 20 21:26 29.09.2022
33 Clear 1 1029 69 10000 3 10 20:31 29.09.2022
34 Clear 1 1028 69 10000 3 360 18:32 29.09.2022
35 Clear 1 1027 74 10000 3.13 360 16:56 29.09.2022
36 Clear 1 1027 74 10000 3.13 350 16:26 29.09.2022
37 Clear 2 1027 59 10000 4.02 360 15:35 29.09.2022
38 Snow 2 1026 64 10000 4.02 350 14:24 29.09.2022
39 Clear 1 1024 74 10000 5 360 09:21 29.09.2022
40 Clouds 0 1024 69 10000 5.81 10 05:42 29.09.2022
41 Clouds -1 1023 86 10000 4.02 360 02:45 29.09.2022
42 Clouds -1 1022 80 10000 4.02 10 23:54 28.09.2022
43 Clouds -1 1022 80 10000 3.13 350 22:32 28.09.2022
44 Clouds -1 1022 80 10000 4.02 350 21:29 28.09.2022
45 Clouds -1 1022 80 9000 4.02 350 20:20 28.09.2022
46 Clouds 0 1022 69 10000 4.02 10 18:20 28.09.2022
47 Clouds 0 1021 74 10000 4.02 10 14:50 28.09.2022
48 Snow 1 1020 69 10000 5 360 12:40 28.09.2022
49 Clouds 0 1020 80 10000 4.02 10 10:24 28.09.2022
50 Snow 0 1019 80 10000 3.13 20 08:25 28.09.2022
51 Clouds -1 1019 80 10000 4.02 40 06:45 28.09.2022
52 Snow -2 1018 92 8000 3.13 30 01:54 28.09.2022
53 Snow -2 1018 92 9000 3.13 20 01:30 28.09.2022
54 Clouds -2 1018 92 10000 3.13 20 23:19 27.09.2022
55 Clouds -2 1018 86 10000 3.13 20 21:40 27.09.2022
56 Snow -2 1018 92 10000 3.13 30 20:37 27.09.2022
57 Clouds -2 1018 92 10000 3.13 20 19:47 27.09.2022
58 Snow -2 1018 92 3700 3.13 30 18:31 27.09.2022
59 Clouds -2 1018 92 10000 3.13 30 17:43 27.09.2022
60 Snow -1 1018 86 7000 2 30 15:27 27.09.2022
61 Snow -1 1018 86 1500 4.02 10 14:41 27.09.2022
62 Snow 0 1017 86 10000 4.02 350 12:40 27.09.2022
63 Snow 0 1017 80 9000 5 360 10:53 27.09.2022
64 Clouds 0 1017 63 10000 5 20 08:46 27.09.2022
65 Clouds -1 1017 74 10000 5 30 06:27 27.09.2022
66 Clouds 0 1018 63 10000 3.13 20 01:45 27.09.2022
67 Clouds 0 1018 69 10000 2 20 01:27 27.09.2022
68 Clouds -1 1018 86 10000 2 60 23:25 26.09.2022
69 Clouds 0 1018 80 10000 3.13 20 22:24 26.09.2022
70 Clear 0 1019 74 10000 3.13 30 20:29 26.09.2022
71 Clear 0 1019 74 10000 2 360 19:30 26.09.2022
72 Clear 0 1019 74 10000 2 340 18:31 26.09.2022
73 Clouds 0 1020 69 10000 2 360 15:55 26.09.2022
74 Clouds 1 1020 59 10000 3.13 10 13:30 26.09.2022
75 Clouds 0 1020 63 10000 4.02 20 11:29 26.09.2022
76 Clouds 0 1021 69 10000 5 20 10:37 26.09.2022
77 Clouds 0 1021 69 10000 5 20 10:19 26.09.2022
78 Clouds 0 1021 69 10000 5 20 09:53 26.09.2022
79 Clouds 1 1021 69 10000 4.02 10 09:22 26.09.2022
80 Clouds 1 1021 69 10000 5 30 06:28 26.09.2022
81 Clouds -1 1022 80 10000 4.02 20 02:44 26.09.2022
82 Clear -1 1021 80 10000 3.13 20 23:28 25.09.2022
83 Clear -1 1021 92 10000 4.02 20 21:54 25.09.2022
84 Clear -1 1021 92 10000 3.13 10 21:34 25.09.2022
85 Clouds 0 1021 86 10000 3.13 10 20:44 25.09.2022
86 Clouds 1 1021 74 10000 3.13 10 19:31 25.09.2022
87 Clear 1 1021 64 10000 2 310 18:34 25.09.2022
88 Clear 1 1022 64 10000 3.13 360 17:49 25.09.2022
89 Clear 1 1022 59 10000 3.13 20 16:22 25.09.2022
90 Clouds 2 1021 59 10000 4.02 10 15:35 25.09.2022
91 Clouds 2 1021 64 10000 5 30 14:21 25.09.2022
92 Clouds 2 1021 74 10000 5 20 12:44 25.09.2022
93 Snow 2 1020 87 9000 5 10 10:20 25.09.2022
94 Rain 3 1019 100 6000 5 10 07:47 25.09.2022
95 Clouds 3 1019 93 10000 2 340 05:31 25.09.2022
96 Clouds 4 1019 87 10000 2 10 00:36 25.09.2022
97 Clouds 4 1019 81 10000 3 30 22:34 24.09.2022
98 Clouds 3 1019 80 10000 2 40 20:45 24.09.2022
99 Clouds 1 1020 86 10000 2 310 19:21 24.09.2022
100 Clear 3 1020 74 10000 2 10 16:59 24.09.2022
101 Clear 3 1020 74 10000 2 340 16:23 24.09.2022
102 Clear 7 1020 56 10000 3.13 350 15:19 24.09.2022
103 Clear 8 1020 52 10000 4.02 350 13:23 24.09.2022
104 Clear 8 1020 52 10000 5 360 12:40 24.09.2022
105 Clear 9 1020 53 10000 5 360 10:19 24.09.2022
106 Clear 10 1020 49 10000 4.02 340 09:22 24.09.2022
107 Clear 10 1020 49 10000 4.02 340 09:22 24.09.2022
108 Clear 9 1020 45 10000 3.13 310 08:42 24.09.2022
109 Clear 5 1020 70 10000 1 290 05:55 24.09.2022
110 Clear 3 1020 93 10000 1 0 04:31 24.09.2022
111 Clear 2 1021 93 10000 0 0 23:47 23.09.2022
112 Clear 3 1021 86 10000 1 310 21:44 23.09.2022
113 Clear 3 1020 86 10000 1 270 21:24 23.09.2022
114 Clear 3 1020 86 10000 1 280 20:54 23.09.2022
115 Clear 3 1020 86 10000 1 0 19:20 23.09.2022
116 Clear 5 1020 75 10000 2 340 17:50 23.09.2022
117 Clouds 11 1019 50 10000 6 290 13:41 23.09.2022
118 Clear 10 1019 53 10000 7.15 300 10:24 23.09.2022
119 Clear 9 1018 57 10000 6 280 07:43 23.09.2022
120 Clear 4 1017 69 10000 6 270 02:32 23.09.2022
121 Clear 5 1017 65 10000 6 260 23:29 22.09.2022
122 Clear 6 1017 60 10000 6 270 22:28 22.09.2022
123 Clear 6 1017 60 10000 6 260 21:35 22.09.2022
124 Clear 7 1017 52 10000 7.15 260 20:23 22.09.2022
125 Clear 7 1018 56 10000 7.15 250 18:58 22.09.2022
126 Clear 7 1017 52 10000 4 290 15:39 22.09.2022
127 Clouds 8 1015 52 10000 10 320 10:51 22.09.2022
128 Clouds 7 1014 70 10000 11.18 320 10:19 22.09.2022
129 Clouds 11 1011 61 10000 8.05 290 07:55 22.09.2022
130 Rain 10 1009 81 10000 7.15 280 04:56 22.09.2022
131 Clear 11 1008 76 10000 6 250 00:37 22.09.2022
132 Clear 12 1009 71 10000 6 250 22:29 21.09.2022
133 Clear 12 1009 71 10000 5 240 21:18 21.09.2022
134 Clear 14 1009 62 10000 6 250 18:50 21.09.2022
135 Clear 15 1009 58 10000 5 250 17:44 21.09.2022
136 Clear 17 1008 55 10000 7.15 260 15:35 21.09.2022
137 Clear 18 1007 51 10000 8.05 250 13:42 21.09.2022
138 Clear 19 1006 55 10000 8.94 240 11:42 21.09.2022
139 Clear 19 1007 59 10000 7.15 240 10:54 21.09.2022
140 Clouds 17 1007 77 10000 7.15 240 09:39 21.09.2022
141 Clouds 17 1007 77 10000 7.15 240 09:39 21.09.2022
142 Clear 16 1008 77 10000 5 230 08:31 21.09.2022
143 Clouds 14 1010 93 10000 3.13 240 03:51 21.09.2022
144 Clear 15 1010 87 10000 4.02 220 02:38 21.09.2022
145 Clear 15 1010 87 10000 4.02 230 01:56 21.09.2022
146 Clear 14 1011 93 10000 2 230 00:19 21.09.2022
147 Clear 13 1012 93 10000 2 200 21:53 20.09.2022
148 Clear 13 1012 93 10000 4.02 190 20:32 20.09.2022
149 Clear 12 1013 87 10000 4 160 18:41 20.09.2022
150 Clouds 11 1017 93 10000 5 130 15:37 20.09.2022
151 Clouds 10 1018 93 10000 4 100 14:18 20.09.2022
152 Clear 13 1019 66 10000 4.02 130 11:29 20.09.2022
153 Clear 12 1020 66 10000 4.02 140 08:44 20.09.2022
154 Clear 12 1020 66 10000 3.13 150 08:23 20.09.2022
155 Clear 6 1020 100 10000 1 0 04:37 20.09.2022
156 Clear 3 1020 93 10000 1 0 01:42 20.09.2022
157 Clear 6 1019 93 10000 1 330 22:42 19.09.2022
158 Clear 9 1018 75 10000 2 310 21:28 19.09.2022
159 Clear 10 1018 71 10000 2 340 20:40 19.09.2022
160 Clear 13 1017 67 10000 3 330 18:49 19.09.2022
161 Clear 13 1016 71 10000 3.13 280 17:20 19.09.2022
162 Clouds 15 1015 54 10000 7.15 280 13:47 19.09.2022
163 Clouds 16 1014 55 10000 8.05 280 11:57 19.09.2022
164 Clouds 15 1013 58 10000 11.18 270 10:19 19.09.2022
165 Clouds 14 1012 67 10000 10 280 08:37 19.09.2022
166 Clear 10 1010 81 10000 6 250 03:39 19.09.2022
167 Clear 11 1010 87 10000 5 240 00:48 19.09.2022
168 Clouds 11 1010 100 10000 5 230 22:42 18.09.2022
169 Clouds 12 1010 93 10000 4.02 230 21:26 18.09.2022
170 Clouds 11 1010 100 10000 4.02 230 19:40 18.09.2022
171 Clouds 11 1010 93 10000 4.02 240 17:52 18.09.2022
172 Rain 10 1010 93 8000 5 220 16:49 18.09.2022
173 Rain 9 1010 100 10000 6 200 14:52 18.09.2022
174 Rain 10 1011 93 8000 5 200 13:41 18.09.2022
175 Rain 12 1010 71 10000 6 160 12:20 18.09.2022
176 Clear 15 1013 44 10000 7.15 180 09:44 18.09.2022
177 Clear 9 1019 70 10000 3.13 170 01:44 18.09.2022
178 Clear 9 1019 70 10000 3.13 180 01:20 18.09.2022
179 Clear 11 1020 57 10000 2 180 22:57 17.09.2022
180 Clear 12 1021 54 10000 4.02 190 20:56 17.09.2022
181 Clear 12 1021 54 10000 3.13 200 19:39 17.09.2022
182 Clear 14 1021 47 10000 4 200 18:30 17.09.2022
183 Clear 17 1021 45 10000 4.02 180 14:27 17.09.2022
184 Clear 17 1021 45 10000 3.13 170 13:32 17.09.2022
185 Clear 13 1022 67 10000 4 150 10:49 17.09.2022
186 Clear 13 1023 66 10000 2 150 07:28 17.09.2022
187 Clear 13 1023 66 10000 2 150 06:19 17.09.2022
188 Clear 13 1023 58 10000 3.13 230 23:41 16.09.2022
189 Clear 12 1023 66 10000 2 210 22:27 16.09.2022
190 Clear 13 1023 62 10000 2 210 20:54 16.09.2022
191 Clear 13 1023 62 10000 2 230 19:35 16.09.2022
192 Clear 15 1022 54 10000 3.13 210 16:24 16.09.2022
193 Clear 16 1022 51 10000 2 200 14:52 16.09.2022
194 Clear 18 1022 39 10000 3.13 200 13:21 16.09.2022
195 Clear 17 1023 45 10000 5 210 10:24 16.09.2022
196 Clear 12 1024 66 10000 2 190 07:26 16.09.2022
197 Clear 11 1024 66 10000 2 200 06:48 16.09.2022
198 Clear 10 1024 76 10000 2 200 05:57 16.09.2022
199 Clear 7 1024 87 10000 0.89 0 02:35 16.09.2022
200 Clear 8 1024 81 10000 1 0 21:47 15.09.2022
201 Clear 8 1024 81 10000 2 200 20:38 15.09.2022
202 Clear 10 1024 71 10000 3.13 200 19:31 15.09.2022
203 Clear 9 1024 81 10000 1 0 17:41 15.09.2022
204 Clear 10 1024 76 10000 1 180 17:22 15.09.2022
205 Clear 13 1024 62 10000 3.13 190 15:47 15.09.2022
206 Clouds 16 1024 47 10000 4.02 230 12:51 15.09.2022
207 Clouds 15 1025 51 10000 4.02 240 11:48 15.09.2022
208 Clear 15 1025 54 10000 3.13 250 09:45 15.09.2022
209 Clear 11 1025 81 10000 2 250 06:58 15.09.2022
210 Clouds 5 1024 100 10000 2 270 03:48 15.09.2022
211 Fog 5 1023 100 450 1 330 23:22 14.09.2022
212 Fog 7 1023 93 5000 1 0 20:37 14.09.2022
213 Clear 8 1023 93 10000 2 250 19:33 14.09.2022
214 Clear 9 1022 93 10000 2 260 17:47 14.09.2022
215 Clouds 11 1022 81 10000 3.13 230 16:36 14.09.2022
216 Clouds 12 1021 76 10000 3.13 240 14:56 14.09.2022
217 Clouds 12 1021 76 10000 4.02 240 12:40 14.09.2022
218 Rain 11 1021 76 10000 4.02 230 09:53 14.09.2022
219 Clouds 12 1021 71 10000 5 240 08:38 14.09.2022
220 Clouds 10 1021 81 10000 4.02 230 06:50 14.09.2022
221 Clouds 9 1021 87 10000 4.02 250 06:29 14.09.2022
222 Clear 8 1021 87 10000 3.13 210 02:43 14.09.2022
223 Clear 8 1021 87 10000 3.13 220 01:36 14.09.2022
224 Clouds 8 1021 87 10000 3.13 220 00:53 14.09.2022
225 Clear 9 1021 81 10000 3.13 210 23:55 13.09.2022
226 Clear 9 1021 81 10000 4.02 230 23:36 13.09.2022
227 Clear 9 1021 81 10000 4.02 230 23:18 13.09.2022
228 Clear 9 1021 81 10000 3.13 230 22:29 13.09.2022
229 Clear 8 1021 87 10000 3.13 230 21:38 13.09.2022
230 Clear 9 1021 81 10000 4.02 230 18:59 13.09.2022
231 Clouds 10 1021 76 10000 3.13 250 16:42 13.09.2022
232 Clouds 10 1021 81 10000 4.02 230 15:31 13.09.2022
233 Clouds 11 1021 71 10000 5 230 13:40 13.09.2022
234 Rain 12 1021 71 10000 6 250 10:30 13.09.2022
235 Clear 10 1020 76 10000 5 230 07:56 13.09.2022
236 Clear 6 1020 86 10000 3.13 230 02:27 13.09.2022
237 Clear 6 1020 81 10000 2 250 23:22 12.09.2022
238 Clear 6 1019 81 10000 3 240 22:40 12.09.2022
239 Clear 6 1019 81 10000 3.13 240 21:35 12.09.2022
240 Clear 7 1019 81 10000 2 250 20:22 12.09.2022
241 Clear 8 1019 75 10000 3.13 250 18:24 12.09.2022
242 Clear 11 1017 61 10000 5 250 15:50 12.09.2022
243 Clouds 14 1017 44 10000 7.15 290 12:35 12.09.2022
244 Clear 12 1016 54 10000 5 260 10:31 12.09.2022
245 Clear 10 1016 66 10000 4.02 250 07:40 12.09.2022
246 Clear 2 1015 100 10000 3.13 280 04:36 12.09.2022
247 Clear 0 1015 100 10000 2 280 02:24 12.09.2022
248 Clouds 1 1014 100 10000 2 310 22:46 11.09.2022
249 Clear 1 1014 93 10000 2 290 21:27 11.09.2022
250 Clear 2 1014 93 10000 1 280 20:44 11.09.2022
251 Clear 2 1014 93 10000 1.79 290 19:39 11.09.2022
252 Clear 2 1014 93 10000 0 0 19:19 11.09.2022
253 Clear 4 1014 93 10000 0 0 17:29 11.09.2022
254 Clear 8 1013 75 10000 1 0 15:51 11.09.2022
255 Clouds 11 1013 53 10000 4.02 360 13:26 11.09.2022
256 Clouds 10 1013 57 10000 2 310 11:26 11.09.2022
257 Clouds 9 1013 61 10000 3.13 80 08:25 11.09.2022
258 Clouds 7 1013 87 10000 2 360 05:49 11.09.2022
259 Clouds 2 1012 93 10000 1 330 00:23 11.09.2022
260 Clouds 2 1012 100 10000 0 0 22:23 10.09.2022
261 Clouds 5 1012 100 10000 1 0 20:34 10.09.2022
262 Clear 6 1013 93 10000 2 150 19:44 10.09.2022
263 Clear 7 1013 87 10000 2 230 19:25 10.09.2022
264 Clear 6 1013 86 10000 1 0 17:51 10.09.2022
265 Clouds 7 1013 87 10000 2 70 15:37 10.09.2022
266 Rain 8 1013 75 10000 4.02 320 13:55 10.09.2022
267 Clouds 9 1013 61 10000 2 240 12:52 10.09.2022
268 Clouds 9 1013 57 10000 3.13 260 10:34 10.09.2022
269 Clouds 9 1012 57 10000 2 230 08:42 10.09.2022
270 Clouds 8 1012 65 10000 2 230 08:22 10.09.2022
271 Fog 4 1012 100 650 0 0 04:55 10.09.2022
272 Clouds -1 1012 100 10000 0 0 23:38 09.09.2022
273 Clear -1 1012 93 10000 0 0 22:36 09.09.2022
274 Clear -1 1012 100 10000 0 0 20:59 09.09.2022
275 Clear 1 1012 93 10000 1 0 20:22 09.09.2022
276 Clear 2 1012 93 10000 1 0 19:23 09.09.2022
277 Clear 3 1012 93 10000 0 0 17:50 09.09.2022
278 Clouds 8 1012 81 10000 0 0 15:23 09.09.2022
279 Clouds 8 1012 75 10000 1 0 13:43 09.09.2022
280 Clouds 8 1012 75 10000 2 120 11:38 09.09.2022
281 Clouds 6 1013 86 10000 2 50 07:58 09.09.2022
282 Fog 4 1012 100 10000 0.89 0 03:40 09.09.2022
283 Clear 4 1011 100 10000 1 0 00:21 09.09.2022
284 Clear 5 1011 93 10000 2 50 21:52 08.09.2022
285 Clouds 5 1011 93 10000 2 90 20:49 08.09.2022
286 Clouds 5 1011 93 10000 2 60 20:29 08.09.2022
287 Rain 5 1010 93 6000 3.13 60 19:25 08.09.2022
288 Rain 6 1010 93 10000 4.02 90 17:29 08.09.2022
289 Rain 6 1009 93 10000 2 60 15:54 08.09.2022
290 Clouds 9 1009 61 10000 3.13 280 13:30 08.09.2022
291 Clouds 9 1008 57 10000 4.02 280 12:42 08.09.2022
292 Clear 9 1008 53 10000 4.02 300 11:24 08.09.2022
293 Clear 9 1006 53 10000 5 290 09:46 08.09.2022
294 Clouds 8 1005 65 10000 6 300 07:25 08.09.2022
295 Clouds 6 1002 75 10000 5 310 04:53 08.09.2022
296 Clouds 6 1000 81 10000 4.02 320 02:36 08.09.2022
297 Clouds 6 1000 81 10000 4.02 320 02:18 08.09.2022
298 Clouds 8 996 87 10000 5 320 23:25 07.09.2022
299 Clouds 8 995 87 10000 5 330 21:46 07.09.2022
300 Clouds 8 995 87 10000 5 330 21:24 07.09.2022
301 Clouds 7 994 93 10000 4.02 320 20:29 07.09.2022
302 Clouds 7 994 93 10000 4.02 320 19:20 07.09.2022
303 Rain 7 994 87 10000 5 360 16:24 07.09.2022
304 Clear 10 995 61 10000 5 50 10:52 07.09.2022
305 Clear 10 996 66 10000 4.02 50 10:32 07.09.2022
306 Clear 9 997 75 10000 5 50 08:26 07.09.2022
307 Clear 7 1000 93 10000 4.02 70 05:46 07.09.2022
308 Clouds 6 1004 93 10000 2 80 00:31 07.09.2022
309 Fog 2 1005 93 9000 1 70 21:56 06.09.2022
310 Clouds 2 1005 93 10000 1 70 21:33 06.09.2022
311 Clouds 4 1006 100 9000 1 320 19:39 06.09.2022
312 Clear 5 1006 93 10000 1.79 280 18:39 06.09.2022
313 Clear 8 1006 81 10000 3.13 240 17:39 06.09.2022
314 Clouds 9 1006 87 10000 1 0 16:47 06.09.2022
315 Clouds 9 1006 81 10000 0 0 15:58 06.09.2022
316 Clouds 10 1006 71 10000 2 240 13:48 06.09.2022
317 Clouds 10 1007 66 10000 1 0 13:27 06.09.2022
318 Clouds 10 1007 71 10000 2 260 12:57 06.09.2022
319 Clouds 10 1007 81 10000 1 0 10:55 06.09.2022
320 Rain 8 1007 93 8000 1 0 09:22 06.09.2022
321 Clouds 8 1007 87 10000 2 240 07:53 06.09.2022
322 Clouds 8 1007 93 10000 3.13 260 06:19 06.09.2022
323 Clear 6 1005 93 10000 3.13 290 00:54 06.09.2022
324 Clouds 7 1005 93 10000 4.02 280 22:49 05.09.2022
325 Clouds 7 1005 93 10000 4.02 280 21:38 05.09.2022
326 Clouds 7 1005 93 10000 5 270 20:20 05.09.2022
327 Clear 7 1004 93 10000 5 250 18:53 05.09.2022
328 Clouds 7 1004 93 10000 4.02 260 18:24 05.09.2022
329 Clouds 7 1004 93 10000 4.02 250 17:50 05.09.2022
330 Clouds 8 1004 81 10000 4.02 260 15:53 05.09.2022
331 Rain 8 1004 93 10000 5 270 14:34 05.09.2022
332 Rain 9 1004 81 10000 7.15 260 12:51 05.09.2022
333 Clouds 10 1003 66 10000 8.05 250 10:35 05.09.2022
334 Clouds 10 1003 71 10000 6 250 08:45 05.09.2022
335 Clouds 7 1002 81 10000 7.15 240 03:47 05.09.2022
336 Clouds 7 1002 81 10000 7.15 240 03:47 05.09.2022
337 Clear 7 1002 87 10000 6 240 00:18 05.09.2022
338 Clear 8 1002 81 10000 5 240 22:28 04.09.2022
339 Clear 8 1002 81 10000 6 240 21:49 04.09.2022
340 Clouds 8 1003 81 10000 5 240 20:21 04.09.2022
341 Clouds 10 1004 76 10000 5 240 18:34 04.09.2022
342 Clouds 10 1004 76 10000 6 240 17:26 04.09.2022
343 Clouds 12 1003 62 10000 8.05 240 15:42 04.09.2022
344 Clouds 12 1004 62 10000 8.05 250 14:24 04.09.2022
345 Rain 10 1004 81 10000 6 260 12:27 04.09.2022
346 Clouds 10 1004 81 9000 7.15 250 10:59 04.09.2022
347 Clouds 11 1004 66 10000 10 260 09:24 04.09.2022
348 Clear 10 1003 76 10000 6 260 06:31 04.09.2022
349 Clear 6 1003 93 10000 4.92 270 02:41 04.09.2022
350 Clear 8 1004 81 10000 2 280 22:33 03.09.2022
351 Clear 10 1005 76 10000 3.13 290 21:25 03.09.2022
352 Clear 11 1005 71 10000 4.02 290 20:55 03.09.2022
353 Clear 12 1005 71 10000 3.13 280 17:37 03.09.2022
354 Clouds 14 1005 62 10000 4.02 260 16:52 03.09.2022
355 Clouds 18 1005 67 10000 4.02 230 14:52 03.09.2022
356 Clouds 18 1005 72 10000 4.02 220 14:30 03.09.2022
357 Clouds 17 1005 77 10000 3.13 220 13:44 03.09.2022
358 Clouds 15 1006 82 10000 4.02 210 11:32 03.09.2022
359 Clouds 14 1005 76 10000 3.13 190 09:22 03.09.2022
360 Clouds 13 1005 76 10000 5 160 07:45 03.09.2022
361 Clear 11 1008 81 10000 6 150 04:48 03.09.2022
362 Rain 10 1010 81 10000 8.05 130 02:35 03.09.2022
363 Rain 10 1014 87 10000 7.15 120 23:42 02.09.2022
364 Rain 11 1017 81 9000 5 110 21:57 02.09.2022
365 Rain 11 1017 76 10000 6 130 20:42 02.09.2022
366 Clouds 11 1018 76 10000 5 130 19:47 02.09.2022
367 Clouds 11 1018 76 10000 5 130 19:47 02.09.2022
368 Rain 11 1018 76 10000 5 120 18:50 02.09.2022
369 Clear 12 1019 66 10000 5 120 18:24 02.09.2022
370 Clear 12 1020 66 10000 5 110 16:56 02.09.2022
371 Clear 12 1020 66 10000 4.02 110 16:22 02.09.2022
372 Clear 15 1021 47 10000 6 120 12:58 02.09.2022
373 Clear 14 1022 50 10000 4.02 130 10:37 02.09.2022
374 Clear 13 1022 54 10000 4.02 130 09:41 02.09.2022
375 Clouds 13 1022 54 10000 5 120 08:43 02.09.2022
376 Clouds 12 1022 57 10000 4.02 120 06:43 02.09.2022
377 Clear 11 1022 61 10000 3.13 120 05:32 02.09.2022
378 Clear 3 1019 86 10000 1 0 22:58 01.09.2022
379 Clear 4 1019 86 10000 1 60 21:46 01.09.2022
380 Clear 4 1019 86 10000 0 0 21:26 01.09.2022
381 Clear 4 1019 93 10000 0 0 20:49 01.09.2022
382 Clear 6 1019 86 10000 1 280 19:24 01.09.2022
383 Clouds 10 1018 66 10000 2 60 17:49 01.09.2022
384 Clouds 10 1017 61 10000 2 50 16:47 01.09.2022
385 Clouds 11 1017 53 10000 4.02 40 14:41 01.09.2022
386 Clouds 12 1016 54 10000 4.02 40 13:20 01.09.2022
387 Clouds 12 1015 57 10000 5 50 11:57 01.09.2022
388 Clouds 12 1015 57 10000 4.92 50 11:39 01.09.2022
389 Clouds 12 1014 57 10000 4.02 40 11:19 01.09.2022
390 Clouds 12 1013 54 10000 5 40 09:20 01.09.2022
391 Clouds 11 1012 57 10000 7.15 70 06:28 01.09.2022
392 Clear 5 1011 100 10000 4.02 40 01:45 01.09.2022
393 Clear 6 1010 93 10000 4.02 70 00:33 01.09.2022
394 Clear 8 1010 87 10000 5 80 22:21 31.08.2022
395 Clouds 9 1010 75 10000 4.02 70 20:22 31.08.2022
396 Clouds 11 1010 76 10000 3.13 60 18:19 31.08.2022
397 Clouds 12 1011 71 10000 1 0 16:32 31.08.2022
398 Clouds 12 1011 62 10000 3.13 20 14:58 31.08.2022
399 Clouds 13 1011 66 10000 3.13 10 12:30 31.08.2022
400 Clouds 13 1011 66 10000 3.13 360 11:38 31.08.2022
401 Clouds 14 1011 62 10000 3.13 310 09:25 31.08.2022
402 Clear 12 1010 76 10000 4.02 340 06:35 31.08.2022
403 Clouds 10 1008 93 10000 3.13 330 01:25 31.08.2022
404 Clouds 13 1006 93 10000 4.02 330 21:49 30.08.2022
405 Clouds 14 1006 87 10000 4.02 330 21:21 30.08.2022
406 Rain 17 1005 94 9000 5 290 18:53 30.08.2022
407 Clouds 22 1005 60 10000 4 260 15:43 30.08.2022
408 Clear 23 1006 60 10000 7.15 270 13:30 30.08.2022
409 Clouds 23 1006 60 10000 9 260 11:22 30.08.2022
410 Clear 22 1006 68 10000 7.15 260 10:57 30.08.2022
411 Clouds 23 1007 60 10000 7.15 240 08:46 30.08.2022
412 Fog 13 1010 100 450 3.13 210 03:33 30.08.2022
413 Clouds 13 1012 93 10000 3.13 200 23:45 29.08.2022
414 Clouds 13 1013 93 10000 3.13 200 22:33 29.08.2022
415 Clouds 13 1013 93 10000 1 0 21:34 29.08.2022
416 Clouds 13 1014 87 10000 1 0 20:26 29.08.2022
417 Clear 11 1015 81 10000 2 140 17:58 29.08.2022
418 Clear 11 1015 81 10000 1 0 17:25 29.08.2022
419 Clear 12 1015 81 10000 2 70 16:50 29.08.2022
420 Clear 15 1015 54 10000 2 180 15:18 29.08.2022
421 Clear 16 1015 51 10000 2 190 13:34 29.08.2022
422 Clear 15 1015 47 10000 3.13 110 11:33 29.08.2022
423 Clear 15 1015 47 10000 4 80 10:39 29.08.2022
424 Clouds 14 1014 58 10000 3.13 90 08:38 29.08.2022
425 Clouds 12 1012 81 10000 4.02 70 05:58 29.08.2022
426 Rain 15 1008 93 10000 5 280 01:53 29.08.2022
427 Clouds 17 1007 72 10000 6 250 22:55 28.08.2022
428 Clear 17 1008 72 10000 5 250 21:45 28.08.2022
429 Clear 17 1009 67 10000 6 260 20:58 28.08.2022
430 Clear 17 1009 67 10000 6 250 19:44 28.08.2022
431 Clear 17 1011 67 10000 4.02 250 18:22 28.08.2022
432 Clear 18 1011 63 10000 6 250 17:45 28.08.2022
433 Clear 19 1011 59 10000 7.15 260 16:33 28.08.2022
434 Clear 20 1012 56 10000 8.05 250 14:44 28.08.2022
435 Clear 20 1013 59 10000 7.15 260 12:49 28.08.2022
436 Clear 19 1013 63 10000 7.15 260 10:51 28.08.2022
437 Clear 18 1014 63 10000 7.15 260 09:57 28.08.2022
438 Clear 17 1014 67 10000 7.15 260 08:39 28.08.2022
439 Clear 17 1014 63 10000 8.05 260 07:48 28.08.2022
440 Clear 12 1015 81 10000 5 260 03:32 28.08.2022
441 Clear 13 1016 76 10000 5 280 00:31 28.08.2022
442 Clear 13 1016 76 10000 4.02 280 22:41 27.08.2022
443 Clear 14 1016 71 10000 5 290 21:58 27.08.2022
444 Clear 14 1017 67 10000 5 290 20:19 27.08.2022
445 Clear 13 1017 71 10000 6 270 18:41 27.08.2022
446 Clouds 14 1017 62 10000 5 250 15:53 27.08.2022
447 Clear 14 1017 58 10000 5 250 15:25 27.08.2022
448 Clouds 15 1018 51 10000 7.15 300 12:31 27.08.2022
449 Clouds 14 1018 54 10000 8.05 310 11:53 27.08.2022
450 Clouds 13 1018 62 10000 7.15 300 09:51 27.08.2022
451 Clouds 14 1018 58 10000 7.15 290 08:45 27.08.2022
452 Clear 10 1018 76 10000 5 300 04:39 27.08.2022
453 Clear 7 1016 93 10000 4.02 310 00:20 27.08.2022
454 Clear 7 1016 93 10000 4.02 290 23:23 26.08.2022
455 Clouds 8 1015 87 10000 3.13 300 21:39 26.08.2022
456 Clouds 10 1014 81 10000 4.02 330 19:25 26.08.2022
457 Clouds 11 1013 81 10000 6 340 17:29 26.08.2022
458 Clouds 13 1010 93 8000 5 320 15:35 26.08.2022
459 Clouds 13 1010 93 10000 5 310 14:44 26.08.2022
460 Rain 13 1009 93 9000 5 270 12:54 26.08.2022
461 Rain 12 1009 100 6000 4.02 230 11:37 26.08.2022
462 Rain 12 1010 100 5000 4.02 230 10:47 26.08.2022
463 Clouds 12 1013 81 10000 4.02 200 07:32 26.08.2022
464 Clear 11 1017 81 10000 3.13 250 02:31 26.08.2022
465 Clear 11 1018 81 10000 1 240 23:44 25.08.2022
466 Clear 12 1019 76 10000 1 270 21:40 25.08.2022
467 Clear 11 1019 81 10000 1 290 20:51 25.08.2022
468 Clear 12 1020 76 10000 1 0 19:20 25.08.2022
469 Clear 12 1020 76 10000 2 320 18:18 25.08.2022
470 Clear 14 1019 67 10000 2 320 17:31 25.08.2022
471 Clouds 16 1019 55 10000 2 350 15:54 25.08.2022
472 Clouds 16 1019 55 10000 3.13 330 15:27 25.08.2022
473 Clouds 17 1019 55 10000 6 350 12:40 25.08.2022
474 Clear 18 1018 51 10000 6 340 10:48 25.08.2022
475 Clear 18 1018 51 10000 7.15 340 09:20 25.08.2022
476 Clear 18 1016 55 10000 5 360 05:39 25.08.2022
477 Clear 18 1015 88 10000 3 320 01:42 25.08.2022
478 Thunderstorm 18 1014 93 10000 4.02 280 23:26 24.08.2022
479 Clear 20 1015 77 10000 5 260 22:23 24.08.2022
480 Clear 20 1015 72 10000 5 270 21:36 24.08.2022
481 Clear 20 1015 72 10000 5 250 20:55 24.08.2022
482 Clear 20 1016 72 10000 4.02 240 19:19 24.08.2022
483 Clear 22 1017 68 10000 4.02 240 16:47 24.08.2022
484 Clear 23 1017 64 10000 4.02 240 15:52 24.08.2022
485 Clouds 24 1019 53 9000 6 250 13:40 24.08.2022
486 Clouds 25 1020 47 10000 7.15 240 11:50 24.08.2022
487 Clouds 25 1021 50 10000 7.15 250 09:39 24.08.2022
488 Clear 24 1022 60 10000 6 240 08:25 24.08.2022
489 Clouds 16 1023 100 6000 3.13 250 02:57 24.08.2022
490 Mist 17 1024 93 7000 2 250 23:34 23.08.2022
491 Mist 16 1024 100 1900 1 250 22:32 23.08.2022
492 Fog 16 1024 93 1100 1 250 21:34 23.08.2022
493 Fog 16 1025 100 250 2 250 20:21 23.08.2022
494 Fog 17 1025 93 2900 2 250 18:46 23.08.2022
495 Clouds 18 1025 93 9000 2 250 17:49 23.08.2022
496 Clear 20 1025 82 10000 3.13 250 16:54 23.08.2022
497 Clouds 22 1025 73 10000 4.02 240 15:39 23.08.2022
498 Clouds 22 1025 73 10000 2 260 13:29 23.08.2022
499 Clouds 23 1026 64 10000 2 160 11:33 23.08.2022
500 Clouds 22 1026 73 10000 2 190 10:48 23.08.2022
501 Clouds 22 1026 68 10000 3.13 190 10:24 23.08.2022
502 Clouds 19 1026 82 10000 1 0 08:52 23.08.2022
503 Clouds 19 1026 82 10000 2 300 08:21 23.08.2022
504 Clouds 19 1026 82 10000 4.02 280 07:38 23.08.2022
505 Clouds 18 1026 88 10000 3.13 290 06:28 23.08.2022
506 Clouds 16 1026 93 10000 2 270 04:38 23.08.2022
507 Clouds 12 1025 100 10000 0 0 00:28 23.08.2022
508 Clouds 11 1025 100 10000 0 0 23:37 22.08.2022
509 Clouds 12 1024 93 10000 1 260 22:44 22.08.2022
510 Clear 11 1024 100 10000 0 0 21:29 22.08.2022
511 Clear 12 1024 93 10000 0 0 19:48 22.08.2022
512 Clear 13 1025 93 10000 0 0 19:18 22.08.2022
513 Clouds 16 1024 82 10000 1.79 290 17:22 22.08.2022
514 Clear 18 1024 72 10000 2 350 15:39 22.08.2022
515 Clear 18 1023 67 10000 4.02 300 14:31 22.08.2022
516 Clouds 18 1024 63 10000 3.13 270 10:43 22.08.2022
517 Clear 15 1025 67 10000 2 250 07:59 22.08.2022
518 Clear 10 1025 93 10000 1 0 04:25 22.08.2022
519 Clouds 5 1024 100 10000 1.79 300 00:43 22.08.2022
520 Clouds 5 1024 93 10000 1 300 00:24 22.08.2022
521 Clouds 6 1023 93 10000 1 300 22:53 21.08.2022
522 Clear 6 1023 100 10000 1 0 21:28 21.08.2022
523 Clear 7 1024 87 10000 0 0 20:56 21.08.2022
524 Clear 9 1023 87 10000 2 360 19:26 21.08.2022
525 Clear 12 1023 76 10000 1 320 17:35 21.08.2022
526 Clear 13 1023 67 10000 2 360 15:53 21.08.2022
527 Clear 13 1023 66 10000 2 330 15:21 21.08.2022
528 Clouds 13 1023 62 10000 3.13 340 13:52 21.08.2022
529 Clouds 13 1023 62 10000 4.02 340 13:28 21.08.2022
530 Clouds 13 1023 71 10000 4 340 11:39 21.08.2022
531 Clouds 11 1024 71 10000 4.02 360 09:31 21.08.2022
532 Clouds 12 1024 66 10000 5 350 08:56 21.08.2022
533 Clouds 12 1024 66 10000 4.92 350 08:38 21.08.2022
534 Clouds 11 1024 71 10000 5 360 07:26 21.08.2022
535 Clouds 10 1023 81 10000 3.13 340 03:40 21.08.2022
536 Clouds 9 1022 76 10000 2 310 00:22 21.08.2022
537 Clouds 10 1022 76 10000 2 340 22:37 20.08.2022
538 Clouds 11 1022 71 10000 3.13 360 21:34 20.08.2022
539 Clouds 11 1022 81 10000 3.13 350 20:28 20.08.2022
540 Clouds 11 1022 81 10000 2 340 19:40 20.08.2022
541 Clouds 12 1022 71 10000 3.13 10 18:29 20.08.2022
542 Clouds 12 1022 76 10000 3 10 17:40 20.08.2022
543 Clouds 13 1021 66 10000 3.13 10 16:49 20.08.2022
544 Clouds 14 1020 62 10000 6 360 15:26 20.08.2022
545 Clouds 14 1020 71 10000 6 360 13:24 20.08.2022
546 Clouds 14 1019 82 10000 7.15 360 11:49 20.08.2022
547 Clouds 13 1019 81 10000 5 350 09:34 20.08.2022
548 Clouds 12 1018 87 10000 6 360 08:29 20.08.2022
549 Mist 14 1017 93 3300 6 350 05:51 20.08.2022
550 Clouds 12 1017 93 10000 3.13 210 00:58 20.08.2022
551 Clouds 12 1017 93 10000 3.13 210 00:58 20.08.2022
552 Clouds 12 1018 93 10000 4.02 250 00:30 20.08.2022
553 Clouds 12 1018 93 10000 3.13 240 22:59 19.08.2022
554 Rain 12 1018 93 10000 3.13 250 21:40 19.08.2022
555 Clouds 12 1019 93 10000 3.13 280 19:54 19.08.2022
556 Clouds 13 1020 81 10000 3.13 330 16:47 19.08.2022
557 Clouds 13 1020 81 10000 3.13 330 14:54 19.08.2022
558 Clouds 13 1020 76 10000 4.02 330 12:49 19.08.2022
559 Clouds 13 1020 71 10000 5 360 10:44 19.08.2022
560 Clouds 12 1020 76 10000 4.02 350 09:59 19.08.2022
561 Clouds 10 1021 93 10000 4.02 340 05:58 19.08.2022
562 Clouds 12 1021 87 10000 5 340 00:48 19.08.2022
563 Clouds 12 1021 87 10000 4.02 340 00:23 19.08.2022
564 Clouds 13 1021 81 10000 5 340 23:28 18.08.2022
565 Clouds 13 1021 87 10000 4.02 340 22:37 18.08.2022
566 Clouds 13 1021 81 10000 3.13 320 21:53 18.08.2022
567 Clouds 13 1021 81 10000 3.13 340 21:23 18.08.2022
568 Clouds 12 1021 87 10000 3.13 320 19:54 18.08.2022
569 Clear 12 1021 87 10000 4.02 310 19:24 18.08.2022
570 Clouds 13 1021 82 10000 3 320 17:46 18.08.2022
571 Clouds 14 1021 71 10000 3.13 320 16:25 18.08.2022
572 Clouds 15 1021 62 10000 4.02 330 14:22 18.08.2022
573 Clouds 14 1021 67 10000 4.02 350 13:45 18.08.2022
574 Clouds 13 1021 71 10000 4.02 350 12:31 18.08.2022
575 Clouds 13 1021 71 10000 5 350 11:21 18.08.2022
576 Clouds 12 1021 71 10000 3.13 10 09:43 18.08.2022
577 Clouds 11 1020 81 10000 3.13 350 07:57 18.08.2022
578 Clouds 10 1019 81 10000 3.13 300 06:43 18.08.2022
579 Clouds 7 1018 100 10000 3.13 280 02:59 18.08.2022
580 Clear 7 1017 93 10000 3.13 300 22:51 17.08.2022
581 Clear 8 1017 87 10000 3.13 290 21:26 17.08.2022
582 Clear 9 1017 81 10000 2 330 19:59 17.08.2022
583 Clouds 10 1016 81 10000 4.92 350 18:39 17.08.2022
584 Clouds 11 1016 71 10000 4.02 340 17:27 17.08.2022
585 Clouds 11 1016 66 10000 4.02 360 16:20 17.08.2022
586 Clouds 12 1016 62 10000 5 350 14:46 17.08.2022
587 Clouds 12 1015 54 10000 7.15 350 12:36 17.08.2022
588 Clouds 13 1015 54 10000 7.15 350 11:36 17.08.2022
589 Clouds 12 1015 54 10000 7.15 350 09:29 17.08.2022
590 Clouds 11 1014 66 10000 6 350 07:28 17.08.2022
591 Clouds 8 1013 81 10000 4.02 350 01:45 17.08.2022
592 Rain 10 1012 93 10000 6 350 23:33 16.08.2022
593 Rain 10 1012 93 10000 4.02 10 21:48 16.08.2022
594 Clouds 9 1011 93 10000 3.13 300 20:25 16.08.2022
595 Clear 8 1011 93 10000 3.13 300 19:40 16.08.2022
596 Clouds 10 1011 87 10000 4.02 300 17:56 16.08.2022
597 Clear 11 1011 81 10000 3.13 300 17:24 16.08.2022
598 Rain 13 1011 66 10000 5 330 15:45 16.08.2022
599 Clouds 13 1011 71 10000 5 300 14:55 16.08.2022
600 Clouds 13 1011 76 10000 4.02 300 14:36 16.08.2022
601 Clouds 13 1011 66 10000 6 340 12:40 16.08.2022
602 Clouds 12 1011 93 10000 4.02 290 10:29 16.08.2022
603 Rain 11 1011 93 10000 4.02 250 09:29 16.08.2022
604 Rain 12 1011 81 9000 2 250 08:26 16.08.2022
605 Clouds 11 1011 81 10000 3.13 280 07:20 16.08.2022
606 Clear 8 1012 87 10000 3.13 280 01:20 16.08.2022
607 Clear 10 1013 76 10000 3.13 290 22:29 15.08.2022
608 Clear 10 1013 76 10000 2 290 21:51 15.08.2022
609 Clear 10 1013 76 10000 3.13 290 20:39 15.08.2022
610 Clear 10 1014 76 10000 3.13 290 20:00 15.08.2022
611 Clear 11 1014 71 10000 3.13 290 18:20 15.08.2022
612 Clear 12 1014 62 10000 3.13 320 16:26 15.08.2022
613 Clear 13 1014 58 10000 4.02 320 15:55 15.08.2022
614 Clear 13 1013 54 10000 9 340 13:54 15.08.2022
615 Clouds 13 1013 50 10000 10 320 12:24 15.08.2022
616 Clouds 12 1012 57 10000 10 330 09:54 15.08.2022
617 Clouds 11 1011 61 10000 10 320 08:21 15.08.2022
618 Clouds 10 1010 61 10000 10 330 04:36 15.08.2022
619 Clear 9 1008 81 10000 6 300 01:26 15.08.2022
620 Clouds 10 1008 81 10000 6 310 22:39 14.08.2022
621 Clouds 11 1007 76 10000 6 320 21:38 14.08.2022
622 Clouds 12 1007 71 10000 6 310 19:54 14.08.2022
623 Clouds 13 1007 66 10000 5 300 18:58 14.08.2022
624 Clouds 13 1007 66 10000 5 310 18:19 14.08.2022
625 Clouds 13 1007 66 10000 6 310 16:53 14.08.2022
626 Clouds 14 1006 62 10000 9 320 15:48 14.08.2022
627 Clouds 15 1006 62 10000 8.05 300 14:27 14.08.2022
628 Rain 14 1006 67 10000 8.05 330 13:50 14.08.2022
629 Clouds 15 1005 67 10000 9 300 13:19 14.08.2022
630 Clouds 15 1005 67 10000 10 320 12:23 14.08.2022
631 Clouds 15 1004 62 10000 10 300 10:49 14.08.2022
632 Clouds 15 1003 67 10000 9 300 08:50 14.08.2022
633 Clouds 15 1002 72 10000 9 310 06:22 14.08.2022
634 Clouds 13 1000 81 10000 6 300 02:48 14.08.2022
635 Clouds 13 999 81 10000 6 320 23:53 13.08.2022
636 Clouds 13 998 87 10000 6 320 22:52 13.08.2022
637 Rain 14 997 93 10000 7.15 330 20:58 13.08.2022
638 Rain 14 997 100 8000 6 330 20:33 13.08.2022
639 Rain 14 997 100 9000 6 290 19:37 13.08.2022
640 Rain 13 997 93 10000 4.02 280 17:42 13.08.2022
641 Clouds 17 997 82 10000 3.13 250 15:26 13.08.2022
642 Clouds 17 997 82 10000 3.13 240 14:27 13.08.2022
643 Clouds 17 997 82 10000 3.13 240 13:39 13.08.2022
644 Rain 15 998 82 9000 6 290 11:52 13.08.2022
645 Rain 16 998 88 10000 4 230 10:21 13.08.2022
646 Clouds 16 999 87 9000 3.13 260 08:23 13.08.2022
647 Clouds 15 1000 93 6000 3.13 230 05:22 13.08.2022
648 Clouds 17 1003 93 8000 1.79 230 23:52 12.08.2022
649 Clouds 17 1004 93 8000 2 240 21:42 12.08.2022
650 Clouds 17 1004 93 10000 2 230 20:53 12.08.2022
651 Clouds 17 1005 100 10000 2 210 19:40 12.08.2022
652 Clouds 17 1006 100 6000 2 210 18:46 12.08.2022
653 Clouds 17 1006 93 10000 2 190 17:21 12.08.2022
654 Rain 18 1007 100 8000 1 0 15:49 12.08.2022
655 Clouds 18 1007 93 10000 1 0 14:41 12.08.2022
656 Thunderstorm 23 1007 56 10000 5 160 12:55 12.08.2022
657 Clear 24 1009 46 10000 5 150 10:44 12.08.2022
658 Clear 21 1011 52 10000 5 150 07:50 12.08.2022
659 Clear 20 1013 52 10000 5 150 06:39 12.08.2022
660 Clear 15 1015 67 10000 3 120 02:39 12.08.2022
661 Clear 15 1015 67 10000 3.13 130 00:26 12.08.2022
662 Clear 16 1016 63 10000 2 130 23:35 11.08.2022
663 Clear 17 1016 59 10000 2 140 22:27 11.08.2022
664 Clear 16 1016 67 10000 4.02 140 21:43 11.08.2022
665 Clear 16 1016 67 10000 2 120 20:51 11.08.2022
666 Clear 17 1017 67 10000 3.13 120 20:19 11.08.2022
667 Clear 17 1017 67 10000 3.13 120 19:32 11.08.2022
668 Clear 18 1017 63 10000 3.13 110 17:48 11.08.2022
669 Clouds 21 1017 52 10000 3.13 120 16:35 11.08.2022
670 Clear 22 1017 46 10000 4.02 130 15:24 11.08.2022
671 Clear 23 1018 38 10000 2 130 13:37 11.08.2022
672 Clear 23 1019 38 10000 3.13 160 10:27 11.08.2022
673 Clear 22 1020 40 10000 3.13 90 07:38 11.08.2022
674 Clear 15 1020 76 10000 2 40 03:54 11.08.2022
675 Clear 14 1020 71 10000 4.02 30 00:50 11.08.2022
676 Clear 15 1021 67 10000 3.13 20 22:32 10.08.2022
677 Clear 16 1021 63 10000 3.13 20 21:25 10.08.2022
678 Clear 16 1020 63 10000 4.02 20 20:55 10.08.2022
679 Clear 17 1020 63 10000 3.13 20 19:31 10.08.2022
680 Clear 18 1020 59 10000 3 10 18:22 10.08.2022
681 Clear 22 1020 43 10000 3 20 16:41 10.08.2022
682 Clouds 23 1020 38 10000 6 50 13:36 10.08.2022
683 Clouds 23 1020 38 10000 5 30 12:44 10.08.2022
684 Clear 23 1020 38 10000 6 30 09:25 10.08.2022
685 Clear 22 1020 40 10000 7.15 50 08:34 10.08.2022
686 Clear 22 1020 40 10000 6 30 07:19 10.08.2022
687 Clear 17 1019 82 10000 4.02 20 03:28 10.08.2022
688 Clear 18 1017 88 10000 3.13 10 23:34 09.08.2022
689 Clear 18 1017 88 10000 3.13 10 22:56 09.08.2022
690 Clouds 19 1017 88 10000 3.13 30 21:36 09.08.2022
691 Clouds 20 1017 82 10000 4.02 10 20:30 09.08.2022
692 Haze 22 1016 83 1300 5 360 18:44 09.08.2022
693 Haze 23 1016 83 1000 4.02 350 17:28 09.08.2022
694 Haze 23 1016 83 1000 4.02 350 17:28 09.08.2022
695 Haze 24 1016 73 3300 4.02 10 16:41 09.08.2022
696 Haze 25 1015 65 4400 3.13 20 15:58 09.08.2022
697 Clouds 29 1016 45 6000 5 320 12:52 09.08.2022
698 Clouds 29 1016 42 10000 4.02 310 09:39 09.08.2022
699 Clouds 29 1016 45 10000 4.02 290 08:50 09.08.2022
700 Clouds 29 1016 45 10000 3.13 280 07:53 09.08.2022
701 Clouds 20 1017 82 8000 2 290 04:25 09.08.2022
702 Clear 17 1017 93 10000 2 290 23:27 08.08.2022
703 Clear 18 1017 88 10000 1 290 22:55 08.08.2022
704 Clear 19 1017 82 10000 1 310 22:18 08.08.2022
705 Clear 19 1017 82 10000 2 260 21:18 08.08.2022
706 Clear 20 1017 82 10000 3.13 280 19:51 08.08.2022
707 Clear 22 1017 73 10000 3.13 270 18:50 08.08.2022
708 Clear 26 1017 53 10000 4 250 16:44 08.08.2022
709 Clear 28 1017 44 10000 3 300 15:40 08.08.2022
710 Clear 29 1018 39 10000 3.13 300 13:55 08.08.2022
711 Clear 28 1018 42 10000 3.13 310 12:19 08.08.2022
712 Clear 27 1019 44 10000 3.13 260 09:46 08.08.2022
713 Clear 22 1019 56 10000 2 270 05:54 08.08.2022
714 Clear 14 1019 88 10000 1 0 02:56 08.08.2022
715 Clear 14 1018 82 10000 1 0 22:42 07.08.2022
716 Clear 14 1018 82 10000 1 310 21:40 07.08.2022
717 Clear 15 1018 82 10000 1 20 20:26 07.08.2022
718 Clear 15 1018 82 10000 1 20 20:26 07.08.2022
719 Clear 16 1018 77 10000 0 0 19:56 07.08.2022
720 Clear 16 1018 77 10000 1 0 19:38 07.08.2022
721 Clear 19 1017 63 10000 2 20 18:23 07.08.2022
722 Clear 22 1017 53 10000 3 10 16:54 07.08.2022
723 Clear 23 1017 49 10000 4 360 16:35 07.08.2022
724 Clear 23 1017 49 10000 4 360 16:35 07.08.2022
725 Clear 23 1017 49 10000 5 350 15:20 07.08.2022
726 Clouds 23 1017 46 10000 5 10 13:26 07.08.2022
727 Clouds 23 1017 46 10000 6 350 11:54 07.08.2022
728 Clouds 24 1017 46 10000 7.15 340 10:34 07.08.2022
729 Clouds 22 1018 60 10000 4.02 350 07:36 07.08.2022
730 Clear 18 1017 82 10000 3.13 350 03:20 07.08.2022
731 Clear 16 1016 93 10000 3.13 360 00:31 07.08.2022
732 Clear 16 1016 93 10000 3.13 340 22:24 06.08.2022
733 Clear 17 1016 93 10000 2 340 20:42 06.08.2022
734 Clear 18 1016 88 10000 1.79 340 19:41 06.08.2022
735 Clear 18 1015 88 10000 2 10 18:28 06.08.2022
736 Clear 20 1015 82 10000 2 60 17:31 06.08.2022
737 Thunderstorm 22 1014 73 10000 2 100 14:43 06.08.2022
738 Clouds 23 1014 68 10000 3.13 110 13:44 06.08.2022
739 Clouds 24 1014 60 10000 2 270 11:33 06.08.2022
740 Clouds 24 1014 57 10000 2 200 09:51 06.08.2022
741 Clouds 23 1015 60 10000 3.13 260 08:32 06.08.2022
742 Mist 18 1015 88 3600 2 260 03:51 06.08.2022
743 Mist 15 1016 93 4800 0 0 23:34 05.08.2022
744 Mist 16 1016 87 5000 0 0 22:22 05.08.2022
745 Clouds 17 1016 88 7000 0 0 19:33 05.08.2022
746 Clouds 18 1016 82 7000 0 0 18:44 05.08.2022
747 Clouds 20 1016 73 8000 0 0 17:54 05.08.2022
748 Clouds 21 1016 68 8000 0 0 16:49 05.08.2022
749 Clouds 21 1016 68 8000 0 0 16:49 05.08.2022
750 Clouds 23 1016 56 10000 2 310 15:22 05.08.2022
751 Clouds 23 1016 56 9000 2 300 14:19 05.08.2022
752 Clouds 22 1016 60 10000 1 320 13:23 05.08.2022
753 Clouds 23 1017 60 7000 6 360 12:28 05.08.2022
754 Clouds 25 1016 53 10000 4.02 290 10:49 05.08.2022
755 Clouds 24 1017 53 10000 4.02 260 08:25 05.08.2022
756 Clouds 22 1017 60 10000 3 260 06:41 05.08.2022
757 Clouds 15 1018 87 6000 3.13 280 00:30 05.08.2022
758 Clouds 16 1018 87 6000 3.13 280 22:29 04.08.2022
759 Clouds 17 1018 82 7000 2 280 21:26 04.08.2022
760 Clouds 18 1018 77 7000 2 280 20:43 04.08.2022
761 Clouds 18 1019 72 10000 3.13 280 19:40 04.08.2022
762 Clear 20 1019 64 10000 3.13 280 18:36 04.08.2022
763 Clear 21 1019 64 10000 3.13 280 17:38 04.08.2022
764 Clear 26 1019 44 10000 5 230 14:18 04.08.2022
765 Clouds 26 1019 36 10000 4.02 300 12:57 04.08.2022
766 Smoke 27 1020 36 5000 6 300 11:18 04.08.2022
767 Clear 25 1021 41 10000 4.02 250 07:53 04.08.2022
768 Clear 23 1021 46 10000 3.13 250 05:46 04.08.2022
769 Clear 13 1021 81 10000 1 280 02:33 04.08.2022
770 Clear 13 1022 81 10000 2 300 23:45 03.08.2022
771 Clear 13 1021 87 10000 1 300 22:55 03.08.2022
772 Clear 14 1021 82 10000 2 290 20:50 03.08.2022
773 Clear 16 1021 72 10000 0 0 19:46 03.08.2022
774 Clear 19 1021 59 10000 3.13 340 18:37 03.08.2022
775 Clear 23 1021 43 10000 3 340 16:25 03.08.2022
776 Clear 24 1021 41 10000 4.02 330 15:32 03.08.2022
777 Clear 24 1022 38 10000 4.92 330 12:41 03.08.2022
778 Clear 23 1022 40 10000 6 10 08:54 03.08.2022
779 Clear 19 1022 63 10000 4.02 340 04:47 03.08.2022
780 Clear 15 1021 87 10000 3.13 340 03:37 03.08.2022
781 Clear 13 1021 93 10000 2 310 01:45 03.08.2022
782 Clear 13 1021 87 10000 2 310 23:27 02.08.2022
783 Clear 14 1020 82 10000 2 350 21:55 02.08.2022
784 Clear 14 1020 82 10000 3.13 340 21:33 02.08.2022
785 Clear 15 1020 76 10000 3.13 330 19:38 02.08.2022
786 Clear 20 1019 49 10000 4 350 16:42 02.08.2022
787 Clear 21 1019 43 10000 6 350 13:21 02.08.2022
788 Clear 20 1019 42 10000 5 350 09:53 02.08.2022
789 Clear 18 1019 48 10000 5 10 08:26 02.08.2022
790 Clouds 18 1019 51 10000 4.02 10 07:50 02.08.2022
791 Clear 15 1019 62 10000 4.02 20 04:56 02.08.2022
792 Clouds 12 1018 76 10000 3.13 20 01:26 02.08.2022
793 Clear 10 1018 81 10000 3.13 40 23:21 01.08.2022
794 Clear 12 1017 76 10000 4.02 60 21:19 01.08.2022
795 Clear 14 1017 67 10000 3.13 20 19:44 01.08.2022
796 Clear 15 1016 62 10000 2 20 18:53 01.08.2022
797 Clear 18 1016 51 10000 4.02 30 16:55 01.08.2022
798 Clear 18 1016 51 10000 4.02 30 16:55 01.08.2022
799 Clear 18 1016 51 10000 4.02 30 16:55 01.08.2022
800 Clear 19 1016 45 10000 5 20 16:29 01.08.2022
801 Clear 19 1016 45 10000 4.02 20 15:33 01.08.2022
802 Clear 20 1016 42 10000 5 30 14:44 01.08.2022
803 Clear 20 1016 45 10000 5 30 12:57 01.08.2022
804 Clear 20 1016 45 10000 5 20 10:47 01.08.2022
805 Clear 19 1016 45 10000 6 10 08:45 01.08.2022
806 Clouds 17 1017 55 10000 5 50 06:50 01.08.2022
807 Clear 14 1017 62 10000 6 60 04:30 01.08.2022
808 Clear 10 1016 87 10000 4.02 20 00:56 01.08.2022
809 Clear 12 1015 76 10000 3.13 40 22:42 31.07.2022
810 Clear 13 1015 71 10000 3.13 30 22:18 31.07.2022
811 Clear 14 1015 67 10000 4.02 40 20:21 31.07.2022
812 Clear 16 1015 58 10000 4.02 50 18:38 31.07.2022
813 Clear 18 1014 51 10000 5 60 16:22 31.07.2022
814 Clear 19 1014 52 10000 6 40 13:59 31.07.2022
815 Clear 20 1014 49 10000 6 50 12:43 31.07.2022
816 Clear 19 1014 48 10000 7.15 50 10:53 31.07.2022
817 Clear 19 1014 48 10000 7.15 50 08:29 31.07.2022
818 Clouds 18 1013 72 10000 6 30 04:46 31.07.2022
819 Clear 20 1011 77 10000 5 40 00:56 31.07.2022
820 Clear 21 1011 64 10000 4.02 30 22:20 30.07.2022
821 Clear 20 1011 68 10000 3.13 20 21:50 30.07.2022
822 Clear 20 1011 68 10000 4.02 20 21:24 30.07.2022
823 Clear 21 1011 64 10000 3.13 20 20:24 30.07.2022
824 Clear 22 1011 60 10000 3 30 19:42 30.07.2022
825 Clear 24 1010 50 10000 3 30 17:52 30.07.2022
826 Clear 26 1010 44 10000 5 50 16:37 30.07.2022
827 Clouds 27 1010 39 10000 5 40 15:29 30.07.2022
828 Clouds 28 1011 34 10000 6 40 13:22 30.07.2022
829 Clouds 28 1011 34 10000 6 50 12:21 30.07.2022
830 Clouds 28 1011 34 10000 5 40 10:44 30.07.2022
831 Clouds 27 1011 36 10000 6 40 09:59 30.07.2022
832 Clear 27 1011 41 10000 5 360 08:49 30.07.2022
833 Clear 26 1012 50 10000 5 350 06:55 30.07.2022
834 Clear 19 1013 82 10000 3.13 350 02:33 30.07.2022
835 Clear 19 1013 82 10000 3.13 340 23:30 29.07.2022
836 Clear 20 1014 77 10000 3.13 340 21:36 29.07.2022
837 Clear 20 1014 77 10000 3.13 340 20:50 29.07.2022
838 Clear 21 1014 68 10000 3.13 340 19:34 29.07.2022
839 Clear 25 1014 50 10000 3 20 16:44 29.07.2022
840 Clear 26 1015 41 10000 5 360 14:38 29.07.2022
841 Clear 26 1015 41 10000 6 360 12:41 29.07.2022
842 Clear 23 1017 49 10000 4.02 20 08:52 29.07.2022
843 Clear 23 1017 49 10000 4.02 20 08:22 29.07.2022
844 Clear 19 1018 59 10000 4.02 60 04:39 29.07.2022
845 Clear 14 1017 82 10000 3.13 30 23:46 28.07.2022
846 Clear 15 1017 76 10000 3.13 40 21:38 28.07.2022
847 Clear 16 1017 72 10000 3.13 20 20:50 28.07.2022
848 Clear 16 1017 72 10000 3.13 20 20:18 28.07.2022
849 Clear 16 1016 77 10000 3.13 30 19:26 28.07.2022
850 Clear 18 1016 67 10000 2 50 17:46 28.07.2022
851 Clear 19 1016 63 10000 2 60 17:20 28.07.2022
852 Clouds 20 1016 56 10000 4 40 16:40 28.07.2022
853 Clouds 21 1016 49 10000 4.02 30 13:56 28.07.2022
854 Clouds 22 1016 49 10000 4.92 20 12:39 28.07.2022
855 Clouds 19 1016 59 10000 4.92 30 07:46 28.07.2022
856 Clear 17 1016 67 10000 6 30 05:39 28.07.2022
857 Clear 17 1016 67 10000 6 50 05:20 28.07.2022
858 Clear 13 1014 81 10000 3.13 30 23:20 27.07.2022
859 Clear 14 1013 76 10000 3.13 20 21:30 27.07.2022
860 Clear 15 1013 72 10000 4.02 20 19:53 27.07.2022
861 Clear 16 1013 67 10000 3.13 10 19:20 27.07.2022
862 Clouds 19 1012 55 10000 4.02 350 16:31 27.07.2022
863 Clouds 19 1012 55 10000 5 350 15:51 27.07.2022
864 Clouds 20 1011 49 10000 5 350 14:41 27.07.2022
865 Clouds 20 1011 49 10000 6 350 13:34 27.07.2022
866 Clear 20 1009 49 10000 6 350 09:29 27.07.2022
867 Clear 19 1009 55 10000 6 350 07:47 27.07.2022
868 Clouds 17 1008 77 10000 5 340 04:53 27.07.2022
869 Clouds 17 1004 88 10000 3 330 23:21 26.07.2022
870 Clouds 17 1004 88 10000 4.02 340 21:52 26.07.2022
871 Clouds 17 1004 93 10000 2 300 20:49 26.07.2022
872 Clouds 17 1004 93 10000 1 0 19:22 26.07.2022
873 Clouds 18 1004 88 10000 3 300 18:40 26.07.2022
874 Clouds 20 1004 88 10000 2 220 17:54 26.07.2022
875 Clouds 20 1004 93 10000 1 0 15:43 26.07.2022
876 Clouds 22 1004 73 10000 4.02 160 14:43 26.07.2022
877 Clouds 24 1004 60 10000 2 200 12:32 26.07.2022
878 Clouds 24 1004 64 10000 1 0 10:20 26.07.2022
879 Clear 21 1005 73 10000 3.13 180 08:27 26.07.2022
880 Clear 15 1005 100 10000 1 0 01:52 26.07.2022
881 Clear 15 1005 100 10000 2 150 00:20 26.07.2022
882 Clear 14 1006 87 10000 1 0 22:40 25.07.2022
883 Clear 15 1005 87 10000 3.13 90 21:43 25.07.2022
884 Clear 15 1005 82 10000 2 50 20:43 25.07.2022
885 Clear 15 1005 87 10000 0 0 20:24 25.07.2022
886 Clear 17 1006 77 10000 2 30 19:24 25.07.2022
887 Clouds 20 1005 64 10000 2 10 17:42 25.07.2022
888 Clouds 21 1005 60 10000 2 360 17:20 25.07.2022
889 Clouds 23 1004 56 10000 4.02 230 13:27 25.07.2022
890 Clouds 23 1003 49 10000 5 220 10:54 25.07.2022
891 Clear 21 1003 52 10000 5 220 07:53 25.07.2022
892 Clear 11 1002 87 10000 2 280 00:57 25.07.2022
893 Clear 11 1001 93 10000 3.13 280 23:45 24.07.2022
894 Clear 12 1001 87 10000 3.13 280 22:44 24.07.2022
895 Clear 14 1001 76 10000 3.13 280 21:42 24.07.2022
896 Clear 13 1000 81 10000 3.13 280 20:59 24.07.2022
897 Clear 13 1000 81 10000 3.13 280 20:41 24.07.2022
898 Clear 13 1000 81 10000 2 290 19:20 24.07.2022
899 Clear 17 1000 63 10000 2 310 17:57 24.07.2022
900 Clear 19 999 55 10000 6 320 15:55 24.07.2022
901 Clear 20 999 49 10000 7 310 14:47 24.07.2022
902 Clear 20 998 49 10000 8 320 13:49 24.07.2022
903 Clear 20 998 45 10000 7 320 12:28 24.07.2022
904 Clouds 19 998 52 10000 8.05 320 11:30 24.07.2022
905 Clouds 16 997 77 10000 4.02 330 09:48 24.07.2022
906 Rain 12 997 93 9000 6 310 08:22 24.07.2022
907 Rain 13 997 81 10000 8.05 310 07:41 24.07.2022
908 Rain 12 998 87 10000 6 280 03:18 24.07.2022
909 Clouds 12 999 81 10000 4.02 280 23:25 23.07.2022
910 Clear 12 1000 81 10000 4.02 290 20:47 23.07.2022
911 Clouds 10 1000 93 10000 3.13 280 19:29 23.07.2022
912 Clouds 11 1000 87 10000 4 280 18:40 23.07.2022
913 Clouds 14 1001 71 10000 6 290 17:27 23.07.2022
914 Clear 14 1001 76 10000 5 290 16:24 23.07.2022
915 Clouds 13 1001 81 10000 4.02 310 15:22 23.07.2022
916 Clouds 15 1001 67 10000 5 320 14:52 23.07.2022
917 Clear 15 1001 62 10000 5 320 14:23 23.07.2022
918 Clouds 16 1001 58 10000 7.15 310 11:56 23.07.2022
919 Clouds 15 1001 62 10000 7.15 300 10:41 23.07.2022
920 Clouds 16 1001 55 10000 5.81 310 09:38 23.07.2022
921 Clouds 15 1001 58 10000 5 330 07:18 23.07.2022
922 Clear 13 1001 81 10000 1 0 03:37 23.07.2022
923 Clear 7 1001 93 10000 2 300 00:37 23.07.2022
924 Clear 11 1001 71 10000 3.13 10 21:36 22.07.2022
925 Clear 12 1001 66 10000 2 10 20:31 22.07.2022
926 Clouds 13 1001 66 10000 3.13 330 18:42 22.07.2022
927 Clear 16 1001 55 10000 3.13 340 17:40 22.07.2022
928 Clear 17 1001 48 10000 3.13 350 16:26 22.07.2022
929 Clear 18 1001 48 10000 3.13 340 13:24 22.07.2022
930 Clouds 18 1000 51 10000 4.02 340 10:23 22.07.2022
931 Clouds 17 1000 59 10000 3.13 330 09:24 22.07.2022
932 Clouds 17 1000 55 10000 4.02 340 07:58 22.07.2022
933 Clear 15 1000 72 10000 4.02 340 04:23 22.07.2022
934 Clear 12 1000 87 10000 3.13 350 23:43 21.07.2022
935 Clear 10 1000 81 10000 2 330 21:55 21.07.2022
936 Clear 13 1000 71 10000 2 350 20:28 21.07.2022
937 Clear 15 1000 58 10000 2 10 18:43 21.07.2022
938 Clear 19 1000 45 10000 3 20 17:22 21.07.2022
939 Clear 19 1000 48 10000 4.02 20 16:31 21.07.2022
940 Clear 20 1000 45 10000 6 20 14:49 21.07.2022
941 Clouds 21 999 43 10000 5 360 13:58 21.07.2022
942 Clouds 21 999 43 10000 5 360 13:58 21.07.2022
943 Clouds 21 999 46 10000 5 350 12:18 21.07.2022
944 Clouds 22 999 40 10000 4.02 20 10:21 21.07.2022
945 Clouds 23 999 35 10000 3.13 30 08:53 21.07.2022
946 Clouds 22 999 37 10000 3.13 340 08:18 21.07.2022
947 Clouds 22 999 40 10000 4 20 07:22 21.07.2022
948 Clear 16 1000 77 10000 3.13 30 03:25 21.07.2022
949 Clear 12 1001 87 10000 0 0 22:51 20.07.2022
950 Clear 13 1001 87 10000 0 0 22:20 20.07.2022
951 Clear 14 1001 82 10000 0 0 20:46 20.07.2022
952 Clear 15 1002 82 10000 1 330 19:47 20.07.2022
953 Clear 17 1002 72 10000 0 0 18:56 20.07.2022
954 Clear 18 1003 72 10000 0 0 18:31 20.07.2022
955 Clear 21 1003 52 10000 3 50 17:33 20.07.2022
956 Clear 23 1003 40 10000 3 40 15:38 20.07.2022
957 Clear 24 1003 38 10000 4.02 30 14:49 20.07.2022
958 Clouds 23 1004 40 10000 3.13 320 13:44 20.07.2022
959 Clear 23 1005 43 10000 0 0 11:29 20.07.2022
960 Clear 22 1007 46 10000 3.13 270 06:49 20.07.2022
961 Clear 12 1008 87 10000 0 0 01:58 20.07.2022
962 Clear 13 1008 87 10000 1 310 00:43 20.07.2022
963 Clear 13 1009 87 10000 2 270 22:39 19.07.2022
964 Clear 13 1009 88 10000 2 270 22:21 19.07.2022
965 Clear 15 1009 82 10000 2 340 20:50 19.07.2022
966 Clear 17 1009 67 10000 3.13 350 19:38 19.07.2022
967 Clear 19 1010 63 10000 2 330 18:43 19.07.2022
968 Clear 21 1010 52 10000 2 10 17:56 19.07.2022
969 Clear 23 1010 43 10000 4 30 15:50 19.07.2022
970 Clear 24 1010 38 10000 5.81 340 13:51 19.07.2022
971 Clouds 24 1010 38 10000 6 340 11:35 19.07.2022
972 Clouds 24 1010 41 10000 6 350 09:58 19.07.2022
973 Clouds 24 1011 43 10000 6 360 08:48 19.07.2022
974 Clouds 23 1011 43 10000 7.15 360 08:21 19.07.2022
975 Clear 23 1011 46 10000 6 350 07:18 19.07.2022
976 Clear 21 1011 56 10000 4.02 350 05:23 19.07.2022
977 Clear 21 1011 60 10000 4.02 360 04:40 19.07.2022
978 Clear 15 1011 87 10000 4.02 310 00:21 19.07.2022
979 Clear 16 1011 82 10000 3.13 310 23:21 18.07.2022
980 Clear 16 1011 82 10000 3.13 300 22:55 18.07.2022
981 Clear 15 1011 82 10000 3.13 290 21:50 18.07.2022
982 Clear 15 1011 82 10000 3.13 290 20:50 18.07.2022
983 Clear 16 1012 77 10000 2 300 19:24 18.07.2022
984 Clear 21 1012 49 10000 3.13 20 16:50 18.07.2022
985 Clear 23 1012 43 10000 4 10 15:42 18.07.2022
986 Clear 23 1012 43 10000 4.02 20 13:45 18.07.2022
987 Clouds 22 1011 46 10000 5 30 12:37 18.07.2022
988 Clear 23 1011 43 10000 7.15 360 10:34 18.07.2022
989 Clear 23 1011 43 10000 7.15 10 08:50 18.07.2022
990 Clear 23 1011 43 10000 6 350 06:54 18.07.2022
991 Clouds 17 1010 72 10000 4 320 23:31 17.07.2022
992 Clouds 17 1011 72 10000 3 320 22:32 17.07.2022
993 Clouds 17 1011 72 10000 3 310 21:47 17.07.2022
994 Clouds 17 1011 67 10000 3 310 20:55 17.07.2022
995 Clouds 17 1011 67 10000 3.13 310 20:36 17.07.2022
996 Clouds 17 1011 67 10000 1 0 19:28 17.07.2022
997 Clouds 19 1011 59 10000 5 90 18:26 17.07.2022
998 Clouds 20 1011 56 10000 2 340 17:38 17.07.2022
999 Clouds 20 1011 56 10000 3.13 350 16:50 17.07.2022
1000 Clouds 22 1011 43 10000 4 350 16:25 17.07.2022
1001 Clouds 24 1011 38 10000 6 340 14:32 17.07.2022
1002 Clouds 24 1011 41 10000 5 10 13:28 17.07.2022
1003 Clouds 23 1011 43 10000 5 360 10:59 17.07.2022
1004 Clouds 22 1012 43 10000 5.81 10 08:50 17.07.2022
1005 Clear 18 1012 63 10000 4.02 40 03:40 17.07.2022
1006 Clear 15 1012 76 10000 3.13 20 02:21 17.07.2022
1007 Clear 15 1011 76 10000 3.13 360 23:19 16.07.2022
1008 Clear 15 1011 76 10000 1 0 21:21 16.07.2022
1009 Clear 15 1011 76 10000 2 10 19:25 16.07.2022
1010 Clear 20 1011 52 10000 2 70 17:56 16.07.2022
1011 Clouds 21 1010 52 10000 4.02 100 16:31 16.07.2022
1012 Clouds 24 1009 38 10000 6 60 13:47 16.07.2022
1013 Clouds 25 1008 41 10000 5 10 10:50 16.07.2022
1014 Clouds 23 1009 49 10000 2 50 09:32 16.07.2022
1015 Clouds 22 1009 53 10000 3.13 60 08:43 16.07.2022
1016 Clouds 23 1010 49 10000 3 110 07:59 16.07.2022
1017 Clouds 19 1010 72 10000 2 90 03:41 16.07.2022
1018 Clear 17 1010 82 10000 3 90 02:40 16.07.2022
1019 Clouds 14 1011 93 10000 1 0 23:29 15.07.2022
1020 Clouds 15 1011 87 10000 3.13 90 22:39 15.07.2022
1021 Clear 16 1011 82 10000 2 120 21:28 15.07.2022
1022 Clear 16 1011 82 10000 3.13 90 20:24 15.07.2022
1023 Clear 19 1011 77 10000 2 70 18:37 15.07.2022
1024 Clear 21 1012 64 10000 2 120 17:36 15.07.2022
1025 Clear 22 1012 56 10000 2 170 14:48 15.07.2022
1026 Clear 21 1013 60 10000 2 200 12:49 15.07.2022
1027 Clouds 21 1013 60 10000 2 200 11:20 15.07.2022
1028 Clear 20 1014 59 10000 2 190 09:21 15.07.2022
1029 Clouds 17 1014 77 10000 2 230 05:56 15.07.2022
1030 Clear 12 1014 93 10000 1 70 00:53 15.07.2022
1031 Clear 12 1013 93 10000 0 0 00:21 15.07.2022
1032 Fog 13 1013 93 10000 0 0 22:45 14.07.2022
1033 Clear 14 1013 94 10000 0 0 21:43 14.07.2022
1034 Clear 15 1013 88 10000 0 0 21:25 14.07.2022
1035 Clear 15 1013 88 10000 0 0 20:43 14.07.2022
1036 Clear 16 1013 82 10000 2 190 20:19 14.07.2022
1037 Clear 18 1013 72 10000 2 190 18:42 14.07.2022
1038 Clear 19 1013 72 10000 3.13 170 16:22 14.07.2022
1039 Clear 20 1012 64 10000 4.02 130 15:29 14.07.2022
1040 Clouds 19 1012 72 10000 2 170 13:53 14.07.2022
1041 Clouds 19 1013 72 10000 3.13 170 12:53 14.07.2022
1042 Clouds 19 1013 72 10000 4.02 140 11:43 14.07.2022
1043 Clouds 18 1013 77 10000 4.02 160 11:22 14.07.2022
1044 Clouds 18 1013 82 10000 4.02 150 09:49 14.07.2022
1045 Rain 15 1012 93 10000 5 200 06:54 14.07.2022
1046 Clouds 16 1015 93 10000 2 220 01:24 14.07.2022
1047 Clouds 16 1016 93 10000 2 210 00:53 14.07.2022
1048 Clear 16 1016 87 10000 0 0 22:33 13.07.2022
1049 Clear 17 1017 82 10000 1 0 21:56 13.07.2022
1050 Clear 16 1017 82 10000 3.13 270 20:53 13.07.2022
1051 Clear 17 1017 77 10000 2 280 19:30 13.07.2022
1052 Clear 19 1017 68 10000 3 260 17:51 13.07.2022
1053 Clear 21 1017 60 10000 4 270 16:39 13.07.2022
1054 Clear 21 1018 56 10000 3.13 290 15:24 13.07.2022
1055 Clouds 21 1018 52 10000 2 330 12:55 13.07.2022
1056 Clear 20 1019 56 10000 2 220 10:45 13.07.2022
1057 Clouds 19 1019 59 10000 2 360 09:58 13.07.2022
1058 Clouds 20 1019 56 10000 1 0 09:22 13.07.2022
1059 Clear 17 1020 72 10000 3.13 270 06:20 13.07.2022
1060 Clear 15 1021 82 10000 2 230 02:21 13.07.2022
1061 Rain 15 1022 76 10000 1.79 310 23:45 12.07.2022
1062 Clear 15 1021 72 10000 0 0 21:57 12.07.2022
1063 Clear 16 1022 72 10000 0 0 21:29 12.07.2022
1064 Clear 16 1022 72 10000 0 0 20:41 12.07.2022
1065 Clear 17 1023 67 10000 0 0 19:28 12.07.2022
1066 Clear 19 1023 52 10000 2 10 17:50 12.07.2022
1067 Clear 21 1023 40 10000 4.02 350 16:20 12.07.2022
1068 Clear 22 1024 37 10000 4.02 360 14:31 12.07.2022
1069 Clear 22 1024 43 10000 5 350 12:48 12.07.2022
1070 Clear 22 1024 43 10000 4.02 350 11:26 12.07.2022
1071 Clear 21 1025 46 10000 5.81 340 09:42 12.07.2022
1072 Clear 20 1026 45 10000 5 360 08:23 12.07.2022
1073 Clear 19 1025 52 10000 4.02 360 06:49 12.07.2022
1074 Clear 19 1026 52 10000 4.02 20 05:42 12.07.2022
1075 Clear 16 1025 67 10000 4.02 20 02:52 12.07.2022
1076 Clear 15 1024 72 10000 2 340 23:30 11.07.2022
1077 Clear 14 1024 82 10000 1 330 22:31 11.07.2022
1078 Clear 17 1023 67 10000 2 330 20:41 11.07.2022
1079 Clear 18 1023 59 10000 2 360 19:44 11.07.2022
1080 Clear 20 1023 52 10000 4.02 20 18:32 11.07.2022
1081 Clear 21 1022 46 10000 3 20 17:53 11.07.2022
1082 Clear 23 1022 43 10000 5 10 16:21 11.07.2022
1083 Clear 24 1021 43 10000 6 10 14:49 11.07.2022
1084 Clear 25 1021 50 10000 7.15 360 11:59 11.07.2022
1085 Clouds 26 1020 44 10000 5 350 10:37 11.07.2022
1086 Clouds 26 1020 47 10000 5 350 09:49 11.07.2022
1087 Clouds 25 1020 57 10000 4 20 08:34 11.07.2022
1088 Clear 22 1020 78 10000 2 340 06:44 11.07.2022
1089 Clear 16 1019 87 10000 0 0 00:22 11.07.2022
1090 Clear 16 1018 87 10000 0 0 23:28 10.07.2022
1091 Clear 17 1018 82 10000 0 0 21:55 10.07.2022
1092 Clear 18 1018 77 10000 1 330 20:54 10.07.2022
1093 Clear 19 1018 77 10000 0 0 19:50 10.07.2022
1094 Clear 22 1017 64 10000 1.79 80 18:50 10.07.2022
1095 Clear 23 1017 60 10000 2 70 17:41 10.07.2022
1096 Clear 25 1017 50 10000 2 60 16:58 10.07.2022
1097 Clear 26 1017 44 10000 4.02 90 16:20 10.07.2022
1098 Clear 27 1016 39 10000 3.13 50 14:33 10.07.2022
1099 Clear 27 1016 44 10000 4.02 70 12:33 10.07.2022
1100 Clear 26 1016 47 10000 3.13 100 11:34 10.07.2022
1101 Clouds 24 1016 60 10000 4.02 110 08:46 10.07.2022
1102 Clouds 24 1016 60 10000 4.02 120 08:24 10.07.2022
1103 Clouds 22 1014 64 10000 5.81 70 03:38 10.07.2022
1104 Clear 21 1012 82 10000 0 0 23:30 09.07.2022
1105 Clouds 21 1012 82 10000 3.13 60 22:25 09.07.2022
1106 Clouds 21 1012 82 10000 1 0 21:31 09.07.2022
1107 Clouds 24 1011 69 10000 0 0 18:59 09.07.2022
1108 Clouds 26 1010 57 10000 0 0 17:59 09.07.2022
1109 Clouds 28 1010 54 10000 3 320 16:59 09.07.2022
1110 Clouds 30 1010 48 10000 6 280 15:44 09.07.2022
1111 Clouds 30 1010 48 10000 6 280 15:25 09.07.2022
1112 Clouds 32 1010 37 10000 6 270 13:51 09.07.2022
1113 Clouds 31 1010 43 10000 6 250 12:53 09.07.2022
1114 Clouds 31 1010 43 10000 7.15 240 11:33 09.07.2022
1115 Clouds 31 1010 43 10000 7.15 240 11:33 09.07.2022
1116 Clear 30 1011 45 10000 6 240 10:23 09.07.2022
1117 Clear 28 1011 48 10000 6 240 07:54 09.07.2022
1118 Clear 27 1012 50 10000 4.02 230 06:58 09.07.2022
1119 Clear 22 1012 64 10000 3.13 240 04:34 09.07.2022
1120 Clear 18 1013 77 10000 2 230 23:18 08.07.2022
1121 Clear 18 1013 77 10000 0 0 21:59 08.07.2022
1122 Clear 18 1013 77 10000 1 0 20:59 08.07.2022
1123 Clear 19 1013 72 10000 0 0 20:25 08.07.2022
1124 Clear 23 1013 56 10000 2 210 18:32 08.07.2022
1125 Clear 26 1013 38 10000 3 240 17:25 08.07.2022
1126 Clear 28 1014 30 10000 4.02 250 14:55 08.07.2022
1127 Clear 28 1014 34 10000 5 240 14:29 08.07.2022
1128 Clear 28 1015 34 10000 4.02 220 12:28 08.07.2022
1129 Clear 27 1015 39 10000 5 260 10:45 08.07.2022
1130 Clear 26 1016 41 10000 4.02 250 08:51 08.07.2022
1131 Clear 25 1016 38 10000 3.13 260 06:55 08.07.2022
1132 Clear 19 1016 59 10000 2 280 03:22 08.07.2022
1133 Clear 14 1016 76 10000 1 280 23:45 07.07.2022
1134 Clear 14 1016 76 10000 0 0 22:45 07.07.2022
1135 Clear 16 1015 72 10000 0 0 20:59 07.07.2022
1136 Clear 20 1015 56 10000 1 0 18:42 07.07.2022
1137 Clear 24 1015 41 10000 1 0 17:41 07.07.2022
1138 Clear 26 1015 34 10000 2 360 15:22 07.07.2022
1139 Clear 26 1015 34 10000 3.13 310 13:30 07.07.2022
1140 Clear 26 1015 34 10000 3 30 12:40 07.07.2022
1141 Clear 25 1015 36 10000 3.13 30 12:20 07.07.2022
1142 Clear 26 1015 34 10000 3.13 330 11:31 07.07.2022
1143 Clear 25 1015 33 10000 3 300 10:44 07.07.2022
1144 Clear 25 1015 33 10000 3.13 300 10:25 07.07.2022
1145 Clear 23 1015 38 10000 3.13 340 07:40 07.07.2022
1146 Clear 21 1014 49 10000 2 30 04:42 07.07.2022
1147 Clouds 13 1013 69 10000 1.62 12 23:37 06.07.2022
1148 Clear 13 1012 81 10000 0 0 23:19 06.07.2022
1149 Clear 13 1012 81 10000 0 0 23:19 06.07.2022
1150 Clear 13 1012 81 10000 0 0 22:57 06.07.2022
1151 Clear 12 1012 87 10000 1 0 22:38 06.07.2022
1152 Clear 13 1012 81 10000 1 0 21:46 06.07.2022
1153 Clear 17 1011 63 10000 2 30 19:39 06.07.2022
1154 Clear 19 1011 55 10000 2 20 18:29 06.07.2022
1155 Clear 22 1010 40 10000 3.13 10 16:27 06.07.2022
1156 Clear 22 1010 37 10000 3.13 360 14:58 06.07.2022
1157 Clear 23 1010 38 10000 4 10 12:42 06.07.2022
1158 Clear 23 1010 38 10000 4.02 330 11:49 06.07.2022
1159 Clear 22 1009 37 10000 4.02 40 10:18 06.07.2022
1160 Clouds 21 1009 40 10000 4 70 07:47 06.07.2022
1161 Clouds 20 1009 42 10000 4.02 70 07:23 06.07.2022
1162 Clear 19 1009 48 10000 3.13 90 05:28 06.07.2022
1163 Clear 13 1008 66 10000 4.02 30 22:45 05.07.2022
1164 Clear 13 1008 71 10000 4.02 30 21:53 05.07.2022
1165 Clear 14 1008 67 10000 3.13 20 20:39 05.07.2022
1166 Clear 14 1008 67 10000 3.13 20 19:43 05.07.2022
1167 Clear 15 1008 63 10000 3 10 19:22 05.07.2022
1168 Clear 18 1007 48 10000 2 20 17:47 05.07.2022
1169 Clear 19 1007 45 10000 4 40 16:54 05.07.2022
1170 Clear 19 1007 45 10000 4.02 30 15:25 05.07.2022
1171 Clear 19 1007 45 10000 3.13 50 14:28 05.07.2022
1172 Clear 19 1007 42 10000 4.02 40 12:43 05.07.2022
1173 Clouds 18 1007 48 10000 4.02 40 11:33 05.07.2022
1174 Clouds 18 1007 48 10000 4.02 10 10:40 05.07.2022
1175 Clouds 17 1007 55 10000 4.02 30 09:22 05.07.2022
1176 Clouds 17 1008 55 10000 4.02 50 07:45 05.07.2022
1177 Clouds 13 1008 71 10000 4.02 30 04:49 05.07.2022
1178 Clouds 12 1008 76 10000 4.02 20 04:23 05.07.2022
1179 Clear 11 1009 76 10000 5 30 23:56 04.07.2022
1180 Clouds 11 1009 76 10000 5 30 23:26 04.07.2022
1181 Clouds 12 1009 71 10000 5 30 22:25 04.07.2022
1182 Clouds 12 1009 71 10000 4.02 30 21:30 04.07.2022
1183 Clouds 12 1009 71 10000 5 30 20:52 04.07.2022
1184 Clouds 12 1009 76 10000 4.02 20 20:33 04.07.2022
1185 Clouds 12 1009 76 10000 3.13 20 19:52 04.07.2022
1186 Clouds 12 1009 76 10000 3.13 20 19:34 04.07.2022
1187 Clouds 13 1009 71 10000 4.02 30 17:57 04.07.2022
1188 Clear 14 1009 71 10000 5 10 15:50 04.07.2022
1189 Clouds 15 1009 67 10000 5 350 14:54 04.07.2022
1190 Clouds 16 1009 58 10000 4.02 10 13:29 04.07.2022
1191 Clouds 15 1009 62 10000 5 360 12:20 04.07.2022
1192 Clouds 14 1009 67 10000 6 350 10:34 04.07.2022
1193 Clouds 14 1009 71 10000 5 360 09:40 04.07.2022
1194 Clouds 13 1009 71 10000 4.02 360 07:21 04.07.2022
1195 Clouds 10 1008 87 10000 3.13 30 03:35 04.07.2022
1196 Clouds 11 1007 81 10000 4.02 30 00:35 04.07.2022
1197 Clouds 11 1007 87 10000 4.02 30 22:58 03.07.2022
1198 Clouds 11 1007 87 10000 4.02 30 22:58 03.07.2022
1199 Clouds 12 1007 87 10000 4.02 10 20:51 03.07.2022
1200 Clouds 12 1007 93 10000 3.13 360 20:25 03.07.2022
1201 Rain 12 1007 93 10000 3.13 360 19:27 03.07.2022
1202 Rain 12 1007 100 10000 3.13 340 18:35 03.07.2022
1203 Rain 12 1007 100 10000 3.13 340 17:43 03.07.2022
1204 Rain 12 1006 93 6000 4.02 340 15:49 03.07.2022
1205 Clouds 13 1006 87 10000 4.02 360 14:58 03.07.2022
1206 Clouds 13 1006 87 10000 5 10 13:59 03.07.2022
1207 Rain 13 1006 93 10000 5 360 13:33 03.07.2022
1208 Rain 14 1006 82 10000 5 360 12:32 03.07.2022
1209 Clouds 14 1005 82 10000 5 10 11:18 03.07.2022
1210 Clouds 14 1005 82 10000 4.02 20 10:38 03.07.2022
1211 Clouds 14 1004 82 10000 3 10 08:59 03.07.2022
1212 Clouds 14 1004 82 10000 2 60 07:34 03.07.2022
1213 Rain 12 1004 93 10000 3.13 280 01:42 03.07.2022
1214 Clouds 11 1005 93 10000 4.02 280 23:50 02.07.2022
1215 Rain 12 1005 87 10000 2 310 22:33 02.07.2022
1216 Clouds 14 1005 76 10000 3.13 300 20:37 02.07.2022
1217 Clear 14 1005 71 10000 2 320 19:51 02.07.2022
1218 Clear 14 1005 71 10000 3.13 330 19:19 02.07.2022
1219 Clouds 14 1005 76 10000 3.13 320 17:41 02.07.2022
1220 Clear 16 1006 63 10000 6 340 16:38 02.07.2022
1221 Clear 17 1006 55 10000 5 330 13:51 02.07.2022
1222 Clouds 17 1005 51 10000 5 330 11:52 02.07.2022
1223 Clouds 17 1005 55 10000 5 350 10:53 02.07.2022
1224 Clear 17 1005 55 10000 5 10 10:33 02.07.2022
1225 Clear 15 1005 67 10000 5 340 08:54 02.07.2022
1226 Clear 16 1005 63 10000 5 350 08:19 02.07.2022
1227 Clouds 15 1004 62 10000 7.15 350 06:51 02.07.2022
1228 Clear 11 1004 81 10000 3.13 330 00:55 02.07.2022
1229 Clear 12 1004 76 10000 4.02 360 23:31 01.07.2022
1230 Clear 12 1004 76 10000 4.02 340 22:40 01.07.2022
1231 Clear 13 1004 71 10000 4.02 340 21:40 01.07.2022
1232 Clear 14 1004 67 10000 4.02 340 20:59 01.07.2022
1233 Clear 14 1004 67 10000 5 350 20:37 01.07.2022
1234 Clear 15 1004 62 10000 6 360 19:41 01.07.2022
1235 Clouds 17 1004 55 10000 7 340 17:52 01.07.2022
1236 Clouds 19 1003 48 10000 7 360 15:26 01.07.2022
1237 Clouds 18 1003 55 10000 8.05 350 13:54 01.07.2022
1238 Clouds 18 1003 55 10000 8.05 350 13:54 01.07.2022
1239 Clouds 18 1002 59 10000 9 350 11:50 01.07.2022
1240 Clouds 17 1002 63 10000 9 340 10:20 01.07.2022
1241 Clouds 16 1001 67 10000 9 350 08:50 01.07.2022
1242 Clouds 14 999 82 10000 6 360 03:18 01.07.2022
1243 Rain 14 998 93 10000 6 350 00:25 01.07.2022
1244 Rain 14 998 93 9000 5 350 22:56 30.06.2022
1245 Rain 14 998 93 10000 5 340 22:33 30.06.2022
1246 Rain 14 998 93 9000 4.02 360 21:59 30.06.2022
1247 Rain 14 998 93 9000 3.13 350 21:35 30.06.2022
1248 Rain 14 998 93 10000 3.13 340 20:22 30.06.2022
1249 Rain 14 998 93 10000 3.13 360 19:53 30.06.2022
1250 Rain 14 998 93 9000 4.02 10 19:18 30.06.2022
1251 Rain 14 998 93 7000 6 50 18:42 30.06.2022
1252 Rain 14 997 93 4400 4.92 20 17:38 30.06.2022
1253 Rain 14 997 93 10000 5 20 16:48 30.06.2022
1254 Clouds 14 997 93 10000 5 30 15:27 30.06.2022
1255 Rain 13 996 93 6000 4.02 20 13:30 30.06.2022
1256 Rain 13 995 93 8000 6 20 12:35 30.06.2022
1257 Rain 13 995 87 10000 5 20 11:28 30.06.2022
1258 Clouds 13 993 87 10000 7.15 20 09:53 30.06.2022
1259 Clouds 13 993 87 10000 6 30 09:32 30.06.2022
1260 Clouds 11 993 93 10000 7.15 10 07:51 30.06.2022
1261 Rain 10 993 93 9000 7.15 20 05:57 30.06.2022
1262 Rain 9 994 87 8000 7.15 20 01:28 30.06.2022
1263 Rain 9 994 87 10000 6 20 23:34 29.06.2022
1264 Clear 10 995 81 10000 6 30 22:39 29.06.2022
1265 Clear 10 996 81 10000 6 30 21:37 29.06.2022
1266 Clouds 10 997 81 10000 6 40 20:34 29.06.2022
1267 Clouds 10 997 81 10000 6 30 19:37 29.06.2022
1268 Clouds 10 998 87 10000 4.92 30 17:45 29.06.2022
1269 Clouds 10 998 87 10000 7.15 30 16:41 29.06.2022
1270 Clouds 11 997 81 10000 6 20 15:19 29.06.2022
1271 Clouds 10 998 93 9000 5 30 12:40 29.06.2022
1272 Drizzle 10 998 100 5000 5 40 11:19 29.06.2022
1273 Drizzle 11 997 93 3500 5 30 09:33 29.06.2022
1274 Drizzle 12 996 93 3300 2 280 07:44 29.06.2022
1275 Rain 10 995 100 6000 3.13 240 04:57 29.06.2022
1276 Rain 10 995 93 10000 4.02 240 01:41 29.06.2022
1277 Rain 10 995 93 10000 5 240 00:36 29.06.2022
1278 Rain 10 995 93 10000 4.02 250 22:55 28.06.2022
1279 Rain 10 996 93 10000 4.02 250 22:34 28.06.2022
1280 Rain 10 996 93 10000 4.02 250 21:55 28.06.2022
1281 Rain 10 996 93 10000 4.02 250 21:33 28.06.2022
1282 Rain 10 996 93 10000 4.02 250 20:44 28.06.2022
1283 Clouds 10 997 93 10000 5 250 19:34 28.06.2022
1284 Clouds 10 997 93 10000 4.02 250 18:53 28.06.2022
1285 Clouds 11 997 87 10000 5 260 17:42 28.06.2022
1286 Clouds 11 997 87 10000 6 260 16:21 28.06.2022
1287 Clouds 11 997 87 10000 5.81 260 15:42 28.06.2022
1288 Rain 11 998 87 10000 6 260 14:21 28.06.2022
1289 Rain 11 998 87 10000 5 260 13:54 28.06.2022
1290 Rain 10 997 93 10000 6 260 12:57 28.06.2022
1291 Rain 10 996 93 10000 7.15 270 11:18 28.06.2022
1292 Rain 10 995 93 10000 7.15 260 09:30 28.06.2022
1293 Rain 10 995 93 10000 7.15 270 08:44 28.06.2022
1294 Rain 10 995 93 10000 6 280 07:42 28.06.2022
1295 Rain 10 995 87 10000 6 290 07:19 28.06.2022
1296 Rain 9 994 93 10000 5 290 01:32 28.06.2022
1297 Rain 10 994 93 10000 5 310 23:41 27.06.2022
1298 Rain 10 994 93 10000 6 320 22:52 27.06.2022
1299 Rain 11 994 93 10000 5 320 21:38 27.06.2022
1300 Rain 11 994 93 10000 4.02 320 20:52 27.06.2022
1301 Rain 12 994 87 10000 5 330 19:33 27.06.2022
1302 Rain 12 994 87 10000 4.02 330 18:26 27.06.2022
1303 Rain 13 993 87 10000 8.05 340 16:27 27.06.2022
1304 Rain 13 993 93 10000 7.15 350 15:23 27.06.2022
1305 Rain 14 992 93 7000 5 340 13:37 27.06.2022
1306 Rain 14 992 93 10000 7.15 340 12:56 27.06.2022
1307 Rain 14 991 100 6000 5 360 10:34 27.06.2022
1308 Rain 14 991 100 9000 4.02 360 09:20 27.06.2022
1309 Rain 14 990 100 9000 7.15 350 08:29 27.06.2022
1310 Rain 15 991 93 10000 4.02 310 06:39 27.06.2022
1311 Clouds 15 991 93 10000 2 10 03:55 27.06.2022
1312 Clouds 14 992 100 10000 2 10 00:56 27.06.2022
1313 Clouds 14 993 100 10000 2 40 22:18 26.06.2022
1314 Rain 14 993 93 10000 1 50 20:44 26.06.2022
1315 Clouds 15 994 87 10000 2 60 19:40 26.06.2022
1316 Clouds 16 994 82 10000 1 0 18:31 26.06.2022
1317 Clouds 16 994 93 10000 2 310 16:45 26.06.2022
1318 Rain 16 994 87 7000 4.02 110 15:26 26.06.2022
1319 Clouds 20 994 68 10000 3.13 340 13:41 26.06.2022
1320 Clouds 19 994 68 10000 3.13 330 13:20 26.06.2022
1321 Clouds 18 994 72 10000 3.13 220 11:26 26.06.2022
1322 Clouds 19 994 68 10000 4.02 120 10:26 26.06.2022
1323 Clouds 17 994 82 10000 4.02 120 09:22 26.06.2022
1324 Clouds 17 994 82 10000 3.13 120 07:44 26.06.2022
1325 Clouds 14 994 87 10000 3.13 100 01:55 26.06.2022
1326 Clouds 14 994 82 10000 4.02 100 00:21 26.06.2022
1327 Clouds 14 994 82 10000 2 90 23:49 25.06.2022
1328 Clouds 14 995 76 10000 1 0 23:20 25.06.2022
1329 Clouds 13 995 81 10000 1 0 22:27 25.06.2022
1330 Clear 14 995 76 10000 0.89 0 21:40 25.06.2022
1331 Clear 14 996 76 10000 0 0 21:18 25.06.2022
1332 Clear 15 996 76 10000 0 0 20:27 25.06.2022
1333 Clear 15 996 72 10000 1 140 19:21 25.06.2022
1334 Clear 17 996 55 10000 2 320 17:56 25.06.2022
1335 Clear 18 996 51 10000 4.02 280 17:22 25.06.2022
1336 Clear 21 997 40 10000 6 250 15:26 25.06.2022
1337 Clouds 21 997 37 10000 7.15 270 13:27 25.06.2022
1338 Clouds 21 997 40 10000 8 260 12:37 25.06.2022
1339 Clear 22 996 43 10000 8.05 250 10:34 25.06.2022
1340 Clouds 20 996 52 10000 5 240 08:58 25.06.2022
1341 Clear 20 997 49 10000 6 220 08:35 25.06.2022
1342 Clear 20 997 49 10000 6 210 07:54 25.06.2022
1343 Clear 15 999 67 10000 6 260 03:33 25.06.2022
1344 Clear 14 999 71 10000 4.02 260 00:34 25.06.2022
1345 Clear 15 999 72 10000 4.92 280 22:53 24.06.2022
1346 Clear 16 1000 72 10000 6 280 21:34 24.06.2022
1347 Clear 17 1000 72 10000 6 280 20:45 24.06.2022
1348 Clear 18 1000 67 10000 6 270 20:18 24.06.2022
1349 Clouds 19 1000 68 10000 7.15 280 19:21 24.06.2022
1350 Clouds 20 999 68 10000 5 280 18:48 24.06.2022
1351 Clouds 21 999 64 10000 6 270 18:30 24.06.2022
1352 Clouds 22 999 68 10000 2 260 17:19 24.06.2022
1353 Clouds 23 999 64 10000 6 330 15:29 24.06.2022
1354 Clouds 25 999 53 10000 7.15 250 14:26 24.06.2022
1355 Clouds 24 999 57 10000 8.05 260 13:54 24.06.2022
1356 Clouds 25 998 57 10000 6 260 11:43 24.06.2022
1357 Clouds 25 998 61 10000 4.02 250 10:47 24.06.2022
1358 Rain 23 999 68 10000 7 240 09:42 24.06.2022
1359 Rain 23 999 68 10000 7 240 09:19 24.06.2022
1360 Clouds 26 999 50 10000 5 200 08:42 24.06.2022
1361 Clouds 24 999 60 10000 5 220 06:47 24.06.2022
1362 Clouds 24 999 60 10000 5 220 06:29 24.06.2022
1363 Clear 21 999 73 10000 4 200 05:51 24.06.2022
1364 Rain 17 1000 93 9000 3.13 10 00:57 24.06.2022
1365 Clear 18 1000 82 10000 1.79 240 22:44 23.06.2022
1366 Clear 17 1000 88 10000 0 0 21:52 23.06.2022
1367 Clear 18 1000 82 10000 0 0 20:53 23.06.2022
1368 Clear 19 1000 77 10000 1 0 20:31 23.06.2022
1369 Clear 20 1000 77 10000 0 0 18:43 23.06.2022
1370 Clear 21 1000 68 10000 0 0 17:44 23.06.2022
1371 Clouds 23 1000 60 10000 1 150 16:34 23.06.2022
1372 Clouds 24 1000 50 10000 1 0 15:27 23.06.2022
1373 Clouds 24 1000 53 10000 1 0 14:51 23.06.2022
1374 Clouds 23 999 53 10000 2 90 12:39 23.06.2022
1375 Clouds 23 999 53 10000 1 0 11:19 23.06.2022
1376 Clouds 22 998 56 10000 2 60 09:20 23.06.2022
1377 Clouds 20 997 72 10000 3.13 110 05:51 23.06.2022
1378 Clear 15 995 93 10000 3.13 90 01:22 23.06.2022
1379 Clear 14 994 100 10000 3.13 80 00:25 23.06.2022
1380 Clear 15 994 93 10000 3.13 80 23:22 22.06.2022
1381 Clear 15 994 93 10000 3.13 80 21:44 22.06.2022
1382 Clear 15 994 100 10000 1 0 20:52 22.06.2022
1383 Clear 16 994 93 10000 3.13 80 20:20 22.06.2022
1384 Clear 17 994 88 10000 3.13 80 19:44 22.06.2022
1385 Clear 19 993 77 10000 4 90 17:50 22.06.2022
1386 Clear 20 992 73 10000 4 100 16:50 22.06.2022
1387 Clear 21 992 56 10000 4 120 15:46 22.06.2022
1388 Clouds 22 992 49 10000 4 130 15:22 22.06.2022
1389 Clouds 22 992 49 10000 5 150 13:50 22.06.2022
1390 Clouds 20 992 52 10000 4 140 13:25 22.06.2022
1391 Clouds 20 992 64 10000 4 150 12:37 22.06.2022
1392 Clouds 19 991 72 10000 3 160 11:46 22.06.2022
1393 Clouds 20 991 77 10000 4 150 10:50 22.06.2022
1394 Clouds 19 991 88 10000 5 130 09:42 22.06.2022
1395 Clouds 21 991 73 10000 6 130 07:51 22.06.2022
1396 Clouds 20 991 72 10000 5 130 02:56 22.06.2022
1397 Clouds 20 991 77 10000 6 110 01:19 22.06.2022
1398 Rain 18 992 88 10000 6 90 23:19 21.06.2022
1399 Clear 20 993 77 10000 4.02 120 21:25 21.06.2022
1400 Clear 19 993 82 10000 4.02 120 19:43 21.06.2022
1401 Clouds 19 994 77 10000 4.02 120 17:57 21.06.2022
1402 Clouds 19 994 82 10000 3.13 130 16:52 21.06.2022
1403 Clouds 21 994 78 10000 4 120 12:36 21.06.2022
1404 Thunderstorm 22 995 68 10000 4 200 10:55 21.06.2022
1405 Clouds 27 994 41 10000 7 140 09:39 21.06.2022
1406 Clouds 26 995 54 10000 6 130 07:56 21.06.2022
1407 Clear 24 996 57 10000 4.02 120 05:33 21.06.2022
1408 Clear 19 997 63 10000 2 140 00:35 21.06.2022
1409 Clear 20 997 64 10000 4.02 130 22:22 20.06.2022
1410 Clear 21 997 60 10000 4 120 21:41 20.06.2022
1411 Clear 21 998 64 10000 3.13 120 20:30 20.06.2022
1412 Clear 22 998 64 10000 3.13 120 19:37 20.06.2022
1413 Clear 23 999 60 10000 2 130 18:44 20.06.2022
1414 Clear 26 999 44 10000 2 50 17:50 20.06.2022
1415 Clear 27 999 44 10000 3.13 120 16:55 20.06.2022
1416 Clouds 28 999 39 10000 4.02 140 15:52 20.06.2022
1417 Clouds 29 1000 32 10000 4.02 160 12:38 20.06.2022
1418 Clouds 28 1001 34 10000 4.02 150 10:32 20.06.2022
1419 Clouds 28 1001 34 10000 4.02 200 08:56 20.06.2022
1420 Clouds 28 1001 34 10000 4.02 160 08:20 20.06.2022
1421 Clear 25 1002 44 10000 3.13 190 05:35 20.06.2022
1422 Clear 15 1002 76 10000 2 100 01:33 20.06.2022
1423 Clear 14 1003 76 10000 2 90 00:25 20.06.2022
1424 Clear 17 1003 59 10000 2 100 22:46 19.06.2022
1425 Clear 18 1003 55 10000 2 120 21:51 19.06.2022
1426 Clear 18 1003 55 10000 4.02 100 21:31 19.06.2022
1427 Clear 18 1003 63 10000 2 80 20:38 19.06.2022
1428 Clear 18 1003 67 10000 0 0 19:47 19.06.2022
1429 Clear 20 1003 64 10000 1 0 18:43 19.06.2022
1430 Clear 24 1003 50 10000 1 0 17:54 19.06.2022
1431 Clear 25 1003 41 10000 2 130 17:22 19.06.2022
1432 Clear 26 1004 34 10000 2 120 16:35 19.06.2022
1433 Clear 26 1004 34 10000 3.13 130 15:41 19.06.2022
1434 Clear 27 1004 32 10000 2 130 14:57 19.06.2022
1435 Clear 27 1004 32 10000 1 0 14:19 19.06.2022
1436 Clear 26 1004 31 10000 2 180 13:21 19.06.2022
1437 Clear 26 1005 31 10000 4.02 150 11:21 19.06.2022
1438 Clear 25 1005 31 10000 4.02 150 09:58 19.06.2022
1439 Clear 25 1005 33 10000 2 170 08:47 19.06.2022
1440 Clear 24 1006 33 10000 1 0 08:19 19.06.2022
1441 Clear 23 1006 40 10000 1 0 05:37 19.06.2022
1442 Clear 12 1007 81 10000 0 0 01:30 19.06.2022
1443 Clear 10 1006 87 10000 0 0 00:25 19.06.2022
1444 Clear 11 1007 87 10000 0 0 23:36 18.06.2022
1445 Clear 11 1006 87 10000 1 0 22:39 18.06.2022
1446 Clear 13 1007 76 10000 0 0 20:57 18.06.2022
1447 Clear 14 1007 76 10000 0 0 20:38 18.06.2022
1448 Clear 16 1007 67 10000 2 290 19:38 18.06.2022
1449 Clear 18 1007 59 10000 0 0 18:45 18.06.2022
1450 Clear 20 1006 56 10000 2 30 17:35 18.06.2022
1451 Clear 21 1006 46 10000 2 50 16:56 18.06.2022
1452 Clear 24 1007 33 10000 2 10 15:33 18.06.2022
1453 Clear 23 1007 35 10000 3.13 350 14:45 18.06.2022
1454 Clear 23 1007 38 10000 3.13 330 13:30 18.06.2022
1455 Clear 23 1007 35 10000 4.02 360 11:56 18.06.2022
1456 Clear 23 1007 35 10000 4.02 340 10:55 18.06.2022
1457 Clear 22 1007 40 10000 5 360 09:27 18.06.2022
1458 Clear 22 1007 43 10000 4.02 360 08:30 18.06.2022
1459 Clear 22 1007 37 10000 5 360 07:20 18.06.2022
1460 Clear 18 1007 59 10000 2 30 03:46 18.06.2022
1461 Clear 15 1008 82 10000 3.13 10 01:26 18.06.2022
1462 Clear 15 1007 87 10000 3.13 10 00:48 18.06.2022
1463 Clear 15 1007 87 10000 3.13 360 23:58 17.06.2022
1464 Clear 15 1007 87 10000 3.13 360 23:24 17.06.2022
1465 Clouds 16 1007 87 10000 3.13 10 21:27 17.06.2022
1466 Clouds 17 1008 82 10000 3.13 350 20:24 17.06.2022
1467 Clouds 19 1007 72 10000 2 340 18:52 17.06.2022
1468 Clouds 20 1007 68 10000 2 340 17:46 17.06.2022
1469 Clouds 21 1007 60 10000 4.02 360 16:43 17.06.2022
1470 Clouds 21 1007 60 10000 4.02 360 16:18 17.06.2022
1471 Clouds 21 1007 60 10000 4.02 20 15:34 17.06.2022
1472 Clouds 21 1007 60 10000 5 10 14:21 17.06.2022
1473 Clouds 20 1007 68 10000 4.02 360 13:48 17.06.2022
1474 Clouds 20 1007 64 10000 5 360 13:26 17.06.2022
1475 Clouds 20 1007 59 10000 5 350 11:58 17.06.2022
1476 Clouds 20 1007 59 10000 6 350 11:39 17.06.2022
1477 Clouds 20 1007 59 10000 6 350 11:21 17.06.2022
1478 Clouds 18 1006 59 10000 6 330 08:33 17.06.2022
1479 Clear 17 1006 63 10000 7.15 350 07:51 17.06.2022
1480 Clouds 16 1006 63 10000 6 350 06:32 17.06.2022
1481 Clouds 14 1005 67 10000 6 350 03:20 17.06.2022
1482 Clouds 14 1004 67 10000 5 340 00:46 17.06.2022
1483 Clouds 14 1004 67 10000 4.02 340 23:25 16.06.2022
1484 Rain 13 1004 81 10000 4.02 360 22:31 16.06.2022
1485 Rain 15 1004 67 10000 6 340 21:19 16.06.2022
1486 Rain 15 1004 67 10000 5 350 20:50 16.06.2022
1487 Rain 15 1004 72 10000 5 340 19:59 16.06.2022
1488 Clouds 15 1003 76 10000 5 330 18:48 16.06.2022
1489 Rain 15 1003 82 10000 4.02 330 17:44 16.06.2022
1490 Rain 15 1003 82 10000 4.02 330 17:22 16.06.2022
1491 Clouds 15 1003 87 10000 4.02 310 15:58 16.06.2022
1492 Rain 15 1003 87 10000 5 300 15:21 16.06.2022
1493 Rain 14 1003 87 10000 6 310 14:22 16.06.2022
1494 Rain 14 1003 93 10000 7.15 330 12:53 16.06.2022
1495 Rain 14 1002 93 9000 6 330 12:34 16.06.2022
1496 Rain 14 1002 93 10000 6 320 11:21 16.06.2022
1497 Rain 13 1001 100 8000 6 330 10:41 16.06.2022
1498 Rain 14 1001 93 10000 6 330 09:43 16.06.2022
1499 Rain 14 1001 93 10000 7.15 320 08:56 16.06.2022
1500 Rain 14 1001 87 10000 6 320 07:41 16.06.2022
1501 Clouds 15 1000 76 10000 6 330 05:51 16.06.2022
1502 Clouds 15 1000 76 10000 6 320 04:24 16.06.2022
1503 Clouds 13 1000 81 10000 6 320 01:52 16.06.2022
1504 Clouds 13 1000 81 10000 5 320 01:22 16.06.2022
1505 Clouds 13 1000 81 10000 5 320 00:22 16.06.2022
1506 Clouds 13 1001 87 10000 4.02 330 22:54 15.06.2022
1507 Clouds 13 1001 87 10000 5 330 21:48 15.06.2022
1508 Rain 13 1001 93 9000 5 330 21:19 15.06.2022
1509 Clouds 13 1002 87 10000 5 340 20:37 15.06.2022
1510 Clouds 14 1002 76 10000 5 340 20:18 15.06.2022
1511 Clouds 14 1002 76 10000 7.15 330 18:41 15.06.2022
1512 Clouds 15 1002 82 10000 5 330 17:53 15.06.2022
1513 Clouds 14 1002 93 10000 5 310 16:27 15.06.2022
1514 Clouds 14 1002 93 10000 5 330 15:19 15.06.2022
1515 Rain 13 1002 100 10000 4.02 320 13:29 15.06.2022
1516 Clouds 13 1002 93 10000 4.02 320 12:47 15.06.2022
1517 Rain 13 1002 93 10000 4.02 320 11:28 15.06.2022
1518 Rain 12 1002 94 6000 5 310 10:22 15.06.2022
1519 Drizzle 12 1002 94 9000 5 330 09:34 15.06.2022
1520 Clouds 12 1002 100 10000 5 330 07:58 15.06.2022
1521 Rain 12 1002 100 9000 5 320 05:58 15.06.2022
1522 Clouds 12 1002 100 10000 4.02 310 02:56 15.06.2022
1523 Clouds 12 1002 100 10000 5 310 01:37 15.06.2022
1524 Mist 12 1002 100 3400 4.02 310 00:37 15.06.2022
1525 Mist 12 1002 100 5000 4.02 310 23:38 14.06.2022
1526 Clouds 12 1003 100 9000 4.02 290 22:48 14.06.2022
1527 Mist 12 1003 100 4800 3.13 290 21:44 14.06.2022
1528 Drizzle 12 1003 100 3600 3.13 290 21:21 14.06.2022
1529 Drizzle 12 1003 100 2500 3.13 290 20:41 14.06.2022
1530 Drizzle 12 1004 100 8000 3.13 280 19:58 14.06.2022
1531 Drizzle 12 1004 100 5000 3.13 280 18:45 14.06.2022
1532 Clouds 12 1004 100 10000 4.02 270 17:20 14.06.2022
1533 Clouds 13 1004 87 10000 4.02 250 16:43 14.06.2022
1534 Clouds 13 1004 87 10000 3.13 250 15:49 14.06.2022
1535 Clouds 12 1004 94 10000 3 270 14:56 14.06.2022
1536 Clouds 12 1004 94 10000 4 260 14:18 14.06.2022
1537 Clouds 13 1004 88 10000 3 260 13:28 14.06.2022
1538 Clouds 12 1004 94 10000 4 270 12:19 14.06.2022
1539 Clouds 13 1003 81 10000 4.02 260 10:59 14.06.2022
1540 Clouds 12 1003 87 10000 5 290 10:29 14.06.2022
1541 Clouds 12 1003 87 10000 4 290 09:26 14.06.2022
1542 Clouds 12 1003 87 10000 5 290 08:40 14.06.2022
1543 Clouds 11 1002 87 10000 4.02 270 06:53 14.06.2022
1544 Clouds 11 1001 87 10000 5 290 04:23 14.06.2022
1545 Clouds 10 1001 93 10000 5 290 01:38 14.06.2022
1546 Clouds 11 1000 93 10000 4.02 300 00:24 14.06.2022
1547 Mist 11 1000 93 4500 4.02 310 22:59 13.06.2022
1548 Mist 11 1000 100 4200 4.02 320 22:23 13.06.2022
1549 Clouds 12 1000 93 10000 4.02 310 21:41 13.06.2022
1550 Drizzle 13 999 93 10000 5 300 19:59 13.06.2022
1551 Drizzle 13 999 93 10000 5 290 19:18 13.06.2022
1552 Drizzle 13 999 93 4900 5 300 17:56 13.06.2022
1553 Drizzle 13 999 93 9000 5 300 17:25 13.06.2022
1554 Clouds 14 998 87 10000 7.15 300 16:31 13.06.2022
1555 Clouds 16 998 82 10000 6 290 14:52 13.06.2022
1556 Rain 16 997 87 10000 5 290 14:32 13.06.2022
1557 Rain 16 997 87 10000 6 300 13:36 13.06.2022
1558 Rain 16 996 93 10000 3.13 290 12:23 13.06.2022
1559 Rain 16 995 93 9000 5 320 10:58 13.06.2022
1560 Rain 17 995 88 10000 4.02 290 10:26 13.06.2022
1561 Rain 17 995 82 10000 4.02 300 08:59 13.06.2022
1562 Clouds 17 994 82 10000 3.13 270 06:53 13.06.2022
1563 Clouds 16 994 87 10000 2 240 05:35 13.06.2022
1564 Rain 15 993 93 9000 1 0 02:27 13.06.2022
1565 Rain 14 994 100 2300 3.13 280 01:36 13.06.2022
1566 Clouds 14 993 100 9000 0 0 23:49 12.06.2022
1567 Clouds 15 993 93 9000 0 0 22:44 12.06.2022
1568 Clouds 15 993 93 6000 0 0 21:53 12.06.2022
1569 Rain 15 993 100 7000 0 0 20:54 12.06.2022
1570 Rain 15 993 100 8000 0 0 20:18 12.06.2022
1571 Clouds 15 993 93 10000 1 0 19:30 12.06.2022
1572 Clouds 15 993 93 10000 1 0 19:30 12.06.2022
1573 Rain 16 993 93 10000 3.13 250 17:41 12.06.2022
1574 Clouds 19 993 63 10000 2 210 15:57 12.06.2022
1575 Thunderstorm 20 993 59 10000 3.13 200 14:51 12.06.2022
1576 Clouds 20 993 56 10000 3.13 210 14:20 12.06.2022
1577 Clouds 20 993 56 10000 3.13 210 13:49 12.06.2022
1578 Clouds 21 993 52 10000 3.13 200 12:32 12.06.2022
1579 Clouds 20 992 64 10000 5 240 11:22 12.06.2022
1580 Clouds 21 992 56 10000 4.02 210 10:21 12.06.2022
1581 Clouds 18 993 72 10000 5 210 08:54 12.06.2022
1582 Clouds 19 992 68 10000 5 190 08:35 12.06.2022
1583 Clouds 18 992 77 10000 3.13 230 07:31 12.06.2022
1584 Clouds 15 993 93 10000 2 230 04:35 12.06.2022
1585 Clouds 14 993 100 10000 1 0 02:33 12.06.2022
1586 Clouds 14 993 100 9000 0 0 01:36 12.06.2022
1587 Clouds 14 993 100 9000 1 0 00:58 12.06.2022
1588 Clouds 14 993 100 10000 1 50 00:20 12.06.2022
1589 Rain 15 993 93 10000 1 290 23:21 11.06.2022
1590 Clouds 15 993 93 10000 3 110 22:38 11.06.2022
1591 Clouds 15 993 93 10000 3 110 22:38 11.06.2022
1592 Clear 15 994 93 10000 2 80 21:37 11.06.2022
1593 Clouds 16 994 87 10000 3.13 90 20:33 11.06.2022
1594 Clouds 16 994 87 10000 3.13 60 19:39 11.06.2022
1595 Clouds 17 995 82 10000 4.02 130 18:56 11.06.2022
1596 Clouds 18 995 77 10000 4.02 130 18:33 11.06.2022
1597 Clouds 18 995 77 10000 5 90 17:50 11.06.2022
1598 Clouds 18 995 77 10000 4.02 120 17:26 11.06.2022
1599 Clouds 18 995 77 10000 4.02 100 16:50 11.06.2022
1600 Clouds 18 996 77 10000 5 120 16:26 11.06.2022
1601 Clouds 19 996 68 10000 6 110 15:27 11.06.2022
1602 Clouds 20 996 68 10000 7.15 100 13:53 11.06.2022
1603 Clouds 23 996 56 10000 4.02 110 12:25 11.06.2022
1604 Clouds 21 997 60 10000 6 110 10:40 11.06.2022
1605 Clear 22 997 53 10000 5.81 100 09:42 11.06.2022
1606 Clear 22 998 53 10000 5 110 08:45 11.06.2022
1607 Clear 21 998 56 10000 2 40 06:47 11.06.2022
1608 Clear 20 999 59 10000 2 310 05:58 11.06.2022
1609 Clear 18 999 67 10000 0 0 03:45 11.06.2022
1610 Clear 13 999 87 10000 1 0 01:52 11.06.2022
1611 Clear 12 999 93 10000 0 0 01:26 11.06.2022
1612 Clouds 13 1000 87 10000 0 0 23:28 10.06.2022
1613 Clouds 13 999 87 10000 2 100 22:27 10.06.2022
1614 Clouds 14 1000 82 10000 3.13 100 21:46 10.06.2022
1615 Clouds 16 1000 77 10000 2 60 20:39 10.06.2022
1616 Clouds 16 1001 77 10000 2 60 20:20 10.06.2022
1617 Clouds 17 1002 67 10000 2 70 19:19 10.06.2022
1618 Clouds 17 1002 63 10000 4.02 80 18:46 10.06.2022
1619 Clouds 19 1003 59 10000 6 100 17:54 10.06.2022
1620 Clouds 20 1003 56 10000 7 100 17:23 10.06.2022
1621 Clear 20 1003 56 10000 6 100 16:28 10.06.2022
1622 Clear 20 1003 60 10000 7 110 15:40 10.06.2022
1623 Clear 20 1004 59 10000 7.15 110 14:28 10.06.2022
1624 Clear 19 1005 63 10000 8 100 12:58 10.06.2022
1625 Clear 19 1005 59 10000 6 110 11:59 10.06.2022
1626 Clear 17 1006 67 10000 5 120 10:51 10.06.2022
1627 Clear 18 1006 63 10000 6 110 09:57 10.06.2022
1628 Clear 17 1007 67 10000 7.15 130 08:48 10.06.2022
1629 Clear 17 1007 67 10000 5 140 07:41 10.06.2022
1630 Clear 15 1007 72 10000 5 130 06:46 10.06.2022
1631 Clear 15 1007 72 10000 4.02 140 06:27 10.06.2022
1632 Clear 13 1007 81 10000 4.02 130 04:47 10.06.2022
1633 Clouds 13 1007 76 10000 4.02 120 01:59 10.06.2022
1634 Clouds 13 1007 76 10000 4.02 120 01:36 10.06.2022
1635 Clouds 13 1007 76 10000 4.02 120 01:36 10.06.2022
1636 Clouds 13 1007 71 10000 4.02 110 23:57 09.06.2022
1637 Clouds 14 1007 71 10000 4.02 120 22:24 09.06.2022
1638 Rain 13 1007 76 9000 4.02 110 21:38 09.06.2022
1639 Rain 13 1007 81 9000 4.02 110 21:18 09.06.2022
1640 Rain 16 1008 58 10000 5 130 20:27 09.06.2022
1641 Clear 16 1008 58 10000 5 120 19:31 09.06.2022
1642 Clear 17 1007 55 10000 6 120 18:35 09.06.2022
1643 Clear 18 1007 55 10000 5 100 17:25 09.06.2022
1644 Clouds 18 1007 55 10000 5 110 16:21 09.06.2022
1645 Clouds 18 1007 59 10000 4.92 80 14:42 09.06.2022
1646 Clouds 17 1007 67 10000 4.02 90 14:23 09.06.2022
1647 Clouds 16 1008 77 10000 3 80 13:29 09.06.2022
1648 Clouds 18 1008 51 10000 5 110 12:46 09.06.2022
1649 Clouds 18 1008 55 10000 7.15 120 11:19 09.06.2022
1650 Clouds 16 1009 63 10000 8.05 120 09:50 09.06.2022
1651 Clouds 15 1009 67 10000 9 110 09:31 09.06.2022
1652 Clouds 14 1009 71 10000 8.05 110 08:21 09.06.2022
1653 Clouds 13 1010 71 10000 6 120 06:55 09.06.2022
1654 Clouds 11 1011 87 10000 5 100 03:28 09.06.2022
1655 Rain 12 1012 76 10000 3.13 170 23:55 08.06.2022
1656 Clear 14 1012 50 10000 5 160 22:59 08.06.2022
1657 Clear 14 1012 50 10000 3.13 140 22:27 08.06.2022
1658 Clear 13 1012 54 10000 4.02 120 21:57 08.06.2022
1659 Clear 13 1012 58 10000 3.13 110 21:23 08.06.2022
1660 Clear 14 1012 54 10000 3.13 120 20:22 08.06.2022
1661 Clear 14 1012 54 10000 4 120 19:39 08.06.2022
1662 Clear 15 1012 51 10000 3.13 120 18:48 08.06.2022
1663 Clear 17 1012 41 10000 4.02 100 17:30 08.06.2022
1664 Clear 19 1013 34 10000 6 110 15:52 08.06.2022
1665 Clear 20 1013 30 10000 5 120 13:58 08.06.2022
1666 Clear 20 1014 30 10000 5 110 12:29 08.06.2022
1667 Clear 19 1015 32 10000 4.02 150 11:34 08.06.2022
1668 Clear 18 1015 31 10000 4.02 140 10:30 08.06.2022
1669 Clear 17 1015 33 10000 5 120 09:22 08.06.2022
1670 Clear 17 1015 36 10000 4.02 120 08:43 08.06.2022
1671 Clear 15 1016 38 10000 3.13 150 06:36 08.06.2022
1672 Clear 12 1017 50 10000 3.13 180 04:22 08.06.2022
1673 Clear 5 1017 86 10000 2 160 00:49 08.06.2022
1674 Clear 4 1017 86 10000 1 70 23:30 07.06.2022
1675 Clear 4 1017 86 10000 2 80 22:48 07.06.2022
1676 Clear 4 1017 86 10000 0 0 22:30 07.06.2022
1677 Clear 5 1017 86 10000 0 0 21:35 07.06.2022
1678 Clear 6 1017 81 10000 0 0 20:59 07.06.2022
1679 Clear 6 1017 81 10000 1 110 20:33 07.06.2022
1680 Clear 7 1018 75 10000 0 0 19:45 07.06.2022
1681 Clear 10 1017 61 10000 3.13 80 18:24 07.06.2022
1682 Clear 13 1017 50 10000 2 50 17:27 07.06.2022
1683 Clear 13 1017 47 10000 3.13 50 16:43 07.06.2022
1684 Clear 14 1017 44 10000 2 40 15:56 07.06.2022
1685 Clear 14 1018 44 10000 1 0 15:26 07.06.2022
1686 Clear 13 1018 43 10000 3.13 40 14:52 07.06.2022
1687 Clear 14 1018 41 10000 2 40 14:32 07.06.2022
1688 Clear 14 1018 41 10000 2 260 13:32 07.06.2022
1689 Clear 13 1018 43 10000 2 300 12:52 07.06.2022
1690 Clear 13 1018 43 10000 3.13 350 11:47 07.06.2022
1691 Clear 11 1018 46 10000 3.13 330 10:27 07.06.2022
1692 Clear 10 1019 46 10000 5 350 08:50 07.06.2022
1693 Clear 9 1019 49 10000 3.13 30 07:34 07.06.2022
1694 Clear 8 1019 49 10000 2 90 06:22 07.06.2022
1695 Clear 5 1019 70 10000 3.13 70 03:32 07.06.2022
1696 Clear 1 1018 86 10000 1 300 00:45 07.06.2022
1697 Clear 2 1018 86 10000 1 0 23:41 06.06.2022
1698 Clear 2 1018 86 10000 2 60 22:53 06.06.2022
1699 Clear 2 1018 86 10000 2 60 21:57 06.06.2022
1700 Clear 2 1018 87 10000 0 0 20:42 06.06.2022
1701 Clear 3 1018 87 10000 0 0 19:24 06.06.2022
1702 Clear 4 1018 86 10000 0 0 18:47 06.06.2022
1703 Clear 7 1018 65 10000 2 20 17:55 06.06.2022
1704 Clear 8 1018 56 10000 2 20 16:55 06.06.2022
1705 Clear 9 1018 49 10000 3.13 10 15:45 06.06.2022
1706 Clouds 9 1018 49 10000 3.13 20 14:59 06.06.2022
1707 Clouds 9 1018 49 10000 3.13 10 14:18 06.06.2022
1708 Clouds 9 1018 49 10000 2 50 13:20 06.06.2022
1709 Clouds 8 1018 52 10000 3.13 360 12:34 06.06.2022
1710 Clouds 8 1018 56 10000 3.13 20 11:47 06.06.2022
1711 Clouds 7 1018 70 10000 3.13 30 09:53 06.06.2022
1712 Clouds 7 1018 75 10000 3.13 50 08:57 06.06.2022
1713 Clouds 8 1018 70 10000 3.13 40 08:28 06.06.2022
1714 Clouds 8 1018 70 10000 3.13 30 07:19 06.06.2022
1715 Clear 6 1018 81 10000 3.13 30 04:38 06.06.2022
1716 Clear 5 1019 86 10000 2 310 01:57 06.06.2022
1717 Clear 5 1019 86 10000 3.13 340 00:57 06.06.2022
1718 Clear 5 1019 86 10000 2 320 00:34 06.06.2022
1719 Clouds 5 1019 80 10000 3.13 280 23:20 05.06.2022
1720 Clouds 5 1019 80 10000 2 280 22:21 05.06.2022
1721 Clouds 5 1019 80 10000 2 330 20:24 05.06.2022
1722 Clear 6 1019 70 10000 3.13 330 19:23 05.06.2022
1723 Clouds 7 1019 65 10000 1 0 18:19 05.06.2022
1724 Clouds 8 1019 61 10000 3.13 330 17:39 05.06.2022
1725 Clouds 8 1019 61 10000 3.13 330 17:21 05.06.2022
1726 Clouds 9 1019 57 10000 3.13 350 16:47 05.06.2022
1727 Clouds 9 1018 57 10000 4.02 20 15:28 05.06.2022
1728 Clouds 9 1018 53 10000 4.02 30 14:21 05.06.2022
1729 Clouds 9 1018 57 10000 4.02 360 11:59 05.06.2022
1730 Clouds 8 1018 61 10000 5 360 10:45 05.06.2022
1731 Clouds 7 1018 65 10000 5 20 10:24 05.06.2022
1732 Clouds 6 1018 75 10000 5 20 09:42 05.06.2022
1733 Clouds 6 1017 75 10000 4.02 360 08:25 05.06.2022
1734 Clouds 4 1017 80 10000 5 360 06:25 05.06.2022
1735 Clouds 3 1016 86 10000 5 30 05:19 05.06.2022
1736 Clouds 1 1015 93 10000 4.02 350 02:48 05.06.2022
1737 Snow 1 1014 93 8000 4.02 340 01:24 05.06.2022
1738 Clouds 1 1014 93 10000 4.02 350 23:36 04.06.2022
1739 Clouds 2 1014 93 10000 4.02 340 21:30 04.06.2022
1740 Clouds 1 1014 93 10000 4.02 320 19:46 04.06.2022
1741 Clouds 2 1014 80 10000 5 340 17:28 04.06.2022
1742 Clouds 2 1014 80 10000 5.81 330 16:22 04.06.2022
1743 Clouds 2 1014 80 10000 6 330 15:45 04.06.2022
1744 Clouds 2 1014 86 10000 7.15 330 14:18 04.06.2022
1745 Snow 3 1013 86 9000 6 330 11:45 04.06.2022
1746 Rain 3 1012 86 10000 7.15 330 10:55 04.06.2022
1747 Rain 3 1012 86 10000 7.15 330 10:19 04.06.2022
1748 Rain 4 1012 80 10000 7.15 340 09:39 04.06.2022
1749 Snow 3 1012 86 9000 8.05 320 08:39 04.06.2022
1750 Clouds 3 1012 86 8000 7.15 330 07:18 04.06.2022
1751 Snow 2 1012 86 9000 7.15 320 04:33 04.06.2022
1752 Rain 1 1013 93 6000 6 290 00:37 04.06.2022
1753 Rain 1 1013 93 9000 7.15 300 23:28 03.06.2022
1754 Clouds 2 1014 80 10000 7.15 300 22:20 03.06.2022
1755 Clouds 2 1015 80 10000 5 310 20:42 03.06.2022
1756 Clouds 2 1015 80 10000 5 310 20:42 03.06.2022
1757 Clouds 2 1015 80 10000 5 310 19:58 03.06.2022
1758 Clouds 3 1016 69 10000 5 320 17:00 03.06.2022
1759 Clouds 3 1017 64 10000 6 310 16:34 03.06.2022
1760 Clouds 4 1017 51 10000 7.15 320 14:52 03.06.2022
1761 Snow 3 1017 64 10000 8.05 320 12:28 03.06.2022
1762 Snow 3 1017 59 10000 7.15 320 10:18 03.06.2022
1763 Clouds 3 1017 55 10000 7.15 340 09:30 03.06.2022
1764 Clouds 2 1017 59 10000 7.15 340 07:53 03.06.2022
1765 Clouds 1 1017 69 10000 7.15 330 07:20 03.06.2022
1766 Snow 2 1017 74 9000 7.15 330 06:30 03.06.2022
1767 Clouds 2 1017 69 10000 6 330 04:40 03.06.2022
1768 Clouds 1 1016 80 10000 4.02 330 00:22 03.06.2022
1769 Clouds 1 1017 86 10000 5 330 22:35 02.06.2022
1770 Snow 2 1017 86 9000 5 330 21:29 02.06.2022
1771 Clouds 2 1017 74 10000 5 320 20:00 02.06.2022
1772 Clouds 1 1017 93 10000 3.13 320 19:41 02.06.2022
1773 Clouds 1 1017 93 10000 3.13 320 19:18 02.06.2022
1774 Clouds 3 1017 55 10000 6 330 16:30 02.06.2022
1775 Clouds 3 1017 51 10000 8.05 340 15:58 02.06.2022
1776 Snow 1 1017 93 9000 6 340 13:47 02.06.2022
1777 Snow 1 1017 93 8000 6 340 13:26 02.06.2022
1778 Clouds 3 1016 56 10000 8 330 11:18 02.06.2022
1779 Clouds 3 1016 56 10000 8 340 10:19 02.06.2022
1780 Clouds 3 1015 56 10000 10 340 09:27 02.06.2022
1781 Clouds 4 1015 65 10000 9 340 08:25 02.06.2022
1782 Clouds 5 1015 56 10000 5 340 06:50 02.06.2022
1783 Clouds 3 1015 80 10000 5 330 03:54 02.06.2022
1784 Clouds 3 1015 69 10000 4.02 360 02:22 02.06.2022
1785 Clouds 3 1015 74 10000 5 30 23:36 01.06.2022
1786 Rain 3 1015 80 10000 5 340 22:21 01.06.2022
1787 Clouds 4 1015 75 10000 5 20 21:26 01.06.2022
1788 Rain 4 1015 75 10000 4.02 360 20:39 01.06.2022
1789 Clouds 5 1015 65 10000 6 360 19:52 01.06.2022
1790 Clouds 5 1015 60 10000 6 10 18:52 01.06.2022
1791 Clouds 6 1015 60 10000 8 350 17:40 01.06.2022
1792 Clouds 6 1014 65 10000 9 350 16:22 01.06.2022
1793 Clouds 7 1013 57 10000 8 360 14:51 01.06.2022
1794 Clouds 9 1012 49 10000 7.15 10 13:44 01.06.2022
1795 Clouds 10 1011 53 10000 8.05 10 11:41 01.06.2022
1796 Clouds 12 1009 54 10000 9 350 09:34 01.06.2022
1797 Clouds 13 1008 47 10000 10 350 08:28 01.06.2022
1798 Clouds 14 1008 44 10000 10 340 07:21 01.06.2022
1799 Clear 12 1008 50 10000 7.15 350 04:59 01.06.2022
1800 Clear 10 1010 57 10000 4 360 23:57 31.05.2022
1801 Clear 11 1010 54 10000 4 360 22:51 31.05.2022
1802 Clear 11 1010 53 10000 4.02 10 22:29 31.05.2022
1803 Clear 11 1010 53 10000 4.02 10 21:45 31.05.2022
1804 Clear 12 1010 46 10000 5 20 20:45 31.05.2022
1805 Clear 12 1010 46 10000 5 20 20:45 31.05.2022
1806 Clear 12 1010 50 10000 3.13 360 19:52 31.05.2022
1807 Clear 13 1010 47 10000 4.02 10 18:45 31.05.2022
1808 Clear 14 1010 41 10000 4.02 20 17:49 31.05.2022
1809 Clear 15 1010 35 10000 5 30 16:48 31.05.2022
1810 Clear 16 1010 29 10000 7.15 30 15:40 31.05.2022
1811 Clear 16 1010 36 10000 6 10 13:38 31.05.2022
1812 Clear 16 1010 38 10000 7.15 350 12:19 31.05.2022
1813 Clear 16 1010 36 10000 6 10 10:52 31.05.2022
1814 Clear 15 1010 47 10000 5 20 08:37 31.05.2022
1815 Clear 13 1010 58 10000 5 350 06:52 31.05.2022
1816 Clear 12 1010 57 10000 4.02 30 04:46 31.05.2022
1817 Clear 7 1010 81 10000 3.13 40 23:53 30.05.2022
1818 Clear 8 1010 75 10000 3.13 40 23:25 30.05.2022
1819 Clear 9 1010 75 10000 3.13 30 22:44 30.05.2022
1820 Clear 9 1009 70 10000 3.13 30 21:47 30.05.2022
1821 Clear 9 1009 75 10000 3.13 30 21:29 30.05.2022
1822 Clear 10 1009 66 10000 3.13 10 19:51 30.05.2022
1823 Clear 12 1009 54 10000 2 30 18:26 30.05.2022
1824 Clear 15 1008 44 10000 3.13 20 17:23 30.05.2022
1825 Clear 16 1008 41 10000 4.02 40 16:36 30.05.2022
1826 Clear 16 1007 41 10000 4.02 40 13:44 30.05.2022
1827 Clear 13 1007 58 10000 4 50 11:54 30.05.2022
1828 Clouds 13 1006 62 10000 4.02 30 10:20 30.05.2022
1829 Clouds 12 1006 66 10000 3.13 30 09:18 30.05.2022
1830 Clouds 13 1003 81 10000 6 60 06:28 30.05.2022
1831 Clouds 13 1003 81 10000 4.02 60 05:38 30.05.2022
1832 Clouds 12 1001 100 10000 1 0 01:30 30.05.2022
1833 Rain 13 1002 93 10000 2 10 22:49 29.05.2022
1834 Rain 13 1002 93 9000 2 350 22:29 29.05.2022
1835 Rain 13 1003 93 8000 4 280 20:38 29.05.2022
1836 Clouds 15 1004 72 10000 7.15 280 19:30 29.05.2022
1837 Clouds 16 1004 77 10000 8.05 240 18:34 29.05.2022
1838 Clouds 18 1003 63 10000 5 280 16:40 29.05.2022
1839 Rain 21 1003 49 10000 6 110 15:47 29.05.2022
1840 Clouds 23 1004 33 10000 5 120 14:55 29.05.2022
1841 Clear 24 1004 31 10000 5 120 13:46 29.05.2022
1842 Clouds 25 1006 27 10000 4 120 11:31 29.05.2022
1843 Clear 24 1007 31 10000 3.13 160 10:37 29.05.2022
1844 Clear 23 1008 33 10000 3.13 190 08:36 29.05.2022
1845 Clear 18 1009 48 10000 3.13 160 04:59 29.05.2022
1846 Clear 18 1009 48 10000 3.13 160 04:39 29.05.2022
1847 Clear 11 1010 81 10000 2 70 01:52 29.05.2022
1848 Clear 10 1010 87 10000 0 0 23:48 28.05.2022
1849 Clear 11 1010 81 10000 1 0 23:25 28.05.2022
1850 Clear 13 1010 71 10000 2 160 22:21 28.05.2022
1851 Clear 14 1010 67 10000 3.13 190 21:19 28.05.2022
1852 Clear 14 1010 67 10000 3.13 190 21:19 28.05.2022
1853 Clear 16 1010 51 10000 3.13 190 19:21 28.05.2022
1854 Clear 16 1010 51 10000 4 210 18:45 28.05.2022
1855 Clear 17 1009 51 10000 5 190 17:34 28.05.2022
1856 Clear 18 1009 51 10000 6 210 16:22 28.05.2022
1857 Clear 18 1009 51 10000 6 190 15:38 28.05.2022
1858 Clear 19 1008 45 10000 4.92 180 13:42 28.05.2022
1859 Clear 19 1008 45 10000 5 170 12:43 28.05.2022
1860 Clouds 19 1008 48 10000 4.02 190 11:50 28.05.2022
1861 Clouds 18 1008 51 10000 5 170 10:43 28.05.2022
1862 Clouds 18 1008 51 10000 5 170 09:56 28.05.2022
1863 Clouds 14 1007 76 10000 5 160 08:39 28.05.2022
1864 Clouds 13 1007 76 10000 4.02 200 06:53 28.05.2022
1865 Clouds 15 1006 82 10000 5 200 05:24 28.05.2022
1866 Clouds 16 1006 63 10000 4.02 120 02:33 28.05.2022
1867 Clear 16 1006 58 10000 4.92 120 00:18 28.05.2022
1868 Clear 17 1006 51 10000 5 110 22:49 27.05.2022
1869 Clear 17 1007 51 10000 6 100 21:35 27.05.2022
1870 Clear 18 1007 48 10000 5 120 20:46 27.05.2022
1871 Clear 18 1006 48 10000 7.15 110 20:21 27.05.2022
1872 Clear 19 1007 45 10000 8 110 19:41 27.05.2022
1873 Clear 19 1007 45 10000 8.05 110 19:21 27.05.2022
1874 Clear 21 1007 40 10000 10 110 17:26 27.05.2022
1875 Clear 22 1007 35 10000 9 100 15:57 27.05.2022
1876 Clear 23 1007 31 10000 11.18 110 14:58 27.05.2022
1877 Clear 23 1008 31 10000 11 110 13:41 27.05.2022
1878 Clear 23 1008 31 10000 12.07 100 12:20 27.05.2022
1879 Clear 22 1009 35 10000 11.18 110 11:31 27.05.2022
1880 Clear 23 1009 33 10000 11.18 110 10:47 27.05.2022
1881 Clear 22 1010 35 10000 9 110 09:59 27.05.2022
1882 Clear 22 1010 37 10000 10 110 09:31 27.05.2022
1883 Clear 21 1011 43 10000 8 110 07:40 27.05.2022
1884 Clear 19 1012 48 10000 5 110 04:58 27.05.2022
1885 Clear 15 1013 62 10000 3.13 120 01:44 27.05.2022
1886 Clear 15 1014 62 10000 3.13 120 23:31 26.05.2022
1887 Clear 17 1014 55 10000 4.02 130 22:28 26.05.2022
1888 Clear 17 1014 55 10000 4.02 130 21:32 26.05.2022
1889 Clouds 19 1014 52 10000 4.02 130 19:39 26.05.2022
1890 Clouds 20 1014 49 10000 4.92 120 18:52 26.05.2022
1891 Clouds 21 1014 49 10000 5 120 17:36 26.05.2022
1892 Clouds 22 1014 46 10000 6 110 16:31 26.05.2022
1893 Clouds 22 1014 46 10000 8.05 110 15:32 26.05.2022
1894 Clouds 23 1015 46 10000 7.15 100 14:20 26.05.2022
1895 Clear 25 1015 41 10000 7.15 110 12:18 26.05.2022
1896 Clear 24 1016 43 10000 8.05 110 11:21 26.05.2022
1897 Clouds 23 1016 46 10000 9 100 09:39 26.05.2022
1898 Clouds 22 1017 49 10000 9 110 08:48 26.05.2022
1899 Clear 20 1017 56 10000 7.15 120 06:47 26.05.2022
1900 Clouds 16 1019 63 10000 6 120 02:54 26.05.2022
1901 Clear 15 1019 72 10000 5 120 00:19 26.05.2022
1902 Clear 16 1019 72 10000 4.02 120 22:58 25.05.2022
1903 Clear 15 1019 76 10000 3.13 120 21:44 25.05.2022
1904 Clear 16 1019 67 10000 5 110 20:50 25.05.2022
1905 Clear 17 1019 63 10000 5 110 19:56 25.05.2022
1906 Clear 18 1019 59 10000 5 110 18:48 25.05.2022
1907 Clear 20 1019 56 10000 5 110 17:26 25.05.2022
1908 Clear 20 1019 52 10000 6 110 16:35 25.05.2022
1909 Clear 20 1019 52 10000 5 110 15:49 25.05.2022
1910 Clear 20 1019 56 10000 7.15 100 14:51 25.05.2022
1911 Clear 21 1019 49 10000 6 120 14:32 25.05.2022
1912 Clear 21 1019 46 10000 6 120 13:27 25.05.2022
1913 Clouds 21 1020 52 10000 4.46 94 11:51 25.05.2022
1914 Clouds 21 1020 52 10000 5.81 90 10:42 25.05.2022
1915 Clouds 19 1020 59 10000 5 100 09:46 25.05.2022
1916 Clouds 19 1020 63 10000 4.02 110 08:21 25.05.2022
1917 Clouds 18 1020 61 10000 3.19 90 06:37 25.05.2022
1918 Clear 12 1019 93 10000 2 80 02:46 25.05.2022
1919 Clear 9 1018 93 10000 0 0 23:52 24.05.2022
1920 Clear 9 1018 93 10000 0 0 23:23 24.05.2022
1921 Clear 10 1017 93 10000 0 0 22:18 24.05.2022
1922 Clear 9 1017 100 10000 1.79 90 21:38 24.05.2022
1923 Clear 10 1017 93 10000 0 0 21:19 24.05.2022
1924 Clear 13 1016 87 10000 1 0 19:32 24.05.2022
1925 Clear 13 1016 87 10000 1 60 18:40 24.05.2022
1926 Clouds 16 1015 63 10000 1 0 16:40 24.05.2022
1927 Clouds 15 1014 67 10000 2 190 15:54 24.05.2022
1928 Clouds 16 1014 63 10000 3.13 200 14:45 24.05.2022
1929 Clouds 15 1014 67 10000 2 150 13:48 24.05.2022
1930 Clouds 14 1014 71 10000 2 180 12:42 24.05.2022
1931 Clouds 13 1013 76 10000 2 150 10:18 24.05.2022
1932 Clouds 13 1013 76 10000 1 0 09:41 24.05.2022
1933 Clouds 13 1013 76 10000 2 150 08:43 24.05.2022
1934 Clouds 12 1012 81 10000 3.13 140 06:45 24.05.2022
1935 Clouds 11 1011 81 10000 2 110 03:48 24.05.2022
1936 Clouds 8 1011 93 10000 0 0 01:49 24.05.2022
1937 Clear 7 1010 93 10000 2 90 01:18 24.05.2022
1938 Clouds 10 1010 76 10000 1 0 22:50 23.05.2022
1939 Clouds 11 1010 71 10000 2 160 21:54 23.05.2022
1940 Clouds 9 1010 87 10000 1 0 20:59 23.05.2022
1941 Clouds 8 1010 93 10000 3.13 100 20:26 23.05.2022
1942 Clouds 8 1009 93 10000 4.02 90 19:31 23.05.2022
1943 Clouds 9 1009 87 10000 4.02 90 18:43 23.05.2022
1944 Clouds 9 1009 87 10000 4.02 80 18:22 23.05.2022
1945 Clouds 10 1009 76 10000 5 120 16:51 23.05.2022
1946 Thunderstorm 10 1009 81 10000 2 150 14:52 23.05.2022
1947 Rain 9 1008 81 7000 5 140 12:50 23.05.2022
1948 Clouds 14 1007 41 10000 4.02 160 11:26 23.05.2022
1949 Clear 14 1007 38 10000 5 230 09:50 23.05.2022
1950 Clear 13 1007 47 10000 6 220 09:23 23.05.2022
1951 Clear 11 1005 57 10000 7.15 220 07:48 23.05.2022
1952 Clouds 10 1004 61 10000 8.94 240 06:45 23.05.2022
1953 Clouds 8 1004 81 10000 6 230 05:21 23.05.2022
1954 Rain 8 1000 93 10000 5 210 02:19 23.05.2022
1955 Rain 8 1000 93 10000 4.02 210 01:36 23.05.2022
1956 Rain 8 1000 93 9000 6 230 23:51 22.05.2022
1957 Rain 12 998 81 10000 5 220 22:35 22.05.2022
1958 Clouds 12 997 81 10000 5 240 21:55 22.05.2022
1959 Clouds 13 997 81 10000 3.13 230 20:53 22.05.2022
1960 Clouds 13 997 81 10000 3.13 230 20:27 22.05.2022
1961 Clouds 14 997 77 10000 5 240 19:56 22.05.2022
1962 Clouds 14 996 76 10000 5 270 18:55 22.05.2022
1963 Thunderstorm 15 996 77 10000 7 250 18:25 22.05.2022
1964 Clouds 21 993 49 10000 9 120 17:33 22.05.2022
1965 Clear 21 993 49 10000 11.18 110 16:31 22.05.2022
1966 Clear 22 994 46 10000 11.18 110 14:48 22.05.2022
1967 Clear 23 994 43 10000 12.07 110 13:45 22.05.2022
1968 Clear 22 994 43 10000 11 100 12:50 22.05.2022
1969 Clear 21 995 46 10000 11 110 11:42 22.05.2022
1970 Clear 19 996 48 10000 12.07 110 09:45 22.05.2022
1971 Clear 16 996 55 10000 11.18 110 08:37 22.05.2022
1972 Clear 14 998 58 10000 12.07 110 07:22 22.05.2022
1973 Clear 13 999 58 10000 9 110 05:44 22.05.2022
1974 Clear 8 1002 81 10000 7.15 90 02:23 22.05.2022
1975 Clear 6 1003 93 10000 5 80 00:43 22.05.2022
1976 Clear 6 1003 93 10000 5 90 23:55 21.05.2022
1977 Rain 6 1003 93 10000 5 80 23:20 21.05.2022
1978 Rain 6 1005 86 10000 5 90 21:43 21.05.2022
1979 Rain 6 1006 86 10000 4.02 80 21:23 21.05.2022
1980 Clear 5 1007 86 10000 1 0 20:24 21.05.2022
1981 Clear 5 1005 86 10000 3.13 90 19:35 21.05.2022
1982 Clear 6 1005 81 10000 2 70 17:51 21.05.2022
1983 Clear 7 1005 70 10000 2 50 16:46 21.05.2022
1984 Clear 8 1005 65 10000 3.13 340 14:38 21.05.2022
1985 Clear 8 1005 70 10000 3.13 330 13:52 21.05.2022
1986 Clear 8 1004 65 10000 4.02 290 12:50 21.05.2022
1987 Clear 8 1004 65 10000 5 280 12:26 21.05.2022
1988 Clouds 7 1003 75 10000 6 270 10:34 21.05.2022
1989 Rain 7 1003 75 10000 7 250 09:44 21.05.2022
1990 Rain 6 1003 81 10000 7.15 250 08:57 21.05.2022
1991 Rain 6 1002 86 10000 6 260 07:54 21.05.2022
1992 Clouds 5 999 75 10000 8.05 240 04:29 21.05.2022
1993 Clouds 5 996 80 10000 7.15 230 23:54 20.05.2022
1994 Rain 6 996 75 10000 9 240 22:57 20.05.2022
1995 Clouds 6 996 75 10000 7.15 240 22:24 20.05.2022
1996 Clouds 6 996 75 10000 9 230 21:43 20.05.2022
1997 Rain 6 996 86 10000 9 250 20:56 20.05.2022
1998 Clouds 8 996 65 10000 9 240 19:59 20.05.2022
1999 Clouds 9 996 61 10000 7.15 240 19:26 20.05.2022
2000 Clouds 9 996 61 10000 8.05 230 18:46 20.05.2022
2001 Clouds 10 995 62 10000 5 240 17:24 20.05.2022
2002 Clouds 10 995 71 10000 6 250 16:19 20.05.2022
2003 Clouds 10 995 71 10000 8.05 270 15:47 20.05.2022
2004 Clouds 11 995 66 10000 7.15 250 14:30 20.05.2022
2005 Clouds 12 994 57 10000 8.05 240 13:55 20.05.2022
2006 Clouds 10 994 76 10000 8.94 230 11:38 20.05.2022
2007 Clouds 10 993 76 10000 9 220 10:19 20.05.2022
2008 Clouds 10 992 87 9000 10 220 08:45 20.05.2022
2009 Rain 10 991 93 10000 7.15 220 07:18 20.05.2022
2010 Rain 10 990 93 9000 7.15 220 06:32 20.05.2022
2011 Rain 10 990 93 5000 6 200 04:42 20.05.2022
2012 Clouds 9 990 93 10000 4.02 200 00:54 20.05.2022
2013 Clear 9 991 93 10000 3 180 22:48 19.05.2022
2014 Clear 9 991 93 10000 2 190 22:20 19.05.2022
2015 Clear 10 992 87 10000 3.13 170 21:48 19.05.2022
2016 Clouds 9 992 93 10000 1 0 21:22 19.05.2022
2017 Clear 9 992 93 10000 1 0 20:34 19.05.2022
2018 Clear 9 993 93 10000 2 140 19:50 19.05.2022
2019 Clouds 11 993 87 10000 4.02 140 18:22 19.05.2022
2020 Rain 11 995 93 10000 1 0 16:35 19.05.2022
2021 Rain 12 995 93 10000 2 310 14:52 19.05.2022
2022 Rain 12 995 93 10000 2 300 14:24 19.05.2022
2023 Rain 12 996 93 10000 3.13 210 13:20 19.05.2022
2024 Rain 16 996 67 10000 5 260 11:29 19.05.2022
2025 Clouds 21 996 35 10000 4.02 170 09:27 19.05.2022
2026 Clear 20 997 45 10000 3.13 180 07:50 19.05.2022
2027 Clear 16 998 63 10000 3.13 140 05:32 19.05.2022
2028 Clear 11 999 93 10000 4.02 80 02:23 19.05.2022
2029 Clouds 11 1002 93 10000 1 0 23:57 18.05.2022
2030 Clear 12 1001 87 10000 3.13 140 22:47 18.05.2022
2031 Clear 12 1002 87 10000 4.02 120 21:51 18.05.2022
2032 Clear 12 1002 87 10000 4.02 120 21:29 18.05.2022
2033 Clouds 12 1002 81 10000 4.02 130 20:41 18.05.2022
2034 Clouds 12 1003 87 10000 3.13 130 20:18 18.05.2022
2035 Clouds 12 1003 87 10000 3.13 110 18:28 18.05.2022
2036 Clouds 12 1003 93 10000 4.02 100 17:41 18.05.2022
2037 Clouds 13 1003 87 10000 4.02 100 17:23 18.05.2022
2038 Clouds 14 1003 82 10000 3.13 100 16:34 18.05.2022
2039 Clouds 14 1004 82 10000 3 200 15:41 18.05.2022
2040 Clouds 14 1003 87 10000 4.02 70 14:35 18.05.2022
2041 Thunderstorm 14 1004 82 10000 1 0 13:35 18.05.2022
2042 Clouds 15 1003 72 10000 4 100 12:42 18.05.2022
2043 Thunderstorm 14 1003 88 10000 3 140 11:34 18.05.2022
2044 Thunderstorm 16 1003 67 8000 5 240 10:56 18.05.2022
2045 Thunderstorm 16 1003 67 8000 5 240 10:56 18.05.2022
2046 Clouds 20 1002 49 10000 3.13 220 09:31 18.05.2022
2047 Clear 17 1002 59 10000 3.13 160 07:36 18.05.2022
2048 Clear 15 1001 72 10000 1 0 05:56 18.05.2022
2049 Clouds 7 999 93 10000 0 0 01:20 18.05.2022
2050 Clear 7 998 100 10000 1 0 00:22 18.05.2022
2051 Clear 9 997 93 10000 2 290 21:56 17.05.2022
2052 Clear 9 997 93 10000 2 280 21:20 17.05.2022
2053 Clear 10 996 87 10000 4.02 280 19:59 17.05.2022
2054 Clouds 11 996 87 10000 3.13 280 19:27 17.05.2022
2055 Clouds 13 995 76 10000 3.13 230 17:50 17.05.2022
2056 Thunderstorm 15 995 58 10000 2 350 16:59 17.05.2022
2057 Clouds 16 995 51 10000 3.13 10 16:29 17.05.2022
2058 Clear 16 994 63 10000 3.13 360 15:25 17.05.2022
2059 Clear 17 994 55 10000 4.02 360 14:30 17.05.2022
2060 Clear 17 993 55 10000 5 320 13:34 17.05.2022
2061 Clouds 17 993 51 10000 4.02 10 11:43 17.05.2022
2062 Clouds 13 993 81 10000 4.02 360 09:27 17.05.2022
2063 Clouds 13 993 76 10000 3.13 30 08:25 17.05.2022
2064 Clouds 14 993 77 10000 3 80 06:46 17.05.2022
2065 Clouds 11 994 93 10000 1 0 03:20 17.05.2022
2066 Clear 11 995 93 10000 1.79 90 00:43 17.05.2022
2067 Clouds 11 996 93 10000 3 280 22:43 16.05.2022
2068 Clouds 11 996 93 10000 1 0 21:41 16.05.2022
2069 Clouds 12 997 93 10000 1 0 20:47 16.05.2022
2070 Rain 12 998 87 9000 1.79 170 19:43 16.05.2022
2071 Rain 13 999 87 6000 4.02 160 18:20 16.05.2022
2072 Clear 18 999 45 10000 3.13 120 15:50 16.05.2022
2073 Clouds 19 1000 45 10000 2 310 13:56 16.05.2022
2074 Clouds 17 1000 55 10000 4.02 290 13:23 16.05.2022
2075 Clear 21 1000 32 10000 6 220 11:25 16.05.2022
2076 Clear 19 1001 39 10000 5 210 09:37 16.05.2022
2077 Clear 16 1002 51 10000 4.02 200 06:56 16.05.2022
2078 Clouds 13 1002 62 10000 3.13 210 03:58 16.05.2022
2079 Clear 9 1002 81 10000 0 0 23:38 15.05.2022
2080 Clear 11 1002 66 10000 0 0 22:32 15.05.2022
2081 Clear 11 1003 66 10000 0 0 21:47 15.05.2022
2082 Clouds 13 1002 58 10000 1 0 20:57 15.05.2022
2083 Clear 13 1002 58 10000 0 0 19:52 15.05.2022
2084 Clear 18 1002 39 10000 2 200 17:52 15.05.2022
2085 Clear 20 1002 30 10000 3 230 16:29 15.05.2022
2086 Clear 20 1002 30 10000 6 250 13:58 15.05.2022
2087 Clear 20 1002 30 10000 6 240 12:50 15.05.2022
2088 Clear 19 1002 37 10000 6 240 11:40 15.05.2022
2089 Clear 19 1002 42 10000 4.02 230 10:27 15.05.2022
2090 Clouds 16 1002 58 10000 4.02 230 08:45 15.05.2022
2091 Clouds 13 1002 87 10000 4.02 220 06:58 15.05.2022
2092 Clouds 13 1002 87 10000 4.02 240 05:52 15.05.2022
2093 Clouds 12 1002 93 10000 2 160 00:49 15.05.2022
2094 Clouds 12 1002 93 10000 3 160 23:39 14.05.2022
2095 Clouds 13 1002 87 10000 3.13 150 22:59 14.05.2022
2096 Clouds 12 1003 100 10000 2 90 21:29 14.05.2022
2097 Rain 14 1003 76 10000 1 0 20:53 14.05.2022
2098 Clouds 14 1003 76 10000 0.89 0 19:38 14.05.2022
2099 Clouds 15 1003 62 10000 0 0 19:19 14.05.2022
2100 Clouds 16 1003 58 10000 1 210 18:44 14.05.2022
2101 Clouds 17 1003 55 10000 4.02 230 16:46 14.05.2022
2102 Clear 21 1002 35 10000 5 210 15:30 14.05.2022
2103 Clouds 22 1002 33 10000 5 190 14:34 14.05.2022
2104 Clouds 23 1001 31 10000 6 200 12:24 14.05.2022
2105 Rain 21 1002 35 9000 5 170 10:59 14.05.2022
2106 Clouds 24 1001 25 10000 6 160 10:21 14.05.2022
2107 Clouds 24 1001 25 10000 7.15 150 09:53 14.05.2022
2108 Clear 25 1002 22 10000 7.15 160 08:49 14.05.2022
2109 Clear 20 1003 37 10000 5 130 06:41 14.05.2022
2110 Clear 10 1007 81 10000 3 100 02:39 14.05.2022
2111 Clear 10 1008 87 10000 3.13 90 23:36 13.05.2022
2112 Clear 11 1009 81 10000 4.02 90 22:58 13.05.2022
2113 Clear 10 1009 87 10000 2 80 22:27 13.05.2022
2114 Clear 11 1009 81 10000 3.13 90 21:52 13.05.2022
2115 Clear 12 1010 81 10000 4.02 100 20:45 13.05.2022
2116 Clear 13 1010 76 10000 4.02 90 20:27 13.05.2022
2117 Clear 15 1010 62 10000 4.02 100 19:28 13.05.2022
2118 Clear 16 1011 58 10000 2 80 17:50 13.05.2022
2119 Clear 17 1011 55 10000 3.13 90 17:27 13.05.2022
2120 Clear 19 1011 45 10000 4.02 120 16:20 13.05.2022
2121 Clear 20 1012 39 10000 2 180 15:28 13.05.2022
2122 Clear 20 1012 37 10000 3 200 13:41 13.05.2022
2123 Clear 20 1013 39 10000 3.13 190 12:28 13.05.2022
2124 Clear 18 1014 45 10000 3.13 300 10:53 13.05.2022
2125 Clouds 17 1015 55 10000 3.13 210 09:34 13.05.2022
2126 Clouds 16 1015 58 10000 3.13 220 08:24 13.05.2022
2127 Clouds 16 1015 63 10000 4.02 190 07:48 13.05.2022
2128 Clouds 14 1016 76 10000 2 210 06:33 13.05.2022
2129 Clouds 11 1015 93 10000 1 0 02:48 13.05.2022
2130 Clear 11 1015 87 10000 2 240 23:56 12.05.2022
2131 Clear 12 1015 81 10000 3.13 230 22:44 12.05.2022
2132 Clear 13 1015 71 10000 3.13 230 21:54 12.05.2022
2133 Clear 13 1014 71 10000 2 200 20:27 12.05.2022
2134 Clear 16 1014 55 10000 2 250 18:51 12.05.2022
2135 Clear 18 1014 42 10000 2 210 16:58 12.05.2022
2136 Clear 18 1014 39 10000 2 200 15:50 12.05.2022
2137 Clear 19 1014 34 10000 4.02 140 14:40 12.05.2022
2138 Clear 19 1014 37 10000 5 170 13:38 12.05.2022
2139 Clear 18 1015 34 10000 5 200 10:45 12.05.2022
2140 Clear 18 1015 27 10000 5 140 09:28 12.05.2022
2141 Clear 18 1015 27 10000 5 150 08:50 12.05.2022
2142 Clear 16 1015 31 10000 4.02 140 07:40 12.05.2022
2143 Clear 14 1016 38 10000 3.13 160 05:46 12.05.2022
2144 Clear 11 1016 46 10000 2 160 02:49 12.05.2022
2145 Clear 12 1016 43 10000 3.13 140 00:35 12.05.2022
2146 Clear 12 1017 46 10000 2 130 22:34 11.05.2022
2147 Clear 12 1017 43 10000 2 130 21:38 11.05.2022
2148 Clear 13 1017 40 10000 2 140 20:55 11.05.2022
2149 Clear 16 1017 33 10000 3.13 170 18:33 11.05.2022
2150 Clear 18 1017 32 10000 3 170 16:53 11.05.2022
2151 Clear 19 1017 29 10000 3.13 150 14:58 11.05.2022
2152 Clear 19 1017 29 10000 4 160 14:38 11.05.2022
2153 Clear 19 1018 27 10000 4.02 160 14:18 11.05.2022
2154 Clear 20 1019 26 10000 8.05 160 11:52 11.05.2022
2155 Clear 20 1019 28 10000 5 180 10:44 11.05.2022
2156 Clear 19 1020 29 10000 5 190 08:40 11.05.2022
2157 Clear 15 1021 41 10000 2 210 05:27 11.05.2022
2158 Clear 12 1020 46 10000 2 170 00:42 11.05.2022
2159 Clear 10 1020 53 10000 1 0 22:31 10.05.2022
2160 Clear 11 1020 50 10000 2 140 21:56 10.05.2022
2161 Clear 12 1020 46 10000 1 100 20:56 10.05.2022
2162 Clear 15 1021 38 10000 3.13 140 19:27 10.05.2022
2163 Clear 17 1020 33 10000 2 160 17:58 10.05.2022
2164 Clear 18 1020 29 10000 2 160 17:21 10.05.2022
2165 Clear 21 1020 22 10000 4.02 180 15:28 10.05.2022
2166 Clear 22 1021 19 10000 4.02 200 12:39 10.05.2022
2167 Clear 22 1021 19 10000 5 170 11:50 10.05.2022
2168 Clear 22 1022 18 10000 4.02 220 11:20 10.05.2022
2169 Clear 22 1022 19 10000 3.13 230 10:26 10.05.2022
2170 Clear 21 1022 22 10000 4.02 200 09:25 10.05.2022
2171 Clear 18 1023 34 10000 4.02 180 06:54 10.05.2022
2172 Clear 10 1023 61 10000 1 0 03:30 10.05.2022
2173 Clear 6 1022 75 10000 2 30 00:57 10.05.2022
2174 Clear 9 1022 61 10000 2 160 22:56 09.05.2022
2175 Clear 10 1022 61 10000 2 130 21:50 09.05.2022
2176 Clear 11 1022 58 10000 2 120 20:52 09.05.2022
2177 Clear 11 1022 53 10000 2 150 19:23 09.05.2022
2178 Clear 13 1022 47 10000 3 110 17:51 09.05.2022
2179 Clear 16 1022 36 10000 2 170 16:34 09.05.2022
2180 Clear 17 1022 34 10000 3 180 15:52 09.05.2022
2181 Clear 18 1022 29 10000 3.13 200 15:24 09.05.2022
2182 Clear 19 1022 25 10000 4.02 230 14:29 09.05.2022
2183 Clouds 18 1022 27 10000 4.02 210 13:49 09.05.2022
2184 Clouds 17 1022 33 10000 6 220 12:26 09.05.2022
2185 Clouds 18 1022 29 10000 5 230 11:32 09.05.2022
2186 Clouds 18 1022 31 10000 5 240 10:42 09.05.2022
2187 Clear 17 1022 39 10000 4 230 08:45 09.05.2022
2188 Clear 15 1022 47 10000 3 230 07:54 09.05.2022
2189 Clouds 7 1022 81 10000 2 180 03:21 09.05.2022
2190 Clear 6 1022 81 10000 2 160 23:37 08.05.2022
2191 Clear 6 1023 81 10000 3 160 22:55 08.05.2022
2192 Clear 5 1023 81 10000 3 160 21:55 08.05.2022
2193 Clear 5 1023 81 10000 3 150 20:35 08.05.2022
2194 Clear 4 1023 86 10000 3 160 19:45 08.05.2022
2195 Clear 5 1023 81 10000 2 150 18:54 08.05.2022
2196 Clear 6 1023 75 10000 1 120 17:59 08.05.2022
2197 Clear 8 1024 66 10000 3 210 16:44 08.05.2022
2198 Clear 8 1024 61 10000 3 210 15:39 08.05.2022
2199 Clear 8 1024 61 10000 4 210 14:45 08.05.2022
2200 Clouds 7 1024 56 10000 5 220 12:27 08.05.2022
2201 Clouds 6 1024 56 10000 5 200 10:32 08.05.2022
2202 Clouds 6 1024 56 10000 5 220 09:57 08.05.2022
2203 Clouds 6 1024 56 10000 4 220 08:56 08.05.2022
2204 Clear 5 1024 56 10000 5 220 07:25 08.05.2022
2205 Clear 0 1023 74 10000 3.13 240 03:40 08.05.2022
2206 Clear -2 1022 79 10000 2 230 02:45 08.05.2022
2207 Clear -6 1022 92 10000 0 0 00:28 08.05.2022
2208 Clear -6 1022 85 10000 1 110 23:50 07.05.2022
2209 Clear -6 1022 85 10000 2 100 22:46 07.05.2022
2210 Clear -5 1022 80 10000 2 110 21:59 07.05.2022
2211 Clear -5 1022 74 10000 2 100 21:34 07.05.2022
2212 Clear -4 1021 68 10000 1 90 20:28 07.05.2022
2213 Clear -4 1021 74 10000 1 0 19:44 07.05.2022
2214 Clear -2 1021 64 10000 0 0 17:35 07.05.2022
2215 Clear 1 1021 47 10000 4 320 15:46 07.05.2022
2216 Clear 1 1020 43 10000 8.05 320 13:39 07.05.2022
2217 Clouds -1 1019 46 10000 10 300 10:41 07.05.2022
2218 Clouds -2 1017 54 10000 11.18 300 09:19 07.05.2022
2219 Clouds -3 1016 58 10000 10 320 07:50 07.05.2022
2220 Clouds -3 1015 58 9000 11 320 06:43 07.05.2022
2221 Clouds -4 1011 62 8000 9.83 320 04:41 07.05.2022
2222 Clouds -3 1007 73 8000 10 320 01:19 07.05.2022
2223 Clouds -2 1004 64 8000 9 340 23:36 06.05.2022
2224 Clouds -3 1003 68 2200 13 360 22:26 06.05.2022
2225 Clouds -3 1002 73 1000 12 350 21:41 06.05.2022
2226 Clouds -3 1001 86 450 13 340 20:24 06.05.2022
2227 Clouds -3 1000 92 700 13 350 19:29 06.05.2022
2228 Snow -3 1000 92 800 12.07 360 18:56 06.05.2022
2229 Snow -3 999 92 350 12.96 360 17:38 06.05.2022
2230 Snow -2 997 92 150 10 20 15:56 06.05.2022
2231 Snow -2 997 92 200 9.83 20 15:38 06.05.2022
2232 Snow -1 998 86 1600 8.05 30 14:23 06.05.2022
2233 Clouds 0 998 92 10000 9 30 12:53 06.05.2022
2234 Clouds 1 998 86 10000 7.15 30 12:30 06.05.2022
2235 Clouds 1 997 86 10000 10 60 11:38 06.05.2022
2236 Clouds 1 1000 93 10000 6 50 09:49 06.05.2022
2237 Clouds 1 1000 93 10000 6 50 09:19 06.05.2022
2238 Clouds 1 1001 93 10000 9 70 07:57 06.05.2022
2239 Snow 0 1003 100 2400 9 70 06:29 06.05.2022
2240 Snow 0 1006 100 1900 8.05 70 04:37 06.05.2022
2241 Snow 1 1008 93 1400 7.15 60 02:43 06.05.2022
2242 Snow 2 1010 93 10000 4.02 100 23:34 05.05.2022
2243 Clear 3 1011 80 10000 3.13 100 21:52 05.05.2022
2244 Clear 3 1011 80 10000 4.02 90 20:53 05.05.2022
2245 Clear 3 1011 80 10000 2 50 19:49 05.05.2022
2246 Clouds 4 1011 80 10000 2 20 16:53 05.05.2022
2247 Clouds 4 1010 80 10000 2 20 15:52 05.05.2022
2248 Clouds 4 1010 86 10000 5.81 10 14:37 05.05.2022
2249 Clouds 4 1009 86 10000 4.02 360 13:18 05.05.2022
2250 Rain 3 1008 93 10000 6 350 12:24 05.05.2022
2251 Clear 6 1006 70 10000 8.05 330 10:30 05.05.2022
2252 Clear 10 1004 49 10000 8.05 320 09:34 05.05.2022
2253 Clear 14 1003 30 10000 8.05 240 07:19 05.05.2022
2254 Clear 9 1003 42 10000 5 190 02:33 05.05.2022
2255 Clear 9 1003 42 10000 5 190 01:47 05.05.2022
2256 Clear 10 1003 40 10000 6 190 01:20 05.05.2022
2257 Clear 10 1004 39 10000 6 190 23:28 04.05.2022
2258 Clear 10 1005 42 10000 6 190 22:25 04.05.2022
2259 Clear 10 1005 42 10000 6 190 21:48 04.05.2022
2260 Clear 10 1005 42 10000 6 190 21:26 04.05.2022
2261 Clear 11 1006 40 10000 7.15 190 20:22 04.05.2022
2262 Clear 11 1006 40 10000 6 190 19:51 04.05.2022
2263 Clear 12 1006 37 10000 6 190 18:45 04.05.2022
2264 Clear 12 1007 37 10000 5 190 18:20 04.05.2022
2265 Clear 13 1006 33 10000 5 190 17:28 04.05.2022
2266 Clear 14 1007 30 10000 6 200 15:38 04.05.2022
2267 Clear 15 1007 28 10000 7 200 14:49 04.05.2022
2268 Clear 15 1007 28 10000 6 200 14:20 04.05.2022
2269 Clear 14 1008 33 10000 8.05 190 12:58 04.05.2022
2270 Clear 14 1008 30 10000 8.05 190 12:24 04.05.2022
2271 Clear 13 1009 32 10000 9 200 10:30 04.05.2022
2272 Clear 12 1010 32 10000 7.15 190 09:23 04.05.2022
2273 Clouds 10 1011 34 10000 7.15 190 08:33 04.05.2022
2274 Clear 6 1013 38 10000 7.15 200 05:44 04.05.2022
2275 Clear 1 1015 50 10000 4.02 200 02:43 04.05.2022
2276 Clear 0 1015 50 10000 4.02 200 23:31 03.05.2022
2277 Clear 1 1015 47 10000 4.02 190 22:20 03.05.2022
2278 Clear 1 1015 47 10000 3.13 190 21:33 03.05.2022
2279 Clear 1 1015 47 10000 3.13 200 20:52 03.05.2022
2280 Clear 1 1015 51 10000 3 190 19:39 03.05.2022
2281 Clear 1 1015 51 10000 3 190 18:48 03.05.2022
2282 Clear 3 1015 44 10000 2 220 17:34 03.05.2022
2283 Clear 3 1015 41 10000 3 290 16:28 03.05.2022
2284 Clear 4 1014 41 10000 5 300 14:43 03.05.2022
2285 Clear 4 1013 44 10000 6 330 12:47 03.05.2022
2286 Clear 4 1013 44 10000 6 320 12:25 03.05.2022
2287 Clouds 3 1012 51 10000 5 320 10:52 03.05.2022
2288 Clouds 4 1011 65 10000 5 270 08:38 03.05.2022
2289 Clear 2 1010 74 10000 4.02 220 06:46 03.05.2022
2290 Clear -2 1009 86 10000 3.13 320 03:34 03.05.2022
2291 Snow -1 1006 100 6000 7.15 320 23:44 02.05.2022
2292 Snow 0 1004 92 900 8.05 310 22:34 02.05.2022
2293 Snow 0 1004 100 1400 7.15 320 21:49 02.05.2022
2294 Snow 0 1003 100 2300 5 290 20:50 02.05.2022
2295 Snow 1 1002 93 6000 4.02 250 18:35 02.05.2022
2296 Snow 1 1002 93 5000 4.02 260 17:44 02.05.2022
2297 Rain 3 1002 93 10000 5 240 16:50 02.05.2022
2298 Rain 4 1002 75 10000 8.05 250 15:56 02.05.2022
2299 Clear 7 1001 39 10000 1 0 14:57 02.05.2022
2300 Clear 7 1002 42 10000 2 240 13:48 02.05.2022
2301 Clear 7 1002 36 10000 1 0 12:18 02.05.2022
2302 Clear 8 1002 31 10000 1 0 10:20 02.05.2022
2303 Clear 7 1002 36 10000 2 310 08:46 02.05.2022
2304 Clouds 7 1003 36 10000 2 250 07:30 02.05.2022
2305 Clear -2 1006 74 10000 2 90 01:28 02.05.2022
2306 Clear -2 1007 74 10000 1 0 00:23 02.05.2022
2307 Clear -1 1007 68 10000 2 110 23:46 01.05.2022
2308 Clear -2 1009 74 10000 3.13 90 21:56 01.05.2022
2309 Clear -1 1009 68 10000 3.13 80 20:50 01.05.2022
2310 Clear 0 1010 64 10000 3 90 19:46 01.05.2022
2311 Clear 1 1011 55 10000 2 100 18:53 01.05.2022
2312 Clear 3 1011 44 10000 2 90 17:57 01.05.2022
2313 Clear 6 1012 31 10000 2 160 16:46 01.05.2022
2314 Clear 7 1012 29 10000 3 160 16:23 01.05.2022
2315 Clear 7 1012 26 10000 4 150 15:22 01.05.2022
2316 Clear 7 1014 30 10000 2 200 13:23 01.05.2022
2317 Clear 7 1017 28 10000 5 180 10:46 01.05.2022
2318 Clear 6 1018 33 10000 6 210 08:51 01.05.2022
2319 Clear 4 1020 44 10000 6 190 06:53 01.05.2022
2320 Clear -1 1021 63 10000 0 0 02:51 01.05.2022
2321 Clear -3 1021 73 10000 0 0 22:58 30.04.2022
2322 Clear -3 1021 79 10000 0 0 21:35 30.04.2022
2323 Clear -3 1021 79 10000 0 0 20:35 30.04.2022
2324 Clear -2 1021 69 10000 1 250 19:33 30.04.2022
2325 Clear 0 1021 55 10000 0 0 17:38 30.04.2022
2326 Clear 3 1021 44 10000 4 280 16:34 30.04.2022
2327 Clear 4 1021 44 10000 5 290 15:19 30.04.2022
2328 Clear 3 1021 40 10000 5 260 14:31 30.04.2022
2329 Clear 3 1021 37 10000 4.02 290 12:36 30.04.2022
2330 Clouds 3 1021 44 10000 5 270 11:32 30.04.2022
2331 Clouds 2 1021 43 10000 4.02 290 10:31 30.04.2022
2332 Clouds 1 1022 50 10000 4.02 300 08:34 30.04.2022
2333 Clouds -1 1021 74 10000 2 270 05:19 30.04.2022
2334 Clouds -1 1020 80 10000 2 330 00:35 30.04.2022
2335 Clouds -1 1020 74 10000 4 330 23:36 29.04.2022
2336 Clouds -1 1020 74 10000 3.13 320 22:30 29.04.2022
2337 Clouds -1 1020 80 10000 4.02 330 21:26 29.04.2022
2338 Clouds -1 1019 80 10000 4 330 20:36 29.04.2022
2339 Clouds 0 1019 80 10000 3.13 320 19:36 29.04.2022
2340 Clouds 0 1019 80 10000 4.02 310 17:48 29.04.2022
2341 Clouds 1 1018 74 10000 4.02 310 16:43 29.04.2022
2342 Clouds 1 1017 74 10000 6 290 14:38 29.04.2022
2343 Clouds 1 1017 74 10000 6 290 14:38 29.04.2022
2344 Clouds 1 1017 74 10000 6 290 14:38 29.04.2022
2345 Clouds 1 1016 80 10000 7.15 290 13:59 29.04.2022
2346 Clouds 2 1016 74 10000 8.05 290 12:41 29.04.2022
2347 Clouds 3 1013 80 10000 9 280 10:57 29.04.2022
2348 Clouds 4 1009 93 10000 9 260 08:18 29.04.2022
2349 Drizzle 4 1007 100 9000 10 250 07:27 29.04.2022
2350 Mist 4 1007 100 2300 7.15 250 06:34 29.04.2022
2351 Fog 2 1005 100 100 1 0 03:23 29.04.2022
2352 Fog 2 1006 100 150 2 90 00:18 29.04.2022
2353 Fog 2 1006 100 300 2 90 23:26 28.04.2022
2354 Fog 2 1006 100 500 2 70 22:37 28.04.2022
2355 Fog 2 1006 100 500 3.13 80 21:45 28.04.2022
2356 Mist 2 1006 100 2700 2 80 20:49 28.04.2022
2357 Fog 2 1006 100 500 2 40 19:57 28.04.2022
2358 Fog 2 1006 100 500 2 40 19:39 28.04.2022
2359 Mist 2 1006 100 1500 2 20 19:19 28.04.2022
2360 Clouds 3 1007 100 6000 2 50 17:56 28.04.2022
2361 Clouds 3 1007 100 10000 3.13 120 16:58 28.04.2022
2362 Clouds 3 1007 100 10000 3.13 130 16:21 28.04.2022
2363 Clouds 3 1007 100 10000 2 80 15:52 28.04.2022
2364 Rain 3 1008 100 10000 4.02 20 15:21 28.04.2022
2365 Rain 4 1008 100 9000 3.13 350 13:43 28.04.2022
2366 Clouds 5 1009 93 10000 2 290 12:32 28.04.2022
2367 Clouds 5 1009 93 10000 3.13 260 11:51 28.04.2022
2368 Clouds 5 1009 93 10000 5 260 10:29 28.04.2022
2369 Clouds 6 1009 93 10000 6 260 09:50 28.04.2022
2370 Mist 6 1009 100 4300 7.15 250 07:45 28.04.2022
2371 Mist 7 1007 100 3200 6 250 06:54 28.04.2022
2372 Mist 7 1007 100 2400 7.15 260 05:54 28.04.2022
2373 Fog 8 1006 100 550 5 240 04:43 28.04.2022
2374 Fog 8 1006 100 150 1 0 03:28 28.04.2022
2375 Fog 8 1006 100 300 2 140 23:43 27.04.2022
2376 Fog 8 1007 100 100 1 0 22:25 27.04.2022
2377 Fog 8 1007 100 100 0 0 21:50 27.04.2022
2378 Fog 9 1007 100 200 2 160 20:51 27.04.2022
2379 Rain 9 1008 93 200 3.13 170 20:32 27.04.2022
2380 Fog 8 1008 100 150 1.79 170 19:36 27.04.2022
2381 Fog 8 1008 100 600 2 170 18:45 27.04.2022
2382 Rain 8 1008 100 4100 3.13 180 18:21 27.04.2022
2383 Fog 8 1008 93 10000 0 0 16:21 27.04.2022
2384 Clear 13 1007 58 10000 4 230 13:29 27.04.2022
2385 Clear 13 1007 54 10000 6 220 11:37 27.04.2022
2386 Clear 13 1007 54 10000 7 220 11:18 27.04.2022
2387 Rain 9 1007 61 10000 4 190 08:53 27.04.2022
2388 Clouds 9 1009 45 10000 5 190 06:44 27.04.2022
2389 Clear 5 1011 52 10000 5 180 03:30 27.04.2022
2390 Clear 1 1013 69 10000 3.13 140 01:27 27.04.2022
2391 Clear 1 1014 64 10000 3.13 140 00:35 27.04.2022
2392 Clear 2 1014 59 10000 4.02 150 23:24 26.04.2022
2393 Clear 2 1015 59 10000 4.02 160 22:52 26.04.2022
2394 Clear 2 1015 59 10000 4.02 140 22:32 26.04.2022
2395 Clear 1 1015 64 10000 3.13 130 21:25 26.04.2022
2396 Clear 1 1016 64 10000 4.02 130 20:40 26.04.2022
2397 Clear 1 1016 64 10000 4.02 130 20:40 26.04.2022
2398 Clear 1 1016 64 10000 4.02 120 19:48 26.04.2022
2399 Clear -1 1016 74 10000 3.13 110 19:26 26.04.2022
2400 Clear -1 1017 74 10000 0 0 18:40 26.04.2022
2401 Clear 0 1017 69 10000 0 0 17:50 26.04.2022
2402 Clear 4 1017 44 10000 2 360 16:19 26.04.2022
2403 Clear 5 1017 52 10000 4 350 13:58 26.04.2022
2404 Clear 5 1017 52 10000 5 340 13:29 26.04.2022
2405 Clear 4 1016 55 10000 4.02 360 11:32 26.04.2022
2406 Clear 4 1016 55 10000 5 10 10:31 26.04.2022
2407 Clear 4 1016 55 10000 5 350 08:47 26.04.2022
2408 Clear 3 1014 65 10000 4 360 05:46 26.04.2022
2409 Clear 1 1014 74 10000 4.02 360 04:23 26.04.2022
2410 Clear -1 1012 86 10000 2 50 00:53 26.04.2022
2411 Clear 0 1011 80 10000 3.13 40 23:52 25.04.2022
2412 Clear 1 1011 74 10000 1 100 22:18 25.04.2022
2413 Clear 3 1011 64 10000 2 80 21:33 25.04.2022
2414 Clear 3 1011 64 10000 3.13 90 20:26 25.04.2022
2415 Clear 4 1011 60 10000 3 70 18:52 25.04.2022
2416 Clear 4 1011 60 10000 3 80 17:40 25.04.2022
2417 Clear 5 1011 56 10000 3 70 16:50 25.04.2022
2418 Clear 7 1011 53 10000 4 70 15:23 25.04.2022
2419 Clear 10 1011 37 10000 2 90 14:34 25.04.2022
2420 Clear 11 1011 25 10000 3 300 13:21 25.04.2022
2421 Clear 10 1011 32 10000 3 210 10:44 25.04.2022
2422 Clear 9 1011 34 10000 2 220 09:42 25.04.2022
2423 Clear 7 1011 42 10000 3 220 07:56 25.04.2022
2424 Clear 5 1012 48 10000 3 220 05:55 25.04.2022
2425 Clear 3 1012 55 10000 5 250 01:49 25.04.2022
2426 Clear 3 1013 51 10000 4.02 220 23:57 24.04.2022
2427 Clear 3 1013 51 10000 4.02 220 23:28 24.04.2022
2428 Clear 3 1013 51 10000 4.02 220 22:39 24.04.2022
2429 Clear 2 1014 55 10000 3.13 190 21:56 24.04.2022
2430 Clear 2 1014 55 10000 2 200 21:22 24.04.2022
2431 Clear 2 1014 55 10000 2 200 21:22 24.04.2022
2432 Clear 3 1014 47 10000 2 210 20:46 24.04.2022
2433 Clear 3 1015 51 10000 2 210 20:21 24.04.2022
2434 Clear 3 1016 51 10000 3.13 190 18:44 24.04.2022
2435 Clear 3 1016 47 10000 3.13 190 17:54 24.04.2022
2436 Clear 3 1016 47 10000 3.13 190 17:54 24.04.2022
2437 Clear 3 1017 47 10000 3.13 190 17:21 24.04.2022
2438 Clear 3 1017 47 10000 2 200 16:55 24.04.2022
2439 Clear 4 1017 48 10000 2 200 16:29 24.04.2022
2440 Clear 4 1017 45 10000 3 230 15:43 24.04.2022
2441 Clear 4 1018 41 10000 4 220 14:36 24.04.2022
2442 Clear 4 1018 38 10000 6 210 13:27 24.04.2022
2443 Clear 4 1018 38 10000 6 220 12:56 24.04.2022
2444 Clear 3 1019 40 10000 6 220 11:50 24.04.2022
2445 Clear 2 1020 40 10000 6 220 10:47 24.04.2022
2446 Clear 1 1020 43 10000 6 220 09:47 24.04.2022
2447 Clear -1 1021 46 10000 5 220 07:55 24.04.2022
2448 Clear -4 1022 58 10000 4.02 220 05:45 24.04.2022
2449 Clear -12 1023 85 10000 0 0 02:30 24.04.2022
2450 Clear -12 1022 78 10000 0 0 00:45 24.04.2022
2451 Clear -11 1023 85 10000 0 0 23:46 23.04.2022
2452 Clear -12 1023 92 10000 0 0 23:25 23.04.2022
2453 Clear -11 1023 85 10000 2 280 21:59 23.04.2022
2454 Clear -10 1022 79 10000 2 280 21:38 23.04.2022
2455 Clear -10 1023 85 10000 1 290 20:59 23.04.2022
2456 Clear -9 1023 78 10000 2 290 19:56 23.04.2022
2457 Clear -8 1023 72 10000 3.13 340 19:20 23.04.2022
2458 Clear -8 1023 72 10000 3.13 330 18:53 23.04.2022
2459 Clear -8 1023 72 10000 2 330 18:31 23.04.2022
2460 Clear -8 1023 72 10000 2 320 17:44 23.04.2022
2461 Clear -7 1023 73 10000 4.02 330 16:44 23.04.2022
2462 Clear -5 1023 62 10000 5 330 15:36 23.04.2022
2463 Clear -5 1022 62 10000 7.15 340 12:59 23.04.2022
2464 Clear -6 1022 67 10000 8.05 330 11:24 23.04.2022
2465 Clouds -7 1021 67 10000 8.05 330 09:38 23.04.2022
2466 Clouds -9 1020 72 10000 7.15 330 07:52 23.04.2022
2467 Snow -11 1018 78 7000 6 330 03:56 23.04.2022
2468 Snow -10 1018 85 2800 5 340 01:59 23.04.2022
2469 Snow -9 1017 78 3600 3.13 330 23:34 22.04.2022
2470 Snow -10 1017 85 5000 3.13 330 22:32 22.04.2022
2471 Snow -10 1017 85 5000 3.13 320 21:44 22.04.2022
2472 Snow -11 1017 85 8000 4.02 320 21:20 22.04.2022
2473 Snow -11 1017 78 7000 4.02 310 20:28 22.04.2022
2474 Clear -12 1017 85 10000 3.13 300 19:23 22.04.2022
2475 Clouds -12 1017 78 10000 3.13 290 18:52 22.04.2022
2476 Clouds -11 1017 66 10000 3.13 300 17:54 22.04.2022
2477 Clouds -10 1017 61 10000 3.13 320 16:52 22.04.2022
2478 Clouds -10 1016 56 10000 3.13 330 15:56 22.04.2022
2479 Clouds -9 1016 56 10000 4.02 340 15:22 22.04.2022
2480 Clouds -8 1016 52 10000 5 330 13:54 22.04.2022
2481 Snow -9 1015 61 10000 5 330 13:27 22.04.2022
2482 Snow -9 1015 61 1100 6 320 12:29 22.04.2022
2483 Snow -9 1014 61 9000 5 330 11:22 22.04.2022
2484 Snow -10 1014 66 7000 6 320 10:52 22.04.2022
2485 Snow -10 1014 72 8000 7.15 300 10:31 22.04.2022
2486 Clouds -9 1013 61 10000 7.15 290 09:53 22.04.2022
2487 Snow -10 1013 66 7000 6 320 08:56 22.04.2022
2488 Snow -10 1012 61 5000 7.15 290 07:44 22.04.2022
2489 Snow -11 1011 72 10000 7.15 310 05:20 22.04.2022
2490 Clouds -11 1011 78 10000 5 280 00:53 22.04.2022
2491 Snow -11 1011 85 10000 5 280 23:28 21.04.2022
2492 Clouds -11 1011 78 10000 4.02 320 22:29 21.04.2022
2493 Snow -10 1012 85 6000 5 300 20:55 21.04.2022
2494 Snow -10 1012 78 10000 4.02 290 20:26 21.04.2022
2495 Snow -10 1012 72 9000 4.02 300 18:48 21.04.2022
2496 Clouds -10 1013 72 10000 4.02 290 18:19 21.04.2022
2497 Snow -10 1013 78 6000 5 330 16:49 21.04.2022
2498 Clouds -8 1012 61 10000 6 350 15:23 21.04.2022
2499 Snow -8 1012 61 10000 5 330 14:51 21.04.2022
2500 Snow -8 1012 67 6000 6 340 13:52 21.04.2022
2501 Snow -8 1012 72 9000 7.15 350 13:19 21.04.2022
2502 Clouds -7 1012 52 10000 7.15 350 11:25 21.04.2022
2503 Clouds -7 1011 52 10000 7.15 350 08:59 21.04.2022
2504 Clouds -7 1011 67 10000 6 10 07:55 21.04.2022
2505 Clear -7 1011 57 10000 5 10 06:21 21.04.2022
2506 Clear -7 1010 73 10000 3.13 50 03:35 21.04.2022
2507 Clear -7 1010 73 10000 3.13 30 02:48 21.04.2022
2508 Clear -7 1010 73 10000 3.13 20 01:50 21.04.2022
2509 Clear -6 1010 67 10000 3.13 40 23:53 20.04.2022
2510 Clear -6 1010 73 10000 3.13 40 23:23 20.04.2022
2511 Clear -5 1010 74 10000 3 30 22:51 20.04.2022
2512 Clear -5 1009 73 10000 4.02 30 22:32 20.04.2022
2513 Clouds -3 1009 68 10000 6 30 21:33 20.04.2022
2514 Clouds -2 1009 80 10000 5 30 20:42 20.04.2022
2515 Clouds -1 1008 80 10000 4 350 19:53 20.04.2022
2516 Clouds -1 1008 80 10000 5 360 19:25 20.04.2022
2517 Snow -1 1008 92 4600 6 360 18:33 20.04.2022
2518 Clouds 1 1007 93 9000 6 340 16:58 20.04.2022
2519 Rain 1 1007 93 10000 5.81 340 16:38 20.04.2022
2520 Clouds 4 1007 69 10000 5 300 14:48 20.04.2022
2521 Clear 5 1007 60 10000 7 270 11:56 20.04.2022
2522 Clear 4 1007 64 10000 8.05 280 11:29 20.04.2022
2523 Clouds 4 1007 64 10000 8.05 280 10:27 20.04.2022
2524 Clouds 5 1007 60 10000 5 250 09:26 20.04.2022
2525 Clouds 4 1008 64 10000 5 250 08:24 20.04.2022
2526 Clouds 4 1008 64 10000 5 250 08:24 20.04.2022
2527 Clouds 4 1008 64 10000 5 270 07:42 20.04.2022
2528 Clear 3 1009 74 10000 4.92 280 04:37 20.04.2022
2529 Clear 2 1010 74 10000 3.13 280 00:55 20.04.2022
2530 Clear 2 1010 69 10000 3.13 280 00:20 20.04.2022
2531 Clear 2 1011 69 10000 3.13 280 22:28 19.04.2022
2532 Clear 2 1012 69 10000 3.13 270 21:57 19.04.2022
2533 Clear 2 1012 74 10000 3.13 280 21:34 19.04.2022
2534 Clear 2 1012 69 10000 3.13 280 20:50 19.04.2022
2535 Clear 3 1012 59 10000 4.02 260 20:32 19.04.2022
2536 Clear 3 1013 64 10000 3.13 280 19:24 19.04.2022
2537 Clear 4 1013 51 10000 2 280 17:59 19.04.2022
2538 Clear 4 1013 55 10000 0 0 16:44 19.04.2022
2539 Clear 5 1014 48 10000 1 300 16:24 19.04.2022
2540 Clear 6 1014 45 10000 4 290 14:51 19.04.2022
2541 Clear 6 1015 52 10000 4 290 14:30 19.04.2022
2542 Clear 5 1015 48 10000 6 280 12:51 19.04.2022
2543 Clear 5 1015 52 10000 5 270 12:26 19.04.2022
2544 Clear 4 1015 55 10000 6 280 11:22 19.04.2022
2545 Clear 4 1016 51 10000 5 240 09:25 19.04.2022
2546 Clear 2 1016 64 10000 6 280 06:34 19.04.2022
2547 Clear 2 1015 59 10000 6 260 04:19 19.04.2022
2548 Clear 2 1016 64 10000 5 250 00:56 19.04.2022
2549 Clear 2 1016 64 10000 6 270 23:38 18.04.2022
2550 Clear 2 1017 64 10000 6 260 21:39 18.04.2022
2551 Clear 2 1017 64 10000 6 260 21:20 18.04.2022
2552 Clear 2 1017 64 10000 5 260 20:36 18.04.2022
2553 Clear 2 1018 59 10000 5 250 19:59 18.04.2022
2554 Clear 2 1018 59 10000 5 250 19:27 18.04.2022
2555 Clear 1 1018 64 10000 4.02 250 18:33 18.04.2022
2556 Clear 2 1018 55 10000 3.13 240 17:38 18.04.2022
2557 Clear 2 1018 55 10000 3.13 240 17:18 18.04.2022
2558 Clear 3 1018 51 10000 5 250 16:35 18.04.2022
2559 Clear 3 1018 51 10000 5 250 16:35 18.04.2022
2560 Clear 3 1019 51 10000 7.15 280 15:27 18.04.2022
2561 Clear 3 1020 48 10000 6 250 13:42 18.04.2022
2562 Clear 3 1020 48 10000 6 250 13:42 18.04.2022
2563 Clouds 3 1020 51 10000 6 240 12:40 18.04.2022
2564 Clouds 2 1021 51 10000 7.15 260 11:43 18.04.2022
2565 Clouds 1 1021 50 10000 7.15 290 10:43 18.04.2022
2566 Clouds 1 1021 50 10000 6 270 09:31 18.04.2022
2567 Clouds 1 1022 64 10000 4.02 230 08:29 18.04.2022
2568 Clouds -2 1022 68 10000 3.13 210 05:58 18.04.2022
2569 Clear -9 1021 92 10000 0 0 01:37 18.04.2022
2570 Clear -9 1021 92 10000 0 0 22:44 17.04.2022
2571 Clear -9 1021 92 10000 0 0 21:51 17.04.2022
2572 Clear -9 1020 92 10000 0 0 21:32 17.04.2022
2573 Clear -8 1021 85 10000 0 0 20:50 17.04.2022
2574 Clear -8 1020 92 10000 1 0 19:53 17.04.2022
2575 Clear -6 1020 79 10000 1 0 18:32 17.04.2022
2576 Clear -3 1020 68 10000 4.02 310 16:33 17.04.2022
2577 Clouds -3 1019 68 10000 5 310 15:32 17.04.2022
2578 Clouds -2 1019 68 10000 6 310 14:28 17.04.2022
2579 Clouds -2 1018 74 10000 6 320 13:20 17.04.2022
2580 Clouds -2 1018 74 10000 6 290 12:29 17.04.2022
2581 Snow -3 1017 79 7000 6 290 10:48 17.04.2022
2582 Snow -3 1016 86 3000 6 300 10:29 17.04.2022
2583 Snow -4 1016 85 4800 6 290 09:49 17.04.2022
2584 Snow -4 1015 85 1800 5 300 08:54 17.04.2022
2585 Snow -4 1015 79 2400 6 320 08:26 17.04.2022
2586 Snow -3 1013 79 9000 5 320 04:52 17.04.2022
2587 Clouds -3 1011 79 10000 4.92 320 01:40 17.04.2022
2588 Clouds -3 1010 79 10000 4.02 330 23:59 16.04.2022
2589 Clouds -2 1009 79 10000 6 330 22:50 16.04.2022
2590 Clouds -1 1008 80 10000 6 330 21:42 16.04.2022
2591 Clouds 0 1007 80 10000 6 310 20:45 16.04.2022
2592 Clouds 1 1007 86 10000 6 290 19:20 16.04.2022
2593 Clouds 1 1006 93 10000 6 280 18:32 16.04.2022
2594 Clouds 2 1005 86 10000 7 260 16:41 16.04.2022
2595 Clouds 3 1004 80 10000 7.15 260 15:46 16.04.2022
2596 Clouds 3 1004 80 10000 9 260 14:57 16.04.2022
2597 Clouds 3 1003 86 10000 9 280 13:58 16.04.2022
2598 Clouds 3 1003 86 10000 9 260 13:40 16.04.2022
2599 Clouds 6 1000 81 10000 9 250 12:33 16.04.2022
2600 Clouds 10 999 62 7000 8 250 11:19 16.04.2022
2601 Clouds 11 997 43 6000 6 210 09:59 16.04.2022
2602 Clouds 11 997 43 6000 6 200 09:18 16.04.2022
2603 Clouds 10 997 42 7000 5 160 08:31 16.04.2022
2604 Clouds 7 999 56 6000 3.13 70 06:59 16.04.2022
2605 Haze 9 1002 43 5000 4 170 03:48 16.04.2022
2606 Haze 10 1005 46 5000 3 190 00:35 16.04.2022
2607 Clouds 10 1005 50 6000 3 180 23:27 15.04.2022
2608 Clouds 11 1006 50 7000 4 190 22:37 15.04.2022
2609 Clouds 11 1006 58 8000 4 180 21:58 15.04.2022
2610 Clouds 12 1007 54 9000 5 190 21:18 15.04.2022
2611 Clouds 12 1007 54 9000 5 190 21:18 15.04.2022
2612 Clouds 12 1007 54 9000 5 190 21:18 15.04.2022
2613 Clear 11 1008 66 10000 3 170 20:27 15.04.2022
2614 Clear 9 1008 75 10000 3.13 140 19:40 15.04.2022
2615 Clear 10 1009 71 10000 2 140 18:54 15.04.2022
2616 Clear 9 1010 76 10000 2 150 18:25 15.04.2022
2617 Clear 9 1010 76 10000 3 150 17:48 15.04.2022
2618 Clear 9 1011 81 10000 2 150 17:21 15.04.2022
2619 Clear 9 1011 81 10000 3 130 16:23 15.04.2022
2620 Clear 9 1012 87 10000 3 110 15:24 15.04.2022
2621 Clouds 8 1013 100 10000 3.13 130 13:42 15.04.2022
2622 Rain 8 1015 93 5000 3.13 150 12:43 15.04.2022
2623 Rain 9 1015 81 9000 3 170 11:58 15.04.2022
2624 Rain 10 1015 76 9000 3 140 11:35 15.04.2022
2625 Rain 10 1015 76 10000 1 0 10:45 15.04.2022
2626 Rain 12 1015 54 10000 3 180 09:47 15.04.2022
2627 Clear 11 1016 58 10000 4 230 09:21 15.04.2022
2628 Clear 10 1016 62 10000 4 220 07:53 15.04.2022
2629 Clear 7 1016 70 10000 3.13 220 06:37 15.04.2022
2630 Clouds 2 1016 93 9000 2 240 03:21 15.04.2022
2631 Clear 4 1015 80 10000 3.13 250 23:32 14.04.2022
2632 Clear 3 1015 80 10000 3.13 270 22:49 14.04.2022
2633 Clear 4 1014 75 10000 4.02 260 22:31 14.04.2022
2634 Clear 5 1014 75 10000 3.13 250 21:59 14.04.2022
2635 Clear 5 1014 70 10000 2 240 20:57 14.04.2022
2636 Clear 8 1014 57 10000 3 230 19:23 14.04.2022
2637 Clouds 8 1014 61 10000 3 190 18:30 14.04.2022
2638 Clouds 8 1015 61 10000 4 170 17:44 14.04.2022
2639 Rain 8 1015 61 10000 3 160 17:44 14.04.2022
2640 Clouds 6 1015 81 10000 1 0 16:46 14.04.2022
2641 Clouds 7 1016 81 10000 3.13 120 15:28 14.04.2022
2642 Rain 10 1017 53 10000 6 190 13:47 14.04.2022
2643 Clear 11 1017 43 10000 4 160 12:58 14.04.2022
2644 Clear 12 1017 40 10000 6 180 12:31 14.04.2022
2645 Clear 11 1018 43 10000 3 160 11:30 14.04.2022
2646 Clear 11 1019 43 10000 4 150 10:54 14.04.2022
2647 Clear 10 1019 43 10000 5 150 10:27 14.04.2022
2648 Clear 10 1020 43 10000 4 150 09:25 14.04.2022
2649 Clear 8 1022 46 10000 3 150 07:33 14.04.2022
2650 Clouds 4 1024 51 10000 2 140 04:28 14.04.2022
2651 Clear 4 1026 45 10000 2 200 23:29 13.04.2022
2652 Clear 5 1027 42 10000 2 190 22:24 13.04.2022
2653 Clear 5 1027 42 10000 0 0 21:42 13.04.2022
2654 Clear 6 1027 39 10000 2 210 20:24 13.04.2022
2655 Clear 6 1027 39 10000 2 170 19:39 13.04.2022
2656 Clear 7 1028 36 10000 2 150 18:36 13.04.2022
2657 Clear 8 1028 34 10000 3 190 17:24 13.04.2022
2658 Clear 10 1028 27 10000 3 200 16:41 13.04.2022
2659 Clear 10 1028 27 10000 3 200 15:43 13.04.2022
2660 Clear 12 1028 26 10000 4 210 14:53 13.04.2022
2661 Clear 13 1028 24 10000 4 200 14:30 13.04.2022
2662 Clear 13 1029 26 10000 4 200 13:36 13.04.2022
2663 Clear 13 1029 26 10000 3 210 12:38 13.04.2022
2664 Clear 12 1030 28 10000 4 200 10:58 13.04.2022
2665 Clear 11 1030 30 10000 4 210 09:45 13.04.2022
2666 Clear 10 1030 32 10000 3 230 08:43 13.04.2022
2667 Clear 8 1030 36 10000 3 210 07:23 13.04.2022
2668 Clear 7 1030 39 10000 2 210 06:46 13.04.2022
2669 Clear 6 1030 42 10000 3 220 06:18 13.04.2022
2670 Clear 0 1030 63 10000 2 210 00:25 13.04.2022
2671 Clear 0 1030 63 10000 0 0 23:46 12.04.2022
2672 Clear 0 1030 69 10000 1 0 22:20 12.04.2022
2673 Clear 1 1030 59 10000 0 0 21:39 12.04.2022
2674 Clear 2 1030 59 10000 3.13 190 20:42 12.04.2022
2675 Clear 4 1030 52 10000 3 190 19:54 12.04.2022
2676 Clear 4 1030 52 10000 3 190 19:35 12.04.2022
2677 Clouds 4 1030 52 10000 3 190 18:50 12.04.2022
2678 Clouds 4 1030 52 10000 3 190 18:50 12.04.2022
2679 Clouds 5 1030 52 10000 2 190 17:36 12.04.2022
2680 Clouds 7 1030 42 10000 2 160 16:32 12.04.2022
2681 Clouds 9 1030 37 10000 2 150 15:33 12.04.2022
2682 Clear 10 1030 34 10000 3 200 14:33 12.04.2022
2683 Clear 10 1030 32 10000 4 210 13:39 12.04.2022
2684 Clear 10 1030 32 10000 3 220 12:59 12.04.2022
2685 Clear 10 1031 32 10000 4 220 11:47 12.04.2022
2686 Clear 9 1031 34 10000 4 230 11:24 12.04.2022
2687 Clear 8 1031 39 10000 3 210 09:25 12.04.2022
2688 Clear 7 1031 42 10000 3 240 08:18 12.04.2022
2689 Clear 4 1031 51 10000 3.13 220 06:33 12.04.2022
2690 Clear 2 1031 55 10000 3.13 220 05:36 12.04.2022
2691 Clear -1 1031 63 10000 0 0 01:47 12.04.2022
2692 Clear 0 1031 59 10000 2 220 23:19 11.04.2022
2693 Clear 2 1031 51 10000 2 240 21:50 11.04.2022
2694 Clear 3 1031 48 10000 2 230 21:18 11.04.2022
2695 Clear 3 1030 48 10000 3 200 20:30 11.04.2022
2696 Clear 3 1030 48 10000 3 200 19:57 11.04.2022
2697 Clear 4 1030 45 10000 3 200 19:22 11.04.2022
2698 Clear 5 1031 45 10000 3 200 18:49 11.04.2022
2699 Clear 5 1030 45 10000 3 200 17:57 11.04.2022
2700 Clear 6 1030 45 10000 3 190 16:57 11.04.2022
2701 Clear 7 1030 42 10000 3 190 16:20 11.04.2022
2702 Clear 8 1031 36 10000 4 200 14:36 11.04.2022
2703 Clear 8 1031 34 10000 5 210 12:54 11.04.2022
2704 Clear 8 1031 36 10000 6 220 12:35 11.04.2022
2705 Clear 7 1031 39 10000 4 230 11:42 11.04.2022
2706 Clear 7 1032 36 10000 6 230 10:34 11.04.2022
2707 Clear 6 1032 42 10000 6 210 09:22 11.04.2022
2708 Clear 3 1032 47 10000 4.02 220 07:19 11.04.2022
2709 Clear -2 1032 50 10000 3.13 200 02:32 11.04.2022
2710 Clear -2 1033 54 10000 3.13 200 22:54 10.04.2022
2711 Clear -1 1033 50 10000 3.13 200 22:26 10.04.2022
2712 Clear -1 1033 50 10000 2 200 21:33 10.04.2022
2713 Clear -1 1033 50 10000 3.13 190 20:33 10.04.2022
2714 Clear -1 1033 50 10000 2 200 19:45 10.04.2022
2715 Clear -2 1033 58 10000 2 160 19:23 10.04.2022
2716 Clear -2 1033 58 10000 2 160 18:45 10.04.2022
2717 Clear -3 1033 63 10000 2 150 17:55 10.04.2022
2718 Clear -2 1033 58 10000 2 140 17:35 10.04.2022
2719 Clear -1 1033 54 10000 2 140 16:25 10.04.2022
2720 Clear 0 1033 46 10000 3.13 160 15:20 10.04.2022
2721 Clear 0 1033 46 10000 3.13 140 14:22 10.04.2022
2722 Clear 0 1034 43 10000 2 170 12:35 10.04.2022
2723 Clear 0 1034 39 10000 3.13 180 11:49 10.04.2022
2724 Clear -1 1034 42 10000 3.13 200 11:29 10.04.2022
2725 Clear -1 1034 39 10000 3.13 210 10:54 10.04.2022
2726 Clear -1 1034 39 10000 3.13 210 10:54 10.04.2022
2727 Clear -2 1035 46 10000 3.13 190 09:56 10.04.2022
2728 Clear -2 1035 46 10000 3.13 180 09:28 10.04.2022
2729 Clear -4 1035 53 10000 3.13 170 08:22 10.04.2022
2730 Clear -5 1035 53 10000 2 170 07:21 10.04.2022
2731 Clear -9 1035 72 10000 1 0 05:27 10.04.2022
2732 Clear -19 1033 77 10000 0 0 02:21 10.04.2022
2733 Clear -18 1032 84 10000 2 290 00:25 10.04.2022
2734 Clear -17 1032 84 10000 1 280 23:43 09.04.2022
2735 Clear -19 1031 77 10000 1 0 22:45 09.04.2022
2736 Clear -17 1031 77 10000 0 0 21:34 09.04.2022
2737 Clear -16 1030 91 10000 1 300 20:48 09.04.2022
2738 Clear -15 1030 78 10000 0 0 20:25 09.04.2022
2739 Clear -14 1030 85 10000 1 290 19:41 09.04.2022
2740 Clear -14 1030 85 10000 0 0 18:55 09.04.2022
2741 Clear -14 1030 85 10000 0 0 18:19 09.04.2022
2742 Clear -12 1030 79 10000 2 340 17:34 09.04.2022
2743 Clear -10 1030 67 10000 2 350 16:47 09.04.2022
2744 Clear -8 1029 62 10000 2 340 15:55 09.04.2022
2745 Clear -7 1029 57 10000 3.13 340 15:28 09.04.2022
2746 Clear -7 1028 57 10000 3.13 350 14:27 09.04.2022
2747 Clear -7 1028 57 10000 3.13 10 13:54 09.04.2022
2748 Clear -7 1028 57 10000 4.02 320 12:59 09.04.2022
2749 Clear -7 1028 57 10000 4.02 320 12:34 09.04.2022
2750 Clear -8 1027 61 10000 4.02 340 11:21 09.04.2022
2751 Clear -8 1027 57 10000 3.13 330 10:20 09.04.2022
2752 Clear -9 1026 61 10000 3.13 340 09:37 09.04.2022
2753 Clear -9 1026 61 10000 4.02 20 08:50 09.04.2022
2754 Clear -13 1024 71 10000 3.13 340 05:58 09.04.2022
2755 Clear -16 1020 84 10000 3.13 350 01:31 09.04.2022
2756 Clear -14 1018 77 10000 3.13 330 23:25 08.04.2022
2757 Clear -12 1017 78 10000 4.02 330 21:58 08.04.2022
2758 Clear -11 1016 72 10000 4.02 340 20:47 08.04.2022
2759 Clear -11 1015 78 10000 3.13 320 19:58 08.04.2022
2760 Clear -10 1015 72 10000 3.13 330 19:18 08.04.2022
2761 Clear -10 1014 78 10000 4.02 330 18:28 08.04.2022
2762 Clear -9 1014 72 10000 4.02 330 17:45 08.04.2022
2763 Clear -9 1013 72 10000 4.02 320 17:22 08.04.2022
2764 Clear -9 1013 72 10000 5 330 16:38 08.04.2022
2765 Clear -8 1012 72 10000 6 330 15:53 08.04.2022
2766 Clouds -7 1011 67 10000 5 330 15:23 08.04.2022
2767 Snow -6 1010 79 5000 6 330 14:26 08.04.2022
2768 Snow -6 1010 79 2900 7.15 340 13:44 08.04.2022
2769 Clear -6 1009 73 10000 7.15 330 13:25 08.04.2022
2770 Clear -5 1007 73 10000 7.15 330 11:53 08.04.2022
2771 Clear -5 1005 73 10000 7.15 360 10:32 08.04.2022
2772 Snow -4 1004 73 10000 6 360 09:26 08.04.2022
2773 Snow -4 1003 85 5000 6 10 08:34 08.04.2022
2774 Snow -4 1002 92 2600 5 20 06:47 08.04.2022
2775 Snow -4 1002 92 2600 5 20 06:47 08.04.2022
2776 Snow -3 1001 92 1500 6 50 04:34 08.04.2022
2777 Snow -4 1002 92 1900 4.02 60 00:42 08.04.2022
2778 Snow -3 1002 79 1900 4.02 60 00:19 08.04.2022
2779 Clear -2 1003 74 10000 3.13 90 22:58 07.04.2022
2780 Clear -2 1003 74 10000 3.13 90 22:37 07.04.2022
2781 Clear -2 1003 74 10000 3.13 90 22:19 07.04.2022
2782 Clear -2 1004 68 10000 3.13 110 21:49 07.04.2022
2783 Clear -1 1004 68 10000 3.13 90 20:58 07.04.2022
2784 Clear -1 1005 63 10000 2 100 20:30 07.04.2022
2785 Clear -3 1006 68 10000 1 0 18:29 07.04.2022
2786 Clear -3 1006 68 10000 1 70 17:25 07.04.2022
2787 Clear -2 1006 68 10000 0.89 60 16:44 07.04.2022
2788 Clear 0 1006 59 10000 0 0 16:20 07.04.2022
2789 Clear 2 1007 51 10000 5 290 14:42 07.04.2022
2790 Clear 2 1007 51 10000 5 280 13:42 07.04.2022
2791 Clear 2 1008 43 10000 7.15 280 12:41 07.04.2022
2792 Clear 1 1008 43 10000 9 270 11:29 07.04.2022
2793 Clear 0 1008 50 10000 10 270 09:37 07.04.2022
2794 Clear 0 1008 50 10000 10 270 09:37 07.04.2022
2795 Clear -1 1007 50 10000 11.18 270 08:37 07.04.2022
2796 Clear -2 1007 54 10000 7.15 250 06:42 07.04.2022
2797 Clear -5 1005 67 10000 5 250 02:47 07.04.2022
2798 Clear -4 1005 62 10000 7.15 250 02:20 07.04.2022
2799 Clear -3 1005 63 10000 9 260 00:26 07.04.2022
2800 Clear -3 1004 58 10000 8.05 250 22:49 06.04.2022
2801 Clear -3 1004 63 10000 8.05 260 22:26 06.04.2022
2802 Clear -3 1004 63 10000 9 260 21:34 06.04.2022
2803 Clear -3 1004 68 10000 9 260 20:35 06.04.2022
2804 Clear -3 1003 68 10000 8.05 250 19:53 06.04.2022
2805 Clear -2 1003 63 10000 9 250 18:51 06.04.2022
2806 Clear -2 1003 68 10000 9 250 18:22 06.04.2022
2807 Clouds -2 1003 68 10000 9 250 17:35 06.04.2022
2808 Clear -2 1003 68 10000 9 250 16:38 06.04.2022
2809 Clouds -1 1002 68 10000 9 250 15:48 06.04.2022
2810 Clouds -1 1002 68 10000 11.18 260 14:57 06.04.2022
2811 Clouds -1 1001 68 10000 9 250 13:24 06.04.2022
2812 Snow -1 1001 74 4800 12.07 250 12:26 06.04.2022
2813 Snow 0 1000 69 10000 10 260 10:47 06.04.2022
2814 Clouds 0 999 69 10000 12.07 260 10:25 06.04.2022
2815 Snow 0 999 69 9000 11.18 250 09:40 06.04.2022
2816 Snow 0 999 69 9000 11.18 250 09:40 06.04.2022
2817 Clouds 0 998 74 10000 10 250 08:32 06.04.2022
2818 Clouds 0 998 69 10000 10 250 07:50 06.04.2022
2819 Clouds 2 994 74 10000 12.07 250 03:54 06.04.2022
2820 Clear 2 992 80 10000 8.05 220 23:53 05.04.2022
2821 Clear 3 993 80 10000 8.05 210 22:57 05.04.2022
2822 Clear 2 993 86 10000 7.15 210 21:23 05.04.2022
2823 Clear 3 993 80 10000 7.15 230 20:26 05.04.2022
2824 Clouds 3 992 86 10000 6 240 19:47 05.04.2022
2825 Clouds 4 992 93 10000 8.05 230 18:18 05.04.2022
2826 Rain 4 990 93 9000 5 230 16:54 05.04.2022
2827 Rain 6 990 81 9000 8.05 240 15:57 05.04.2022
2828 Rain 6 990 81 9000 8 240 15:34 05.04.2022
2829 Clouds 7 989 70 10000 2 190 14:36 05.04.2022
2830 Clear 7 989 70 10000 3 160 13:35 05.04.2022
2831 Clouds 6 991 75 10000 6 130 11:51 05.04.2022
2832 Clouds 6 991 75 10000 6 130 11:51 05.04.2022
2833 Clouds 5 992 80 10000 5 110 11:32 05.04.2022
2834 Clear 5 995 86 10000 6 120 09:59 05.04.2022
2835 Clear 6 996 75 10000 5 100 08:55 05.04.2022
2836 Clear 5 998 81 10000 4 110 07:22 05.04.2022
2837 Mist 4 1002 100 5000 3.13 180 01:58 05.04.2022
2838 Rain 4 1002 100 10000 3.13 190 22:44 04.04.2022
2839 Rain 4 1002 93 10000 3.13 190 22:26 04.04.2022
2840 Rain 5 1002 86 10000 5 200 21:21 04.04.2022
2841 Clouds 6 1002 75 10000 3 210 20:50 04.04.2022
2842 Clouds 5 1002 80 10000 3.13 190 19:58 04.04.2022
2843 Clouds 6 1002 75 10000 3 190 19:26 04.04.2022
2844 Clouds 5 1002 75 10000 3.13 190 18:33 04.04.2022
2845 Clouds 7 1002 70 10000 4 200 16:37 04.04.2022
2846 Clear 7 1001 70 10000 5 200 15:58 04.04.2022
2847 Clear 7 1001 70 10000 4 190 15:33 04.04.2022
2848 Clear 8 1001 66 10000 3 190 14:46 04.04.2022
2849 Clear 7 1000 76 10000 3 180 13:33 04.04.2022
2850 Clear 7 1001 70 10000 4 200 12:23 04.04.2022
2851 Clouds 5 1001 81 10000 4 190 11:29 04.04.2022
2852 Clouds 3 1001 93 10000 5 180 09:20 04.04.2022
2853 Rain 0 1003 100 10000 5 140 05:27 04.04.2022
2854 Clouds 0 1006 86 10000 7 150 02:41 04.04.2022
2855 Snow -2 1011 92 1400 7.15 130 22:47 03.04.2022
2856 Snow -2 1013 79 2400 7.15 150 21:48 03.04.2022
2857 Clouds -1 1014 63 10000 7.15 150 21:19 03.04.2022
2858 Clear -2 1015 54 10000 6 130 19:52 03.04.2022
2859 Clear -2 1017 54 10000 6 130 18:33 03.04.2022
2860 Clear -2 1017 50 10000 6 120 17:49 03.04.2022
2861 Clear -2 1018 50 10000 7.15 110 17:27 03.04.2022
2862 Clear -2 1019 50 10000 5 110 16:48 03.04.2022
2863 Clear -2 1020 50 10000 5 90 15:32 03.04.2022
2864 Clear -1 1020 46 10000 6 90 13:58 03.04.2022
2865 Clear -1 1021 50 10000 4.02 90 12:56 03.04.2022
2866 Clear -1 1021 46 10000 4.02 120 11:33 03.04.2022
2867 Clouds 0 1021 43 10000 2 90 09:40 03.04.2022
2868 Clouds 0 1021 43 10000 0 0 08:50 03.04.2022
2869 Clear -7 1020 62 10000 1 320 05:44 03.04.2022
2870 Clear -14 1020 85 10000 1 320 02:55 03.04.2022
2871 Clear -12 1019 85 10000 1 260 23:22 02.04.2022
2872 Clear -12 1019 85 10000 1 260 23:22 02.04.2022
2873 Clear -10 1019 73 10000 2 290 22:40 02.04.2022
2874 Clear -10 1019 73 10000 2 280 21:54 02.04.2022
2875 Clear -9 1019 73 10000 1 270 21:19 02.04.2022
2876 Clear -8 1019 73 10000 0 0 20:35 02.04.2022
2877 Clear -7 1018 68 10000 2 240 18:47 02.04.2022
2878 Clear -6 1018 63 10000 2 280 18:19 02.04.2022
2879 Clear -2 1018 54 10000 4 250 16:45 02.04.2022
2880 Clear 0 1018 51 10000 5 250 15:27 02.04.2022
2881 Clear 1 1017 44 10000 5 220 14:52 02.04.2022
2882 Clear 1 1017 43 10000 5 220 14:20 02.04.2022
2883 Clear 1 1017 37 10000 7.15 240 13:29 02.04.2022
2884 Clear 1 1017 40 10000 6 220 12:20 02.04.2022
2885 Clear -1 1017 42 10000 5 220 10:22 02.04.2022
2886 Clear -4 1017 53 10000 4.02 210 07:48 02.04.2022
2887 Clear -11 1016 78 10000 3.13 250 04:34 02.04.2022
2888 Clear -13 1014 78 10000 2 250 01:21 02.04.2022
2889 Clear -13 1014 85 10000 2 270 23:54 01.04.2022
2890 Clear -13 1014 78 10000 0 0 22:46 01.04.2022
2891 Clear -12 1014 79 10000 0 0 20:55 01.04.2022
2892 Clear -11 1014 73 10000 0 0 20:35 01.04.2022
2893 Clear -11 1014 73 10000 0 0 19:45 01.04.2022
2894 Clear -10 1014 73 10000 0 0 19:25 01.04.2022
2895 Clear -10 1014 67 10000 0 0 18:37 01.04.2022
2896 Clear -8 1015 62 10000 2 290 17:38 01.04.2022
2897 Clear -3 1015 46 10000 2 230 15:46 01.04.2022
2898 Clear -1 1016 40 10000 4 230 14:53 01.04.2022
2899 Clear -1 1016 39 10000 5 240 13:40 01.04.2022
2900 Clear -1 1017 42 10000 6 250 13:20 01.04.2022
2901 Clear -1 1017 46 10000 7.15 240 12:24 01.04.2022
2902 Clear -1 1017 50 10000 6 260 10:50 01.04.2022
2903 Clear -2 1017 54 10000 8.05 250 09:39 01.04.2022
2904 Clear -5 1017 57 10000 5.81 250 07:41 01.04.2022
2905 Clear -7 1016 62 10000 5 250 05:38 01.04.2022
2906 Clear -9 1016 72 10000 4.02 250 04:41 01.04.2022
2907 Clear -11 1015 79 10000 3 250 03:18 01.04.2022
2908 Clear -11 1014 78 10000 3 250 01:35 01.04.2022
2909 Clear -9 1014 72 10000 2 230 22:31 31.03.2022
2910 Clear -8 1014 67 10000 4 240 21:44 31.03.2022
2911 Clear -8 1014 67 10000 3 230 20:51 31.03.2022
2912 Clear -8 1014 67 10000 3.13 220 20:28 31.03.2022
2913 Clear -8 1014 67 10000 3.13 220 19:43 31.03.2022
2914 Clear -7 1014 67 10000 3.13 230 18:34 31.03.2022
2915 Clear -4 1014 58 10000 6 240 16:53 31.03.2022
2916 Clouds -4 1013 58 10000 6 250 15:56 31.03.2022
2917 Clouds -3 1013 53 10000 8.05 250 15:29 31.03.2022
2918 Clouds -3 1012 58 10000 8.94 250 14:48 31.03.2022
2919 Clouds -2 1012 54 10000 12 250 13:42 31.03.2022
2920 Clouds -3 1010 73 6000 11.18 270 11:31 31.03.2022
2921 Snow -3 1009 86 900 10 250 10:26 31.03.2022
2922 Snow -3 1008 79 4800 9 260 09:39 31.03.2022
2923 Clouds -4 1005 73 6000 12.07 280 07:48 31.03.2022
2924 Snow -2 993 92 500 5 150 02:33 31.03.2022
2925 Clouds -4 1000 92 10000 3.13 120 23:25 30.03.2022
2926 Clouds -4 1002 92 10000 4.02 190 21:57 30.03.2022
2927 Clouds -4 1002 85 10000 3.13 200 21:31 30.03.2022
2928 Clouds -4 1002 85 10000 5 210 20:44 30.03.2022
2929 Clouds -3 1003 86 10000 6 200 19:47 30.03.2022
2930 Clear -4 1003 85 10000 6 220 18:41 30.03.2022
2931 Clear -4 1002 85 10000 7.15 230 17:51 30.03.2022
2932 Clear -4 1002 79 10000 6 230 17:20 30.03.2022
2933 Clouds -3 1002 68 10000 6 240 16:40 30.03.2022
2934 Clouds -3 1001 68 10000 8.05 240 15:55 30.03.2022
2935 Snow -1 999 63 10000 10 250 14:35 30.03.2022
2936 Snow -1 998 86 4500 10 250 13:22 30.03.2022
2937 Snow 0 997 92 1000 7.15 220 12:22 30.03.2022
2938 Snow 0 996 92 1600 4.02 190 10:48 30.03.2022
2939 Snow 0 996 86 1400 4.02 160 09:55 30.03.2022
2940 Snow -1 997 86 4200 4.92 130 08:21 30.03.2022
2941 Snow -1 997 86 1900 5 120 06:50 30.03.2022
2942 Clouds -2 998 86 10000 5 130 05:40 30.03.2022
2943 Clear -2 1001 86 10000 5 120 01:48 30.03.2022
2944 Clear -1 1003 86 10000 4.02 140 22:39 29.03.2022
2945 Clear -1 1003 86 10000 4.02 150 21:48 29.03.2022
2946 Clear -1 1004 86 10000 3.13 150 21:28 29.03.2022
2947 Clear -1 1004 86 10000 4.02 150 20:25 29.03.2022
2948 Clouds 0 1004 80 10000 4.02 150 19:31 29.03.2022
2949 Clouds 1 1005 80 10000 4.02 160 18:53 29.03.2022
2950 Clouds 1 1005 80 10000 4.02 160 17:52 29.03.2022
2951 Clouds 1 1005 80 10000 5 160 17:18 29.03.2022
2952 Clouds 1 1005 80 10000 5 160 16:52 29.03.2022
2953 Clouds 2 1005 69 10000 4.02 160 15:29 29.03.2022
2954 Clouds 2 1005 69 10000 5 170 14:43 29.03.2022
2955 Clouds 2 1005 69 10000 5 170 13:34 29.03.2022
2956 Clouds 2 1005 69 10000 5 200 12:21 29.03.2022
2957 Clouds 2 1005 69 10000 7.15 190 10:59 29.03.2022
2958 Clear 2 1006 64 10000 5 160 09:51 29.03.2022
2959 Clear 1 1006 69 10000 5.81 150 08:43 29.03.2022
2960 Clear -2 1006 79 10000 5 160 06:21 29.03.2022
2961 Clear -4 1005 79 10000 4.02 180 02:19 29.03.2022
2962 Clear -2 1005 68 10000 4.02 170 23:26 28.03.2022
2963 Clear -2 1005 68 10000 4.02 170 23:26 28.03.2022
2964 Clear -2 1005 68 10000 4.02 170 23:26 28.03.2022
2965 Clear -2 1005 68 10000 4.02 180 22:56 28.03.2022
2966 Clear -2 1005 68 10000 4.02 180 22:31 28.03.2022
2967 Clear -2 1006 68 10000 3.13 170 21:38 28.03.2022
2968 Clear -2 1006 63 10000 3.13 170 20:32 28.03.2022
2969 Clear -2 1006 58 10000 4.02 170 19:48 28.03.2022
2970 Clear -2 1006 58 10000 4.02 170 19:30 28.03.2022
2971 Clear -2 1006 54 10000 4.02 160 18:44 28.03.2022
2972 Clear -2 1007 54 10000 4.02 160 17:41 28.03.2022
2973 Clear -1 1007 50 10000 5 170 16:47 28.03.2022
2974 Clear 0 1006 43 10000 5 160 14:53 28.03.2022
2975 Clear 0 1006 43 10000 6 160 14:23 28.03.2022
2976 Clear 0 1007 43 10000 6 150 13:18 28.03.2022
2977 Clear -1 1007 42 10000 6 150 11:43 28.03.2022
2978 Clear -3 1008 45 10000 5 150 09:55 28.03.2022
2979 Clear -4 1008 49 10000 5 150 09:20 28.03.2022
2980 Clear -5 1009 49 10000 5 150 08:23 28.03.2022
2981 Clear -6 1009 53 10000 5 150 07:56 28.03.2022
2982 Clear -9 1010 56 10000 4.02 170 05:55 28.03.2022
2983 Clear -7 1010 48 10000 4.02 180 00:19 28.03.2022
2984 Clear -7 1011 44 10000 3.13 180 22:34 27.03.2022
2985 Clear -6 1011 42 10000 3 180 21:42 27.03.2022
2986 Clear -6 1011 45 10000 3.13 180 20:58 27.03.2022
2987 Clear -6 1011 41 10000 3.13 190 20:21 27.03.2022
2988 Clear -5 1011 39 10000 5 190 19:36 27.03.2022
2989 Clear -5 1011 39 10000 4 190 18:30 27.03.2022
2990 Clear -5 1011 39 10000 4 190 17:55 27.03.2022
2991 Clear -5 1011 39 10000 4 190 17:35 27.03.2022
2992 Clear -5 1011 39 10000 4 190 17:35 27.03.2022
2993 Clear -4 1011 33 10000 3 190 15:47 27.03.2022
2994 Clear -3 1011 33 10000 5 200 13:57 27.03.2022
2995 Clear -2 1012 30 10000 6 190 12:58 27.03.2022
2996 Clear -3 1011 33 10000 6 180 11:30 27.03.2022
2997 Clear -5 1012 38 10000 6 200 09:37 27.03.2022
2998 Clear -8 1012 48 10000 5 220 06:54 27.03.2022
2999 Clear -11 1012 56 10000 4.02 200 01:55 27.03.2022
3000 Clear -10 1012 56 10000 4.02 220 00:25 27.03.2022
3001 Clear -10 1012 56 10000 4.02 220 22:45 26.03.2022
3002 Clear -11 1012 61 10000 3.13 220 21:50 26.03.2022
3003 Clear -11 1013 61 10000 3.13 210 21:28 26.03.2022
3004 Clear -9 1012 52 10000 3.13 240 19:31 26.03.2022
3005 Clear -8 1012 52 10000 5 240 18:40 26.03.2022
3006 Clear -8 1012 57 10000 5 240 17:34 26.03.2022
3007 Clear -7 1011 57 10000 5 250 16:30 26.03.2022
3008 Clear -6 1011 53 10000 5.81 250 15:35 26.03.2022
3009 Clouds -5 1012 53 10000 9 260 13:55 26.03.2022
3010 Clouds -5 1011 53 10000 10 250 13:19 26.03.2022
3011 Clouds -5 1011 57 10000 11.18 270 11:42 26.03.2022
3012 Clouds -5 1010 57 10000 11.18 260 10:32 26.03.2022
3013 Clouds -7 1010 62 10000 9 260 08:46 26.03.2022
3014 Clouds -10 1010 66 10000 8.05 290 06:37 26.03.2022
3015 Clouds -12 1009 72 10000 9 290 05:29 26.03.2022
3016 Clouds -14 1004 77 10000 10 290 00:41 26.03.2022
3017 Snow -11 999 85 2500 9 290 21:56 25.03.2022
3018 Snow -10 998 78 2200 10 300 20:46 25.03.2022
3019 Snow -10 998 78 3000 10 290 20:20 25.03.2022
3020 Snow -9 996 85 2400 10 280 18:59 25.03.2022
3021 Snow -9 995 85 1800 10 290 17:53 25.03.2022
3022 Snow -8 995 78 1800 11.18 290 17:27 25.03.2022
3023 Snow -7 994 85 3600 11.18 290 16:21 25.03.2022
3024 Snow -5 992 79 9000 10 290 14:54 25.03.2022
3025 Clouds -3 990 86 4800 13 280 13:26 25.03.2022
3026 Snow -1 989 86 1600 6 220 10:35 25.03.2022
3027 Snow -2 989 86 3700 5 200 09:28 25.03.2022
3028 Snow -3 990 86 2500 5 200 08:36 25.03.2022
3029 Snow -3 991 86 1700 7.15 180 07:30 25.03.2022
3030 Snow -4 992 85 1900 7.15 180 06:29 25.03.2022
3031 Snow -4 992 85 1900 7.15 180 06:29 25.03.2022
3032 Snow -7 1001 85 4000 5 170 01:57 25.03.2022
3033 Clear -8 1004 85 10000 3.13 190 22:56 24.03.2022
3034 Clear -8 1005 85 10000 3.13 200 21:52 24.03.2022
3035 Clear -9 1006 85 10000 3 220 20:40 24.03.2022
3036 Clear -9 1006 85 10000 3.13 230 19:48 24.03.2022
3037 Clear -12 1006 92 10000 1 250 18:22 24.03.2022
3038 Clear -11 1006 85 10000 2 250 17:29 24.03.2022
3039 Clouds -8 1005 79 10000 3 280 15:52 24.03.2022
3040 Clouds -6 1005 73 10000 4 290 14:50 24.03.2022
3041 Clear -6 1005 73 10000 4 290 14:20 24.03.2022
3042 Clouds -4 1004 68 10000 4.02 320 13:24 24.03.2022
3043 Clouds -3 1002 79 10000 5 340 11:59 24.03.2022
3044 Clouds -3 1001 79 10000 4.02 330 10:28 24.03.2022
3045 Snow -3 999 79 10000 4.02 330 09:22 24.03.2022
3046 Clouds -3 998 86 10000 5 310 07:39 24.03.2022
3047 Clouds -7 995 92 10000 2 280 04:34 24.03.2022
3048 Clouds -7 993 93 10000 1 0 23:21 23.03.2022
3049 Snow -7 993 92 9000 1 0 21:53 23.03.2022
3050 Snow -8 993 92 5000 1 0 21:20 23.03.2022
3051 Clouds -9 994 92 10000 1 150 19:46 23.03.2022
3052 Clouds -11 994 85 6000 0 0 18:59 23.03.2022
3053 Snow -10 994 92 7000 0.89 0 17:38 23.03.2022
3054 Snow -9 995 92 6000 1 0 16:50 23.03.2022
3055 Clouds -8 995 85 10000 3.13 280 14:52 23.03.2022
3056 Clouds -7 995 85 10000 2 290 14:32 23.03.2022
3057 Snow -6 995 85 10000 5 280 13:21 23.03.2022
3058 Snow -5 994 85 8000 2 200 10:20 23.03.2022
3059 Snow -7 994 92 6000 3.13 130 07:44 23.03.2022
3060 Snow -9 994 92 8000 2 130 05:27 23.03.2022
3061 Snow -12 995 92 10000 1 0 01:18 23.03.2022
3062 Snow -12 996 92 3200 2 190 00:23 23.03.2022
3063 Mist -12 998 92 5000 1 0 21:31 22.03.2022
3064 Mist -11 998 92 3600 2 210 20:51 22.03.2022
3065 Snow -9 999 92 6000 1 230 19:52 22.03.2022
3066 Snow -9 999 92 5000 2 260 19:25 22.03.2022
3067 Snow -8 1000 86 5000 2 230 18:45 22.03.2022
3068 Clouds -9 1001 92 10000 1 0 17:42 22.03.2022
3069 Clouds -8 1002 86 10000 0 0 16:32 22.03.2022
3070 Clouds -8 1002 86 10000 2 320 15:23 22.03.2022
3071 Clouds -7 1002 79 10000 2 320 14:59 22.03.2022
3072 Clouds -7 1002 79 10000 2 320 14:41 22.03.2022
3073 Clouds -6 1003 79 10000 3.13 320 13:36 22.03.2022
3074 Clouds -6 1004 79 10000 3.13 330 11:52 22.03.2022
3075 Snow -6 1005 79 9000 3.13 340 10:46 22.03.2022
3076 Snow -6 1005 85 9000 5 350 08:38 22.03.2022
3077 Snow -6 1006 85 8000 5 350 06:58 22.03.2022
3078 Snow -4 1006 93 5000 3 10 03:52 22.03.2022
3079 Snow -5 1005 85 9000 4.02 40 00:34 22.03.2022
3080 Snow -5 1005 92 10000 3.13 20 22:42 21.03.2022
3081 Snow -5 1005 92 8000 3.13 20 21:18 21.03.2022
3082 Snow -5 1005 92 8000 3.13 20 21:18 21.03.2022
3083 Snow -5 1005 92 5000 3.13 20 20:41 21.03.2022
3084 Snow -5 1004 92 9000 4.02 40 19:59 21.03.2022
3085 Snow -5 1004 92 7000 3.13 40 19:34 21.03.2022
3086 Snow -5 1004 92 6000 4.02 60 18:36 21.03.2022
3087 Snow -5 1003 93 9000 4 50 17:19 21.03.2022
3088 Snow -4 1003 93 7000 4 70 16:53 21.03.2022
3089 Snow -3 1002 93 2300 5 60 16:24 21.03.2022
3090 Snow -3 1001 93 7000 5 70 15:21 21.03.2022
3091 Snow -3 1001 92 1900 4.02 60 14:28 21.03.2022
3092 Snow -2 1000 92 10000 4.02 80 12:43 21.03.2022
3093 Snow -2 999 92 7000 4.02 100 11:54 21.03.2022
3094 Snow -2 998 92 2200 3.13 90 10:49 21.03.2022
3095 Snow -2 997 92 2700 1 0 09:21 21.03.2022
3096 Snow -3 995 92 1700 3.13 180 06:59 21.03.2022
3097 Snow -3 993 92 2000 3.13 160 03:29 21.03.2022
3098 Snow -3 992 92 4000 4.02 190 00:35 21.03.2022
3099 Snow -3 993 92 4200 4.02 190 22:56 20.03.2022
3100 Snow -3 993 92 5000 4.02 190 21:57 20.03.2022
3101 Snow -2 994 86 1700 4.02 180 21:30 20.03.2022
3102 Snow -2 994 86 2500 5 190 20:47 20.03.2022
3103 Clouds -1 994 68 10000 4.02 190 20:24 20.03.2022
3104 Clear -2 994 74 10000 4.02 190 19:43 20.03.2022
3105 Clear -2 995 74 10000 4.02 200 18:44 20.03.2022
3106 Clouds -1 996 68 10000 4.02 200 17:38 20.03.2022
3107 Clouds -1 996 68 10000 3.13 200 16:58 20.03.2022
3108 Clouds -2 997 86 10000 2 160 15:56 20.03.2022
3109 Clouds -1 998 74 10000 2 190 14:36 20.03.2022
3110 Clouds -1 999 74 10000 3.13 200 13:20 20.03.2022
3111 Clouds -1 1001 74 10000 4.02 220 11:37 20.03.2022
3112 Clouds -2 1001 86 10000 5 220 09:57 20.03.2022
3113 Clouds -2 1003 79 10000 4.02 240 07:51 20.03.2022
3114 Snow -4 1004 86 10000 3 240 05:49 20.03.2022
3115 Clear -5 1006 80 10000 4 240 03:18 20.03.2022
3116 Clear -5 1007 80 10000 5 240 00:48 20.03.2022
3117 Clear -5 1008 74 10000 5 230 23:35 19.03.2022
3118 Clear -5 1011 73 10000 5 230 21:54 19.03.2022
3119 Clear -5 1011 73 10000 5 230 21:20 19.03.2022
3120 Clear -4 1014 68 10000 5 230 19:21 19.03.2022
3121 Clear -4 1015 68 10000 5 250 18:25 19.03.2022
3122 Clear -4 1016 73 10000 4.02 240 17:45 19.03.2022
3123 Clear -4 1017 73 10000 4.02 240 16:40 19.03.2022
3124 Clear -3 1018 68 10000 3.13 240 15:21 19.03.2022
3125 Clear -1 1019 58 10000 5 250 13:40 19.03.2022
3126 Clear -1 1019 58 10000 6 250 12:42 19.03.2022
3127 Clear -1 1020 58 10000 5 240 12:19 19.03.2022
3128 Clear -1 1020 58 10000 7 240 11:42 19.03.2022
3129 Clear -3 1022 63 10000 5 240 08:34 19.03.2022
3130 Clear -5 1024 73 10000 4.02 240 04:24 19.03.2022
3131 Clouds -4 1024 73 10000 4.02 250 02:31 19.03.2022
3132 Clouds -4 1025 79 10000 4.02 260 23:50 18.03.2022
3133 Clouds -3 1026 73 10000 5 260 22:43 18.03.2022
3134 Clouds -3 1026 73 10000 5 260 22:20 18.03.2022
3135 Clouds -3 1027 73 10000 6 260 20:25 18.03.2022
3136 Clouds -3 1027 73 10000 6 270 19:24 18.03.2022
3137 Clouds -3 1027 73 10000 7.15 260 18:35 18.03.2022
3138 Clouds -3 1028 79 10000 8.05 280 16:53 18.03.2022
3139 Clouds -3 1028 79 10000 7.15 270 16:18 18.03.2022
3140 Snow -3 1029 79 9000 5 260 14:25 18.03.2022
3141 Clouds -3 1029 73 10000 5 250 13:18 18.03.2022
3142 Clouds -4 1029 73 10000 6 250 11:28 18.03.2022
3143 Clouds -5 1030 79 10000 5.81 250 09:41 18.03.2022
3144 Clouds -5 1030 73 10000 5 240 08:45 18.03.2022
3145 Clouds -7 1030 85 10000 3.13 230 06:45 18.03.2022
3146 Clouds -9 1030 86 10000 1 0 04:38 18.03.2022
3147 Clouds -22 1032 100 3423 1.79 307 00:55 18.03.2022
3148 Clouds -12 1030 92 10000 2 290 23:52 17.03.2022
3149 Clouds -12 1030 92 10000 2 290 23:52 17.03.2022
3150 Clouds -12 1030 92 10000 2 290 23:52 17.03.2022
3151 Clouds -12 1030 92 10000 2 290 23:52 17.03.2022
3152 Clouds -12 1030 92 10000 2 290 23:52 17.03.2022
3153 Clouds -12 1030 92 10000 2 290 23:52 17.03.2022
3154 Clouds -13 1030 92 10000 2 280 22:43 17.03.2022
3155 Clouds -13 1030 92 10000 2 280 22:18 17.03.2022
3156 Clear -13 1030 85 10000 2 300 21:27 17.03.2022
3157 Clear -11 1029 85 10000 2 300 20:52 17.03.2022
3158 Clouds -9 1030 79 10000 3 330 20:18 17.03.2022
3159 Clouds -10 1029 92 10000 3 320 19:37 17.03.2022
3160 Clear -10 1029 85 10000 3 320 18:51 17.03.2022
3161 Clouds -8 1029 79 10000 4 330 17:27 17.03.2022
3162 Clouds -7 1028 79 10000 4 340 15:57 17.03.2022
3163 Clouds -7 1028 79 10000 4 340 15:36 17.03.2022
3164 Clouds -8 1028 86 10000 3 340 14:58 17.03.2022
3165 Clear -6 1027 79 10000 3.13 340 13:28 17.03.2022
3166 Clear -5 1027 79 10000 4.02 350 12:38 17.03.2022
3167 Clouds -4 1027 73 10000 4.02 360 11:31 17.03.2022
3168 Clouds -4 1026 73 10000 5 350 10:38 17.03.2022
3169 Snow -4 1025 79 9000 5 350 08:46 17.03.2022
3170 Clouds -4 1025 85 10000 4.02 350 08:18 17.03.2022
3171 Snow -5 1023 85 10000 4.02 360 05:49 17.03.2022
3172 Clouds -7 1023 85 10000 3.13 320 04:24 17.03.2022
3173 Snow -8 1022 92 4300 5 290 00:24 17.03.2022
3174 Snow -8 1022 92 3000 5 280 22:52 16.03.2022
3175 Snow -8 1022 92 3700 5 280 22:33 16.03.2022
3176 Snow -8 1022 92 4300 6 280 21:55 16.03.2022
3177 Snow -7 1022 85 4000 6 270 20:32 16.03.2022
3178 Snow -7 1023 85 3500 7.15 280 19:22 16.03.2022
3179 Snow -7 1023 85 1400 7.15 280 18:40 16.03.2022
3180 Snow -7 1023 85 1700 7.15 280 17:45 16.03.2022
3181 Snow -7 1023 85 3400 6 260 17:27 16.03.2022
3182 Snow -7 1024 85 2200 7.15 270 15:56 16.03.2022
3183 Snow -7 1024 67 8000 8.05 280 14:35 16.03.2022
3184 Clear -7 1025 62 10000 8.05 270 13:34 16.03.2022
3185 Clear -7 1026 52 10000 7.15 250 11:59 16.03.2022
3186 Clear -7 1026 52 10000 7.15 250 11:22 16.03.2022
3187 Clear -7 1026 48 10000 6 250 10:28 16.03.2022
3188 Clear -7 1026 44 10000 6 260 09:55 16.03.2022
3189 Clear -12 1028 51 10000 4.02 240 06:33 16.03.2022
3190 Clear -18 1031 65 10000 4 280 02:29 16.03.2022
3191 Clear -16 1032 59 10000 4.02 280 22:51 15.03.2022
3192 Clear -16 1032 59 10000 4.02 280 22:32 15.03.2022
3193 Clear -15 1032 60 10000 5 280 20:36 15.03.2022
3194 Clear -16 1033 59 10000 5 280 18:58 15.03.2022
3195 Clear -16 1033 59 10000 4.02 280 17:24 15.03.2022
3196 Clear -16 1033 59 10000 5 280 16:34 15.03.2022
3197 Clear -14 1034 55 10000 3.13 260 15:21 15.03.2022
3198 Clear -10 1034 48 10000 4 250 14:46 15.03.2022
3199 Clear -8 1034 41 10000 4 250 13:55 15.03.2022
3200 Clear -7 1035 41 10000 6 280 12:29 15.03.2022
3201 Clear -7 1035 37 10000 6 280 11:31 15.03.2022
3202 Clear -7 1035 37 10000 5 290 09:46 15.03.2022
3203 Clear -8 1036 44 10000 4.02 280 08:49 15.03.2022
3204 Clear -9 1036 40 10000 4.92 300 07:52 15.03.2022
3205 Clear -9 1036 40 10000 5 300 07:34 15.03.2022
3206 Clear -19 1036 59 10000 3.13 290 04:20 15.03.2022
3207 Clear -19 1036 65 10000 3 280 23:57 14.03.2022
3208 Clear -20 1036 71 10000 4 280 23:24 14.03.2022
3209 Clear -18 1036 65 10000 3 280 22:30 14.03.2022
3210 Clear -20 1035 71 10000 3 290 21:30 14.03.2022
3211 Clear -20 1035 71 10000 2 280 20:54 14.03.2022
3212 Clear -19 1035 71 10000 2 280 20:20 14.03.2022
3213 Clear -18 1035 70 10000 1 280 18:55 14.03.2022
3214 Clear -17 1035 66 10000 2 290 17:54 14.03.2022
3215 Clear -18 1035 64 10000 1 280 17:23 14.03.2022
3216 Clear -14 1035 56 10000 1 280 15:56 14.03.2022
3217 Clear -9 1035 38 10000 1 300 14:41 14.03.2022
3218 Clear -6 1035 29 10000 3.13 250 12:29 14.03.2022
3219 Clear -6 1035 32 10000 3.13 220 10:54 14.03.2022
3220 Clear -5 1035 30 10000 2 220 09:52 14.03.2022
3221 Clear -6 1035 33 10000 1 0 09:22 14.03.2022
3222 Clear -6 1035 35 10000 1 0 08:55 14.03.2022
3223 Clear -8 1034 41 10000 1 0 07:32 14.03.2022
3224 Clear -13 1034 60 10000 2 220 05:45 14.03.2022
3225 Clear -21 1032 77 10000 0 0 01:55 14.03.2022
3226 Clear -20 1032 77 10000 0 0 01:28 14.03.2022
3227 Clear -15 1031 61 10000 2 240 22:44 13.03.2022
3228 Clear -15 1030 72 10000 0 0 21:31 13.03.2022
3229 Clear -16 1030 78 10000 1 0 20:56 13.03.2022
3230 Clear -16 1030 72 10000 1 0 20:31 13.03.2022
3231 Clear -15 1029 66 10000 2 180 19:49 13.03.2022
3232 Clear -14 1029 61 10000 2 190 19:28 13.03.2022
3233 Clear -13 1029 61 10000 3 190 18:59 13.03.2022
3234 Clear -13 1029 61 10000 3 190 18:35 13.03.2022
3235 Clear -13 1029 61 10000 3 190 17:46 13.03.2022
3236 Clear -12 1029 56 10000 3 190 17:19 13.03.2022
3237 Clear -12 1028 56 10000 2 190 16:30 13.03.2022
3238 Clear -12 1028 56 10000 2 190 15:47 13.03.2022
3239 Clear -12 1028 61 10000 2 160 14:56 13.03.2022
3240 Clear -9 1028 48 10000 2 160 13:43 13.03.2022
3241 Clear -8 1028 45 10000 3 190 12:55 13.03.2022
3242 Clear -8 1028 40 10000 3.13 200 11:52 13.03.2022
3243 Clear -9 1028 44 10000 4.02 190 11:32 13.03.2022
3244 Clear -9 1028 44 10000 4.02 190 10:47 13.03.2022
3245 Clear -9 1028 44 10000 4.02 220 10:22 13.03.2022
3246 Clear -9 1028 44 10000 5 220 09:40 13.03.2022
3247 Clear -11 1027 47 10000 5 200 08:45 13.03.2022
3248 Clear -12 1028 51 10000 4.02 210 07:41 13.03.2022
3249 Clear -16 1027 59 10000 4.02 200 05:40 13.03.2022
3250 Clear -20 1027 76 10000 4.02 190 02:39 13.03.2022
3251 Clear -19 1027 70 10000 2 190 23:33 12.03.2022
3252 Clear -17 1026 65 10000 3.13 220 21:53 12.03.2022
3253 Clear -16 1026 59 10000 3.13 200 20:29 12.03.2022
3254 Clear -16 1026 59 10000 4.02 220 19:47 12.03.2022
3255 Clear -16 1026 59 10000 3.13 210 18:58 12.03.2022
3256 Clear -16 1026 59 10000 3.13 200 18:22 12.03.2022
3257 Clear -14 1027 55 10000 5 210 17:23 12.03.2022
3258 Clear -14 1027 55 10000 3.13 200 16:23 12.03.2022
3259 Clear -15 1027 60 10000 3.13 200 15:22 12.03.2022
3260 Clear -14 1027 55 10000 2 200 14:27 12.03.2022
3261 Clear -12 1028 47 10000 4.02 230 12:35 12.03.2022
3262 Clear -12 1028 47 10000 5 230 11:56 12.03.2022
3263 Clear -13 1028 51 10000 6 230 11:34 12.03.2022
3264 Clear -13 1029 51 10000 6 230 10:52 12.03.2022
3265 Clear -14 1029 50 10000 5 210 09:44 12.03.2022
3266 Clear -15 1029 55 10000 5 220 08:53 12.03.2022
3267 Clear -17 1030 59 10000 3.13 210 06:53 12.03.2022
3268 Clear -23 1031 83 10000 2 240 01:44 12.03.2022
3269 Clear -21 1031 70 10000 2 230 23:51 11.03.2022
3270 Clear -21 1032 76 10000 3.13 230 22:52 11.03.2022
3271 Clear -21 1032 76 10000 3.13 230 21:35 11.03.2022
3272 Clear -22 1032 76 10000 2 230 20:54 11.03.2022
3273 Clear -21 1032 70 10000 2 250 20:28 11.03.2022
3274 Clear -21 1032 76 10000 3.13 240 19:42 11.03.2022
3275 Clear -22 1033 83 10000 2 230 18:51 11.03.2022
3276 Clear -23 1033 76 10000 0 0 17:28 11.03.2022
3277 Clear -23 1034 76 10000 2 200 16:27 11.03.2022
3278 Clear -21 1034 71 10000 1 0 15:52 11.03.2022
3279 Clear -18 1035 60 10000 1 250 14:18 11.03.2022
3280 Clouds -15 1037 51 10000 5 240 12:43 11.03.2022
3281 Clouds -15 1037 50 10000 5 240 12:20 11.03.2022
3282 Clear -15 1037 50 10000 5 240 11:40 11.03.2022
3283 Clear -15 1038 55 10000 3.13 230 09:37 11.03.2022
3284 Clear -16 1038 59 10000 4.02 280 08:29 11.03.2022
3285 Clear -17 1039 59 10000 5 280 07:48 11.03.2022
3286 Clear -20 1039 76 10000 4.02 280 06:55 11.03.2022
3287 Clear -26 1039 75 10000 3.13 280 04:44 11.03.2022
3288 Clear -27 1040 76 10000 3 280 01:51 11.03.2022
3289 Clear -26 1040 76 10000 3 280 22:33 10.03.2022
3290 Clear -26 1040 76 10000 3 280 21:58 10.03.2022
3291 Clear -26 1040 76 10000 3 280 21:26 10.03.2022
3292 Clear -26 1040 84 10000 3 280 20:39 10.03.2022
3293 Clear -26 1040 76 10000 4 280 19:22 10.03.2022
3294 Clear -25 1039 77 10000 3 280 18:18 10.03.2022
3295 Clear -25 1039 77 10000 3 280 16:53 10.03.2022
3296 Clear -23 1040 77 10000 2 280 15:34 10.03.2022
3297 Clear -19 1040 60 10000 2 300 13:51 10.03.2022
3298 Clear -18 1040 59 10000 3.13 310 12:43 10.03.2022
3299 Clear -18 1040 59 10000 4.02 300 11:29 10.03.2022
3300 Clear -19 1040 64 10000 3.13 290 09:54 10.03.2022
3301 Clear -19 1039 64 10000 4.02 290 08:39 10.03.2022
3302 Clear -30 1038 76 10000 2 280 05:33 10.03.2022
3303 Clear -33 1037 75 10000 0 0 02:39 10.03.2022
3304 Clear -32 1035 68 10000 1 310 23:37 09.03.2022
3305 Clear -30 1035 76 10000 1 0 22:28 09.03.2022
3306 Clear -31 1035 69 10000 1 0 21:47 09.03.2022
3307 Clear -29 1034 76 10000 1 0 20:44 09.03.2022
3308 Clear -26 1033 76 10000 4 10 18:58 09.03.2022
3309 Clear -25 1032 70 10000 3 340 17:28 09.03.2022
3310 Clear -25 1032 70 10000 3 330 16:45 09.03.2022
3311 Clear -26 1032 76 10000 1 350 15:37 09.03.2022
3312 Clear -23 1031 64 10000 2 320 14:23 09.03.2022
3313 Clear -22 1030 59 10000 3 320 13:25 09.03.2022
3314 Clear -22 1030 64 10000 4 300 12:20 09.03.2022
3315 Clear -22 1030 64 10000 4 310 11:45 09.03.2022
3316 Clear -22 1029 64 10000 4 290 10:50 09.03.2022
3317 Clear -24 1027 70 10000 5 320 09:22 09.03.2022
3318 Clear -24 1027 64 10000 5 300 08:42 09.03.2022
3319 Clear -29 1024 75 10000 5 310 04:49 09.03.2022
3320 Clear -28 1021 69 10000 4 300 00:56 09.03.2022
3321 Clear -28 1020 76 10000 4 300 23:37 08.03.2022
3322 Clear -27 1019 76 10000 4 300 22:45 08.03.2022
3323 Clear -26 1018 70 10000 5 310 21:43 08.03.2022
3324 Clear -26 1018 70 10000 5 310 21:18 08.03.2022
3325 Clear -25 1016 69 10000 5 320 19:59 08.03.2022
3326 Clear -25 1015 76 10000 5 330 18:53 08.03.2022
3327 Clear -23 1015 69 10000 6 320 17:51 08.03.2022
3328 Clear -23 1013 69 10000 6 310 16:35 08.03.2022
3329 Clear -23 1011 69 10000 6 310 14:23 08.03.2022
3330 Clear -22 1009 69 10000 8.05 320 12:44 08.03.2022
3331 Clear -22 1008 69 10000 7.15 320 11:53 08.03.2022
3332 Clouds -22 1007 63 10000 7.15 320 11:34 08.03.2022
3333 Snow -23 1005 69 10000 7.15 320 10:27 08.03.2022
3334 Snow -23 1003 69 2800 6 320 08:28 08.03.2022
3335 Snow -24 1000 69 7000 5 340 05:47 08.03.2022
3336 Snow -23 996 76 3000 5 340 00:43 08.03.2022
3337 Snow -22 995 76 4500 5 350 22:23 07.03.2022
3338 Snow -21 994 76 2100 5 340 21:35 07.03.2022
3339 Snow -20 994 76 1800 5 340 20:54 07.03.2022
3340 Snow -20 994 76 2700 5 360 20:22 07.03.2022
3341 Snow -20 994 76 2100 5 360 19:38 07.03.2022
3342 Snow -20 993 76 2800 5 360 18:47 07.03.2022
3343 Snow -19 993 77 3700 5 360 17:54 07.03.2022
3344 Snow -19 993 77 2600 5 10 16:56 07.03.2022
3345 Snow -19 993 77 4000 5 10 16:20 07.03.2022
3346 Snow -17 992 77 3700 4.02 20 14:19 07.03.2022
3347 Snow -17 992 71 2900 4.02 30 12:33 07.03.2022
3348 Snow -17 991 77 2200 5 50 10:39 07.03.2022
3349 Snow -17 991 71 1700 6 40 09:47 07.03.2022
3350 Snow -18 992 70 1500 6 40 06:20 07.03.2022
3351 Snow -20 993 76 1600 6 40 00:23 07.03.2022
3352 Snow -21 993 76 1200 6 40 23:41 06.03.2022
3353 Snow -21 993 76 1400 6 40 22:57 06.03.2022
3354 Snow -21 994 76 1500 6 40 22:24 06.03.2022
3355 Snow -21 994 76 1500 6 40 22:24 06.03.2022
3356 Snow -21 994 76 1800 6 50 20:51 06.03.2022
3357 Snow -21 994 76 2100 6 50 20:26 06.03.2022
3358 Snow -21 995 76 2600 7.15 40 19:23 06.03.2022
3359 Snow -21 995 70 2500 7.15 50 18:25 06.03.2022
3360 Snow -21 996 70 4500 7.15 50 17:21 06.03.2022
3361 Clouds -21 997 76 3000 7 60 16:44 06.03.2022
3362 Clouds -21 997 70 3000 7.15 60 16:18 06.03.2022
3363 Clear -21 999 70 10000 5 50 14:57 06.03.2022
3364 Clear -21 999 70 10000 6 60 14:33 06.03.2022
3365 Clear -21 999 70 10000 7.15 50 13:30 06.03.2022
3366 Clear -21 1000 70 10000 7.15 50 12:35 06.03.2022
3367 Clear -21 1000 70 10000 7.15 50 11:21 06.03.2022
3368 Clear -20 1001 64 10000 6 60 10:28 06.03.2022
3369 Clear -21 1003 70 10000 6 60 08:30 06.03.2022
3370 Clear -21 1003 70 10000 7.15 70 07:45 06.03.2022
3371 Clear -22 1004 69 10000 6 70 06:19 06.03.2022
3372 Clear -24 1008 76 10000 5 90 00:53 06.03.2022
3373 Clear -24 1009 76 10000 5 70 00:31 06.03.2022
3374 Clear -24 1009 76 10000 5 70 23:23 05.03.2022
3375 Clear -24 1010 76 10000 3.13 90 22:53 05.03.2022
3376 Clear -24 1011 76 10000 3.13 70 21:56 05.03.2022
3377 Clear -24 1011 76 10000 4.02 70 21:23 05.03.2022
3378 Clear -24 1012 76 10000 3.13 70 19:49 05.03.2022
3379 Clear -24 1012 76 10000 4.02 60 18:56 05.03.2022
3380 Clear -24 1013 76 10000 4.02 60 18:27 05.03.2022
3381 Clear -24 1014 77 10000 2 60 16:49 05.03.2022
3382 Clear -22 1014 71 10000 4 20 15:31 05.03.2022
3383 Clear -22 1014 71 10000 3 10 14:47 05.03.2022
3384 Clear -22 1014 71 10000 3 10 14:29 05.03.2022
3385 Clear -20 1015 64 10000 3.13 10 13:22 05.03.2022
3386 Clear -19 1015 64 10000 3.13 350 11:48 05.03.2022
3387 Clear -19 1015 64 10000 4.02 10 11:19 05.03.2022
3388 Clear -19 1015 64 10000 3.13 360 10:18 05.03.2022
3389 Clear -19 1015 64 10000 2 360 08:59 05.03.2022
3390 Clear -20 1015 70 10000 3.13 20 07:38 05.03.2022
3391 Clear -24 1015 76 10000 1 300 05:43 05.03.2022
3392 Clear -28 1015 75 10000 1 0 03:18 05.03.2022
3393 Clear -25 1014 77 10000 4 360 23:37 04.03.2022
3394 Clear -24 1014 77 10000 3 340 22:42 04.03.2022
3395 Clear -24 1014 77 10000 3 340 21:49 04.03.2022
3396 Clear -24 1014 84 10000 3 330 20:54 04.03.2022
3397 Clear -23 1014 77 10000 3 340 20:24 04.03.2022
3398 Clear -23 1014 84 10000 3 350 19:36 04.03.2022
3399 Clear -22 1014 77 10000 4 350 18:44 04.03.2022
3400 Clear -20 1013 77 10000 4 340 17:32 04.03.2022
3401 Clear -19 1013 78 10000 3 330 16:46 04.03.2022
3402 Clear -17 1012 71 10000 4 320 15:29 04.03.2022
3403 Clear -16 1012 72 10000 3 330 14:29 04.03.2022
3404 Clear -15 1011 71 10000 4.02 340 13:26 04.03.2022
3405 Clear -13 1011 66 10000 5.81 340 11:41 04.03.2022
3406 Clear -13 1010 66 10000 5 350 10:50 04.03.2022
3407 Clear -14 1009 65 10000 5 340 09:52 04.03.2022
3408 Clear -14 1009 71 10000 4.02 340 08:39 04.03.2022
3409 Clear -14 1008 77 10000 5 340 07:34 04.03.2022
3410 Clouds -6 1005 86 10000 5 330 03:53 04.03.2022
3411 Clear -5 1004 85 10000 4.02 250 00:28 04.03.2022
3412 Clouds -2 1004 74 10000 5 260 22:27 03.03.2022
3413 Clouds -2 1004 74 10000 6 260 21:42 03.03.2022
3414 Clouds -2 1004 74 10000 6 260 21:24 03.03.2022
3415 Clouds -2 1004 74 10000 7.15 270 19:52 03.03.2022
3416 Clouds -2 1004 74 10000 5 240 18:54 03.03.2022
3417 Clouds -2 1004 74 10000 6 250 18:23 03.03.2022
3418 Clouds -2 1004 74 10000 5 240 17:30 03.03.2022
3419 Clouds -1 1004 68 10000 4.02 230 16:24 03.03.2022
3420 Clouds -1 1005 68 10000 5 240 15:21 03.03.2022
3421 Clouds -1 1005 74 10000 5 230 14:42 03.03.2022
3422 Clouds 0 1005 69 10000 5 230 13:24 03.03.2022
3423 Clouds -1 1006 74 10000 6 250 11:54 03.03.2022
3424 Clouds -1 1006 74 10000 6 250 10:42 03.03.2022
3425 Clouds -1 1006 74 10000 5 250 09:38 03.03.2022
3426 Clouds -2 1006 79 10000 6 260 07:48 03.03.2022
3427 Clouds -3 1005 79 10000 6 270 06:35 03.03.2022
3428 Clouds -5 1004 79 10000 6 280 02:23 03.03.2022
3429 Clouds -6 1003 79 10000 4.02 240 23:31 02.03.2022
3430 Snow -7 1003 85 10000 4.02 230 22:52 02.03.2022
3431 Clouds -7 1005 73 10000 4.02 200 21:32 02.03.2022
3432 Clouds -7 1005 73 10000 4.02 200 20:46 02.03.2022
3433 Clouds -7 1005 73 10000 4.02 190 20:24 02.03.2022
3434 Clear -7 1007 67 10000 5 190 19:36 02.03.2022
3435 Clouds -7 1009 67 10000 4.02 200 18:46 02.03.2022
3436 Clouds -7 1009 67 10000 4.02 200 18:18 02.03.2022
3437 Clear -8 1010 61 10000 4.02 210 17:32 02.03.2022
3438 Clear -8 1011 61 10000 4.02 210 16:51 02.03.2022
3439 Clear -10 1012 66 10000 2 200 14:48 02.03.2022
3440 Clear -8 1014 57 10000 3.13 230 13:25 02.03.2022
3441 Clear -8 1014 57 10000 4 240 12:44 02.03.2022
3442 Clear -9 1014 61 10000 5 260 11:51 02.03.2022
3443 Clear -9 1014 61 10000 5 240 11:24 02.03.2022
3444 Clear -9 1014 61 10000 5 240 11:24 02.03.2022
3445 Clear -10 1014 61 10000 5 230 09:47 02.03.2022
3446 Clear -9 1014 56 10000 4.02 240 09:23 02.03.2022
3447 Clear -11 1014 66 10000 6 280 07:51 02.03.2022
3448 Clouds -13 1014 71 10000 6 280 06:54 02.03.2022
3449 Clear -15 1013 77 10000 6 290 02:54 02.03.2022
3450 Clear -13 1012 71 10000 6 300 00:33 02.03.2022
3451 Clear -12 1011 72 10000 8.05 300 22:50 01.03.2022
3452 Clear -12 1010 72 10000 7.15 300 22:31 01.03.2022
3453 Clear -11 1009 72 10000 8.05 310 21:25 01.03.2022
3454 Clouds -10 1008 72 10000 9 330 20:32 01.03.2022
3455 Clouds -9 1007 72 10000 9 320 19:45 01.03.2022
3456 Clouds -8 1006 72 10000 9 330 18:51 01.03.2022
3457 Clouds -8 1005 72 10000 10 320 18:21 01.03.2022
3458 Clouds -8 1004 78 10000 10 310 17:30 01.03.2022
3459 Snow -7 1003 73 6000 11.18 320 16:35 01.03.2022
3460 Snow -7 1002 79 6000 9.83 310 15:42 01.03.2022
3461 Clouds -6 1001 73 10000 9 320 14:41 01.03.2022
3462 Snow -6 1000 85 4400 9 300 14:23 01.03.2022
3463 Snow -5 999 79 4500 10 300 13:25 01.03.2022
3464 Snow -4 998 68 8000 10 300 12:34 01.03.2022
3465 Snow -2 996 74 8000 12.07 290 10:37 01.03.2022
3466 Clouds -1 995 68 10000 12.07 280 09:18 01.03.2022
3467 Clear -2 994 74 10000 11.18 280 07:54 01.03.2022
3468 Clouds -2 994 74 10000 9 260 06:27 01.03.2022
3469 Clouds -2 996 68 10000 8.05 250 02:45 01.03.2022
3470 Clouds -2 997 79 10000 8.94 240 00:39 01.03.2022
3471 Clouds -2 999 92 10000 8.05 240 23:33 28.02.2022
3472 Snow -1 1000 74 1700 9 250 22:24 28.02.2022
3473 Clear 0 999 63 10000 8.05 240 21:41 28.02.2022
3474 Clear 0 1001 63 10000 8.05 230 20:28 28.02.2022
3475 Clouds -1 1002 68 10000 9 230 19:41 28.02.2022
3476 Clear -1 1004 68 10000 8.05 230 18:49 28.02.2022
3477 Clear -1 1006 68 10000 9 230 17:33 28.02.2022
3478 Clear -1 1006 68 10000 8.05 230 16:53 28.02.2022
3479 Clouds -1 1009 68 10000 7.15 240 15:31 28.02.2022
3480 Clouds -2 1010 79 10000 7.15 230 14:32 28.02.2022
3481 Clouds -2 1011 79 10000 8.05 240 13:48 28.02.2022
3482 Clear -2 1012 68 10000 7.15 210 12:53 28.02.2022
3483 Clear -4 1014 73 10000 7.15 220 11:59 28.02.2022
3484 Clouds -4 1015 68 10000 6 210 11:18 28.02.2022
3485 Clear -6 1017 73 10000 6 210 10:22 28.02.2022
3486 Clear -7 1017 79 10000 5 220 09:41 28.02.2022
3487 Clear -8 1019 72 10000 5 220 08:48 28.02.2022
3488 Clear -10 1020 72 10000 5 220 07:43 28.02.2022
3489 Clear -15 1022 84 10000 1 0 05:52 28.02.2022
3490 Clear -20 1022 84 10000 3 270 04:30 28.02.2022
3491 Clear -20 1022 84 10000 3 270 04:30 28.02.2022
3492 Clear -20 1022 84 10000 3 270 04:30 28.02.2022
3493 Clear -14 1023 85 10000 4 340 00:34 28.02.2022
3494 Clear -11 1022 85 10000 4 330 22:38 27.02.2022
3495 Clear -10 1021 79 10000 4 330 21:58 27.02.2022
3496 Clear -9 1021 78 10000 5 330 21:36 27.02.2022
3497 Clear -8 1020 78 10000 5 330 20:41 27.02.2022
3498 Clouds -7 1020 79 10000 7.15 340 20:18 27.02.2022
3499 Snow -2 1018 92 1900 6 320 19:36 27.02.2022
3500 Snow -2 1018 92 1900 6 320 19:18 27.02.2022
3501 Clouds -1 1017 80 10000 6 270 17:57 27.02.2022
3502 Clouds -1 1017 80 10000 7.15 260 17:34 27.02.2022
3503 Clouds -1 1017 74 10000 6 260 16:22 27.02.2022
3504 Clouds -1 1017 74 10000 7.15 250 14:28 27.02.2022
3505 Clouds -1 1016 74 10000 8.05 260 12:35 27.02.2022
3506 Clouds -2 1016 74 10000 9 260 11:36 27.02.2022
3507 Clouds -2 1015 74 10000 8.05 260 10:36 27.02.2022
3508 Clouds -2 1015 74 10000 7.15 250 09:52 27.02.2022
3509 Clouds -3 1015 79 10000 7.15 240 09:21 27.02.2022
3510 Clouds -3 1015 73 10000 7.15 240 08:44 27.02.2022
3511 Clear -4 1015 73 10000 6 240 05:43 27.02.2022
3512 Clear -5 1015 73 10000 7.15 250 03:26 27.02.2022
3513 Clear -6 1017 73 10000 5 240 23:51 26.02.2022
3514 Clear -7 1017 79 10000 4.02 230 22:42 26.02.2022
3515 Clear -6 1018 73 10000 5 250 21:27 26.02.2022
3516 Clear -7 1018 79 10000 5 250 20:41 26.02.2022
3517 Clear -7 1018 79 10000 4.02 240 19:55 26.02.2022
3518 Clear -6 1018 73 10000 5 250 19:33 26.02.2022
3519 Clear -6 1019 73 10000 4.02 240 18:33 26.02.2022
3520 Clear -6 1019 73 10000 5 240 17:34 26.02.2022
3521 Clear -5 1019 67 10000 5 240 16:39 26.02.2022
3522 Clear -5 1019 73 10000 5 220 15:37 26.02.2022
3523 Clear -5 1019 73 10000 5 220 15:18 26.02.2022
3524 Clear -5 1019 73 10000 4.02 230 14:41 26.02.2022
3525 Clear -4 1019 68 10000 4.02 240 13:51 26.02.2022
3526 Clear -4 1019 68 10000 4.02 230 12:53 26.02.2022
3527 Clear -4 1019 68 10000 5 230 11:50 26.02.2022
3528 Clear -4 1019 68 10000 5 230 11:25 26.02.2022
3529 Clear -6 1019 73 10000 5 240 09:31 26.02.2022
3530 Clear -6 1019 73 10000 6 250 08:26 26.02.2022
3531 Clear -11 1019 85 10000 4 230 04:23 26.02.2022
3532 Clear -12 1018 85 10000 2 250 23:50 25.02.2022
3533 Clouds -9 1017 79 10000 4 250 22:31 25.02.2022
3534 Clouds -9 1017 79 10000 3 250 21:31 25.02.2022
3535 Clear -9 1017 79 10000 3 250 20:47 25.02.2022
3536 Clear -9 1017 73 10000 3 250 20:25 25.02.2022
3537 Clear -10 1017 78 10000 3.13 250 17:57 25.02.2022
3538 Clear -10 1017 72 10000 4.02 250 16:54 25.02.2022
3539 Clear -10 1017 78 10000 5 250 15:55 25.02.2022
3540 Clear -10 1017 79 10000 5 250 15:23 25.02.2022
3541 Clear -10 1017 79 10000 4 260 14:55 25.02.2022
3542 Clear -9 1016 79 10000 5 250 14:24 25.02.2022
3543 Clear -8 1016 79 10000 5 250 13:30 25.02.2022
3544 Clear -6 1015 68 10000 6 290 12:21 25.02.2022
3545 Clear -6 1015 67 10000 7.15 290 11:22 25.02.2022
3546 Clear -6 1014 73 10000 7.15 290 10:23 25.02.2022
3547 Clear -6 1013 73 10000 8.05 290 09:46 25.02.2022
3548 Snow -6 1012 86 6000 9 280 08:22 25.02.2022
3549 Snow -5 1011 80 7000 8 290 07:31 25.02.2022
3550 Snow -5 1010 80 10000 7 290 05:42 25.02.2022
3551 Clouds -5 1008 86 10000 7 280 02:46 25.02.2022
3552 Clouds -3 1005 93 10000 7 280 22:47 24.02.2022
3553 Clouds -2 1004 92 10000 8.05 280 21:51 24.02.2022
3554 Snow -2 1004 92 10000 7.15 290 21:30 24.02.2022
3555 Snow -1 1003 92 7000 5 280 20:47 24.02.2022
3556 Clouds 0 1002 92 10000 4.02 280 19:32 24.02.2022
3557 Clouds 0 1002 92 10000 4.02 280 18:21 24.02.2022
3558 Clouds 0 1002 92 10000 4.02 280 17:58 24.02.2022
3559 Clouds 0 1002 100 10000 4.02 270 17:21 24.02.2022
3560 Clouds 0 1001 92 10000 4.02 270 16:28 24.02.2022
3561 Snow 0 1001 100 1800 3.13 250 15:44 24.02.2022
3562 Snow 0 1002 92 2100 2 230 14:48 24.02.2022
3563 Snow 0 1002 92 2200 3.13 210 14:19 24.02.2022
3564 Snow 0 1002 92 7000 2 200 13:39 24.02.2022
3565 Clouds 0 1002 92 10000 4.02 190 11:56 24.02.2022
3566 Snow 0 1003 92 7000 4.02 190 10:34 24.02.2022
3567 Snow -1 1004 100 4500 4.02 190 08:46 24.02.2022
3568 Snow -1 1004 100 4200 4.02 190 08:22 24.02.2022
3569 Snow -1 1005 92 10000 5 190 05:50 24.02.2022
3570 Snow -2 1007 92 8000 4.02 190 00:32 24.02.2022
3571 Snow -3 1007 92 7000 4.02 190 22:29 23.02.2022
3572 Snow -3 1008 92 10000 5 190 20:52 23.02.2022
3573 Snow -3 1008 92 10000 4.02 180 20:30 23.02.2022
3574 Snow -3 1008 92 10000 3.13 170 19:37 23.02.2022
3575 Snow -3 1008 86 10000 4.02 160 18:31 23.02.2022
3576 Snow -3 1009 86 10000 5 160 17:21 23.02.2022
3577 Clear -3 1010 68 10000 4.02 150 14:34 23.02.2022
3578 Clouds -2 1010 63 10000 3.13 150 12:37 23.02.2022
3579 Clouds -1 1010 59 10000 3 160 11:23 23.02.2022
3580 Clouds -1 1010 64 10000 3 170 10:30 23.02.2022
3581 Clouds -3 1010 68 10000 2 210 08:57 23.02.2022
3582 Clouds -4 1011 73 10000 4.02 220 07:57 23.02.2022
3583 Snow -6 1010 86 9000 2 220 03:48 23.02.2022
3584 Clouds -6 1009 79 10000 3 240 00:19 23.02.2022
3585 Clouds -6 1008 79 10000 3 230 23:35 22.02.2022
3586 Snow -6 1008 79 10000 3 240 22:31 22.02.2022
3587 Clouds -6 1008 79 10000 2 240 21:49 22.02.2022
3588 Clouds -6 1008 79 9000 3 240 21:28 22.02.2022
3589 Clouds -6 1008 79 10000 3 230 20:51 22.02.2022
3590 Clouds -7 1007 86 10000 2 230 20:29 22.02.2022
3591 Clouds -8 1007 93 10000 2 240 19:36 22.02.2022
3592 Clouds -8 1007 93 10000 2 240 19:18 22.02.2022
3593 Clouds -6 1007 86 10000 3 230 17:40 22.02.2022
3594 Clouds -6 1007 86 10000 3 230 17:19 22.02.2022
3595 Clouds -5 1006 80 10000 3 230 16:36 22.02.2022
3596 Clear -6 1006 79 10000 3.13 220 15:38 22.02.2022
3597 Clouds -6 1006 79 10000 3.13 210 14:43 22.02.2022
3598 Clouds -2 1005 68 10000 6 230 12:20 22.02.2022
3599 Clouds -2 1004 74 10000 7.15 240 10:28 22.02.2022
3600 Clouds -3 1003 73 10000 7.15 230 07:48 22.02.2022
3601 Clouds -4 1003 79 10000 6 230 07:25 22.02.2022
3602 Clouds -5 1002 85 10000 5 200 02:52 22.02.2022
3603 Clouds -5 1002 85 10000 4.02 200 00:49 22.02.2022
3604 Snow -6 1002 92 10000 4.92 200 22:41 21.02.2022
3605 Snow -6 1002 85 10000 5 200 21:30 21.02.2022
3606 Snow -6 1002 85 9000 4.02 200 20:29 21.02.2022
3607 Snow -6 1002 85 10000 5 200 18:41 21.02.2022
3608 Snow -7 1002 85 9000 5 200 16:50 21.02.2022
3609 Snow -6 1002 85 9000 5 190 14:24 21.02.2022
3610 Snow -6 1002 85 8000 4.02 190 13:59 21.02.2022
3611 Snow -6 1002 85 9000 4.02 190 12:59 21.02.2022
3612 Snow -6 1002 85 3700 4.02 200 12:22 21.02.2022
3613 Snow -7 1001 79 4100 6 160 10:45 21.02.2022
3614 Clouds -8 1002 67 10000 6 150 08:44 21.02.2022
3615 Clear -10 1006 66 10000 5 160 02:58 21.02.2022
3616 Clear -8 1008 61 10000 6 180 23:29 20.02.2022
3617 Clear -8 1009 61 10000 5 190 22:19 20.02.2022
3618 Clear -7 1009 57 10000 6 200 21:41 20.02.2022
3619 Clear -6 1009 58 10000 6 180 20:52 20.02.2022
3620 Clear -6 1010 58 10000 5 180 20:22 20.02.2022
3621 Clear -6 1010 53 10000 5 180 19:29 20.02.2022
3622 Clear -6 1011 53 10000 5 190 18:49 20.02.2022
3623 Clear -6 1011 53 10000 6 190 18:30 20.02.2022
3624 Clear -6 1012 53 10000 5 190 17:30 20.02.2022
3625 Clear -5 1013 53 10000 5 190 15:30 20.02.2022
3626 Clear -4 1013 49 10000 5 190 14:39 20.02.2022
3627 Clear -3 1013 54 10000 5 190 13:22 20.02.2022
3628 Clear -3 1013 54 10000 5 190 13:22 20.02.2022
3629 Clear -3 1013 54 10000 5 190 13:22 20.02.2022
3630 Clear -3 1014 49 10000 6 190 11:56 20.02.2022
3631 Clear -3 1014 49 10000 6 190 11:56 20.02.2022
3632 Clear -3 1014 49 10000 6 190 11:56 20.02.2022
3633 Clear -2 1014 46 10000 6 200 10:21 20.02.2022
3634 Clear -2 1014 43 10000 7 190 09:46 20.02.2022
3635 Clear -7 1015 52 10000 5 200 06:30 20.02.2022
3636 Clear -9 1016 67 10000 5 190 00:32 20.02.2022
3637 Clear -8 1016 67 10000 5 190 23:33 19.02.2022
3638 Clear -8 1016 67 10000 4.02 200 22:24 19.02.2022
3639 Clear -7 1017 67 10000 5 200 21:47 19.02.2022
3640 Clear -6 1017 67 10000 5 200 20:28 19.02.2022
3641 Clear -5 1017 62 10000 5 200 19:34 19.02.2022
3642 Clear -5 1017 62 10000 5 200 18:40 19.02.2022
3643 Clear -5 1017 62 10000 5 200 18:40 19.02.2022
3644 Clear -5 1017 67 10000 5 200 17:57 19.02.2022
3645 Clear -4 1017 62 10000 4.02 200 17:21 19.02.2022
3646 Clear -3 1017 58 10000 6 200 15:59 19.02.2022
3647 Clear -3 1017 58 10000 5 200 14:54 19.02.2022
3648 Clear -4 1018 68 10000 5 210 13:57 19.02.2022
3649 Clear -3 1017 63 10000 5 200 11:47 19.02.2022
3650 Clear -3 1017 63 10000 5 200 10:48 19.02.2022
3651 Clear -5 1017 67 10000 5 220 08:56 19.02.2022
3652 Clear -7 1017 73 10000 5 210 06:45 19.02.2022
3653 Clear -4 1016 80 10000 6 210 00:38 19.02.2022
3654 Clear -3 1015 73 10000 5 210 22:24 18.02.2022
3655 Clear -3 1015 73 10000 5 220 21:21 18.02.2022
3656 Clouds -3 1015 73 10000 5 220 19:56 18.02.2022
3657 Clouds -3 1014 73 10000 5 220 18:51 18.02.2022
3658 Clouds -3 1014 79 10000 5 220 18:28 18.02.2022
3659 Clear -3 1014 79 10000 4.02 220 17:56 18.02.2022
3660 Clouds -3 1014 86 10000 4.02 210 15:57 18.02.2022
3661 Clouds -4 1014 85 10000 4.02 190 13:56 18.02.2022
3662 Snow -4 1014 85 9000 4.02 200 13:32 18.02.2022
3663 Clouds -4 1014 85 10000 3.13 200 12:48 18.02.2022
3664 Clouds -4 1014 79 10000 5 220 11:56 18.02.2022
3665 Clouds -4 1014 85 10000 5 210 10:42 18.02.2022
3666 Clouds -5 1013 85 10000 5 230 07:20 18.02.2022
3667 Clouds -4 1013 85 10000 4.02 230 05:43 18.02.2022
3668 Clouds -4 1012 85 10000 4.02 250 03:47 18.02.2022
3669 Snow -5 1010 92 3500 4.02 230 21:56 17.02.2022
3670 Snow -5 1010 92 3400 4.02 230 21:33 17.02.2022
3671 Snow -5 1010 92 1800 4.02 230 20:42 17.02.2022
3672 Snow -5 1010 92 6000 4.02 240 19:54 17.02.2022
3673 Snow -5 1009 92 6000 4.02 230 18:57 17.02.2022
3674 Clouds -5 1009 92 9000 4.02 230 18:18 17.02.2022
3675 Clouds -6 1009 92 9000 4.02 220 16:43 17.02.2022
3676 Snow -6 1009 85 8000 4.02 220 15:50 17.02.2022
3677 Snow -7 1009 92 6000 4.02 210 14:29 17.02.2022
3678 Snow -7 1009 93 9000 3 200 13:30 17.02.2022
3679 Snow -8 1009 85 8000 3.13 200 11:36 17.02.2022
3680 Snow -9 1008 85 6000 4.02 200 09:38 17.02.2022
3681 Snow -11 1010 85 5000 5 160 06:44 17.02.2022
3682 Clouds -15 1015 84 10000 3.13 180 23:23 16.02.2022
3683 Clouds -15 1015 84 10000 3.13 200 22:27 16.02.2022
3684 Clouds -15 1016 84 7000 4.02 190 20:21 16.02.2022
3685 Snow -16 1017 84 9000 3.13 190 18:50 16.02.2022
3686 Snow -16 1017 84 9000 3.13 200 17:56 16.02.2022
3687 Snow -15 1018 84 8000 3.13 200 16:44 16.02.2022
3688 Snow -15 1018 84 2100 4.02 180 15:21 16.02.2022
3689 Snow -17 1019 84 2300 4.02 160 13:38 16.02.2022
3690 Clear -18 1019 78 10000 3 160 12:24 16.02.2022
3691 Clear -19 1019 84 10000 3 160 11:45 16.02.2022
3692 Clear -21 1020 84 10000 3 140 10:34 16.02.2022
3693 Clear -21 1020 84 10000 3 170 09:34 16.02.2022
3694 Clouds -24 1021 77 10000 2 150 06:43 16.02.2022
3695 Mist -29 1022 75 5000 0 0 00:37 16.02.2022
3696 Clouds -30 1021 75 10000 2 290 22:34 15.02.2022
3697 Clear -29 1021 75 10000 1 290 21:50 15.02.2022
3698 Clear -30 1021 75 10000 2 280 21:29 15.02.2022
3699 Clear -29 1022 75 10000 1 300 20:57 15.02.2022
3700 Clear -29 1021 75 10000 2 300 20:19 15.02.2022
3701 Clear -28 1021 75 10000 2 290 19:33 15.02.2022
3702 Clear -28 1021 75 10000 1 290 18:24 15.02.2022
3703 Clear -28 1021 82 10000 2 280 17:52 15.02.2022
3704 Clouds -27 1021 83 10000 0 0 17:26 15.02.2022
3705 Clear -24 1021 83 10000 1 0 15:36 15.02.2022
3706 Clear -23 1020 76 10000 2 340 13:49 15.02.2022
3707 Clear -23 1020 83 10000 2 350 13:25 15.02.2022
3708 Clear -20 1020 76 10000 2 300 11:41 15.02.2022
3709 Clear -20 1020 76 10000 2 300 11:41 15.02.2022
3710 Clouds -19 1019 77 10000 2 60 09:54 15.02.2022
3711 Clouds -24 1018 77 10000 0 0 07:00 15.02.2022
3712 Clouds -26 1018 76 10000 0 0 06:19 15.02.2022
3713 Clouds -26 1017 76 10000 0 0 23:34 14.02.2022
3714 Clouds -27 1017 83 10000 1 0 21:55 14.02.2022
3715 Clouds -27 1017 83 10000 1 330 20:51 14.02.2022
3716 Clouds -25 1017 84 10000 1 10 19:46 14.02.2022
3717 Clouds -25 1017 77 10000 0 0 19:26 14.02.2022
3718 Clouds -24 1017 77 10000 1 50 18:23 14.02.2022
3719 Clouds -24 1017 77 10000 1 0 17:27 14.02.2022
3720 Clouds -23 1017 76 10000 2 100 16:27 14.02.2022
3721 Clouds -22 1017 76 10000 3.13 80 14:43 14.02.2022
3722 Clouds -20 1016 76 10000 1 40 13:34 14.02.2022
3723 Clouds -20 1016 76 10000 2 50 12:58 14.02.2022
3724 Clouds -20 1016 77 10000 3 90 11:56 14.02.2022
3725 Clouds -20 1016 77 10000 3 90 11:37 14.02.2022
3726 Clouds -20 1015 77 10000 3 80 09:25 14.02.2022
3727 Clouds -22 1015 77 10000 3 90 07:34 14.02.2022
3728 Clear -24 1015 84 10000 0 0 06:54 14.02.2022
3729 Clear -24 1015 76 10000 4.02 100 22:44 13.02.2022
3730 Clear -24 1016 76 10000 4.02 90 22:26 13.02.2022
3731 Clear -25 1016 83 10000 4.02 90 21:48 13.02.2022
3732 Clear -25 1016 83 10000 4.02 90 20:42 13.02.2022
3733 Clear -24 1016 76 10000 3.13 100 19:51 13.02.2022
3734 Clear -24 1016 83 10000 4.02 90 18:56 13.02.2022
3735 Clear -24 1016 83 10000 5 110 18:38 13.02.2022
3736 Clear -22 1017 76 10000 6 100 16:40 13.02.2022
3737 Clear -22 1017 76 10000 6 110 15:42 13.02.2022
3738 Clear -20 1018 70 10000 5.81 110 14:38 13.02.2022
3739 Clear -20 1018 70 10000 5 100 12:52 13.02.2022
3740 Clear -20 1018 76 10000 5 100 12:33 13.02.2022
3741 Clear -20 1018 76 10000 5 110 10:38 13.02.2022
3742 Clouds -20 1018 76 10000 5 100 09:49 13.02.2022
3743 Clear -22 1019 76 10000 5 90 08:33 13.02.2022
3744 Clouds -24 1021 76 10000 5 110 01:24 13.02.2022
3745 Clear -24 1021 76 10000 4.02 110 00:21 13.02.2022
3746 Clear -23 1021 83 10000 5 120 22:34 12.02.2022
3747 Clear -23 1022 83 10000 5 120 21:40 12.02.2022
3748 Clear -23 1022 83 10000 5 120 20:55 12.02.2022
3749 Clear -23 1022 83 10000 5 120 19:56 12.02.2022
3750 Clear -23 1022 83 10000 6 120 18:54 12.02.2022
3751 Clouds -23 1022 83 10000 6 120 18:36 12.02.2022
3752 Clear -22 1022 76 10000 7.15 120 17:39 12.02.2022
3753 Clouds -22 1022 76 10000 6 120 16:45 12.02.2022
3754 Clouds -22 1023 76 10000 6 120 15:53 12.02.2022
3755 Clouds -22 1023 76 10000 4.02 120 15:20 12.02.2022
3756 Clouds -21 1023 76 10000 5 120 14:25 12.02.2022
3757 Clear -19 1024 70 10000 5 120 11:31 12.02.2022
3758 Clear -20 1025 77 10000 5 110 10:30 12.02.2022
3759 Clear -20 1026 70 10000 4.02 120 09:37 12.02.2022
3760 Clear -21 1026 77 10000 4 120 08:46 12.02.2022
3761 Clouds -22 1027 77 10000 3 120 07:44 12.02.2022
3762 Clouds -26 1029 75 10000 4.02 100 04:47 12.02.2022
3763 Clear -24 1031 76 10000 4.02 110 02:19 12.02.2022
3764 Clear -23 1033 83 10000 3.13 120 23:21 11.02.2022
3765 Clear -23 1033 83 10000 4.02 100 22:21 11.02.2022
3766 Clear -22 1034 76 10000 4.02 120 21:32 11.02.2022
3767 Clear -22 1035 83 10000 3.13 110 20:26 11.02.2022
3768 Clear -21 1035 76 10000 4.02 120 19:28 11.02.2022
3769 Clear -20 1036 76 10000 4.02 120 18:29 11.02.2022
3770 Clear -20 1036 76 10000 5 120 17:27 11.02.2022
3771 Clear -20 1036 76 10000 5 120 16:39 11.02.2022
3772 Clear -20 1037 76 10000 4.02 120 15:19 11.02.2022
3773 Clear -19 1038 77 10000 3.13 120 14:37 11.02.2022
3774 Clear -19 1038 77 10000 3.13 120 14:37 11.02.2022
3775 Clear -19 1038 77 10000 3.13 120 14:19 11.02.2022
3776 Clear -19 1038 77 10000 4.02 120 13:40 11.02.2022
3777 Clear -19 1038 70 10000 3.13 120 13:21 11.02.2022
3778 Clear -19 1039 71 10000 4 130 10:55 11.02.2022
3779 Clear -19 1040 71 10000 4 130 09:32 11.02.2022
3780 Clouds -19 1040 77 10000 4.02 140 08:31 11.02.2022
3781 Clouds -21 1040 84 10000 4 140 07:40 11.02.2022
3782 Clouds -23 1041 77 6000 3 150 05:34 11.02.2022
3783 Clear -22 1041 77 10000 3 140 02:21 11.02.2022
3784 Clear -20 1042 84 10000 3.13 140 23:45 10.02.2022
3785 Clear -19 1042 78 10000 3 150 22:25 10.02.2022
3786 Clear -19 1042 78 10000 2 140 21:40 10.02.2022
3787 Clear -19 1042 84 10000 2 140 20:48 10.02.2022
3788 Clear -18 1042 78 10000 3 140 19:49 10.02.2022
3789 Clear -18 1042 77 10000 3.13 140 19:21 10.02.2022
3790 Clear -17 1042 78 10000 4 150 17:53 10.02.2022
3791 Clear -17 1042 77 10000 4.02 160 17:21 10.02.2022
3792 Clear -17 1042 77 10000 4.02 160 16:31 10.02.2022
3793 Clear -16 1042 77 10000 4.02 160 15:37 10.02.2022
3794 Clear -16 1042 71 10000 4.02 160 15:18 10.02.2022
3795 Clear -16 1042 77 10000 4.02 160 14:33 10.02.2022
3796 Clear -16 1042 77 10000 4.02 150 13:34 10.02.2022
3797 Clear -16 1042 77 10000 3.13 150 12:53 10.02.2022
3798 Clear -16 1042 77 10000 3.13 140 11:48 10.02.2022
3799 Clear -16 1042 77 10000 3.13 140 11:28 10.02.2022
3800 Clear -17 1042 84 10000 3.13 150 10:21 10.02.2022
3801 Clear -18 1042 84 10000 3.13 130 09:27 10.02.2022
3802 Clear -19 1042 77 10000 2 140 08:21 10.02.2022
3803 Clear -21 1042 76 10000 3.13 160 06:19 10.02.2022
3804 Clear -24 1041 76 10000 2 140 02:28 10.02.2022
3805 Clear -23 1041 83 10000 2 150 00:51 10.02.2022
3806 Clear -22 1041 76 10000 2 150 00:30 10.02.2022
3807 Clear -21 1041 84 10000 2 150 23:49 09.02.2022
3808 Clear -23 1041 83 10000 3.13 160 22:45 09.02.2022
3809 Clear -23 1041 76 10000 2 150 22:25 09.02.2022
3810 Clear -23 1041 76 10000 2 120 21:38 09.02.2022
3811 Clear -24 1041 83 10000 2 120 21:18 09.02.2022
3812 Clouds -23 1041 83 10000 2 110 20:41 09.02.2022
3813 Clouds -22 1041 76 10000 2 110 20:20 09.02.2022
3814 Clouds -22 1041 83 10000 2 110 19:38 09.02.2022
3815 Clouds -21 1041 76 10000 3.13 100 17:43 09.02.2022
3816 Clouds -22 1041 83 10000 3.13 120 16:53 09.02.2022
3817 Clouds -22 1041 83 10000 3.13 120 15:55 09.02.2022
3818 Clear -21 1040 76 10000 3.13 100 14:43 09.02.2022
3819 Clear -20 1040 84 10000 3.13 120 12:42 09.02.2022
3820 Clear -20 1040 84 10000 3.13 120 12:42 09.02.2022
3821 Clear -19 1039 84 10000 3 130 11:20 09.02.2022
3822 Clear -19 1039 84 10000 3 130 10:31 09.02.2022
3823 Clouds -20 1039 84 10000 3 130 09:42 09.02.2022
3824 Clouds -20 1039 84 10000 3 130 09:19 09.02.2022
3825 Clouds -20 1039 76 10000 2 130 08:26 09.02.2022
3826 Clouds -25 1038 83 10000 3.13 100 05:30 09.02.2022
3827 Clouds -25 1038 83 10000 3.13 100 05:30 09.02.2022
3828 Clouds -24 1038 76 10000 3.13 100 03:50 09.02.2022
3829 Clouds -23 1037 76 10000 4.02 100 01:28 09.02.2022
3830 Clouds -23 1037 83 10000 3.13 110 23:39 08.02.2022
3831 Clouds -23 1036 83 10000 3.13 120 22:51 08.02.2022
3832 Clouds -22 1036 76 10000 3.13 120 22:22 08.02.2022
3833 Clouds -22 1036 76 10000 4.02 120 21:52 08.02.2022
3834 Clouds -22 1037 76 10000 3.13 120 21:21 08.02.2022
3835 Clouds -23 1037 83 10000 4.02 110 20:45 08.02.2022
3836 Clouds -22 1036 76 10000 4.02 110 19:52 08.02.2022
3837 Clouds -22 1036 76 10000 5 100 18:52 08.02.2022
3838 Clear -22 1035 83 10000 5 110 17:50 08.02.2022
3839 Clear -21 1035 83 10000 4.02 120 16:35 08.02.2022
3840 Clear -21 1035 83 10000 4.02 120 15:39 08.02.2022
3841 Clear -21 1035 83 10000 4.02 120 14:56 08.02.2022
3842 Clear -20 1035 76 10000 4.02 120 13:29 08.02.2022
3843 Clear -19 1035 77 10000 4.02 120 12:18 08.02.2022
3844 Clear -17 1034 71 10000 3.13 120 10:39 08.02.2022
3845 Clear -18 1034 77 10000 5 120 09:46 08.02.2022
3846 Clear -20 1034 84 10000 4.02 120 08:25 08.02.2022
3847 Clouds -22 1034 76 10000 4 120 05:41 08.02.2022
3848 Clouds -23 1034 83 10000 4.02 120 04:39 08.02.2022
3849 Clouds -23 1034 83 10000 4.02 120 04:21 08.02.2022
3850 Clouds -22 1034 76 10000 5 120 03:36 08.02.2022
3851 Clouds -22 1034 76 10000 5 120 03:18 08.02.2022
3852 Clear -22 1034 76 10000 5 120 02:59 08.02.2022
3853 Clouds -22 1034 83 10000 4.02 120 02:36 08.02.2022
3854 Clouds -22 1034 83 10000 4.02 120 02:18 08.02.2022
3855 Clouds -22 1034 83 10000 5 110 01:44 08.02.2022
3856 Clouds -22 1033 83 10000 5 110 01:24 08.02.2022
3857 Clear -21 1033 76 10000 6 110 00:55 08.02.2022
3858 Clear -21 1033 83 10000 6 110 23:58 07.02.2022
3859 Clear -21 1033 83 10000 6 110 23:40 07.02.2022
3860 Clear -21 1033 83 10000 6 110 23:40 07.02.2022
3861 Clear -20 1033 76 10000 6 110 23:18 07.02.2022
3862 Clear -20 1033 84 10000 5 120 22:54 07.02.2022
3863 Clear -20 1033 84 10000 5 110 22:18 07.02.2022
3864 Clouds -20 1033 84 10000 5 120 21:44 07.02.2022
3865 Clouds -20 1033 84 10000 5 120 21:25 07.02.2022
3866 Clouds -19 1033 77 10000 4.02 120 20:41 07.02.2022
3867 Clear -19 1033 77 10000 4.02 120 19:56 07.02.2022
3868 Clear -19 1033 77 10000 5 100 19:38 07.02.2022
3869 Clear -19 1033 84 10000 6 100 18:21 07.02.2022
3870 Clear -19 1033 84 10000 6 100 16:53 07.02.2022
3871 Clear -18 1032 84 10000 6 90 16:20 07.02.2022
3872 Clear -18 1032 84 10000 6 90 16:20 07.02.2022
3873 Clear -18 1032 84 10000 6 100 15:48 07.02.2022
3874 Clear -17 1032 84 10000 5 90 13:37 07.02.2022
3875 Clear -17 1032 84 10000 5 90 13:19 07.02.2022
3876 Clear -15 1032 84 10000 5.81 90 11:58 07.02.2022
3877 Clear -15 1032 84 10000 5.81 90 11:58 07.02.2022
3878 Clear -15 1031 84 10000 5.81 100 11:37 07.02.2022
3879 Clear -14 1032 77 10000 7.15 100 10:52 07.02.2022
3880 Clear -14 1032 77 10000 4.92 120 10:32 07.02.2022
3881 Clear -14 1031 84 10000 4.92 120 09:53 07.02.2022
3882 Clear -15 1031 77 10000 4.92 90 09:18 07.02.2022
3883 Clear -16 1031 84 10000 4.92 90 08:39 07.02.2022
3884 Clouds -18 1031 77 10000 4.92 80 07:19 07.02.2022
3885 Clear -19 1031 84 10000 4.92 90 06:34 07.02.2022
3886 Clear -21 1030 83 10000 5.81 100 03:27 07.02.2022
3887 Clear -21 1029 83 10000 1.79 70 00:45 07.02.2022
3888 Clear -21 1028 83 10000 3.13 80 23:49 06.02.2022
3889 Clear -20 1027 84 10000 3.13 90 22:49 06.02.2022
3890 Clear -20 1027 84 10000 3.13 80 21:56 06.02.2022
3891 Clear -19 1027 84 10000 4.02 70 21:35 06.02.2022
3892 Clear -20 1027 84 10000 0.89 0 20:55 06.02.2022
3893 Clear -20 1027 84 10000 0.89 0 20:55 06.02.2022
3894 Clear -19 1026 84 10000 3.13 70 20:31 06.02.2022
3895 Clear -19 1026 84 10000 4.92 70 19:38 06.02.2022
3896 Clear -18 1025 84 10000 1.79 70 18:41 06.02.2022
3897 Clear -18 1025 84 10000 1.79 80 17:56 06.02.2022
3898 Clear -17 1024 84 10000 3.13 80 17:21 06.02.2022
3899 Clear -17 1024 84 10000 4.02 70 16:47 06.02.2022
3900 Clear -16 1024 84 10000 4.92 60 15:49 06.02.2022
3901 Clear -15 1023 84 10000 4.02 70 15:27 06.02.2022
3902 Clear -15 1023 84 10000 4.92 60 14:45 06.02.2022
3903 Clear -13 1022 92 10000 4.02 50 13:27 06.02.2022
3904 Clouds -12 1022 85 10000 4.02 60 12:58 06.02.2022
3905 Snow -10 1021 78 4400 4.02 50 11:35 06.02.2022
3906 Snow -9 1020 78 7000 4.92 60 10:31 06.02.2022
3907 Snow -9 1020 85 7000 5.81 70 08:59 06.02.2022
3908 Clouds -9 1019 85 10000 5.81 70 08:30 06.02.2022
3909 Snow -10 1020 85 10000 4.92 80 05:31 06.02.2022
3910 Snow -10 1020 85 10000 4.92 80 05:31 06.02.2022
3911 Snow -10 1020 85 3200 5.81 90 02:50 06.02.2022
3912 Snow -10 1020 92 2000 5.81 90 02:24 06.02.2022
3913 Snow -9 1021 85 2000 4.92 90 00:29 06.02.2022
3914 Snow -10 1021 92 1700 4.92 80 22:31 05.02.2022
3915 Snow -10 1021 92 1900 4.92 90 21:32 05.02.2022
3916 Snow -10 1022 92 6000 4.92 80 20:24 05.02.2022
3917 Snow -10 1022 92 10000 4.02 90 19:46 05.02.2022
3918 Snow -9 1022 85 3200 4.02 80 18:58 05.02.2022
3919 Clear -10 1022 92 10000 4.02 90 17:45 05.02.2022
3920 Clear -10 1022 92 10000 3.13 110 17:25 05.02.2022
3921 Clouds -10 1023 92 10000 4.02 90 15:40 05.02.2022
3922 Clouds -10 1023 92 10000 4.02 90 15:21 05.02.2022
3923 Clouds -9 1022 92 10000 1.79 50 12:47 05.02.2022
3924 Clouds -9 1023 85 10000 1.79 60 12:27 05.02.2022
3925 Clouds -8 1022 85 10000 0.89 10 10:48 05.02.2022
3926 Clouds -8 1022 85 10000 0 0 10:20 05.02.2022
3927 Clear -8 1022 85 10000 0.89 0 09:43 05.02.2022
3928 Clouds -9 1021 92 10000 1.79 240 07:51 05.02.2022
3929 Clouds -9 1021 92 10000 3.13 280 06:57 05.02.2022
3930 Clouds -8 1020 86 10000 2 290 04:30 05.02.2022
3931 Clouds -7 1018 86 10000 5 280 01:19 05.02.2022
3932 Clouds -7 1018 86 10000 4 290 00:53 05.02.2022
3933 Snow -6 1017 86 9000 6 300 23:41 04.02.2022
3934 Snow -6 1017 86 9000 6 300 23:23 04.02.2022
3935 Clouds -5 1016 85 10000 4.92 250 21:54 04.02.2022
3936 Clouds -4 1016 85 10000 4.92 250 21:36 04.02.2022
3937 Clouds -4 1016 85 10000 4.92 250 21:18 04.02.2022
3938 Clouds -4 1015 85 10000 5.81 250 19:39 04.02.2022
3939 Clouds -4 1015 85 10000 4.02 230 17:43 04.02.2022
3940 Snow -4 1015 85 7000 4.02 230 15:39 04.02.2022
3941 Snow -5 1015 92 10000 4.02 220 14:54 04.02.2022
3942 Snow -5 1015 92 7000 4.02 230 13:31 04.02.2022
3943 Snow -5 1015 92 7000 4.92 220 12:43 04.02.2022
3944 Clouds -5 1014 85 10000 4.02 230 11:41 04.02.2022
3945 Snow -6 1014 92 10000 4.92 230 10:36 04.02.2022
3946 Snow -6 1013 85 9000 4.92 230 08:34 04.02.2022
3947 Snow -7 1013 92 5000 4.02 220 06:18 04.02.2022
3948 Snow -6 1014 85 2100 4.92 190 02:44 04.02.2022
3949 Snow -6 1015 92 1100 4.02 180 01:48 04.02.2022
3950 Clouds -5 1017 85 10000 4.02 170 23:29 03.02.2022
3951 Snow -5 1018 85 10000 4.02 150 22:33 03.02.2022
3952 Snow -5 1020 85 10000 4.92 190 21:49 03.02.2022
3953 Snow -5 1020 85 2300 4.02 190 20:38 03.02.2022
3954 Snow -6 1020 92 2300 4.02 190 20:18 03.02.2022
3955 Snow -6 1021 92 1100 4.92 190 19:30 03.02.2022
3956 Snow -6 1021 92 2300 4.92 170 18:34 03.02.2022
3957 Snow -6 1022 85 3200 4.92 190 17:32 03.02.2022
3958 Clouds -7 1023 92 10000 4.02 190 16:25 03.02.2022
3959 Clear -7 1024 92 10000 3.13 200 14:37 03.02.2022
3960 Clouds -5 1024 85 10000 4.92 230 12:51 03.02.2022
3961 Clouds -4 1023 85 10000 4.92 220 10:45 03.02.2022
3962 Snow -4 1023 85 4500 4.92 230 08:35 03.02.2022
3963 Snow -5 1020 92 2600 4.92 210 03:57 03.02.2022
3964 Clouds -6 1020 92 10000 4.92 190 00:30 03.02.2022
3965 Snow -6 1020 92 7000 4.02 200 23:36 02.02.2022
3966 Snow -6 1020 92 4100 4.02 190 21:54 02.02.2022
3967 Snow -6 1020 92 3000 4.02 180 21:30 02.02.2022
3968 Snow -6 1020 92 3100 3.13 170 20:38 02.02.2022
3969 Snow -6 1021 92 3700 4.02 170 19:55 02.02.2022
3970 Snow -6 1021 92 5000 3.13 170 19:26 02.02.2022
3971 Clouds -6 1021 92 10000 3.13 180 18:34 02.02.2022
3972 Clouds -7 1021 92 10000 3.13 160 17:38 02.02.2022
3973 Clouds -8 1022 92 10000 3.13 160 17:19 02.02.2022
3974 Clouds -8 1022 92 10000 3.13 150 16:30 02.02.2022
3975 Snow -14 1023 84 6000 1.79 140 12:54 02.02.2022
3976 Snow -13 1023 92 3800 1.79 160 12:18 02.02.2022
3977 Snow -14 1023 84 3000 1.79 130 11:31 02.02.2022
3978 Clouds -16 1023 92 10000 2 120 09:46 02.02.2022
3979 Snow -18 1024 84 7000 1.79 100 07:32 02.02.2022
3980 Clear -24 1024 76 10000 0 0 22:46 01.02.2022
3981 Clear -23 1023 84 10000 1 230 21:36 01.02.2022
3982 Clouds -23 1023 84 9000 1 250 19:57 01.02.2022
3983 Clouds -23 1022 83 9000 0.89 0 17:38 01.02.2022
3984 Clear -23 1022 84 10000 2 250 16:36 01.02.2022
3985 Clouds -21 1021 84 10000 1 0 13:32 01.02.2022
3986 Mist -19 1021 77 5000 0.89 240 12:30 01.02.2022
3987 Clouds -19 1020 78 10000 1 260 11:19 01.02.2022
3988 Clouds -20 1018 84 10000 0.89 0 02:32 01.02.2022
3989 Clouds -20 1017 84 10000 0.89 150 23:41 31.01.2022
3990 Snow -20 1017 84 8000 1.79 120 22:48 31.01.2022
3991 Snow -19 1017 84 9000 1.79 120 21:38 31.01.2022
3992 Snow -17 1017 84 7000 1.79 150 20:50 31.01.2022
3993 Snow -17 1017 84 10000 1.79 150 20:27 31.01.2022
3994 Clouds -16 1017 91 10000 1.79 140 19:20 31.01.2022
3995 Clouds -15 1017 84 10000 1.79 150 18:20 31.01.2022
3996 Clouds -15 1017 84 10000 1.79 160 17:25 31.01.2022
3997 Clouds -15 1017 92 10000 1.79 160 16:26 31.01.2022
3998 Snow -14 1017 84 9000 3.13 160 14:54 31.01.2022
3999 Snow -13 1017 84 7000 4.02 160 13:51 31.01.2022
4000 Clouds -13 1016 84 10000 3.13 160 12:38 31.01.2022
4001 Clouds -13 1016 84 10000 3.13 160 11:42 31.01.2022
4002 Clouds -13 1016 84 10000 3.13 160 10:50 31.01.2022
4003 Clouds -13 1016 84 10000 3.13 150 09:59 31.01.2022
4004 Clouds -13 1016 84 10000 3.13 150 08:59 31.01.2022
4005 Clouds -13 1016 84 10000 3.13 150 08:39 31.01.2022
4006 Clouds -13 1016 84 10000 3.13 150 08:20 31.01.2022
4007 Snow -13 1016 92 6000 3.13 150 06:18 31.01.2022
4008 Snow -13 1016 85 10000 3 160 00:46 31.01.2022
4009 Clouds -15 1016 85 10000 2 130 22:40 30.01.2022
4010 Clouds -15 1016 84 10000 1.79 130 22:22 30.01.2022
4011 Clouds -15 1016 84 10000 4.02 150 21:38 30.01.2022
4012 Clouds -15 1016 84 10000 3.13 130 21:18 30.01.2022
4013 Clouds -16 1016 91 10000 1.79 130 20:45 30.01.2022
4014 Clouds -15 1016 84 10000 3.13 120 20:27 30.01.2022
4015 Clouds -16 1017 84 10000 4.02 110 19:24 30.01.2022
4016 Clouds -15 1017 84 10000 4.02 120 18:36 30.01.2022
4017 Clouds -15 1017 84 10000 4.02 110 17:54 30.01.2022
4018 Clouds -15 1017 84 10000 4.02 120 17:21 30.01.2022
4019 Clear -15 1017 84 10000 4.02 110 16:39 30.01.2022
4020 Clear -15 1017 84 10000 4.02 110 16:21 30.01.2022
4021 Clear -15 1017 84 10000 4.02 110 15:49 30.01.2022
4022 Clear -15 1017 85 10000 4 110 15:31 30.01.2022
4023 Clear -15 1018 85 10000 3 120 14:45 30.01.2022
4024 Clear -16 1018 85 10000 4 110 12:46 30.01.2022
4025 Clear -16 1019 85 10000 4 100 11:53 30.01.2022
4026 Clouds -16 1019 85 10000 4 110 10:29 30.01.2022
4027 Clouds -16 1019 85 10000 3 100 09:50 30.01.2022
4028 Clouds -16 1020 85 10000 3 120 08:52 30.01.2022
4029 Clouds -17 1020 85 10000 3 100 06:55 30.01.2022
4030 Clouds -19 1022 84 7000 1.79 160 01:55 30.01.2022
4031 Clear -19 1022 84 10000 0.89 0 00:22 30.01.2022
4032 Clouds -19 1022 84 10000 1.79 160 22:58 29.01.2022
4033 Clear -19 1023 84 10000 1.79 150 21:47 29.01.2022
4034 Clear -20 1023 84 10000 0.89 150 21:23 29.01.2022
4035 Clouds -19 1023 84 10000 1.79 190 20:22 29.01.2022
4036 Clouds -19 1023 77 9000 1.79 190 19:33 29.01.2022
4037 Clouds -20 1023 84 8000 1.79 190 18:52 29.01.2022
4038 Clouds -20 1023 84 8000 1.79 190 18:18 29.01.2022
4039 Mist -20 1023 84 10000 0 0 17:28 29.01.2022
4040 Clouds -19 1023 84 10000 3 190 15:50 29.01.2022
4041 Mist -22 1023 76 5000 0.89 150 13:59 29.01.2022
4042 Clouds -22 1023 76 8000 0.89 150 13:41 29.01.2022
4043 Clouds -21 1023 83 8000 1 0 13:22 29.01.2022
4044 Clouds -21 1023 83 10000 1.79 220 11:47 29.01.2022
4045 Clouds -20 1023 84 10000 1.79 210 10:54 29.01.2022
4046 Clouds -20 1023 76 10000 0.89 220 08:42 29.01.2022
4047 Clouds -22 1022 83 6000 1.79 220 06:37 29.01.2022
4048 Clear -21 1021 84 10000 1 230 00:34 29.01.2022
4049 Clear -21 1021 84 10000 1 210 23:51 28.01.2022
4050 Clear -21 1021 84 10000 1 220 22:50 28.01.2022
4051 Clear -21 1021 84 10000 1 0 22:21 28.01.2022
4052 Clear -20 1021 84 10000 2 220 21:35 28.01.2022
4053 Clear -20 1020 84 10000 1.79 220 20:29 28.01.2022
4054 Clear -20 1020 84 10000 1.79 210 19:28 28.01.2022
4055 Clouds -20 1020 84 10000 1.79 200 18:42 28.01.2022
4056 Clear -18 1020 84 10000 3.13 220 16:45 28.01.2022
4057 Clear -17 1020 91 10000 4.02 220 14:59 28.01.2022
4058 Clear -16 1019 84 10000 3.13 210 13:34 28.01.2022
4059 Clear -15 1019 84 10000 3.13 200 12:26 28.01.2022
4060 Clear -15 1018 84 10000 4.02 200 10:41 28.01.2022
4061 Clear -15 1018 84 10000 4.02 210 09:48 28.01.2022
4062 Clouds -16 1018 84 10000 4.02 200 07:43 28.01.2022
4063 Clouds -17 1018 85 10000 3 200 06:32 28.01.2022
4064 Clouds -16 1018 85 10000 4 190 03:52 28.01.2022
4065 Clouds -15 1018 84 10000 4.02 200 02:29 28.01.2022
4066 Clouds -15 1018 84 10000 3.13 200 01:57 28.01.2022
4067 Clouds -15 1017 84 10000 3.13 200 01:30 28.01.2022
4068 Clouds -13 1017 84 10000 4.02 200 22:40 27.01.2022
4069 Clouds -13 1017 84 10000 4.02 190 21:41 27.01.2022
4070 Clouds -13 1018 84 10000 4.02 190 21:21 27.01.2022
4071 Snow -12 1018 85 9000 4.02 200 19:47 27.01.2022
4072 Snow -12 1018 92 7000 4.02 190 18:23 27.01.2022
4073 Clouds -12 1018 92 10000 4.92 180 17:18 27.01.2022
4074 Clear -13 1019 92 10000 4.92 160 14:24 27.01.2022
4075 Clear -14 1021 84 10000 4.92 160 12:53 27.01.2022
4076 Clear -14 1021 84 10000 4.02 150 12:20 27.01.2022
4077 Clouds -15 1022 84 10000 3.13 150 09:51 27.01.2022
4078 Clouds -16 1022 85 8000 3 150 08:40 27.01.2022
4079 Clouds -16 1022 84 10000 1.79 140 07:58 27.01.2022
4080 Snow -17 1023 84 10000 3.13 150 03:34 27.01.2022
4081 Snow -16 1023 85 10000 3 160 00:24 27.01.2022
4082 Snow -15 1023 85 3000 4 190 22:28 26.01.2022
4083 Snow -15 1023 85 7000 3 190 21:44 26.01.2022
4084 Snow -15 1023 85 4900 4 190 20:57 26.01.2022
4085 Snow -15 1023 92 4800 4 190 20:33 26.01.2022
4086 Snow -15 1023 85 4900 3 190 19:49 26.01.2022
4087 Clouds -15 1022 84 10000 3.13 190 18:52 26.01.2022
4088 Clouds -15 1022 84 10000 3.13 190 18:24 26.01.2022
4089 Snow -15 1022 84 9000 3.13 180 17:34 26.01.2022
4090 Snow -15 1022 84 10000 3.13 170 16:56 26.01.2022
4091 Snow -15 1022 84 10000 3.13 180 16:23 26.01.2022
4092 Snow -16 1022 84 10000 3.13 170 14:54 26.01.2022
4093 Clouds -18 1022 84 8000 3.13 160 12:22 26.01.2022
4094 Clouds -18 1022 84 10000 3.13 160 10:52 26.01.2022
4095 Clouds -17 1022 84 9000 3.13 180 09:55 26.01.2022
4096 Clouds -18 1022 84 9000 1.79 170 09:36 26.01.2022
4097 Clouds -18 1022 84 8000 1.79 180 06:42 26.01.2022
4098 Clouds -15 1022 85 10000 1 0 00:24 26.01.2022
4099 Clouds -15 1022 85 10000 2 140 23:41 25.01.2022
4100 Clouds -15 1022 85 10000 1 160 22:49 25.01.2022
4101 Clouds -15 1022 85 10000 1 160 22:19 25.01.2022
4102 Clouds -15 1022 85 10000 1 130 21:27 25.01.2022
4103 Clouds -16 1021 92 10000 2 130 20:45 25.01.2022
4104 Clouds -16 1021 85 10000 2 150 19:57 25.01.2022
4105 Clouds -16 1021 85 10000 2 130 19:28 25.01.2022
4106 Snow -18 1021 84 8000 3.13 90 17:56 25.01.2022
4107 Snow -18 1021 84 8000 3.13 90 17:20 25.01.2022
4108 Snow -18 1021 84 7000 3.13 90 16:34 25.01.2022
4109 Clouds -18 1021 84 10000 1.79 100 15:39 25.01.2022
4110 Clouds -18 1021 84 10000 1.79 100 15:19 25.01.2022
4111 Clouds -19 1021 84 10000 3.13 100 14:51 25.01.2022
4112 Clouds -18 1021 84 10000 4.02 110 12:20 25.01.2022
4113 Clouds -16 1021 85 10000 4 120 09:35 25.01.2022
4114 Clouds -16 1022 85 7000 3 120 07:52 25.01.2022
4115 Snow -16 1022 85 7000 3 120 07:20 25.01.2022
4116 Snow -16 1022 84 8000 0.89 0 05:23 25.01.2022
4117 Snow -16 1022 84 8000 0.89 0 05:23 25.01.2022
4118 Snow -16 1024 84 10000 3.13 150 00:31 25.01.2022
4119 Snow -16 1025 84 10000 3.13 160 23:36 24.01.2022
4120 Snow -16 1025 84 10000 3.13 160 23:18 24.01.2022
4121 Snow -16 1025 84 10000 4.02 150 22:42 24.01.2022
4122 Snow -16 1026 84 10000 3.13 150 22:19 24.01.2022
4123 Clouds -16 1026 91 10000 3.13 160 21:40 24.01.2022
4124 Clouds -15 1027 84 10000 3.13 160 21:19 24.01.2022
4125 Clouds -16 1027 85 10000 3 190 20:26 24.01.2022
4126 Clouds -16 1027 85 10000 3 190 20:26 24.01.2022
4127 Clouds -15 1027 92 10000 3 190 19:38 24.01.2022
4128 Clouds -14 1027 85 10000 3 190 18:50 24.01.2022
4129 Snow -14 1028 85 6000 2 170 17:25 24.01.2022
4130 Snow -15 1029 85 9000 2 170 16:59 24.01.2022
4131 Snow -15 1029 85 7000 2 190 16:30 24.01.2022
4132 Clouds -15 1030 85 10000 2 210 14:56 24.01.2022
4133 Clouds -14 1030 85 10000 2 210 13:39 24.01.2022
4134 Clouds -13 1030 85 10000 2 200 12:33 24.01.2022
4135 Clouds -12 1030 85 10000 3.13 210 11:21 24.01.2022
4136 Clouds -12 1031 85 10000 1.79 220 10:18 24.01.2022
4137 Clouds -12 1031 85 10000 1.79 220 09:44 24.01.2022
4138 Snow -12 1031 85 10000 1.79 200 07:40 24.01.2022
4139 Snow -12 1032 85 6000 2 240 01:38 24.01.2022
4140 Snow -12 1032 92 9000 0.89 200 00:50 24.01.2022
4141 Snow -12 1032 92 5000 0.89 200 00:29 24.01.2022
4142 Snow -12 1032 92 10000 0.89 0 22:58 23.01.2022
4143 Clouds -12 1032 85 10000 2 110 21:52 23.01.2022
4144 Snow -12 1032 85 10000 1 0 21:27 23.01.2022
4145 Snow -12 1033 85 8000 1 0 20:55 23.01.2022
4146 Snow -12 1033 85 9000 0 0 20:21 23.01.2022
4147 Snow -12 1033 85 10000 0 0 18:53 23.01.2022
4148 Snow -13 1033 92 9000 0.89 190 17:56 23.01.2022
4149 Snow -13 1033 92 7000 0 0 16:55 23.01.2022
4150 Snow -12 1033 85 10000 1 230 15:46 23.01.2022
4151 Snow -12 1033 85 8000 1 230 14:48 23.01.2022
4152 Snow -12 1033 92 6000 2 230 14:18 23.01.2022
4153 Snow -12 1032 92 5000 2 210 12:44 23.01.2022
4154 Snow -11 1032 85 5000 1 0 12:19 23.01.2022
4155 Snow -12 1032 85 5000 0.89 0 11:25 23.01.2022
4156 Snow -12 1031 85 7000 0 0 10:57 23.01.2022
4157 Snow -13 1031 92 10000 0.89 220 10:24 23.01.2022
4158 Snow -12 1031 85 6000 1.79 210 09:26 23.01.2022
4159 Snow -12 1030 85 4400 2 230 06:18 23.01.2022
4160 Snow -12 1030 85 10000 2 230 03:20 23.01.2022
4161 Snow -12 1029 92 10000 1 0 01:36 23.01.2022
4162 Snow -12 1029 92 10000 1 0 00:46 23.01.2022
4163 Clouds -22 1031 100 2701 1.41 221 23:58 22.01.2022
4164 Clouds -12 1029 92 10000 2 230 22:48 22.01.2022
4165 Clouds -21 1031 100 2554 1.3 209 22:19 22.01.2022
4166 Clouds -11 1028 85 10000 2 210 20:33 22.01.2022
4167 Clouds -11 1028 85 10000 2 200 19:41 22.01.2022
4168 Clouds -22 1030 100 5018 1.45 221 18:37 22.01.2022
4169 Clouds -22 1030 100 5289 1.5 225 17:45 22.01.2022
4170 Clouds -11 1028 85 10000 2 210 17:19 22.01.2022
4171 Clouds -11 1028 85 10000 2 220 16:54 22.01.2022
4172 Clouds -11 1027 85 10000 2 200 15:45 22.01.2022
4173 Clouds -11 1027 85 10000 2 210 14:42 22.01.2022
4174 Clouds -11 1026 85 10000 2 230 13:28 22.01.2022
4175 Clouds -11 1026 85 10000 2 210 12:37 22.01.2022
4176 Clouds -11 1026 85 10000 2 210 12:18 22.01.2022
4177 Clouds -11 1026 85 10000 3 200 10:54 22.01.2022
4178 Clouds -11 1025 85 10000 3.13 220 10:23 22.01.2022
4179 Clouds -11 1025 85 10000 4.02 230 08:56 22.01.2022
4180 Clouds -11 1025 85 10000 4.02 230 08:38 22.01.2022
4181 Clouds -11 1024 85 10000 3.13 230 06:46 22.01.2022
4182 Snow -11 1023 85 10000 3.13 200 02:39 22.01.2022
4183 Snow -11 1022 85 6000 4.02 210 23:50 21.01.2022
4184 Snow -11 1022 85 6000 4.02 220 23:20 21.01.2022
4185 Snow -11 1021 85 1700 4.92 200 21:18 21.01.2022
4186 Snow -11 1020 92 2200 4.92 200 19:30 21.01.2022
4187 Snow -10 1020 85 1700 4.92 200 17:50 21.01.2022
4188 Snow -10 1020 85 1800 4.92 180 15:56 21.01.2022
4189 Clear -10 1020 85 10000 4.02 170 14:58 21.01.2022
4190 Clouds -10 1022 89 10000 5.32 187 12:43 21.01.2022
4191 Clear -10 1020 85 10000 5.81 170 11:29 21.01.2022
4192 Clear -10 1020 85 10000 5.81 180 10:33 21.01.2022
4193 Clear -10 1020 85 10000 4.92 190 08:58 21.01.2022
4194 Clear -10 1020 85 10000 4.02 190 07:48 21.01.2022
4195 Clear -12 1020 92 10000 5.81 190 01:51 21.01.2022
4196 Clear -11 1021 85 10000 4.02 190 22:47 20.01.2022
4197 Clear -11 1021 92 10000 4.02 190 21:49 20.01.2022
4198 Clear -11 1021 92 10000 4.02 190 21:25 20.01.2022
4199 Clouds -9 1021 92 10000 4.92 200 19:47 20.01.2022
4200 Clouds -8 1020 85 10000 4.92 210 19:18 20.01.2022
4201 Clouds -7 1020 92 10000 4.92 210 17:37 20.01.2022
4202 Clouds -6 1020 86 10000 6 210 16:19 20.01.2022
4203 Clouds -6 1019 93 10000 6 210 15:29 20.01.2022
4204 Clouds -6 1019 93 10000 6 200 14:19 20.01.2022
4205 Clouds -5 1019 86 10000 4 210 12:49 20.01.2022
4206 Snow -5 1019 86 8000 5 210 12:29 20.01.2022
4207 Snow -5 1018 93 3000 5 220 11:19 20.01.2022
4208 Clouds -5 1018 92 10000 5.81 230 09:50 20.01.2022
4209 Clouds -5 1017 93 10000 6 230 08:45 20.01.2022
4210 Snow -5 1016 93 10000 6 230 06:49 20.01.2022
4211 Clouds -6 1014 93 10000 5 230 00:40 20.01.2022
4212 Clouds -6 1013 86 10000 5 220 22:38 19.01.2022
4213 Clouds -6 1013 86 10000 5 230 21:34 19.01.2022
4214 Clouds -6 1013 86 10000 6 230 20:56 19.01.2022
4215 Clouds -6 1013 86 10000 6 230 20:30 19.01.2022
4216 Clouds -7 1012 93 10000 5 230 18:52 19.01.2022
4217 Clouds -7 1012 86 10000 5 220 17:51 19.01.2022
4218 Clouds -7 1012 86 10000 5 230 17:18 19.01.2022
4219 Clouds -7 1012 86 10000 5 230 17:18 19.01.2022
4220 Clouds -7 1012 86 10000 5 230 17:18 19.01.2022
4221 Clouds -7 1012 86 10000 5 230 17:18 19.01.2022
4222 Clouds -8 1011 92 10000 4.92 220 15:32 19.01.2022
4223 Clouds -8 1011 85 10000 5.81 220 13:25 19.01.2022
4224 Snow -7 1010 85 8000 4.92 230 11:58 19.01.2022
4225 Snow -7 1010 85 8000 4.92 230 11:38 19.01.2022
4226 Clouds -8 1009 85 10000 4.92 230 09:35 19.01.2022
4227 Clouds -7 1008 79 10000 4.92 230 08:33 19.01.2022
4228 Clouds -7 1008 85 10000 5.81 240 05:19 19.01.2022
4229 Clouds -7 1006 85 10000 5.81 230 00:21 19.01.2022
4230 Clouds -7 1006 85 10000 5.81 220 23:18 18.01.2022
4231 Clouds -7 1006 85 10000 5.81 220 23:18 18.01.2022
4232 Snow -7 1006 85 1900 5.81 220 21:44 18.01.2022
4233 Snow -8 1005 85 1700 4.92 220 20:34 18.01.2022
4234 Clouds -8 1005 85 10000 5.81 210 19:49 18.01.2022
4235 Snow -8 1005 85 3900 5.81 210 19:31 18.01.2022
4236 Snow -8 1005 85 1600 5.81 210 18:19 18.01.2022
4237 Snow -9 1005 92 2500 4.92 210 17:32 18.01.2022
4238 Snow -9 1005 85 4400 4.02 200 16:20 18.01.2022
4239 Snow -10 1005 85 9000 4.02 200 15:25 18.01.2022
4240 Snow -11 1005 85 10000 4.02 210 14:22 18.01.2022
4241 Snow -12 1005 78 6000 3.13 210 11:31 18.01.2022
4242 Snow -13 1004 84 8000 4.02 200 10:25 18.01.2022
4243 Snow -14 1004 77 7000 4.02 200 08:29 18.01.2022
4244 Snow -15 1003 84 6000 3.13 200 07:42 18.01.2022
4245 Clouds -16 1000 77 10000 7.15 230 00:38 18.01.2022
4246 Clouds -17 999 77 10000 7.15 230 22:39 17.01.2022
4247 Clouds -17 997 77 10000 7.15 220 21:41 17.01.2022
4248 Clouds -17 996 77 10000 8.94 230 20:39 17.01.2022
4249 Snow -15 994 77 7000 8.94 230 18:46 17.01.2022
4250 Snow -15 994 77 3400 9.83 230 18:24 17.01.2022
4251 Snow -14 992 77 3000 8.94 230 17:19 17.01.2022
4252 Clouds -13 990 78 1900 11.18 230 15:47 17.01.2022
4253 Clouds -12 988 85 900 9.83 230 14:58 17.01.2022
4254 Clouds -11 987 85 900 11.18 230 14:22 17.01.2022
4255 Clouds -10 986 85 1300 12.07 230 13:18 17.01.2022
4256 Clouds -9 983 85 1300 9.83 210 11:51 17.01.2022
4257 Clouds -8 981 85 1600 8.94 200 10:47 17.01.2022
4258 Clouds -7 979 85 900 8.94 190 09:35 17.01.2022
4259 Clouds -7 979 85 1000 8.05 200 08:43 17.01.2022
4260 Clouds -5 978 85 1700 8.05 180 07:20 17.01.2022
4261 Snow -6 982 85 6000 5.81 140 00:58 17.01.2022
4262 Clouds -6 983 85 1400 5.81 130 23:27 16.01.2022
4263 Snow -7 988 92 1500 7.15 120 20:41 16.01.2022
4264 Snow -7 990 92 9000 5.81 120 19:55 16.01.2022
4265 Clouds -7 992 92 10000 5.81 130 18:45 16.01.2022
4266 Clouds -7 993 92 10000 4.92 130 17:46 16.01.2022
4267 Clouds -6 995 85 10000 5.81 130 16:50 16.01.2022
4268 Clouds -6 996 85 10000 4.92 150 15:34 16.01.2022
4269 Clouds -7 997 92 10000 4.92 170 14:29 16.01.2022
4270 Clouds -8 997 92 10000 4.02 160 12:51 16.01.2022
4271 Clouds -8 997 85 10000 4.02 160 11:48 16.01.2022
4272 Clouds -9 997 92 10000 4.02 160 10:58 16.01.2022
4273 Clouds -9 997 85 10000 4.02 170 10:26 16.01.2022
4274 Clouds -9 997 85 10000 4.02 160 09:54 16.01.2022
4275 Clouds -9 997 85 10000 4.02 170 09:22 16.01.2022
4276 Snow -9 997 85 9000 4.02 180 08:38 16.01.2022
4277 Clouds -12 994 85 10000 4.92 160 03:21 16.01.2022
4278 Snow -14 994 84 7000 4.02 130 23:50 15.01.2022
4279 Snow -14 994 84 7000 4.02 130 23:50 15.01.2022
4280 Snow -14 994 78 5000 5 120 22:19 15.01.2022
4281 Snow -14 994 84 1700 4.02 120 21:19 15.01.2022
4282 Snow -14 994 84 6000 4.02 120 20:40 15.01.2022
4283 Snow -14 995 84 10000 4.02 120 19:30 15.01.2022
4284 Snow -14 994 84 10000 4.92 110 18:45 15.01.2022
4285 Snow -14 996 84 7000 4.92 130 17:30 15.01.2022
4286 Snow -14 996 84 7000 4.92 120 15:59 15.01.2022
4287 Snow -14 997 84 7000 5.81 140 13:56 15.01.2022
4288 Snow -14 997 84 7000 4.92 130 12:18 15.01.2022
4289 Snow -14 997 84 6000 4.92 130 10:38 15.01.2022
4290 Snow -14 998 84 9000 5.81 130 08:31 15.01.2022
4291 Clear -16 1003 84 10000 4.92 150 00:28 15.01.2022
4292 Clouds -17 1005 77 9000 5.81 150 21:52 14.01.2022
4293 Clouds -18 1005 84 8000 5.81 150 20:41 14.01.2022
4294 Clouds -18 1005 84 8000 4.92 150 20:20 14.01.2022
4295 Mist -17 1007 77 10000 4.02 150 18:49 14.01.2022
4296 Clear -17 1007 84 10000 5.81 160 17:57 14.01.2022
4297 Clear -15 1007 77 10000 7.15 160 16:48 14.01.2022
4298 Clear -14 1007 77 10000 7.15 170 15:39 14.01.2022
4299 Clear -13 1008 66 10000 7.15 180 14:42 14.01.2022
4300 Clear -12 1008 66 10000 7.15 180 13:35 14.01.2022
4301 Clear -11 1008 66 10000 5.81 190 12:28 14.01.2022
4302 Clear -10 1008 72 10000 5.81 190 10:53 14.01.2022
4303 Clear -10 1009 66 10000 5.81 190 08:54 14.01.2022
4304 Clear -10 1009 66 10000 5.81 190 08:34 14.01.2022
4305 Clear -8 1009 67 10000 8.05 220 05:29 14.01.2022
4306 Clear -12 1010 72 10000 5.81 200 01:20 14.01.2022
4307 Clear -14 1011 72 10000 5 210 22:52 13.01.2022
4308 Clear -14 1011 65 10000 7.15 210 21:31 13.01.2022
4309 Clear -14 1011 65 10000 4.92 210 20:57 13.01.2022
4310 Clear -17 1012 78 10000 4 200 19:40 13.01.2022
4311 Clear -17 1012 77 10000 4.02 200 19:21 13.01.2022
4312 Clear -17 1013 77 10000 4.02 210 17:52 13.01.2022
4313 Clear -15 1014 71 10000 4.02 220 16:21 13.01.2022
4314 Clear -13 1014 72 10000 5 240 15:37 13.01.2022
4315 Clear -13 1014 78 10000 4 240 14:40 13.01.2022
4316 Clear -16 1014 84 10000 4.02 230 12:37 13.01.2022
4317 Clear -19 1015 84 10000 3.13 230 10:23 13.01.2022
4318 Clear -20 1015 84 10000 3 230 08:58 13.01.2022
4319 Clear -21 1015 84 10000 3 230 08:26 13.01.2022
4320 Clear -21 1015 77 10000 3 230 07:23 13.01.2022
4321 Clear -22 1016 84 10000 3 220 05:59 13.01.2022
4322 Clouds -21 1016 77 10000 3 220 05:19 13.01.2022
4323 Clouds -20 1017 76 10000 3.13 230 01:56 13.01.2022
4324 Clouds -20 1018 76 10000 3.13 230 00:49 13.01.2022
4325 Clouds -20 1018 84 10000 3.13 220 23:46 12.01.2022
4326 Clouds -19 1018 84 10000 3 240 22:59 12.01.2022
4327 Snow -18 1019 85 10000 3 220 21:57 12.01.2022
4328 Snow -18 1019 85 10000 3 220 21:57 12.01.2022
4329 Snow -18 1019 85 10000 2 220 21:22 12.01.2022
4330 Snow -18 1019 85 10000 2 200 20:56 12.01.2022
4331 Snow -18 1019 85 10000 2 240 19:41 12.01.2022
4332 Snow -18 1019 85 10000 2 240 18:30 12.01.2022
4333 Snow -18 1019 85 10000 2 240 17:20 12.01.2022
4334 Snow -18 1019 85 10000 3 250 16:28 12.01.2022
4335 Snow -18 1020 85 10000 3 250 14:48 12.01.2022
4336 Snow -18 1019 84 7000 1.79 220 12:59 12.01.2022
4337 Snow -18 1019 84 7000 1.79 220 12:59 12.01.2022
4338 Snow -19 1020 84 7000 1.79 240 10:48 12.01.2022
4339 Snow -20 1020 76 5000 1.79 190 08:38 12.01.2022
4340 Clear -21 1020 76 10000 1.79 190 07:49 12.01.2022
4341 Clear -22 1021 83 10000 0.89 230 07:31 12.01.2022
4342 Fog -26 1023 76 5000 2 290 23:40 11.01.2022
4343 Mist -26 1023 76 2800 2 290 22:49 11.01.2022
4344 Clouds -26 1023 83 10000 3.13 300 22:22 11.01.2022
4345 Clouds -26 1023 75 10000 3.13 290 20:51 11.01.2022
4346 Clear -24 1023 84 10000 3 290 19:48 11.01.2022
4347 Clouds -23 1022 83 10000 3.13 280 18:31 11.01.2022
4348 Clouds -21 1022 83 10000 1.79 290 17:24 11.01.2022
4349 Clear -23 1022 83 10000 1.79 290 16:37 11.01.2022
4350 Clouds -22 1022 76 10000 3.13 280 15:35 11.01.2022
4351 Clear -20 1021 84 10000 1.79 290 14:42 11.01.2022
4352 Clouds -19 1021 84 10000 3.13 290 13:55 11.01.2022
4353 Clouds -18 1021 84 10000 3.13 280 13:34 11.01.2022
4354 Clouds -17 1021 84 10000 3.13 280 12:42 11.01.2022
4355 Clouds -16 1020 84 10000 1.79 280 11:40 11.01.2022
4356 Clouds -13 1019 84 10000 3.13 260 09:29 11.01.2022
4357 Snow -13 1019 84 6000 3.13 240 06:37 11.01.2022
4358 Snow -13 1020 85 3800 4 220 00:31 11.01.2022
4359 Snow -14 1020 85 8000 3 220 23:41 10.01.2022
4360 Clouds -15 1020 85 10000 3 220 22:51 10.01.2022
4361 Snow -15 1020 92 10000 3 210 22:19 10.01.2022
4362 Snow -14 1020 85 10000 3 220 21:54 10.01.2022
4363 Snow -14 1020 85 10000 3 230 21:20 10.01.2022
4364 Snow -15 1020 92 6000 2 220 20:56 10.01.2022
4365 Clouds -15 1020 85 10000 3 220 20:28 10.01.2022
4366 Snow -14 1020 85 8000 4 220 19:42 10.01.2022
4367 Snow -14 1020 85 8000 4 220 19:20 10.01.2022
4368 Snow -14 1020 85 2400 4 210 18:48 10.01.2022
4369 Snow -14 1020 85 2200 4 210 17:41 10.01.2022
4370 Snow -14 1021 78 1800 4 210 16:42 10.01.2022
4371 Snow -14 1021 77 3300 4.92 210 15:45 10.01.2022
4372 Snow -15 1021 84 3200 4.92 220 14:26 10.01.2022
4373 Snow -15 1022 77 5000 4.02 210 11:58 10.01.2022
4374 Snow -16 1022 85 4200 3 210 11:25 10.01.2022
4375 Clear -16 1023 84 10000 4.92 230 09:48 10.01.2022
4376 Clouds -17 1022 84 10000 4.92 240 06:47 10.01.2022
4377 Clear -17 1022 77 10000 4.92 240 05:49 10.01.2022
4378 Clear -19 1023 84 10000 4.02 240 01:30 10.01.2022
4379 Clear -18 1022 77 10000 4.02 250 00:24 10.01.2022
4380 Clear -19 1021 84 10000 4.92 250 23:29 09.01.2022
4381 Clear -19 1021 77 10000 4.92 250 22:37 09.01.2022
4382 Clear -20 1020 84 10000 4.92 250 21:46 09.01.2022
4383 Clear -20 1020 76 10000 4.02 250 21:23 09.01.2022
4384 Clear -20 1020 76 10000 4.02 250 21:23 09.01.2022
4385 Clear -21 1020 83 10000 4.92 260 20:50 09.01.2022
4386 Clear -21 1019 83 10000 4.92 250 20:32 09.01.2022
4387 Clear -21 1019 83 10000 4.02 250 19:44 09.01.2022
4388 Clear -21 1018 83 10000 4.02 250 19:23 09.01.2022
4389 Clear -22 1018 83 10000 4.02 250 18:51 09.01.2022
4390 Clear -21 1018 76 10000 3.13 240 18:33 09.01.2022
4391 Clear -21 1017 76 10000 4.02 240 17:31 09.01.2022
4392 Clear -20 1017 76 10000 4.02 240 16:53 09.01.2022
4393 Clear -21 1016 83 10000 5.81 270 15:57 09.01.2022
4394 Clear -21 1015 83 10000 5.81 270 15:35 09.01.2022
4395 Clear -21 1015 76 10000 7.15 280 14:40 09.01.2022
4396 Clear -20 1014 76 10000 5.81 270 13:50 09.01.2022
4397 Clear -20 1013 84 10000 7.15 260 12:50 09.01.2022
4398 Clear -19 1011 84 10000 4.92 250 11:51 09.01.2022
4399 Clear -18 1010 85 10000 5 250 10:52 09.01.2022
4400 Clear -18 1009 84 10000 4.02 250 09:42 09.01.2022
4401 Clouds -17 1007 85 10000 4 250 08:34 09.01.2022
4402 Clouds -18 1004 85 10000 3 250 03:55 09.01.2022
4403 Clouds -19 1003 84 10000 3.13 250 01:23 09.01.2022
4404 Clear -20 1002 76 10000 1.79 260 23:44 08.01.2022
4405 Clear -21 1002 84 10000 3 280 23:26 08.01.2022
4406 Clear -19 1001 84 10000 3 280 22:19 08.01.2022
4407 Clouds -17 1001 84 10000 3.13 280 21:25 08.01.2022
4408 Clouds -17 1000 84 10000 3.13 280 20:41 08.01.2022
4409 Clear -16 1000 84 10000 3.13 270 20:19 08.01.2022
4410 Clouds -15 999 84 10000 4.02 280 18:40 08.01.2022
4411 Clouds -14 998 85 10000 5 280 17:22 08.01.2022
4412 Snow -11 997 85 10000 4.92 280 15:52 08.01.2022
4413 Snow -9 996 85 6000 4.92 290 14:44 08.01.2022
4414 Snow -7 994 92 7000 1.79 270 13:25 08.01.2022
4415 Snow -6 992 92 3500 0.89 320 11:25 08.01.2022
4416 Snow -5 992 92 1200 1.79 90 10:25 08.01.2022
4417 Snow -5 993 92 3200 1.79 120 09:47 08.01.2022
4418 Snow -5 994 92 1700 3.13 130 07:50 08.01.2022
4419 Snow -4 1000 92 1400 3.13 150 02:50 08.01.2022
4420 Snow -4 1002 92 3100 3.13 200 00:41 08.01.2022
4421 Snow -4 1003 100 3900 4.02 190 22:47 07.01.2022
4422 Snow -4 1003 92 5000 7.15 190 20:58 07.01.2022
4423 Snow -4 1003 92 5000 7.15 190 20:19 07.01.2022
4424 Snow -4 1002 85 10000 5.81 190 19:23 07.01.2022
4425 Snow -4 1002 85 8000 7.15 190 18:44 07.01.2022
4426 Snow -5 1003 85 10000 7.15 180 17:28 07.01.2022
4427 Snow -7 1003 92 1000 5.81 160 16:39 07.01.2022
4428 Snow -11 1006 92 700 8 150 13:56 07.01.2022
4429 Snow -11 1006 92 700 8 150 13:38 07.01.2022
4430 Snow -12 1008 85 2400 8 150 12:49 07.01.2022
4431 Snow -17 1013 85 1900 6 140 09:42 07.01.2022
4432 Clouds -27 1023 75 10000 4.02 120 02:56 07.01.2022
4433 Clouds -28 1024 75 10000 3.13 120 01:54 07.01.2022
4434 Mist -26 1025 75 5000 3.13 150 01:28 07.01.2022
4435 Mist -27 1025 75 2700 3.13 140 00:59 07.01.2022
4436 Mist -28 1026 75 6000 3.13 150 23:53 06.01.2022
4437 Mist -29 1027 75 6000 1.79 150 21:34 06.01.2022
4438 Clouds -29 1027 75 10000 1.79 140 20:22 06.01.2022
4439 Clouds -29 1027 75 8000 3.13 140 19:45 06.01.2022
4440 Clouds -29 1027 75 9000 1.79 140 18:34 06.01.2022
4441 Clouds -29 1027 75 10000 1.79 160 17:41 06.01.2022
4442 Clouds -29 1027 75 10000 0.89 0 16:52 06.01.2022
4443 Clear -30 1026 75 10000 0.89 0 15:48 06.01.2022
4444 Clear -30 1027 76 10000 2 180 15:26 06.01.2022
4445 Clear -29 1026 76 10000 1 170 14:51 06.01.2022
4446 Clear -30 1026 76 10000 1 200 14:18 06.01.2022
4447 Clear -29 1025 76 10000 1 220 12:50 06.01.2022
4448 Clear -29 1024 76 10000 2 200 11:43 06.01.2022
4449 Clear -28 1024 69 10000 2 220 11:22 06.01.2022
4450 Clear -28 1023 75 10000 1.79 240 08:52 06.01.2022
4451 Clear -30 1017 75 10000 3.13 280 01:24 06.01.2022
4452 Clear -29 1016 75 10000 3.13 250 23:38 05.01.2022
4453 Clear -29 1015 82 10000 3.13 240 22:59 05.01.2022
4454 Clear -28 1015 75 10000 3.13 250 22:33 05.01.2022
4455 Clear -30 1014 83 10000 3 260 21:49 05.01.2022
4456 Clear -28 1014 75 10000 3.13 250 21:20 05.01.2022
4457 Clear -28 1013 75 10000 4.02 260 20:18 05.01.2022
4458 Clear -27 1011 75 10000 4.02 270 18:44 05.01.2022
4459 Clear -27 1009 76 10000 4 280 17:26 05.01.2022
4460 Clear -26 1009 76 10000 5 280 16:51 05.01.2022
4461 Clouds -24 1007 77 10000 8 280 15:26 05.01.2022
4462 Clouds -21 1005 76 10000 4.02 250 13:52 05.01.2022
4463 Clouds -21 1005 77 10000 6 250 13:22 05.01.2022
4464 Snow -19 1001 77 10000 5.81 230 10:34 05.01.2022
4465 Clouds -19 999 77 9000 5.81 230 07:47 05.01.2022
4466 Clouds -19 999 77 9000 5.81 230 07:47 05.01.2022
4467 Clouds -19 998 77 10000 4.92 210 06:25 05.01.2022
4468 Snow -20 995 84 8000 4.02 200 00:58 05.01.2022
4469 Clouds -21 995 76 10000 4.02 200 23:28 04.01.2022
4470 Clouds -21 995 76 10000 4.02 200 23:28 04.01.2022
4471 Clouds -22 994 76 10000 4.02 200 22:46 04.01.2022
4472 Clear -22 995 76 10000 4.92 240 21:24 04.01.2022
4473 Clear -21 992 76 10000 4.02 240 19:20 04.01.2022
4474 Clear -21 991 76 10000 4.92 240 17:51 04.01.2022
4475 Clear -18 990 70 10000 8.05 230 16:44 04.01.2022
4476 Snow -18 990 70 10000 8.05 230 16:24 04.01.2022
4477 Clouds -16 988 77 10000 7.15 250 14:54 04.01.2022
4478 Clouds -15 988 78 3000 8 240 14:34 04.01.2022
4479 Snow -13 987 84 3400 8.05 250 13:27 04.01.2022
4480 Clouds -10 985 78 10000 4.92 230 10:41 04.01.2022
4481 Clouds -8 983 85 10000 5.81 230 09:20 04.01.2022
4482 Snow -7 983 79 9000 6 240 08:30 04.01.2022
4483 Snow -6 984 85 1200 5.81 130 02:31 04.01.2022
4484 Snow -6 987 85 3100 4.92 140 00:41 04.01.2022
4485 Snow -7 989 92 3400 4.02 150 23:26 03.01.2022
4486 Snow -8 991 92 2300 4.02 160 21:52 03.01.2022
4487 Snow -8 991 92 2300 4.02 160 21:32 03.01.2022
4488 Snow -8 992 85 1900 4.02 160 20:22 03.01.2022
4489 Snow -8 993 85 6000 4.02 160 18:54 03.01.2022
4490 Snow -9 993 92 7000 4.02 170 18:28 03.01.2022
4491 Snow -8 994 85 2100 4.02 180 16:58 03.01.2022
4492 Clouds -8 996 85 10000 4.02 190 14:56 03.01.2022
4493 Clouds -8 996 85 10000 4.02 180 14:30 03.01.2022
4494 Clouds -8 996 85 10000 4.02 180 12:46 03.01.2022
4495 Clouds -8 996 85 10000 4.02 180 11:35 03.01.2022
4496 Snow -8 996 92 7000 4.02 170 10:27 03.01.2022
4497 Snow -8 997 85 9000 4.02 180 08:47 03.01.2022
4498 Clouds -8 997 92 10000 4.02 160 07:34 03.01.2022
4499 Clouds -8 997 92 10000 4.02 160 07:34 03.01.2022
4500 Snow -10 1003 92 10000 3.13 140 23:56 02.01.2022
4501 Clouds -10 1003 92 10000 3.13 150 23:22 02.01.2022
4502 Clouds -10 1003 92 10000 3.13 170 22:53 02.01.2022
4503 Snow -10 1004 85 10000 1.79 180 21:42 02.01.2022
4504 Clouds -10 1004 85 10000 2 190 20:33 02.01.2022
4505 Clouds -10 1004 85 10000 2 190 19:55 02.01.2022
4506 Clouds -10 1004 85 10000 3.13 200 19:30 02.01.2022
4507 Clouds -11 1005 92 10000 2 200 18:46 02.01.2022
4508 Clouds -11 1005 92 10000 2 200 18:46 02.01.2022
4509 Clouds -11 1005 85 10000 3.13 210 17:54 02.01.2022
4510 Clouds -10 1005 85 10000 3 210 17:36 02.01.2022
4511 Clouds -10 1005 85 10000 3 210 17:18 02.01.2022
4512 Snow -10 1005 85 10000 4 220 16:25 02.01.2022
4513 Clouds -10 1005 92 10000 3 220 14:32 02.01.2022
4514 Snow -10 1004 92 5000 3 230 12:50 02.01.2022
4515 Clouds -10 1004 85 9000 3.13 230 11:58 02.01.2022
4516 Clouds -10 1004 85 10000 3.13 230 11:26 02.01.2022
4517 Snow -10 1004 92 10000 4.02 230 10:46 02.01.2022
4518 Snow -10 1003 85 8000 4.02 220 09:45 02.01.2022
4519 Snow -11 1003 85 5000 3.13 190 05:21 02.01.2022
4520 Snow -11 1005 85 10000 4.02 190 01:41 02.01.2022
4521 Clouds -11 1005 85 10000 4.92 190 23:39 01.01.2022
4522 Snow -12 1006 92 10000 3.13 160 22:57 01.01.2022
4523 Snow -11 1006 85 10000 3.13 150 22:22 01.01.2022
4524 Snow -12 1007 92 9000 4.02 180 21:43 01.01.2022
4525 Snow -11 1007 85 7000 3.13 190 20:53 01.01.2022
4526 Snow -12 1008 92 8000 3.13 190 19:57 01.01.2022
4527 Clouds -12 1008 92 10000 3.13 190 19:19 01.01.2022
4528 Clouds -12 1009 85 10000 3.13 190 17:58 01.01.2022
4529 Snow -12 1009 85 10000 1.79 190 16:37 01.01.2022
4530 Snow -12 1009 85 10000 1.79 190 16:19 01.01.2022
4531 Snow -13 1010 84 10000 3.13 190 15:26 01.01.2022
4532 Snow -13 1011 84 9000 3.13 190 13:58 01.01.2022
4533 Snow -13 1011 84 10000 3.13 200 12:50 01.01.2022
4534 Snow -14 1012 84 10000 3.13 190 11:56 01.01.2022
4535 Snow -14 1012 84 10000 3.13 190 11:22 01.01.2022
4536 Snow -13 1012 78 10000 3.13 190 10:27 01.01.2022
4537 Snow -14 1012 84 10000 3.13 200 09:46 01.01.2022
4538 Snow -14 1013 84 10000 3.13 200 08:26 01.01.2022
4539 Snow -14 1013 84 10000 3.13 200 07:44 01.01.2022
4540 Snow -15 1014 84 10000 3.13 200 06:47 01.01.2022
4541 Clear -15 1014 84 10000 3.13 200 05:27 01.01.2022
4542 Snow -15 1014 77 10000 3.13 200 04:38 01.01.2022
4543 Clear -16 1015 77 10000 3.13 210 01:59 01.01.2022
4544 Clear -17 1016 84 10000 3.13 220 23:39 31.12.2021
4545 Clear -17 1017 84 10000 4.02 220 21:53 31.12.2021
4546 Clear -16 1017 77 10000 4.02 230 20:38 31.12.2021
4547 Snow -16 1017 77 9000 4.02 230 19:30 31.12.2021
4548 Clear -17 1018 85 10000 4 230 18:37 31.12.2021
4549 Snow -17 1018 84 10000 3.13 220 17:40 31.12.2021
4550 Snow -17 1018 84 5000 3.13 220 17:18 31.12.2021
4551 Snow -17 1018 84 9000 4.02 230 16:38 31.12.2021
4552 Snow -17 1018 84 5000 4.02 220 15:57 31.12.2021
4553 Snow -17 1018 84 4900 4.02 210 15:28 31.12.2021
4554 Snow -17 1019 84 8000 4.02 210 14:56 31.12.2021
4555 Snow -17 1019 84 8000 3.13 210 14:30 31.12.2021
4556 Snow -17 1019 84 5000 3.13 200 13:36 31.12.2021
4557 Snow -17 1019 84 5000 3.13 200 12:45 31.12.2021
4558 Clouds -18 1020 84 10000 1.79 210 11:51 31.12.2021
4559 Clouds -18 1019 84 10000 3.13 200 11:30 31.12.2021
4560 Clouds -18 1019 77 10000 3.13 200 10:38 31.12.2021
4561 Clouds -19 1020 84 10000 3 200 09:55 31.12.2021
4562 Snow -19 1020 84 9000 3 210 09:33 31.12.2021
4563 Snow -19 1020 84 5000 3 230 08:39 31.12.2021
4564 Snow -19 1020 84 6000 3 210 07:31 31.12.2021
4565 Clouds -21 1021 77 10000 2 200 23:32 30.12.2021
4566 Clear -22 1022 84 10000 3 220 22:33 30.12.2021
4567 Clear -22 1022 84 10000 3 230 21:59 30.12.2021
4568 Clear -22 1022 84 10000 3 230 21:59 30.12.2021
4569 Clear -22 1022 84 10000 3 230 21:37 30.12.2021
4570 Clear -22 1022 77 10000 3 220 20:47 30.12.2021
4571 Clouds -22 1022 76 10000 3.13 210 20:28 30.12.2021
4572 Clouds -23 1022 83 10000 1.79 220 19:48 30.12.2021
4573 Clear -23 1022 77 10000 2 200 18:51 30.12.2021
4574 Clear -23 1021 77 10000 2 210 18:20 30.12.2021
4575 Snow -22 1021 76 10000 3.13 240 16:27 30.12.2021
4576 Snow -23 1021 83 9000 3.13 220 15:52 30.12.2021
4577 Clear -24 1021 76 10000 3.13 200 14:41 30.12.2021
4578 Clear -25 1021 83 10000 3.13 230 13:57 30.12.2021
4579 Clear -27 1021 75 10000 3.13 230 12:52 30.12.2021
4580 Clear -28 1021 76 10000 3 230 11:22 30.12.2021
4581 Clear -28 1021 76 10000 2 210 09:59 30.12.2021
4582 Clear -28 1021 76 10000 2 210 09:23 30.12.2021
4583 Clear -31 1020 76 10000 3 240 06:54 30.12.2021
4584 Clear -31 1020 74 10000 1.79 250 04:20 30.12.2021
4585 Clear -31 1020 74 10000 1.79 250 04:20 30.12.2021
4586 Clear -31 1019 74 10000 3.13 250 03:38 30.12.2021
4587 Clear -30 1018 76 10000 3 250 23:57 29.12.2021
4588 Clear -29 1018 76 10000 4 250 23:31 29.12.2021
4589 Clear -28 1017 76 10000 3 250 22:24 29.12.2021
4590 Clear -29 1017 83 10000 3 260 21:53 29.12.2021
4591 Clouds -27 1016 76 10000 4 280 20:40 29.12.2021
4592 Snow -25 1016 77 9000 4 280 19:54 29.12.2021
4593 Snow -25 1016 84 6000 4 270 19:24 29.12.2021
4594 Snow -24 1015 77 3800 4 280 18:19 29.12.2021
4595 Snow -24 1015 84 2200 4 270 17:28 29.12.2021
4596 Snow -24 1015 84 5000 3 250 16:49 29.12.2021
4597 Snow -24 1015 84 3700 2 250 16:19 29.12.2021
4598 Snow -24 1014 76 4200 1.79 230 14:40 29.12.2021
4599 Clear -25 1014 76 10000 1.79 200 12:48 29.12.2021
4600 Clouds -25 1014 83 10000 0.89 0 12:27 29.12.2021
4601 Clear -24 1014 76 10000 1.79 200 10:36 29.12.2021
4602 Clouds -23 1015 76 10000 3.13 200 08:24 29.12.2021
4603 Clouds -24 1015 83 10000 1.79 190 06:45 29.12.2021
4604 Clouds -24 1015 83 10000 1.79 190 06:24 29.12.2021
4605 Clouds -24 1015 83 10000 1.79 200 05:42 29.12.2021
4606 Snow -23 1014 83 10000 3.13 210 03:20 29.12.2021
4607 Snow -23 1014 83 10000 3.13 210 03:20 29.12.2021
4608 Clouds -21 1014 83 10000 3.13 200 00:24 29.12.2021
4609 Clouds -20 1014 76 10000 3.13 200 23:47 28.12.2021
4610 Clouds -20 1014 84 10000 3.13 180 22:45 28.12.2021
4611 Clouds -20 1014 84 10000 3.13 190 22:24 28.12.2021
4612 Snow -20 1014 84 10000 3.13 200 21:53 28.12.2021
4613 Snow -19 1014 84 9000 1.79 200 20:47 28.12.2021
4614 Snow -18 1015 85 10000 3 200 19:44 28.12.2021
4615 Snow -18 1015 85 10000 3 210 18:44 28.12.2021
4616 Clouds -18 1015 84 10000 3.13 210 18:23 28.12.2021
4617 Clouds -17 1015 84 10000 3.13 200 16:35 28.12.2021
4618 Clouds -17 1015 84 10000 4.02 200 15:51 28.12.2021
4619 Clouds -17 1015 84 10000 3.13 200 15:25 28.12.2021
4620 Clouds -16 1015 85 10000 3 190 14:52 28.12.2021
4621 Clouds -16 1015 84 10000 3.13 190 14:21 28.12.2021
4622 Clouds -16 1015 84 10000 3.13 190 13:51 28.12.2021
4623 Clouds -16 1015 84 10000 3.13 190 13:31 28.12.2021
4624 Clouds -16 1015 84 10000 1.79 200 12:49 28.12.2021
4625 Clouds -16 1015 84 10000 1.79 180 11:51 28.12.2021
4626 Clouds -15 1014 84 10000 1.79 200 09:27 28.12.2021
4627 Clouds -15 1014 84 10000 3.13 200 07:31 28.12.2021
4628 Clear -14 1013 84 10000 4.02 190 02:22 28.12.2021
4629 Snow -14 1013 84 5000 4.02 180 23:26 27.12.2021
4630 Clear -15 1013 84 10000 4.02 180 21:54 27.12.2021
4631 Clouds -15 1014 84 10000 4.02 170 21:26 27.12.2021
4632 Snow -15 1014 85 2500 4 170 20:24 27.12.2021
4633 Snow -15 1014 85 2200 4 160 19:45 27.12.2021
4634 Snow -14 1014 84 1400 4.02 150 18:54 27.12.2021
4635 Snow -16 1015 85 1600 4 130 17:50 27.12.2021
4636 Snow -17 1015 85 2900 5 120 17:18 27.12.2021
4637 Snow -17 1017 85 10000 5 120 15:53 27.12.2021
4638 Clear -17 1019 78 10000 4 130 14:34 27.12.2021
4639 Clear -18 1020 78 10000 4 130 13:58 27.12.2021
4640 Clear -18 1021 78 10000 4 130 12:47 27.12.2021
4641 Clear -19 1024 84 10000 4.02 150 10:36 27.12.2021
4642 Clear -19 1024 84 10000 4.02 150 10:18 27.12.2021
4643 Clear -20 1025 76 10000 4.02 140 08:41 27.12.2021
4644 Clear -22 1026 83 10000 4.02 140 07:33 27.12.2021
4645 Mist -22 1028 76 5000 4.02 140 02:26 27.12.2021
4646 Mist -23 1028 83 3500 3.13 140 00:29 27.12.2021
4647 Mist -22 1029 76 3000 3.13 140 23:42 26.12.2021
4648 Mist -23 1029 83 3300 3.13 140 22:49 26.12.2021
4649 Mist -23 1030 76 3300 1.79 140 21:30 26.12.2021
4650 Mist -24 1030 76 3000 1.79 150 19:52 26.12.2021
4651 Mist -23 1030 76 2400 3.13 140 18:25 26.12.2021
4652 Mist -24 1030 84 2400 3 140 17:51 26.12.2021
4653 Clear -23 1031 76 10000 3.13 160 15:31 26.12.2021
4654 Clear -23 1031 83 10000 3.13 160 13:43 26.12.2021
4655 Clear -23 1031 83 10000 3.13 150 13:21 26.12.2021
4656 Clear -23 1031 83 10000 3.13 160 12:34 26.12.2021
4657 Clear -22 1031 76 10000 3.13 160 11:18 26.12.2021
4658 Clear -21 1031 76 10000 3.13 190 09:30 26.12.2021
4659 Clear -21 1031 76 10000 3.13 190 08:44 26.12.2021
4660 Clear -22 1031 83 10000 3.13 200 08:23 26.12.2021
4661 Clear -23 1029 83 10000 4.92 200 01:37 26.12.2021
4662 Clear -23 1028 83 10000 4.92 190 00:28 26.12.2021
4663 Clear -23 1029 83 10000 4.92 190 23:35 25.12.2021
4664 Clear -22 1028 76 10000 4.92 190 22:29 25.12.2021
4665 Clear -22 1028 83 10000 4.02 190 21:29 25.12.2021
4666 Clear -21 1028 76 10000 4.02 200 19:46 25.12.2021
4667 Clear -21 1028 76 10000 4.92 200 19:18 25.12.2021
4668 Clear -21 1028 76 10000 4.92 200 18:26 25.12.2021
4669 Clear -21 1027 76 10000 4.92 190 16:49 25.12.2021
4670 Clear -22 1027 76 10000 4.92 190 15:30 25.12.2021
4671 Clear -21 1027 76 10000 4.92 190 14:22 25.12.2021
4672 Clear -20 1026 76 10000 4.92 190 12:21 25.12.2021
4673 Clear -21 1026 76 10000 5.81 180 10:38 25.12.2021
4674 Clear -21 1026 76 10000 4.92 190 09:48 25.12.2021
4675 Clear -21 1025 76 10000 5.81 190 07:27 25.12.2021
4676 Clouds -16 1021 71 10000 8.05 190 01:36 25.12.2021
4677 Clouds -16 1020 77 10000 8.05 200 00:19 25.12.2021
4678 Snow -14 1018 71 5000 8.05 190 21:57 24.12.2021
4679 Clouds -11 1014 72 10000 8.05 210 19:27 24.12.2021
4680 Snow -11 1014 78 10000 8.94 200 18:55 24.12.2021
4681 Snow -10 1011 78 9000 7.15 210 16:44 24.12.2021
4682 Snow -10 1010 78 9000 8.05 200 15:50 24.12.2021
4683 Snow -10 1010 78 9000 8.05 200 15:50 24.12.2021
4684 Snow -9 1010 72 8000 8.94 200 15:20 24.12.2021
4685 Clouds -9 1008 85 10000 5.81 190 14:34 24.12.2021
4686 Clouds -9 1008 85 10000 4.02 190 13:54 24.12.2021
4687 Snow -10 1007 92 9000 4.02 170 13:32 24.12.2021
4688 Snow -11 1007 92 5000 5 150 12:40 24.12.2021
4689 Snow -11 1007 85 3900 4 130 11:43 24.12.2021
4690 Snow -12 1006 85 3900 5 130 11:24 24.12.2021
4691 Snow -12 1007 85 2100 5 120 10:35 24.12.2021
4692 Snow -12 1008 85 2200 5.81 120 08:58 24.12.2021
4693 Snow -12 1009 85 1200 7.15 120 07:58 24.12.2021
4694 Snow -12 1009 92 800 8.94 110 07:31 24.12.2021
4695 Clouds -18 1021 84 10000 5.81 90 00:47 24.12.2021
4696 Clouds -19 1021 84 10000 4.92 100 23:50 23.12.2021
4697 Clear -20 1022 84 10000 4.02 90 22:53 23.12.2021
4698 Clear -20 1022 84 10000 3.13 90 22:24 23.12.2021
4699 Clear -20 1022 84 10000 3.13 80 21:47 23.12.2021
4700 Clear -20 1023 84 10000 1.79 70 20:31 23.12.2021
4701 Clear -20 1022 84 10000 0.89 0 19:30 23.12.2021
4702 Clear -20 1022 84 10000 0.89 0 19:30 23.12.2021
4703 Clear -19 1023 84 10000 0.89 0 18:27 23.12.2021
4704 Clear -18 1022 84 10000 1.79 200 17:46 23.12.2021
4705 Clear -16 1021 78 10000 2 220 16:27 23.12.2021
4706 Clear -16 1021 85 10000 3 240 15:48 23.12.2021
4707 Clear -15 1020 78 10000 3 230 15:30 23.12.2021
4708 Clear -14 1019 78 10000 5 250 14:42 23.12.2021
4709 Clear -14 1018 78 10000 4 220 13:43 23.12.2021
4710 Clear -13 1015 84 10000 4.02 240 11:52 23.12.2021
4711 Clouds -8 1011 78 10000 7.15 230 09:55 23.12.2021
4712 Snow -5 1010 80 9000 8 230 09:34 23.12.2021
4713 Snow -3 1008 86 6000 5 210 08:38 23.12.2021
4714 Snow -3 1005 92 6000 4.92 180 05:43 23.12.2021
4715 Snow -3 1002 92 3100 5.81 160 02:56 23.12.2021
4716 Snow -3 1003 79 10000 4.92 150 22:53 22.12.2021
4717 Clouds -3 1003 86 10000 5.81 150 22:22 22.12.2021
4718 Clouds -3 1004 86 10000 4.92 150 21:37 22.12.2021
4719 Clouds -3 1004 86 10000 4.92 150 21:19 22.12.2021
4720 Clouds -3 1004 86 10000 4.92 160 20:40 22.12.2021
4721 Clouds -3 1004 86 10000 5.81 160 19:57 22.12.2021
4722 Clouds -3 1005 79 10000 5.81 160 18:55 22.12.2021
4723 Clouds -3 1005 79 10000 4.92 160 17:38 22.12.2021
4724 Clouds -3 1005 86 10000 4.92 160 16:25 22.12.2021
4725 Clouds -3 1007 86 10000 5.81 160 14:34 22.12.2021
4726 Clouds -3 1007 79 10000 5.81 150 12:59 22.12.2021
4727 Clouds -3 1008 79 10000 4.92 150 11:50 22.12.2021
4728 Snow -3 1008 86 10000 4.92 150 09:53 22.12.2021
4729 Snow -4 1009 92 10000 5.81 160 08:34 22.12.2021
4730 Clouds -6 1011 92 10000 5.81 130 05:56 22.12.2021
4731 Clouds -6 1011 92 10000 5.81 130 05:37 22.12.2021
4732 Clouds -7 1011 92 10000 5.81 130 05:19 22.12.2021
4733 Clouds -7 1012 85 10000 4.92 130 04:40 22.12.2021
4734 Clouds -8 1013 92 10000 4.92 130 03:53 22.12.2021
4735 Snow -9 1013 92 10000 6 130 03:31 22.12.2021
4736 Snow -11 1016 92 6000 4.92 120 23:49 21.12.2021
4737 Snow -11 1017 85 10000 4.02 120 22:41 21.12.2021
4738 Clouds -12 1017 85 10000 4.02 120 21:58 21.12.2021
4739 Clouds -13 1018 92 10000 4 120 21:33 21.12.2021
4740 Clouds -13 1018 85 10000 4 110 20:42 21.12.2021
4741 Clouds -13 1018 84 10000 4.02 110 20:18 21.12.2021
4742 Snow -14 1018 85 9000 4 120 19:34 21.12.2021
4743 Snow -15 1019 85 9000 3 120 18:28 21.12.2021
4744 Snow -16 1019 92 9000 3 120 17:58 21.12.2021
4745 Snow -16 1018 85 7000 4 120 17:40 21.12.2021
4746 Snow -17 1019 78 10000 4 120 15:46 21.12.2021
4747 Snow -19 1018 84 10000 4 120 14:24 21.12.2021
4748 Snow -20 1019 84 8000 4 110 13:42 21.12.2021
4749 Snow -21 1019 84 6000 5 120 12:29 21.12.2021
4750 Snow -22 1018 77 8000 5 120 10:52 21.12.2021
4751 Snow -22 1018 77 4000 5 120 09:56 21.12.2021
4752 Snow -23 1018 77 3000 5 120 08:57 21.12.2021
4753 Snow -24 1019 77 3700 5 120 07:45 21.12.2021
4754 Snow -25 1019 77 4900 5 120 07:23 21.12.2021
4755 Snow -27 1019 76 1900 6 120 04:26 21.12.2021
4756 Snow -27 1019 76 3000 5 120 02:30 21.12.2021
4757 Snow -28 1020 76 7000 6 120 23:54 20.12.2021
4758 Clouds -28 1020 69 10000 6 110 22:36 20.12.2021
4759 Clouds -28 1020 76 10000 6 120 21:59 20.12.2021
4760 Snow -28 1020 76 10000 7 110 21:27 20.12.2021
4761 Snow -28 1020 76 9000 5 110 20:54 20.12.2021
4762 Snow -28 1020 76 7000 5 120 20:23 20.12.2021
4763 Snow -27 1020 69 3300 6 120 19:38 20.12.2021
4764 Snow -27 1020 69 3300 6 120 19:19 20.12.2021
4765 Snow -27 1019 76 2400 7 100 18:33 20.12.2021
4766 Snow -27 1020 76 2400 7 110 17:50 20.12.2021
4767 Snow -26 1019 76 5000 6 120 16:47 20.12.2021
4768 Snow -26 1019 76 3000 6 110 16:18 20.12.2021
4769 Snow -26 1019 76 6000 7 100 15:40 20.12.2021
4770 Snow -27 1019 76 10000 8 90 13:49 20.12.2021
4771 Clear -27 1019 76 10000 7 90 12:30 20.12.2021
4772 Clear -27 1019 76 10000 7 90 10:46 20.12.2021
4773 Clear -27 1019 76 10000 6 90 09:40 20.12.2021
4774 Clear -27 1019 76 10000 7 90 08:50 20.12.2021
4775 Clear -27 1019 76 10000 7 90 08:31 20.12.2021
4776 Clear -28 1019 76 10000 6 90 07:35 20.12.2021
4777 Clear -28 1019 76 10000 7 100 06:39 20.12.2021
4778 Clear -26 1019 75 10000 5.81 100 00:20 20.12.2021
4779 Clear -25 1019 76 10000 8.05 110 22:56 19.12.2021
4780 Clear -25 1019 76 10000 7.15 110 22:32 19.12.2021
4781 Clear -25 1019 76 10000 7.15 110 21:32 19.12.2021
4782 Clear -25 1019 76 10000 7.15 110 20:42 19.12.2021
4783 Clear -25 1019 76 10000 7.15 110 20:23 19.12.2021
4784 Clear -25 1019 76 10000 7.15 110 19:41 19.12.2021
4785 Clear -25 1019 76 10000 7.15 110 18:42 19.12.2021
4786 Clear -25 1019 76 10000 5.81 110 17:53 19.12.2021
4787 Clouds -26 1019 75 10000 5.81 110 17:30 19.12.2021
4788 Clear -26 1019 83 10000 4.92 110 16:41 19.12.2021
4789 Clouds -26 1019 75 10000 5.81 110 15:55 19.12.2021
4790 Clear -26 1019 75 10000 4.92 110 15:24 19.12.2021
4791 Clouds -26 1020 75 10000 4.92 110 14:45 19.12.2021
4792 Clouds -26 1020 75 10000 5.81 110 13:32 19.12.2021
4793 Clouds -26 1020 75 10000 4.92 110 12:59 19.12.2021
4794 Clear -27 1020 75 10000 4.92 100 12:29 19.12.2021
4795 Clear -28 1020 75 10000 4.92 90 11:37 19.12.2021
4796 Clouds -28 1020 75 10000 4.02 90 10:49 19.12.2021
4797 Clouds -28 1020 75 10000 4.02 80 10:22 19.12.2021
4798 Clouds -30 1020 75 10000 3.13 90 08:46 19.12.2021
4799 Clouds -31 1020 74 10000 3.13 110 06:45 19.12.2021
4800 Clouds -35 1020 75 10000 4 90 01:51 19.12.2021
4801 Clouds -35 1020 75 10000 4 100 00:54 19.12.2021
4802 Clear -36 1020 68 10000 4 90 22:59 18.12.2021
4803 Clouds -37 1020 74 10000 3 90 22:24 18.12.2021
4804 Clouds -37 1020 74 10000 2 120 21:43 18.12.2021
4805 Clear -36 1019 68 10000 3 100 21:22 18.12.2021
4806 Clear -36 1019 68 10000 3 100 20:25 18.12.2021
4807 Clear -36 1019 75 10000 2 80 19:35 18.12.2021
4808 Clear -35 1019 68 10000 2 70 18:24 18.12.2021
4809 Clear -35 1019 68 10000 2 80 17:49 18.12.2021
4810 Clear -35 1019 68 10000 2 60 16:36 18.12.2021
4811 Clear -35 1019 68 10000 2 60 16:18 18.12.2021
4812 Clear -34 1018 75 10000 1 0 14:54 18.12.2021
4813 Clear -33 1018 68 10000 1 0 13:44 18.12.2021
4814 Clear -32 1017 75 10000 1 350 11:55 18.12.2021
4815 Clear -31 1016 76 10000 2 330 09:54 18.12.2021
4816 Clear -30 1016 69 10000 2 330 09:30 18.12.2021
4817 Clear -30 1015 76 10000 2 360 08:36 18.12.2021
4818 Clear -30 1015 76 10000 2 360 08:36 18.12.2021
4819 Clear -30 1014 76 10000 2 360 06:28 18.12.2021
4820 Clear -28 1012 83 10000 1 0 00:58 18.12.2021
4821 Clear -26 1011 76 10000 1 0 23:47 17.12.2021
4822 Clouds -25 1010 84 10000 2 350 22:37 17.12.2021
4823 Clouds -24 1009 84 9000 2 340 21:29 17.12.2021
4824 Snow -23 1009 77 3900 2 360 20:43 17.12.2021
4825 Clouds -23 1008 84 10000 2 360 19:51 17.12.2021
4826 Clouds -21 1007 77 10000 3 360 18:39 17.12.2021
4827 Clouds -21 1007 84 10000 3 10 17:47 17.12.2021
4828 Clouds -20 1006 84 10000 3 10 16:50 17.12.2021
4829 Clouds -19 1006 84 10000 3 10 16:27 17.12.2021
4830 Clouds -17 1005 85 10000 2 20 15:27 17.12.2021
4831 Clouds -15 1005 85 10000 3 20 14:42 17.12.2021
4832 Snow -14 1004 85 10000 3 20 13:35 17.12.2021
4833 Snow -13 1004 84 3500 3.13 30 12:28 17.12.2021
4834 Snow -12 1003 85 3300 1.79 50 10:41 17.12.2021
4835 Snow -12 1003 85 3200 3.13 70 09:47 17.12.2021
4836 Snow -12 1003 85 3200 3.13 70 09:47 17.12.2021
4837 Snow -12 1004 92 2700 3.13 80 08:31 17.12.2021
4838 Snow -12 1004 92 1900 3.13 90 07:21 17.12.2021
4839 Snow -12 1005 92 5000 4.02 100 04:40 17.12.2021
4840 Snow -12 1009 92 8000 1.79 120 23:58 16.12.2021
4841 Snow -12 1010 92 1700 0.89 0 22:24 16.12.2021
4842 Snow -12 1011 92 2100 0.89 0 21:51 16.12.2021
4843 Snow -12 1011 92 3200 0.89 130 21:33 16.12.2021
4844 Snow -12 1012 85 8000 0.89 0 20:31 16.12.2021
4845 Snow -12 1012 85 10000 0.89 0 19:51 16.12.2021
4846 Snow -13 1013 92 5000 0.89 0 18:41 16.12.2021
4847 Snow -13 1014 92 7000 0.89 150 17:57 16.12.2021
4848 Clouds -12 1014 85 9000 1 160 17:32 16.12.2021
4849 Snow -14 1014 92 9000 0.89 160 16:23 16.12.2021
4850 Snow -13 1015 85 9000 1 0 15:20 16.12.2021
4851 Clouds -16 1016 84 9000 0.89 90 13:43 16.12.2021
4852 Clouds -18 1017 84 9000 0.89 0 11:46 16.12.2021
4853 Clouds -19 1017 84 9000 0 0 11:18 16.12.2021
4854 Mist -17 1017 84 4000 0 0 10:27 16.12.2021
4855 Clouds -16 1017 85 10000 0 0 08:37 16.12.2021
4856 Clouds -16 1017 92 10000 0 0 06:22 16.12.2021
4857 Clouds -15 1018 85 10000 1 290 02:59 16.12.2021
4858 Clouds -17 1017 92 10000 2 290 23:35 15.12.2021
4859 Clouds -17 1017 85 10000 2 280 22:48 15.12.2021
4860 Clouds -20 1017 84 10000 1.79 280 21:58 15.12.2021
4861 Clouds -19 1017 84 10000 1.79 280 21:28 15.12.2021
4862 Clouds -19 1017 84 10000 3.13 280 20:31 15.12.2021
4863 Clouds -19 1017 84 10000 1.79 280 19:52 15.12.2021
4864 Clouds -18 1016 84 9000 1.79 290 18:39 15.12.2021
4865 Mist -17 1016 91 5000 3.13 300 17:56 15.12.2021
4866 Mist -16 1016 84 5000 3.13 300 17:37 15.12.2021
4867 Mist -17 1016 84 4600 1.79 290 16:35 15.12.2021
4868 Clouds -16 1015 84 9000 1.79 290 15:47 15.12.2021
4869 Mist -15 1015 84 4500 3.13 330 15:28 15.12.2021
4870 Clouds -15 1015 84 8000 3.13 310 14:42 15.12.2021
4871 Fog -13 1014 92 700 1.79 320 12:52 15.12.2021
4872 Snow -12 1013 92 5000 0.89 280 10:44 15.12.2021
4873 Snow -11 1013 92 9000 0.89 210 09:28 15.12.2021
4874 Snow -10 1013 92 9000 1.79 220 07:44 15.12.2021
4875 Snow -11 1013 92 9000 3.13 190 01:39 15.12.2021
4876 Snow -12 1014 85 6000 1.79 160 23:42 14.12.2021
4877 Snow -13 1015 84 5000 3.13 170 22:49 14.12.2021
4878 Snow -14 1015 92 5000 3.13 160 22:25 14.12.2021
4879 Snow -15 1016 84 4300 3.13 160 20:57 14.12.2021
4880 Snow -17 1017 85 2500 3 160 19:44 14.12.2021
4881 Snow -17 1017 85 2500 3 160 19:44 14.12.2021
4882 Snow -17 1017 85 1900 3 160 19:20 14.12.2021
4883 Snow -18 1018 84 4000 3.13 170 18:29 14.12.2021
4884 Snow -19 1019 84 1600 4.02 170 17:33 14.12.2021
4885 Snow -19 1019 77 1400 3.13 160 16:42 14.12.2021
4886 Snow -21 1021 76 1300 3.13 150 15:37 14.12.2021
4887 Mist -24 1023 77 2200 3 140 13:32 14.12.2021
4888 Clouds -24 1024 76 6000 3.13 150 12:21 14.12.2021
4889 Clear -24 1025 76 10000 4.02 150 11:24 14.12.2021
4890 Clear -25 1026 76 10000 3.13 150 10:25 14.12.2021
4891 Clear -25 1026 76 10000 3.13 150 09:53 14.12.2021
4892 Clear -25 1027 76 10000 3.13 150 08:28 14.12.2021
4893 Clear -26 1028 75 10000 1.79 150 07:59 14.12.2021
4894 Clouds -29 1029 68 7000 0.89 0 05:38 14.12.2021
4895 Clear -34 1031 74 10000 0.89 90 22:59 13.12.2021
4896 Clouds -33 1032 74 9000 0.89 0 21:54 13.12.2021
4897 Clouds -33 1032 74 10000 1.79 280 21:34 13.12.2021
4898 Clouds -32 1032 74 10000 0.89 280 20:45 13.12.2021
4899 Clear -32 1032 74 10000 0.89 50 19:57 13.12.2021
4900 Clear -32 1032 74 10000 0.89 280 19:20 13.12.2021
4901 Clear -30 1032 75 10000 0.89 0 17:26 13.12.2021
4902 Clear -29 1032 75 10000 0.89 0 16:20 13.12.2021
4903 Clear -30 1032 82 10000 1.79 290 15:38 13.12.2021
4904 Clear -28 1031 82 10000 0.89 300 13:49 13.12.2021
4905 Clear -26 1031 75 10000 1.79 320 13:18 13.12.2021
4906 Clear -25 1031 76 10000 1.79 360 12:22 13.12.2021
4907 Clear -24 1030 76 10000 3.13 360 11:36 13.12.2021
4908 Clear -24 1030 76 10000 3.13 360 10:53 13.12.2021
4909 Clear -23 1030 76 10000 3.13 350 10:21 13.12.2021
4910 Clear -20 1029 84 10000 3.13 360 08:28 13.12.2021
4911 Clouds -15 1026 78 10000 4 30 05:37 13.12.2021
4912 Clear -14 1025 85 10000 2 340 03:32 13.12.2021
4913 Snow -14 1023 92 6000 1.79 280 23:39 12.12.2021
4914 Clear -14 1023 84 10000 1.79 280 21:52 12.12.2021
4915 Clear -14 1023 84 10000 3.13 290 20:45 12.12.2021
4916 Clouds -15 1023 84 10000 3.13 280 19:30 12.12.2021
4917 Clouds -15 1023 92 10000 1.79 280 17:46 12.12.2021
4918 Clouds -15 1023 92 10000 0.89 260 16:28 12.12.2021
4919 Clouds -16 1023 84 10000 0 0 15:51 12.12.2021
4920 Clouds -16 1023 84 10000 0 0 15:26 12.12.2021
4921 Clouds -16 1023 91 10000 0 0 14:37 12.12.2021
4922 Snow -13 1023 92 7000 0.89 260 13:34 12.12.2021
4923 Snow -12 1022 85 4600 1.79 240 12:32 12.12.2021
4924 Snow -12 1023 85 5000 3.13 240 11:44 12.12.2021
4925 Snow -12 1023 85 3700 1 0 11:25 12.12.2021
4926 Snow -11 1023 85 10000 2 260 10:39 12.12.2021
4927 Snow -12 1022 92 10000 2 240 09:44 12.12.2021
4928 Snow -12 1023 85 10000 2 260 08:38 12.12.2021
4929 Snow -12 1023 85 4500 2 320 06:34 12.12.2021
4930 Clouds -13 1023 85 10000 3 310 05:27 12.12.2021
4931 Snow -11 1023 79 5000 5 350 03:58 12.12.2021
4932 Snow -11 1021 85 4200 4 300 00:36 12.12.2021
4933 Clouds -13 1021 84 10000 5.81 310 22:24 11.12.2021
4934 Clouds -13 1021 84 10000 5.81 310 21:52 11.12.2021
4935 Snow -13 1020 84 10000 7.15 320 21:21 11.12.2021
4936 Snow -14 1020 84 10000 5.81 290 19:40 11.12.2021
4937 Snow -14 1020 84 8000 5.81 300 18:53 11.12.2021
4938 Snow -14 1020 77 7000 4.92 290 18:30 11.12.2021
4939 Clouds -15 1019 84 10000 4.92 290 17:41 11.12.2021
4940 Clouds -16 1018 85 10000 6 280 15:57 11.12.2021
4941 Clouds -16 1018 85 10000 6 280 15:35 11.12.2021
4942 Clouds -15 1018 77 10000 7.15 280 13:46 11.12.2021
4943 Clouds -15 1017 84 10000 5.81 250 11:55 11.12.2021
4944 Clouds -14 1017 77 10000 7.15 250 10:24 11.12.2021
4945 Snow -14 1016 84 3600 8.05 260 09:37 11.12.2021
4946 Clouds -12 1016 78 10000 8.05 270 03:25 11.12.2021
4947 Snow -9 1014 85 3100 7.15 280 00:44 11.12.2021
4948 Snow -8 1014 78 800 9.83 270 23:39 10.12.2021
4949 Snow -6 1013 85 5000 4.92 240 22:27 10.12.2021
4950 Snow -6 1013 85 6000 5.81 240 21:37 10.12.2021
4951 Snow -7 1014 85 7000 4.92 240 19:55 10.12.2021
4952 Snow -7 1014 85 8000 5.81 240 19:18 10.12.2021
4953 Snow -7 1015 79 9000 5.81 230 17:23 10.12.2021
4954 Clear -7 1015 79 10000 7.15 210 16:32 10.12.2021
4955 Clear -7 1016 79 10000 4.92 200 15:42 10.12.2021
4956 Clear -7 1016 79 10000 4.92 200 15:23 10.12.2021
4957 Clear -8 1017 85 10000 4.02 180 13:53 10.12.2021
4958 Clear -8 1018 85 10000 4.02 190 13:31 10.12.2021
4959 Clear -8 1019 85 10000 4.02 190 12:51 10.12.2021
4960 Clear -9 1020 92 10000 3.13 170 11:34 10.12.2021
4961 Clouds -9 1021 92 10000 4.02 180 10:55 10.12.2021
4962 Clouds -10 1022 92 10000 4.02 160 09:33 10.12.2021
4963 Snow -10 1025 85 10000 4.02 160 07:24 10.12.2021
4964 Snow -13 1029 92 2100 3.13 150 02:53 10.12.2021
4965 Snow -13 1029 92 3100 3.13 180 02:29 10.12.2021
4966 Snow -15 1031 92 10000 1.79 200 23:39 09.12.2021
4967 Snow -15 1031 85 5000 3 240 22:41 09.12.2021
4968 Snow -15 1031 85 5000 3 240 22:21 09.12.2021
4969 Snow -16 1031 92 5000 2 240 21:38 09.12.2021
4970 Snow -16 1031 84 8000 3.13 240 20:34 09.12.2021
4971 Snow -16 1031 84 9000 3.13 240 19:22 09.12.2021
4972 Snow -16 1030 91 4100 4.02 250 18:59 09.12.2021
4973 Snow -16 1030 84 6000 4.02 250 17:58 09.12.2021
4974 Snow -16 1031 84 3000 4.02 250 17:28 09.12.2021
4975 Snow -16 1030 84 2400 4.92 250 16:57 09.12.2021
4976 Snow -16 1030 84 5000 4.02 250 16:20 09.12.2021
4977 Snow -17 1030 77 2200 4.02 270 14:58 09.12.2021
4978 Clouds -17 1030 84 10000 4.92 250 13:52 09.12.2021
4979 Clouds -18 1029 84 10000 4.92 250 12:47 09.12.2021
4980 Clear -18 1029 77 10000 4.02 250 11:29 09.12.2021
4981 Clear -19 1029 84 10000 4.02 240 10:20 09.12.2021
4982 Clear -20 1029 84 10000 4.92 250 06:59 09.12.2021
4983 Clear -20 1030 84 10000 4.92 250 03:55 09.12.2021
4984 Clear -20 1030 84 10000 5.81 250 00:25 09.12.2021
4985 Clear -20 1030 84 10000 4.92 250 23:36 08.12.2021
4986 Clear -20 1030 84 10000 4.92 250 22:57 08.12.2021
4987 Clear -19 1031 84 10000 4.92 250 21:50 08.12.2021
4988 Clear -19 1031 84 10000 4.92 250 21:32 08.12.2021
4989 Clear -18 1031 84 10000 4.92 250 20:31 08.12.2021
4990 Clear -18 1031 84 10000 4.92 240 19:55 08.12.2021
4991 Clear -18 1031 84 10000 4.02 240 18:58 08.12.2021
4992 Clouds -17 1032 84 10000 4.92 250 18:22 08.12.2021
4993 Clouds -16 1031 84 10000 4.92 240 16:49 08.12.2021
4994 Clouds -16 1031 85 10000 4 250 15:41 08.12.2021
4995 Clouds -16 1031 85 10000 4 250 15:22 08.12.2021
4996 Snow -15 1032 85 9000 5 260 13:21 08.12.2021
4997 Clouds -15 1031 85 10000 5 280 10:44 08.12.2021
4998 Clouds -17 1030 85 10000 3 280 09:32 08.12.2021
4999 Clouds -21 1030 83 10000 3.13 280 08:31 08.12.2021
5000 Clear -23 1028 83 10000 4.92 280 05:37 08.12.2021
5001 Snow -22 1025 76 5000 4.92 280 00:27 08.12.2021
5002 Snow -23 1024 83 7000 5.81 280 22:52 07.12.2021
5003 Clouds -23 1024 76 10000 5.81 280 21:25 07.12.2021
5004 Clouds -24 1023 83 10000 4.92 260 20:25 07.12.2021
5005 Clouds -23 1023 76 10000 4.92 250 18:59 07.12.2021
5006 Clouds -23 1022 76 10000 4.92 250 18:21 07.12.2021
5007 Clouds -23 1022 83 10000 4.92 270 17:24 07.12.2021
5008 Clouds -23 1021 76 10000 4.92 270 16:42 07.12.2021
5009 Snow -23 1021 84 8000 6 280 15:59 07.12.2021
5010 Clear -23 1020 77 10000 5 240 14:38 07.12.2021
5011 Snow -24 1020 77 7000 4 240 13:40 07.12.2021
5012 Clear -25 1020 84 10000 4 250 12:22 07.12.2021
5013 Clouds -26 1019 84 10000 3 240 10:56 07.12.2021
5014 Clouds -26 1019 75 10000 3.13 240 09:20 07.12.2021
5015 Clouds -35 1019 75 10000 3 270 07:35 07.12.2021
5016 Clear -37 1018 74 10000 3 270 05:51 07.12.2021
5017 Clear -37 1018 67 10000 2 290 03:25 07.12.2021
5018 Clear -35 1016 75 10000 1 290 23:24 06.12.2021
5019 Clear -34 1016 68 10000 1 320 22:40 06.12.2021
5020 Clear -34 1016 75 10000 1 340 21:59 06.12.2021
5021 Clear -34 1016 75 10000 2 320 21:31 06.12.2021
5022 Clear -33 1016 68 10000 1 0 20:32 06.12.2021
5023 Clouds -33 1016 75 10000 1 0 19:24 06.12.2021
5024 Clouds -32 1016 75 10000 1 340 18:40 06.12.2021
5025 Clouds -32 1016 75 10000 1 0 17:54 06.12.2021
5026 Clouds -32 1016 68 10000 1 0 17:33 06.12.2021
5027 Clouds -32 1016 68 10000 1 0 15:51 06.12.2021
5028 Clouds -32 1017 75 10000 2 290 14:38 06.12.2021
5029 Clouds -32 1016 68 10000 0 0 13:23 06.12.2021
5030 Clear -32 1016 75 10000 2 330 12:37 06.12.2021
5031 Clear -31 1016 76 10000 2 320 09:56 06.12.2021
5032 Clear -31 1016 76 10000 2 340 07:40 06.12.2021
5033 Clear -30 1015 76 10000 3 320 02:26 06.12.2021
5034 Clouds -24 1012 77 10000 3 10 22:25 05.12.2021
5035 Clouds -23 1012 77 10000 4 360 21:25 05.12.2021
5036 Snow -22 1012 76 9000 3.13 10 20:43 05.12.2021
5037 Snow -22 1011 76 9000 3.13 10 20:18 05.12.2021
5038 Clouds -23 1011 77 10000 2 360 19:23 05.12.2021
5039 Clouds -22 1011 77 10000 3 40 18:28 05.12.2021
5040 Clouds -21 1011 76 10000 3.13 30 17:49 05.12.2021
5041 Clouds -21 1010 76 10000 4.02 40 17:18 05.12.2021
5042 Clouds -21 1010 76 10000 1.79 10 16:28 05.12.2021
5043 Clouds -21 1010 76 10000 1.79 30 15:59 05.12.2021
5044 Clouds -20 1009 77 10000 5 50 14:48 05.12.2021
5045 Clouds -19 1009 77 10000 4.92 60 14:29 05.12.2021
5046 Clouds -19 1009 77 10000 3.13 50 13:32 05.12.2021
5047 Snow -19 1009 77 7000 4.02 50 12:42 05.12.2021
5048 Snow -19 1008 78 7000 5 70 12:23 05.12.2021
5049 Snow -18 1008 78 10000 5 60 11:41 05.12.2021
5050 Snow -18 1007 77 10000 4.92 60 10:24 05.12.2021
5051 Snow -18 1007 77 1900 5.81 70 09:35 05.12.2021
5052 Snow -18 1008 77 2000 7.15 80 04:57 05.12.2021
5053 Snow -19 1011 77 1000 7.15 90 01:23 05.12.2021
5054 Snow -19 1014 77 2800 4.02 80 22:42 04.12.2021
5055 Snow -20 1016 84 7000 4 70 21:37 04.12.2021
5056 Snow -20 1016 84 10000 2 70 20:46 04.12.2021
5057 Clear -20 1016 84 10000 2 50 19:43 04.12.2021
5058 Clouds -19 1016 77 10000 1.79 10 19:23 04.12.2021
5059 Clouds -17 1016 84 10000 1.79 340 17:52 04.12.2021
5060 Snow -16 1016 84 10000 1.79 270 17:22 04.12.2021
5061 Snow -15 1016 84 9000 1.79 300 16:46 04.12.2021
5062 Snow -15 1016 84 9000 3.13 300 16:27 04.12.2021
5063 Snow -11 1013 85 1800 1.79 330 12:44 04.12.2021
5064 Snow -11 1013 92 3000 1.79 280 11:39 04.12.2021
5065 Snow -11 1012 92 7000 1.79 280 10:59 04.12.2021
5066 Snow -11 1011 85 8000 1.79 280 09:42 04.12.2021
5067 Snow -10 1010 85 8000 4.02 300 08:29 04.12.2021
5068 Clouds -7 1006 86 10000 7 280 04:43 04.12.2021
5069 Snow -6 1002 92 7000 5.81 250 00:56 04.12.2021
5070 Snow -5 1000 92 6000 4.92 250 23:43 03.12.2021
5071 Snow -5 1000 92 5000 4.92 270 22:53 03.12.2021
5072 Snow -5 999 92 6000 7.15 270 21:57 03.12.2021
5073 Snow -5 999 92 7000 7.15 260 21:23 03.12.2021
5074 Snow -5 999 92 6000 5.81 260 20:42 03.12.2021
5075 Snow -5 997 92 3000 3.13 250 19:28 03.12.2021
5076 Snow -6 997 92 2600 3.13 230 18:23 03.12.2021
5077 Snow -6 996 85 7000 3.13 250 17:31 03.12.2021
5078 Clouds -6 995 85 10000 5.81 260 13:40 03.12.2021
5079 Clouds -6 994 92 10000 7.15 260 12:44 03.12.2021
5080 Snow -6 993 93 7000 5 240 11:23 03.12.2021
5081 Snow -8 993 92 4600 4.02 230 09:22 03.12.2021
5082 Snow -8 993 85 7000 7.15 250 08:18 03.12.2021
5083 Clear -9 993 78 10000 7.15 260 06:44 03.12.2021
5084 Snow 0 987 100 3100 4.02 240 00:50 03.12.2021
5085 Snow 0 987 100 8000 4.92 240 00:21 03.12.2021
5086 Snow 0 987 100 10000 4.92 230 23:38 02.12.2021
5087 Snow 0 987 100 5000 4.02 220 21:41 02.12.2021
5088 Snow 0 988 92 3200 4.02 210 20:46 02.12.2021
5089 Snow 0 988 92 1500 4.92 220 20:26 02.12.2021
5090 Snow 0 988 92 3900 4.02 210 19:23 02.12.2021
5091 Snow 0 989 92 1300 4.92 210 17:30 02.12.2021
5092 Snow 0 990 92 10000 4.92 200 15:41 02.12.2021
5093 Snow 0 990 92 8000 5.81 200 14:57 02.12.2021
5094 Clouds 1 991 86 8000 4.92 200 13:45 02.12.2021
5095 Clouds 1 992 86 10000 4.92 200 12:52 02.12.2021
5096 Clouds 1 992 86 10000 4.92 200 11:53 02.12.2021
5097 Rain 2 993 86 9000 5.81 200 09:28 02.12.2021
5098 Clear 3 994 69 10000 5.81 210 08:20 02.12.2021
5099 Mist 0 1000 100 3600 4.02 170 01:59 02.12.2021
5100 Mist 0 1000 100 2500 4.02 170 00:50 02.12.2021
5101 Mist 0 1003 92 2700 4.02 190 22:34 01.12.2021
5102 Mist -1 1002 100 1900 4.02 180 21:55 01.12.2021
5103 Fog -1 1003 100 900 3.13 180 20:35 01.12.2021
5104 Mist -1 1004 100 2900 3.13 200 19:51 01.12.2021
5105 Mist -1 1004 92 2400 3.13 200 18:57 01.12.2021
5106 Mist -1 1004 92 3200 4.02 200 17:39 01.12.2021
5107 Clouds -1 1004 92 10000 4.02 200 16:38 01.12.2021
5108 Snow -1 1004 92 9000 4.02 210 14:48 01.12.2021
5109 Clouds -1 1005 92 10000 4.02 220 13:38 01.12.2021
5110 Clouds 0 1004 86 10000 4.92 220 11:34 01.12.2021
5111 Clouds 0 1004 92 10000 5.81 210 10:41 01.12.2021
5112 Clouds 0 1003 92 8000 5.81 220 08:54 01.12.2021
5113 Mist 0 1003 92 4700 5.81 220 08:26 01.12.2021
5114 Mist -1 1003 100 4000 4.02 220 07:32 01.12.2021
5115 Snow -9 1004 92 1200 6 130 04:18 01.12.2021
5116 Snow -12 1006 92 2400 6 120 03:38 01.12.2021
5117 Snow -14 1010 85 1100 7 120 00:48 01.12.2021
5118 Snow -16 1014 84 1500 7.15 110 23:35 30.11.2021
5119 Snow -16 1015 77 2200 7.15 110 22:42 30.11.2021
5120 Snow -17 1017 77 1700 5.81 100 20:53 30.11.2021
5121 Snow -17 1017 77 1000 7.15 90 20:34 30.11.2021
5122 Snow -17 1017 77 1600 7.15 100 19:51 30.11.2021
5123 Snow -17 1018 77 1400 4.92 90 19:24 30.11.2021
5124 Clear -16 1017 71 10000 4.92 80 17:57 30.11.2021
5125 Clear -16 1017 77 10000 4.02 50 16:25 30.11.2021
5126 Clear -15 1017 72 10000 3 350 14:35 30.11.2021
5127 Clouds -14 1017 78 10000 6 10 13:52 30.11.2021
5128 Clouds -11 1016 79 10000 5 350 13:23 30.11.2021
5129 Clouds -10 1016 79 10000 4 360 12:44 30.11.2021
5130 Clouds -8 1014 86 10000 6 350 11:26 30.11.2021
5131 Clouds -2 1012 86 10000 5 270 10:37 30.11.2021
5132 Clouds -2 1012 86 10000 5 260 09:44 30.11.2021
5133 Clouds -2 1012 86 10000 6 260 08:48 30.11.2021
5134 Snow -3 1011 92 10000 4.92 250 08:19 30.11.2021
5135 Snow -3 1011 92 10000 5.81 260 07:35 30.11.2021
5136 Clouds -3 1010 86 10000 4.02 240 01:52 30.11.2021
5137 Clouds -3 1010 86 10000 4.92 250 01:31 30.11.2021
5138 Clouds -3 1010 86 10000 4.92 240 23:55 29.11.2021
5139 Clouds -3 1010 79 10000 4.92 240 23:20 29.11.2021
5140 Clouds -3 1010 79 10000 5.81 240 22:44 29.11.2021
5141 Clouds -3 1009 79 10000 4.92 240 22:25 29.11.2021
5142 Clouds -3 1009 79 10000 4.92 240 21:21 29.11.2021
5143 Clouds -3 1009 79 10000 5.81 240 20:56 29.11.2021
5144 Clouds -4 1009 85 10000 5.81 230 20:22 29.11.2021
5145 Clouds -4 1009 79 10000 4.92 230 19:44 29.11.2021
5146 Clouds -4 1009 79 10000 4.92 230 19:44 29.11.2021
5147 Clouds -4 1010 79 10000 4.92 240 19:26 29.11.2021
5148 Clouds -3 1011 94 1650 6.06 243 18:47 29.11.2021
5149 Clouds -4 1011 93 2434 6.5 243 17:22 29.11.2021
5150 Clouds -4 1011 93 2434 6.5 243 16:56 29.11.2021
5151 Clouds -5 1011 92 3792 6.55 236 16:25 29.11.2021
5152 Clouds -5 1011 91 6451 6.55 234 15:24 29.11.2021
5153 Clouds -5 1011 91 6451 6.55 234 14:41 29.11.2021
5154 Clouds -5 1011 90 10000 6.11 225 13:25 29.11.2021
5155 Clouds -5 1012 89 10000 6.32 221 12:20 29.11.2021
5156 Clouds -5 1012 89 10000 6.32 221 11:31 29.11.2021
5157 Clouds -4 1012 84 10000 6.59 221 10:27 29.11.2021
5158 Snow -6 1012 93 1200 6 200 08:30 29.11.2021
5159 Clear -5 1013 80 10000 5 190 05:54 29.11.2021
5160 Snow -3 1016 93 10000 3 200 01:31 29.11.2021
5161 Snow -5 1017 100 9000 1 0 00:35 29.11.2021
5162 Snow -6 1017 93 9000 2 120 23:41 28.11.2021
5163 Snow -8 1018 100 4100 2 110 22:29 28.11.2021
5164 Snow -9 1019 92 4500 3 120 21:41 28.11.2021
5165 Snow -9 1020 92 10000 3 120 20:44 28.11.2021
5166 Snow -10 1021 85 10000 3 120 19:54 28.11.2021
5167 Snow -11 1022 92 9000 4 120 18:42 28.11.2021
5168 Snow -11 1022 92 9000 4 120 18:23 28.11.2021
5169 Snow -11 1022 92 10000 4 110 17:46 28.11.2021
5170 Snow -11 1022 92 10000 3 110 17:18 28.11.2021
5171 Clouds -11 1023 92 10000 3 100 16:28 28.11.2021
5172 Clouds -11 1023 85 10000 2 90 15:51 28.11.2021
5173 Clear -12 1022 92 10000 2 80 14:56 28.11.2021
5174 Clouds -11 1022 85 10000 2 20 14:29 28.11.2021
5175 Clear -12 1022 92 10000 1 290 12:54 28.11.2021
5176 Clear -10 1022 85 10000 2 290 11:51 28.11.2021
5177 Clear -8 1021 86 10000 5 290 10:37 28.11.2021
5178 Clear -8 1021 86 10000 5 290 10:18 28.11.2021
5179 Clouds -7 1020 86 10000 6 290 09:36 28.11.2021
5180 Snow -1 1014 100 3700 8 260 05:23 28.11.2021
5181 Snow 0 1009 100 7000 6 250 22:58 27.11.2021
5182 Snow 0 1007 93 10000 7 250 20:28 27.11.2021
5183 Snow -1 1007 100 2100 5 240 18:44 27.11.2021
5184 Snow -2 1006 100 10000 5 240 16:19 27.11.2021
5185 Snow -2 1006 93 7000 4 230 15:32 27.11.2021
5186 Snow -5 1005 100 10000 5 220 13:41 27.11.2021
5187 Snow -6 1005 100 9000 3 210 12:27 27.11.2021
5188 Snow -9 1006 100 8000 3 180 10:30 27.11.2021
5189 Snow -10 1006 100 3400 3 170 09:25 27.11.2021
5190 Snow -12 1007 100 2200 4 170 07:44 27.11.2021
5191 Snow -14 1010 85 3300 4 160 04:55 27.11.2021
5192 Clear -17 1014 85 10000 3 170 00:31 27.11.2021
5193 Clouds -18 1015 85 10000 2 190 23:29 26.11.2021
5194 Clear -18 1015 85 10000 2 200 22:25 26.11.2021
5195 Clear -18 1015 78 10000 2 220 21:34 26.11.2021
5196 Clear -18 1015 78 10000 2 220 21:34 26.11.2021
5197 Clear -19 1015 84 10000 3 230 20:45 26.11.2021
5198 Clear -18 1015 85 10000 3 230 19:56 26.11.2021
5199 Clear -18 1015 85 10000 3 230 19:28 26.11.2021
5200 Clouds -16 1014 85 10000 4 240 17:55 26.11.2021
5201 Snow -16 1014 85 6000 5 250 17:21 26.11.2021
5202 Snow -15 1013 85 8000 5 250 15:46 26.11.2021
5203 Snow -15 1012 85 6000 4 240 13:35 26.11.2021
5204 Snow -15 1011 85 8000 5 240 12:30 26.11.2021
5205 Snow -14 1010 85 8000 4 230 10:37 26.11.2021
5206 Snow -15 1009 85 10000 4 220 08:58 26.11.2021
5207 Snow -15 1009 85 10000 4 210 08:21 26.11.2021
5208 Snow -17 1009 85 9000 3 190 07:26 26.11.2021
5209 Snow -18 1009 85 9000 4 200 06:26 26.11.2021
5210 Clear -20 1008 77 10000 3 210 03:59 26.11.2021
5211 Clear -21 1008 84 10000 2 220 01:55 26.11.2021
5212 Clear -20 1007 77 10000 3 240 23:18 25.11.2021
5213 Clear -21 1006 84 10000 2 230 21:26 25.11.2021
5214 Clear -20 1005 84 10000 3 250 20:27 25.11.2021
5215 Clear -20 1005 84 10000 3 250 18:47 25.11.2021
5216 Clear -19 1004 78 10000 3 250 17:48 25.11.2021
5217 Clear -19 1004 84 10000 4 250 17:25 25.11.2021
5218 Clouds -19 1004 84 10000 3 250 16:33 25.11.2021
5219 Clear -19 1003 78 10000 3 230 15:33 25.11.2021
5220 Clouds -19 1003 84 10000 3 240 13:50 25.11.2021
5221 Clear -19 1003 84 10000 3 240 12:27 25.11.2021
5222 Clouds -19 1003 84 10000 3 230 11:50 25.11.2021
5223 Clear -18 1002 78 10000 3 250 09:28 25.11.2021
5224 Snow -19 1001 84 10000 4 230 06:22 25.11.2021
5225 Clouds -20 1001 84 10000 3 220 02:50 25.11.2021
5226 Clear -20 1000 77 10000 3 220 23:28 24.11.2021
5227 Clear -20 1000 84 10000 3 210 22:25 24.11.2021
5228 Clear -20 1000 84 10000 3 210 21:37 24.11.2021
5229 Clear -20 1000 84 10000 3 220 20:53 24.11.2021
5230 Clear -19 1000 78 10000 4 230 20:26 24.11.2021
5231 Clear -19 999 84 10000 4 240 18:31 24.11.2021
5232 Clear -19 999 84 10000 4 240 17:58 24.11.2021
5233 Clouds -17 999 78 10000 5 240 15:47 24.11.2021
5234 Clear -17 999 85 10000 3 230 14:53 24.11.2021
5235 Clear -18 999 85 10000 4 230 14:20 24.11.2021
5236 Clear -17 999 85 10000 3 230 12:50 24.11.2021
5237 Clear -17 998 85 10000 3 230 11:22 24.11.2021
5238 Clear -17 998 85 10000 3 230 10:49 24.11.2021
5239 Clear -16 997 78 10000 4 240 10:26 24.11.2021
5240 Clear -16 996 92 10000 4 240 07:55 24.11.2021
5241 Clouds -16 996 92 10000 4 230 06:55 24.11.2021
5242 Clouds -18 994 92 10000 5 250 03:55 24.11.2021
5243 Clouds -14 992 92 10000 6 260 00:53 24.11.2021
5244 Snow -12 990 92 6000 3 220 22:40 23.11.2021
5245 Snow -12 990 92 6000 3 220 22:20 23.11.2021
5246 Snow -13 990 100 3600 4 220 21:44 23.11.2021
5247 Snow -13 989 100 10000 3 230 20:19 23.11.2021
5248 Snow -12 988 100 5000 3 240 18:43 23.11.2021
5249 Snow -12 988 100 5000 3 240 18:22 23.11.2021
5250 Snow -11 988 92 10000 5 250 17:19 23.11.2021
5251 Snow -11 987 92 7000 5 250 16:34 23.11.2021
5252 Snow -11 987 92 5000 4 240 15:23 23.11.2021
5253 Snow -11 986 100 8000 5 250 14:26 23.11.2021
5254 Snow -9 985 92 8000 2 230 11:48 23.11.2021
5255 Snow -9 984 92 9000 3 240 10:22 23.11.2021
5256 Snow -8 983 93 2500 3 240 09:22 23.11.2021
5257 Snow -7 982 100 3600 5 240 06:46 23.11.2021
5258 Snow -7 981 100 3200 6 230 03:54 23.11.2021
5259 Snow -6 981 93 2700 4 210 02:58 23.11.2021
5260 Snow -8 980 100 8000 3 210 23:21 22.11.2021
5261 Snow -8 980 93 5000 3 220 22:53 22.11.2021
5262 Snow -8 980 93 5000 3 210 22:27 22.11.2021
5263 Snow -9 980 100 6000 3 220 21:43 22.11.2021
5264 Snow -9 980 100 3500 3 220 20:52 22.11.2021
5265 Snow -9 979 92 7000 3 220 19:58 22.11.2021
5266 Snow -9 979 92 6000 3 220 19:19 22.11.2021
5267 Snow -9 979 92 5000 3 220 18:40 22.11.2021
5268 Snow -10 979 100 6000 3 220 17:45 22.11.2021
5269 Snow -10 979 100 2300 2 210 16:22 22.11.2021
5270 Snow -10 980 100 1300 3 160 14:20 22.11.2021
5271 Snow -10 980 100 1600 3 150 12:26 22.11.2021
5272 Snow -10 981 100 8000 3 160 10:43 22.11.2021
5273 Snow -10 982 100 10000 4 160 09:48 22.11.2021
5274 Snow -10 982 100 10000 5 160 08:40 22.11.2021
5275 Clouds -10 984 100 10000 5 140 06:22 22.11.2021
5276 Clear -8 990 93 10000 6 160 23:35 21.11.2021
5277 Clear -8 990 93 10000 5 160 22:51 21.11.2021
5278 Clear -8 991 93 10000 5 160 22:18 21.11.2021
5279 Clear -8 993 93 10000 5 160 20:42 21.11.2021
5280 Clear -7 993 93 10000 6 160 19:59 21.11.2021
5281 Clear -7 994 93 10000 5 160 18:25 21.11.2021
5282 Clear -7 995 93 10000 5 160 17:39 21.11.2021
5283 Clear -7 995 93 10000 5 160 16:42 21.11.2021
5284 Clouds -7 997 93 10000 5 160 14:46 21.11.2021
5285 Snow -7 998 100 6000 5 150 13:47 21.11.2021
5286 Snow -7 999 100 2400 5 160 12:38 21.11.2021
5287 Clouds -7 999 93 10000 5 160 11:57 21.11.2021
5288 Clouds -7 1000 93 10000 4 170 11:35 21.11.2021
5289 Clouds -7 1000 93 10000 5 190 10:19 21.11.2021
5290 Clouds -7 1001 93 10000 5 190 08:56 21.11.2021
5291 Clouds -7 1001 93 10000 5 190 08:26 21.11.2021
5292 Clouds -7 1001 93 10000 5 190 07:49 21.11.2021
5293 Snow -8 1001 100 8000 4 200 06:18 21.11.2021
5294 Snow -8 1001 100 9000 5 200 05:26 21.11.2021
5295 Clouds -7 1001 100 10000 6 190 03:19 21.11.2021
5296 Snow -6 1001 100 2000 3 180 02:52 21.11.2021
5297 Snow -5 1002 100 3300 4 180 00:59 21.11.2021
5298 Snow -5 1002 100 2100 3 170 23:59 20.11.2021
5299 Snow -5 1003 100 2600 3 160 21:49 20.11.2021
5300 Snow -5 1004 100 3600 3 160 21:28 20.11.2021
5301 Snow -6 1005 100 3400 3 160 19:23 20.11.2021
5302 Snow -6 1005 100 7000 3 160 18:45 20.11.2021
5303 Snow -5 1005 100 4300 2 170 18:19 20.11.2021
5304 Snow -6 1005 100 4300 3 170 17:18 20.11.2021
5305 Snow -8 1006 93 9000 3 150 14:49 20.11.2021
5306 Snow -9 1006 92 3900 3 150 14:28 20.11.2021
5307 Snow -9 1007 92 2700 4 150 13:32 20.11.2021
5308 Snow -11 1008 92 10000 4 150 11:20 20.11.2021
5309 Snow -13 1009 92 2900 4 150 09:53 20.11.2021
5310 Snow -14 1009 92 4000 4 150 08:25 20.11.2021
5311 Snow -15 1011 92 2400 6 140 05:29 20.11.2021
5312 Snow -16 1011 92 3100 5 140 04:51 20.11.2021
5313 Snow -16 1012 92 1200 5 140 03:24 20.11.2021
5314 Clouds -19 1015 84 7000 5 140 00:42 20.11.2021
5315 Clouds -21 1016 84 9000 4 150 23:44 19.11.2021
5316 Clouds -22 1016 84 10000 3 140 22:52 19.11.2021
5317 Clouds -23 1017 92 10000 3 130 21:22 19.11.2021
5318 Clouds -23 1018 84 10000 3 120 20:37 19.11.2021
5319 Mist -24 1018 84 4400 2 150 19:56 19.11.2021
5320 Clouds -25 1018 84 10000 2 110 19:34 19.11.2021
5321 Clouds -27 1018 91 10000 3 90 18:43 19.11.2021
5322 Clouds -30 1019 83 10000 2 90 17:39 19.11.2021
5323 Clear -29 1019 83 10000 0 0 16:22 19.11.2021
5324 Clear -27 1019 83 10000 0 0 14:19 19.11.2021
5325 Clear -24 1018 84 10000 3 270 10:52 19.11.2021
5326 Clear -24 1018 84 10000 3 280 10:23 19.11.2021
5327 Clear -25 1017 84 10000 4 280 08:32 19.11.2021
5328 Clear -27 1015 91 10000 3 280 04:55 19.11.2021
5329 Clear -26 1015 84 10000 4 280 03:19 19.11.2021
5330 Clouds -23 1013 84 10000 4 280 23:53 18.11.2021
5331 Clouds -22 1013 84 10000 4 290 22:43 18.11.2021
5332 Clear -22 1012 84 10000 5 290 20:56 18.11.2021
5333 Clear -22 1011 84 10000 5 290 20:37 18.11.2021
5334 Clear -22 1011 84 10000 5 290 20:18 18.11.2021
5335 Clear -22 1011 92 10000 4 290 19:36 18.11.2021
5336 Snow -21 1010 92 10000 5 290 18:35 18.11.2021
5337 Snow -21 1010 92 7000 4 290 17:52 18.11.2021
5338 Snow -20 1010 92 6000 6 300 16:46 18.11.2021
5339 Snow -19 1009 84 5000 6 300 15:52 18.11.2021
5340 Snow -20 1008 92 9000 5 290 14:40 18.11.2021
5341 Snow -19 1007 92 7000 5 300 12:55 18.11.2021
5342 Snow -19 1007 92 8000 6 290 11:44 18.11.2021
5343 Snow -18 1006 85 2900 6 290 11:25 18.11.2021
5344 Snow -19 1006 92 10000 6 290 10:22 18.11.2021
5345 Snow -18 1004 85 9000 7 300 08:26 18.11.2021
5346 Snow -20 1003 92 5000 4 280 06:40 18.11.2021
5347 Snow -20 1003 84 9000 3 280 05:44 18.11.2021
5348 Clouds -24 1002 84 10000 4 280 01:25 18.11.2021
5349 Clear -24 1001 92 10000 3 280 23:35 17.11.2021
5350 Clouds -24 1001 92 10000 4 280 22:39 17.11.2021
5351 Clouds -24 1001 92 10000 4 280 22:19 17.11.2021
5352 Clear -23 1001 84 10000 4 280 21:35 17.11.2021
5353 Clear -23 1000 92 10000 4 280 19:42 17.11.2021
5354 Clear -20 1000 84 10000 5 300 17:35 17.11.2021
5355 Clear -19 999 92 10000 6 310 15:55 17.11.2021
5356 Snow -13 997 92 8000 5 310 13:19 17.11.2021
5357 Snow -11 996 92 2700 6 300 12:37 17.11.2021
5358 Snow -9 995 92 6000 3 240 10:54 17.11.2021
5359 Snow -9 995 92 2500 3 220 09:38 17.11.2021
5360 Snow -9 995 92 3900 4 220 07:56 17.11.2021
5361 Snow -9 995 92 2700 4 220 07:37 17.11.2021
5362 Snow -10 995 92 2200 4 200 02:49 17.11.2021
5363 Snow -10 997 92 3500 4 200 00:34 17.11.2021
5364 Snow -11 998 100 1900 4 200 22:31 16.11.2021
5365 Snow -11 999 100 2200 5 210 20:19 16.11.2021
5366 Snow -11 1000 100 2700 5 220 19:39 16.11.2021
5367 Snow -11 1000 100 1900 5 220 18:49 16.11.2021
5368 Snow -11 1000 100 1500 6 220 18:28 16.11.2021
5369 Snow -11 1001 100 2000 6 220 17:18 16.11.2021
5370 Snow -11 1001 100 2800 6 220 16:20 16.11.2021
5371 Snow -11 1002 100 1900 5 220 15:43 16.11.2021
5372 Snow -10 1002 92 7000 6 220 13:47 16.11.2021
5373 Snow -10 1004 100 1700 6 230 10:27 16.11.2021
5374 Snow -10 1005 100 2900 5 220 09:42 16.11.2021
5375 Snow -10 1006 100 6000 5 230 07:53 16.11.2021
5376 Snow -10 1006 92 10000 5 250 07:28 16.11.2021
5377 Snow -11 1008 100 10000 3 250 23:53 15.11.2021
5378 Snow -11 1008 100 2400 3 250 22:41 15.11.2021
5379 Snow -11 1008 100 2400 3 250 22:19 15.11.2021
5380 Snow -11 1009 100 6000 3 240 21:31 15.11.2021
5381 Snow -11 1009 92 9000 3 240 20:59 15.11.2021
5382 Snow -11 1009 92 5000 3 230 19:26 15.11.2021
5383 Snow -12 1010 100 10000 2 240 17:35 15.11.2021
5384 Snow -13 1010 92 10000 2 200 15:55 15.11.2021
5385 Snow -13 1010 92 8000 2 190 15:36 15.11.2021
5386 Mist -13 1011 92 3700 2 200 14:32 15.11.2021
5387 Clouds -14 1012 92 10000 2 190 12:38 15.11.2021
5388 Clouds -16 1012 92 10000 2 220 10:33 15.11.2021
5389 Clouds -16 1013 92 10000 1 0 09:22 15.11.2021
5390 Clouds -16 1013 92 10000 1 0 07:23 15.11.2021
5391 Clear -18 1012 92 10000 2 280 02:34 15.11.2021
5392 Fog -18 1011 92 350 1 0 22:45 14.11.2021
5393 Clouds -19 1011 92 10000 0 0 22:19 14.11.2021
5394 Clear -18 1011 85 10000 0 0 19:22 14.11.2021
5395 Clear -18 1011 92 10000 0 0 18:55 14.11.2021
5396 Clear -18 1011 92 10000 1 180 18:36 14.11.2021
5397 Clear -18 1011 92 10000 1 180 18:18 14.11.2021
5398 Clear -17 1011 92 10000 1 0 17:58 14.11.2021
5399 Clear -17 1011 92 10000 1 0 17:40 14.11.2021
5400 Clear -17 1011 92 10000 1 0 17:22 14.11.2021
5401 Clear -16 1011 92 10000 1 0 16:58 14.11.2021
5402 Clear -16 1010 92 10000 1 0 16:40 14.11.2021
5403 Clear -16 1010 92 10000 1 0 16:18 14.11.2021
5404 Clear -15 1010 92 10000 1 0 15:20 14.11.2021
5405 Clear -14 1010 92 10000 1 0 14:45 14.11.2021
5406 Clear -14 1010 92 10000 2 30 14:22 14.11.2021
5407 Clear -14 1009 100 10000 3 10 13:52 14.11.2021
5408 Clear -13 1009 92 10000 3 330 13:27 14.11.2021
5409 Clear -12 1009 100 10000 3 10 12:23 14.11.2021
5410 Clear -11 1008 92 10000 2 10 11:25 14.11.2021
5411 Clear -11 1008 100 10000 2 50 10:38 14.11.2021
5412 Clear -10 1007 92 10000 3 50 09:41 14.11.2021
5413 Clear -10 1007 92 10000 3 50 08:51 14.11.2021
5414 Clouds -12 1006 92 10000 2 50 04:47 14.11.2021
5415 Clear -14 1005 92 10000 1 0 23:20 13.11.2021
5416 Clear -13 1005 92 10000 2 330 22:20 13.11.2021
5417 Clouds -14 1005 92 10000 1 230 21:36 13.11.2021
5418 Clear -12 1004 92 10000 1 260 20:46 13.11.2021
5419 Clear -12 1004 100 10000 2 340 19:32 13.11.2021
5420 Clear -13 1003 92 10000 2 290 18:32 13.11.2021
5421 Clear -12 1003 100 10000 3 290 17:41 13.11.2021
5422 Clear -9 1002 92 10000 3 290 15:55 13.11.2021
5423 Clear -7 1001 93 10000 3 310 14:45 13.11.2021
5424 Snow -5 1000 93 10000 5 320 13:47 13.11.2021
5425 Snow -5 999 100 2200 5 300 12:43 13.11.2021
5426 Snow -3 999 100 1200 9 300 11:51 13.11.2021
5427 Snow -1 997 100 8000 7 240 11:22 13.11.2021
5428 Snow -1 997 100 4900 6 250 10:34 13.11.2021
5429 Snow -1 997 100 3600 6 250 09:47 13.11.2021
5430 Snow -1 997 93 2400 6 240 09:28 13.11.2021
5431 Snow -2 997 100 2300 6 240 08:49 13.11.2021
5432 Snow -2 997 100 4800 6 240 07:51 13.11.2021
5433 Snow -5 997 100 2400 4 200 04:43 13.11.2021
5434 Snow -5 997 100 1500 4 200 04:20 13.11.2021
5435 Snow -9 999 100 10000 4 190 23:35 12.11.2021
5436 Snow -9 999 100 10000 4 190 22:34 12.11.2021
5437 Clouds -9 1000 92 10000 5 190 20:49 12.11.2021
5438 Snow -10 1001 100 4300 6 180 19:33 12.11.2021
5439 Snow -10 1001 92 3700 5 190 18:59 12.11.2021
5440 Snow -10 1002 92 3200 6 180 18:20 12.11.2021
5441 Snow -11 1003 92 1600 6 190 16:18 12.11.2021
5442 Clouds -12 1005 92 10000 5 180 13:46 12.11.2021
5443 Clouds -12 1006 85 10000 4 170 11:31 12.11.2021
5444 Clouds -13 1006 92 10000 4 160 10:43 12.11.2021
5445 Clouds -13 1008 92 10000 5 160 08:59 12.11.2021
5446 Clouds -13 1008 92 10000 5 160 08:29 12.11.2021
5447 Clouds -13 1015 92 10000 6 180 00:37 12.11.2021
5448 Snow -13 1015 92 10000 5 180 23:30 11.11.2021
5449 Snow -13 1016 92 8000 4 170 22:27 11.11.2021
5450 Snow -14 1017 100 10000 6 180 21:26 11.11.2021
5451 Snow -13 1018 92 10000 5 190 20:18 11.11.2021
5452 Snow -13 1019 100 10000 3 190 18:42 11.11.2021
5453 Snow -14 1019 100 8000 3 200 17:42 11.11.2021
5454 Snow -13 1019 92 10000 2 210 16:24 11.11.2021
5455 Snow -13 1020 92 10000 3 220 14:44 11.11.2021
5456 Snow -13 1020 92 8000 3 240 14:25 11.11.2021
5457 Clouds -13 1020 92 10000 3 280 13:36 11.11.2021
5458 Snow -13 1020 92 10000 4 280 12:30 11.11.2021
5459 Snow -13 1020 92 10000 3 300 10:24 11.11.2021
5460 Snow -13 1020 92 8000 4 290 09:23 11.11.2021
5461 Snow -14 1019 92 8000 5 320 07:35 11.11.2021
5462 Snow -14 1015 92 3600 5 350 00:43 11.11.2021
5463 Snow -13 1013 92 6000 6 350 22:46 10.11.2021
5464 Snow -12 1012 92 4300 6 340 21:56 10.11.2021
5465 Snow -11 1012 92 6000 6 340 21:18 10.11.2021
5466 Snow -11 1011 92 10000 6 340 20:35 10.11.2021
5467 Snow -11 1010 100 10000 5 350 19:46 10.11.2021
5468 Snow -7 1007 100 10000 5 350 17:39 10.11.2021
5469 Clouds -6 1006 100 10000 5 360 16:21 10.11.2021
5470 Clouds -6 1004 100 10000 5 360 14:25 10.11.2021
5471 Clouds -5 1003 100 10000 5 360 13:40 10.11.2021
5472 Snow -3 1003 100 9000 5 340 12:39 10.11.2021
5473 Snow 0 1001 100 9000 3 290 10:20 10.11.2021
5474 Snow 1 1001 100 7000 3 280 08:45 10.11.2021
5475 Snow 1 1000 100 3800 2 240 07:22 10.11.2021
5476 Snow 1 1000 100 4400 3 230 05:59 10.11.2021
5477 Snow 1 1000 100 9000 3 240 04:59 10.11.2021
5478 Snow 0 1000 100 4500 4 220 22:45 09.11.2021
5479 Snow 0 1000 100 8000 4 200 21:46 09.11.2021
5480 Snow 0 1000 100 5000 4 200 20:20 09.11.2021
5481 Snow 0 1001 100 1600 4 190 18:59 09.11.2021
5482 Snow 1 1003 100 1700 4 190 17:24 09.11.2021
5483 Rain 1 1004 100 10000 4 170 15:38 09.11.2021
5484 Clouds 1 1006 93 10000 4 160 13:55 09.11.2021
5485 Clear 1 1007 100 10000 4 160 12:50 09.11.2021
5486 Clouds 0 1009 100 10000 4 160 11:34 09.11.2021
5487 Clouds 0 1010 100 10000 4 160 10:41 09.11.2021
5488 Clouds 0 1011 100 10000 5 190 09:22 09.11.2021
5489 Snow 0 1012 100 3800 4 190 08:18 09.11.2021
5490 Snow -1 1013 100 3300 4 210 05:23 09.11.2021
5491 Clear -1 1013 93 10000 5 220 01:58 09.11.2021
5492 Clear -1 1013 100 10000 5 220 01:39 09.11.2021
5493 Clear 0 1013 93 10000 5 230 23:34 08.11.2021
5494 Clouds 0 1013 93 10000 5 220 22:47 08.11.2021
5495 Clouds 1 1013 93 10000 5 230 21:46 08.11.2021
5496 Clouds 1 1012 100 10000 5 240 20:38 08.11.2021
5497 Clouds 1 1011 93 10000 5 240 19:46 08.11.2021
5498 Snow 1 1010 100 10000 6 240 17:48 08.11.2021
5499 Snow 1 1008 100 10000 7 250 15:58 08.11.2021
5500 Snow 1 1008 100 10000 9 270 14:57 08.11.2021
5501 Rain 1 1007 100 10000 8 260 14:34 08.11.2021
5502 Snow 1 1006 100 10000 8 250 13:22 08.11.2021
5503 Clouds 1 1005 100 10000 7 260 11:56 08.11.2021
5504 Clouds 1 1003 100 9000 7 260 10:50 08.11.2021
5505 Clouds 1 1002 100 10000 6 250 09:31 08.11.2021
5506 Clouds 1 1001 93 10000 7 270 08:52 08.11.2021
5507 Snow 0 999 100 10000 6 250 06:57 08.11.2021
5508 Snow 0 998 100 3600 5 240 03:38 08.11.2021
5509 Snow 0 998 100 3600 5 240 03:19 08.11.2021
5510 Rain 1 999 100 10000 5 220 23:33 07.11.2021
5511 Rain 2 999 93 10000 6 230 21:42 07.11.2021
5512 Clouds 2 999 93 10000 5 230 20:51 07.11.2021
5513 Clouds 2 1000 93 10000 6 240 19:22 07.11.2021
5514 Clouds 2 1000 93 10000 5 240 17:47 07.11.2021
5515 Clouds 2 1000 93 10000 6 240 16:44 07.11.2021
5516 Clouds 2 1000 93 10000 6 240 15:42 07.11.2021
5517 Clouds 2 1000 93 10000 7 240 14:28 07.11.2021
5518 Clouds 1 999 100 10000 8 240 12:57 07.11.2021
5519 Snow 1 999 100 9000 7 240 11:42 07.11.2021
5520 Clouds 1 998 100 10000 7 240 09:22 07.11.2021
5521 Snow 0 999 100 2400 6 230 04:33 07.11.2021
5522 Rain 1 1000 93 10000 5 230 02:28 07.11.2021
5523 Clouds 1 1003 100 10000 7 230 22:57 06.11.2021
5524 Clouds 1 1003 100 10000 7 240 22:29 06.11.2021
5525 Clouds 1 1003 100 10000 7 240 21:28 06.11.2021
5526 Clouds 1 1004 100 10000 7 230 20:32 06.11.2021
5527 Clouds 1 1004 100 10000 8 230 18:56 06.11.2021
5528 Rain 1 1006 100 6000 7 230 16:38 06.11.2021
5529 Rain 1 1008 100 10000 7 210 14:31 06.11.2021
5530 Rain 1 1009 100 8000 7 200 13:38 06.11.2021
5531 Clouds 2 1012 93 10000 6 200 11:25 06.11.2021
5532 Clouds 1 1014 100 10000 5 200 09:21 06.11.2021
5533 Clouds 0 1018 100 10000 4 240 04:55 06.11.2021
5534 Clouds 1 1017 93 10000 5 250 00:58 06.11.2021
5535 Clouds 0 1016 100 10000 5 280 23:33 05.11.2021
5536 Clouds 0 1016 100 10000 5 270 22:33 05.11.2021
5537 Clouds 0 1016 100 10000 5 270 22:33 05.11.2021
5538 Clouds 0 1015 100 10000 6 270 20:42 05.11.2021
5539 Snow 0 1015 100 10000 6 270 20:19 05.11.2021
5540 Snow 0 1014 100 8000 7 260 18:59 05.11.2021
5541 Snow 0 1014 100 6000 7 250 18:38 05.11.2021
5542 Snow 0 1014 100 7000 7 250 16:50 05.11.2021
5543 Snow -1 1014 100 9000 7 250 14:54 05.11.2021
5544 Snow -1 1013 100 1900 8 250 13:33 05.11.2021
5545 Snow 0 1013 93 10000 7 250 09:59 05.11.2021
5546 Clouds 0 1014 93 10000 6 240 08:38 05.11.2021
5547 Clouds 0 1014 93 10000 6 240 07:21 05.11.2021
5548 Clouds -1 1014 100 10000 6 240 04:43 05.11.2021
5549 Clouds -1 1015 100 10000 6 240 02:24 05.11.2021
5550 Clouds -1 1016 100 10000 5 250 00:30 05.11.2021
5551 Clouds -1 1016 100 10000 5 250 22:56 04.11.2021
5552 Snow -1 1016 93 9000 6 240 22:18 04.11.2021
5553 Clouds -2 1016 100 10000 5 240 21:29 04.11.2021
5554 Clouds -2 1017 100 10000 7 240 20:29 04.11.2021
5555 Clouds -2 1017 100 10000 5 240 19:50 04.11.2021
5556 Clouds -2 1017 93 10000 4 240 19:28 04.11.2021
5557 Clouds -2 1018 93 10000 5 240 18:42 04.11.2021
5558 Clouds -2 1018 93 10000 6 240 17:28 04.11.2021
5559 Clouds -2 1019 93 10000 7 240 16:23 04.11.2021
5560 Clouds -2 1019 93 10000 7 240 16:23 04.11.2021
5561 Clouds -3 1020 93 10000 5 240 14:19 04.11.2021
5562 Clouds -5 1021 93 10000 5 230 10:52 04.11.2021
5563 Snow -6 1022 93 9000 5 240 08:58 04.11.2021
5564 Clouds -6 1022 86 10000 5 240 08:28 04.11.2021
5565 Clouds -6 1022 86 10000 6 250 07:33 04.11.2021
5566 Clouds -9 1024 92 10000 5 240 23:43 03.11.2021
5567 Clear -10 1025 92 10000 5 230 22:49 03.11.2021
5568 Clear -11 1026 92 10000 5 230 21:45 03.11.2021
5569 Clear -11 1027 92 10000 6 230 20:45 03.11.2021
5570 Clear -11 1027 92 10000 7 220 20:27 03.11.2021
5571 Clear -11 1028 85 10000 6 230 19:38 03.11.2021
5572 Clear -12 1029 92 10000 6 220 18:47 03.11.2021
5573 Clear -12 1030 85 10000 6 220 17:58 03.11.2021
5574 Clear -13 1031 92 10000 6 210 16:53 03.11.2021
5575 Clear -13 1032 85 10000 5 210 15:52 03.11.2021
5576 Clear -13 1032 85 10000 5 210 15:31 03.11.2021
5577 Clear -14 1034 85 10000 5 220 13:43 03.11.2021
5578 Clear -14 1035 85 10000 4 230 11:38 03.11.2021
5579 Clear -14 1035 85 10000 4 240 10:52 03.11.2021
5580 Clear -14 1036 85 10000 5 250 10:18 03.11.2021
5581 Clear -14 1036 85 10000 5 240 09:27 03.11.2021
5582 Clouds -15 1036 92 10000 4 260 08:20 03.11.2021
5583 Clear -18 1036 92 10000 4 280 07:38 03.11.2021
5584 Clear -24 1036 84 10000 3 280 04:24 03.11.2021
5585 Clear -21 1036 92 10000 4 330 01:42 03.11.2021
5586 Clear -20 1035 92 10000 4 330 23:32 02.11.2021
5587 Clear -20 1034 92 10000 4 330 22:21 02.11.2021
5588 Clear -19 1033 92 10000 4 340 20:48 02.11.2021
5589 Clear -18 1033 85 10000 3 340 20:23 02.11.2021
5590 Clear -18 1033 92 10000 4 350 19:46 02.11.2021
5591 Clear -17 1031 92 10000 3 350 18:36 02.11.2021
5592 Clear -16 1031 92 10000 4 360 17:57 02.11.2021
5593 Clear -16 1031 92 10000 3 350 17:31 02.11.2021
5594 Clouds -14 1030 85 10000 4 10 16:27 02.11.2021
5595 Clouds -13 1028 92 10000 4 10 14:58 02.11.2021
5596 Snow -12 1027 85 7000 3 350 13:44 02.11.2021
5597 Snow -12 1026 92 7000 3 340 13:26 02.11.2021
5598 Mist -12 1026 92 4600 3 330 12:28 02.11.2021
5599 Snow -12 1025 92 3700 4 290 11:28 02.11.2021
5600 Snow -12 1025 92 4400 5 300 10:50 02.11.2021
5601 Snow -12 1024 92 4900 5 290 10:23 02.11.2021
5602 Clouds -14 1024 92 10000 5 300 08:42 02.11.2021
5603 Clear -17 1024 85 10000 3 290 06:42 02.11.2021
5604 Clear -19 1023 84 10000 2 290 03:32 02.11.2021
5605 Clear -19 1022 92 10000 2 290 00:58 02.11.2021
5606 Clear -18 1021 92 10000 3 300 22:28 01.11.2021
5607 Clear -18 1021 92 10000 3 320 20:50 01.11.2021
5608 Clear -17 1021 92 10000 3 330 20:32 01.11.2021
5609 Clear -17 1021 92 10000 3 320 19:44 01.11.2021
5610 Clear -17 1021 92 10000 3 330 18:55 01.11.2021
5611 Clear -18 1021 92 10000 4 320 18:19 01.11.2021
5612 Clear -18 1020 92 10000 3 320 17:18 01.11.2021
5613 Clear -17 1020 92 10000 3 330 16:34 01.11.2021
5614 Clear -17 1020 85 10000 3 330 15:44 01.11.2021
5615 Clear -17 1019 92 10000 3 340 15:19 01.11.2021
5616 Clear -16 1019 92 10000 3 340 14:40 01.11.2021
5617 Clear -16 1019 92 10000 3 340 14:19 01.11.2021
5618 Clear -15 1019 92 10000 3 330 12:53 01.11.2021
5619 Clouds -14 1018 92 10000 4 340 11:40 01.11.2021
5620 Clouds -14 1018 92 10000 4 340 11:40 01.11.2021
5621 Clouds -13 1017 85 10000 4 350 10:22 01.11.2021
5622 Clear -14 1017 92 10000 3 350 08:26 01.11.2021
5623 Clear -14 1017 92 10000 2 350 07:47 01.11.2021
5624 Clear -19 1016 84 10000 1 300 03:55 01.11.2021
5625 Clear -19 1016 84 10000 2 310 03:36 01.11.2021
5626 Clear -20 1016 92 10000 1 0 23:58 31.10.2021
5627 Clear -19 1016 92 10000 2 300 21:26 31.10.2021
5628 Clear -19 1016 92 10000 2 290 20:24 31.10.2021
5629 Clear -18 1016 92 10000 3 290 18:43 31.10.2021
5630 Clear -18 1016 92 10000 3 290 18:21 31.10.2021
5631 Clear -16 1016 92 10000 3 300 16:48 31.10.2021
5632 Clear -16 1016 92 10000 4 290 14:53 31.10.2021
5633 Clouds -15 1016 92 10000 4 290 12:58 31.10.2021
5634 Clouds -13 1015 92 10000 4 290 12:19 31.10.2021
5635 Clouds -12 1015 92 10000 5 300 10:51 31.10.2021
5636 Clouds -12 1014 92 10000 5 300 09:26 31.10.2021
5637 Clouds -12 1014 92 10000 5 310 08:46 31.10.2021
5638 Clear -17 1012 92 10000 2 290 02:59 31.10.2021
5639 Clouds -14 1011 92 10000 2 280 23:43 30.10.2021
5640 Clear -13 1011 92 10000 2 280 21:46 30.10.2021
5641 Clear -13 1011 92 10000 2 290 21:25 30.10.2021
5642 Clear -12 1011 92 10000 2 260 19:40 30.10.2021
5643 Clear -11 1011 92 10000 2 250 17:48 30.10.2021
5644 Clear -9 1011 92 10000 4 240 15:41 30.10.2021
5645 Clear -8 1011 86 10000 5 250 13:59 30.10.2021
5646 Clear -8 1010 93 10000 6 250 13:38 30.10.2021
5647 Clear -8 1010 93 10000 6 250 13:20 30.10.2021
5648 Clear -7 1010 86 10000 7 250 11:49 30.10.2021
5649 Clouds -7 1009 86 10000 7 250 10:44 30.10.2021
5650 Clouds -7 1009 86 10000 6 250 08:56 30.10.2021
5651 Clouds -7 1008 86 10000 9 250 07:55 30.10.2021
5652 Clouds -7 1007 93 10000 9 260 05:46 30.10.2021
5653 Clouds -7 1007 93 10000 9 260 05:46 30.10.2021
5654 Clouds -6 1005 93 10000 9 260 02:59 30.10.2021
5655 Snow -8 1004 100 3000 10 280 23:21 29.10.2021
5656 Snow -7 1003 100 3800 11 280 22:34 29.10.2021
5657 Snow -7 1001 100 2200 11 280 20:59 29.10.2021
5658 Snow -7 1001 100 2300 11 280 20:32 29.10.2021
5659 Snow -7 1000 100 1600 11 270 19:26 29.10.2021
5660 Snow -6 999 93 2100 10 260 17:43 29.10.2021
5661 Snow -6 998 86 1500 8 250 15:42 29.10.2021
5662 Snow -5 997 93 1700 7 230 12:49 29.10.2021
5663 Snow -5 996 93 10000 8 250 10:46 29.10.2021
5664 Clouds -4 996 93 10000 9 260 09:45 29.10.2021
5665 Snow 0 993 100 6000 6 210 02:22 29.10.2021
5666 Snow 0 994 100 8000 5 200 00:30 29.10.2021
5667 Snow 0 995 100 6000 5 200 22:27 28.10.2021
5668 Snow 0 996 100 5000 5 190 20:59 28.10.2021
5669 Snow 0 997 100 4500 5 190 19:56 28.10.2021
5670 Snow 0 997 100 2800 5 200 18:46 28.10.2021
5671 Snow 0 999 93 2200 5 190 17:38 28.10.2021
5672 Snow 0 999 100 2200 6 190 16:38 28.10.2021
5673 Snow 0 1001 100 2700 5 170 14:40 28.10.2021
5674 Snow 0 1001 100 2100 4 170 13:33 28.10.2021
5675 Snow -1 1002 100 2500 5 170 12:49 28.10.2021
5676 Snow -1 1003 100 1900 5 160 11:37 28.10.2021
5677 Snow -2 1005 100 3900 5 160 10:23 28.10.2021
5678 Snow -3 1006 100 1600 5 160 09:37 28.10.2021
5679 Snow -4 1007 100 2100 5 160 08:36 28.10.2021
5680 Snow -4 1008 100 1700 6 140 07:41 28.10.2021
5681 Clear -9 1014 100 10000 2 140 01:48 28.10.2021
5682 Clear -10 1016 100 10000 1 0 22:49 27.10.2021
5683 Clear -11 1016 100 10000 1 230 21:53 27.10.2021
5684 Clear -11 1016 100 10000 0 0 21:20 27.10.2021
5685 Clear -9 1016 92 10000 1 0 20:43 27.10.2021
5686 Clear -8 1016 100 10000 3 240 19:46 27.10.2021
5687 Clear -8 1016 93 10000 3 250 18:56 27.10.2021
5688 Clear -7 1016 86 10000 4 270 17:39 27.10.2021
5689 Clear -6 1016 86 10000 5 260 16:25 27.10.2021
5690 Clear -6 1015 86 10000 5 250 15:24 27.10.2021
5691 Clear -6 1015 86 10000 5 250 15:24 27.10.2021
5692 Clear -6 1014 93 10000 5 260 14:20 27.10.2021
5693 Clouds -5 1013 86 10000 7 250 11:18 27.10.2021
5694 Clouds -5 1012 86 10000 7 250 10:37 27.10.2021
5695 Clouds -5 1012 86 10000 7 250 09:23 27.10.2021
5696 Clouds -6 1011 93 10000 7 250 07:44 27.10.2021
5697 Clouds -6 1010 86 10000 7 250 05:49 27.10.2021
5698 Clear -6 1008 86 10000 6 250 01:24 27.10.2021
5699 Clear -7 1008 93 10000 7 260 00:54 27.10.2021
5700 Clear -7 1007 93 10000 7 270 23:54 26.10.2021
5701 Clear -6 1007 86 10000 8 270 22:47 26.10.2021
5702 Clear -6 1007 86 10000 7 270 22:25 26.10.2021
5703 Clear -6 1006 86 10000 7 280 21:41 26.10.2021
5704 Clouds -5 1005 93 10000 8 290 19:54 26.10.2021
5705 Clouds -5 1004 86 10000 9 290 19:18 26.10.2021
5706 Clouds -5 1003 86 10000 8 300 18:23 26.10.2021
5707 Clouds -4 1000 86 10000 10 310 15:51 26.10.2021
5708 Snow -3 997 93 3000 10 320 13:21 26.10.2021
5709 Snow -2 995 93 1900 8 320 10:54 26.10.2021
5710 Snow -2 995 100 1800 7 320 09:26 26.10.2021
5711 Snow 0 996 100 1900 1 300 07:22 26.10.2021
5712 Snow 0 1003 100 5000 4 170 00:19 26.10.2021
5713 Snow 0 1004 100 10000 4 170 23:37 25.10.2021
5714 Snow 0 1005 93 9000 4 160 22:33 25.10.2021
5715 Clouds 0 1006 93 10000 3 170 21:43 25.10.2021
5716 Snow -1 1007 93 10000 4 160 20:38 25.10.2021
5717 Snow -1 1007 93 10000 4 160 19:44 25.10.2021
5718 Snow -1 1008 93 10000 3 160 19:23 25.10.2021
5719 Snow -1 1009 93 10000 4 170 18:38 25.10.2021
5720 Clear -1 1009 93 10000 3 170 17:34 25.10.2021
5721 Clear -3 1010 86 10000 1 100 14:53 25.10.2021
5722 Clear 0 1009 69 10000 2 360 12:33 25.10.2021
5723 Clear 1 1007 69 10000 3 350 10:54 25.10.2021
5724 Clear 0 1006 80 10000 3 10 08:58 25.10.2021
5725 Clear -1 1005 86 10000 3 20 07:19 25.10.2021
5726 Clear -2 1004 93 10000 4 70 04:35 25.10.2021
5727 Clear -2 1005 93 10000 2 70 00:52 25.10.2021
5728 Clear -2 1006 93 10000 2 70 00:33 25.10.2021
5729 Clear -2 1006 93 10000 1 20 23:41 24.10.2021
5730 Clear -3 1007 93 10000 0 0 22:38 24.10.2021
5731 Clear -3 1007 93 10000 0 0 22:19 24.10.2021
5732 Clear -3 1007 93 10000 1 290 21:18 24.10.2021
5733 Clear -2 1008 86 10000 1 290 20:34 24.10.2021
5734 Clear -2 1008 93 10000 2 250 19:39 24.10.2021
5735 Clear -2 1008 93 10000 2 260 18:29 24.10.2021
5736 Clear -1 1008 93 10000 3 250 17:44 24.10.2021
5737 Clear 0 1008 86 10000 2 240 15:56 24.10.2021
5738 Clear 0 1008 86 10000 2 240 15:56 24.10.2021
5739 Clouds 1 1007 80 10000 5 250 14:42 24.10.2021
5740 Clouds 2 1005 75 10000 6 290 12:58 24.10.2021
5741 Clouds 3 1004 81 10000 6 280 11:45 24.10.2021
5742 Clouds 2 1004 87 10000 8 290 11:25 24.10.2021
5743 Clouds 2 1003 93 10000 7 280 10:28 24.10.2021
5744 Rain 3 999 93 10000 9 250 07:59 24.10.2021
5745 Clouds 4 996 93 10000 7 250 01:25 24.10.2021
5746 Rain 4 995 93 10000 7 260 23:49 23.10.2021
5747 Rain 5 994 93 10000 7 250 22:32 23.10.2021
5748 Rain 5 993 93 10000 4 250 20:37 23.10.2021
5749 Rain 6 992 93 10000 3 240 18:59 23.10.2021
5750 Rain 6 992 93 10000 4 240 18:30 23.10.2021
5751 Clear 6 992 100 10000 4 240 17:43 23.10.2021
5752 Rain 7 992 93 10000 5 240 16:38 23.10.2021
5753 Clouds 7 991 93 10000 7 260 14:35 23.10.2021
5754 Rain 4 988 100 2800 5 220 09:45 23.10.2021
5755 Clouds 1 995 93 10000 5 190 00:25 23.10.2021
5756 Rain 1 996 93 10000 5 200 23:22 22.10.2021
5757 Snow 1 997 93 10000 4 200 20:50 22.10.2021
5758 Clouds 0 997 93 10000 5 200 18:57 22.10.2021
5759 Clouds 0 998 93 10000 5 200 17:44 22.10.2021
5760 Clouds 0 998 93 10000 4 210 15:50 22.10.2021
5761 Clear 0 998 93 10000 4 230 14:23 22.10.2021
5762 Clouds 0 997 100 10000 7 250 12:38 22.10.2021
5763 Snow 1 995 93 8000 6 270 10:48 22.10.2021
5764 Snow 2 995 100 6000 7 270 09:56 22.10.2021
5765 Rain 2 994 100 6000 5 240 09:30 22.10.2021
5766 Rain 2 995 100 6000 3 200 07:26 22.10.2021
5767 Clouds 2 995 100 6000 2 110 04:59 22.10.2021
5768 Fog 2 997 100 750 2 60 00:24 22.10.2021
5769 Mist 2 997 100 2100 3 90 23:40 21.10.2021
5770 Mist 2 998 100 1400 2 50 22:21 21.10.2021
5771 Fog 2 998 100 800 3 350 20:55 21.10.2021
5772 Fog 2 998 100 1300 2 10 20:20 21.10.2021
5773 Mist 2 999 100 3500 2 10 19:30 21.10.2021
5774 Mist 2 999 100 3500 2 10 19:30 21.10.2021
5775 Mist 2 998 100 2600 2 10 18:52 21.10.2021
5776 Mist 2 998 100 3800 2 20 18:22 21.10.2021
5777 Clouds 3 999 93 10000 3 360 17:42 21.10.2021
5778 Clouds 3 999 93 10000 3 360 16:20 21.10.2021
5779 Clouds 3 999 93 10000 3 340 15:21 21.10.2021
5780 Clouds 4 999 87 10000 3 360 14:49 21.10.2021
5781 Clouds 4 998 93 10000 3 350 13:26 21.10.2021
5782 Clouds 4 998 87 10000 3 30 11:27 21.10.2021
5783 Clouds 4 999 87 10000 3 60 09:23 21.10.2021
5784 Clouds 3 1001 93 10000 5 70 07:31 21.10.2021
5785 Clouds 2 1001 93 10000 4 60 05:33 21.10.2021
5786 Clouds 2 1004 93 10000 3 20 23:45 20.10.2021
5787 Clouds 2 1005 93 10000 3 40 22:21 20.10.2021
5788 Clouds 2 1005 93 10000 2 40 21:45 20.10.2021
5789 Clouds 2 1005 93 10000 3 70 20:57 20.10.2021
5790 Clouds 2 1005 93 10000 2 60 20:36 20.10.2021
5791 Clouds 2 1005 93 10000 3 50 19:59 20.10.2021
5792 Clouds 2 1005 93 10000 2 60 18:59 20.10.2021
5793 Clear 2 1006 93 10000 3 40 17:54 20.10.2021
5794 Rain 3 1006 93 10000 3 350 15:47 20.10.2021
5795 Clouds 5 1005 81 10000 5 340 12:50 20.10.2021
5796 Clear 10 1004 66 10000 4 200 09:30 20.10.2021
5797 Clear 9 1005 61 10000 5 200 05:24 20.10.2021
5798 Clear 10 1005 50 10000 5 200 00:53 20.10.2021
5799 Clear 9 1005 53 10000 4 200 00:26 20.10.2021
5800 Clear 11 1005 50 10000 5 210 21:47 19.10.2021
5801 Clear 11 1005 58 10000 5 220 21:27 19.10.2021
5802 Clear 11 1005 62 10000 6 220 20:26 19.10.2021
5803 Clear 11 1005 62 10000 6 210 19:45 19.10.2021
5804 Clear 11 1005 58 10000 5 200 19:21 19.10.2021
5805 Clear 11 1005 58 10000 5 200 18:23 19.10.2021
5806 Clear 11 1005 58 10000 5 200 18:23 19.10.2021
5807 Clear 11 1006 66 10000 4 190 16:24 19.10.2021
5808 Clear 11 1006 71 10000 4 190 15:20 19.10.2021
5809 Clear 10 1006 76 10000 5 160 14:27 19.10.2021
5810 Clear 10 1007 76 10000 5 160 13:43 19.10.2021
5811 Clear 10 1009 76 10000 4 150 11:37 19.10.2021
5812 Clear 9 1010 81 10000 5 190 10:39 19.10.2021
5813 Clear 8 1010 87 10000 4 190 08:59 19.10.2021
5814 Clear 7 1011 87 10000 4 190 07:56 19.10.2021
5815 Clear 5 1011 75 10000 4 210 00:27 19.10.2021
5816 Clear 5 1011 75 10000 3 220 23:56 18.10.2021
5817 Clear 5 1011 75 10000 4 210 23:20 18.10.2021
5818 Clear 5 1011 75 10000 3 220 22:54 18.10.2021
5819 Clear 5 1011 75 10000 4 210 21:54 18.10.2021
5820 Clear 6 1012 70 10000 4 220 20:42 18.10.2021
5821 Clear 6 1012 70 10000 4 220 20:20 18.10.2021
5822 Clear 7 1012 70 10000 5 210 19:30 18.10.2021
5823 Clear 7 1012 70 10000 5 210 18:58 18.10.2021
5824 Clear 6 1012 75 10000 5 200 16:30 18.10.2021
5825 Clear 7 1012 76 10000 4 200 14:33 18.10.2021
5826 Clear 9 1012 71 10000 5 230 11:44 18.10.2021
5827 Clear 7 1012 76 10000 5 230 09:42 18.10.2021
5828 Clear 4 1012 81 10000 5 220 05:32 18.10.2021
5829 Clear 5 1012 87 10000 4 200 23:51 17.10.2021
5830 Clear 6 1013 81 10000 4 190 22:23 17.10.2021
5831 Clear 6 1013 81 10000 4 200 21:42 17.10.2021
5832 Clear 6 1013 87 10000 4 210 20:49 17.10.2021
5833 Clear 6 1014 87 10000 5 200 19:56 17.10.2021
5834 Clouds 6 1014 93 10000 4 210 19:37 17.10.2021
5835 Clouds 4 1014 91 10000 4.01 197 18:28 17.10.2021
5836 Clear 7 1014 87 10000 4 200 15:57 17.10.2021
5837 Clear 6 1015 93 10000 4 200 14:38 17.10.2021
5838 Clear 6 1015 93 10000 3 190 13:56 17.10.2021
5839 Clouds 7 1015 87 10000 3 200 13:30 17.10.2021
5840 Clouds 6 1015 93 10000 3 200 11:27 17.10.2021
5841 Clouds 6 1015 87 10000 4 200 09:56 17.10.2021
5842 Clouds 5 1015 93 10000 4 200 07:42 17.10.2021
5843 Clouds 4 1016 93 10000 3 200 02:35 17.10.2021
5844 Clouds 4 1016 93 10000 4 190 00:29 17.10.2021
5845 Clear 4 1016 93 10000 3 190 22:46 16.10.2021
5846 Clear 5 1017 93 10000 3 190 20:36 16.10.2021
5847 Clear 5 1017 93 10000 2 190 19:59 16.10.2021
5848 Clear 5 1017 93 10000 3 190 19:40 16.10.2021
5849 Clear 5 1017 93 10000 3 190 19:18 16.10.2021
5850 Clear 6 1017 87 10000 5 200 18:44 16.10.2021
5851 Clear 6 1017 87 10000 5 200 18:22 16.10.2021
5852 Clear 6 1017 87 10000 5 200 17:30 16.10.2021
5853 Clear 7 1018 81 10000 5 200 16:18 16.10.2021
5854 Clear 10 1018 71 10000 6 180 12:50 16.10.2021
5855 Clear 10 1018 66 10000 6 190 11:24 16.10.2021
5856 Clear 9 1020 76 10000 5 180 08:57 16.10.2021
5857 Clear 5 1023 87 10000 4 200 01:37 16.10.2021
5858 Clear 6 1024 81 10000 4 200 00:29 16.10.2021
5859 Clear 6 1024 87 10000 4 200 23:25 15.10.2021
5860 Clear 6 1024 87 10000 3 200 22:20 15.10.2021
5861 Clear 7 1025 87 10000 4 200 21:40 15.10.2021
5862 Clear 7 1025 87 10000 4 220 20:54 15.10.2021
5863 Clear 8 1025 81 10000 4 220 20:22 15.10.2021
5864 Clear 8 1025 81 10000 4 220 19:19 15.10.2021
5865 Clear 9 1026 76 10000 5 220 18:21 15.10.2021
5866 Clear 10 1026 71 10000 4 210 15:46 15.10.2021
5867 Clear 11 1026 71 10000 4 210 14:18 15.10.2021
5868 Clear 12 1027 66 10000 5 230 11:54 15.10.2021
5869 Clear 12 1027 66 10000 5 220 11:18 15.10.2021
5870 Clear 11 1027 71 10000 6 220 10:28 15.10.2021
5871 Clear 7 1028 87 10000 5 220 07:35 15.10.2021
5872 Clear 5 1028 93 10000 5 210 04:46 15.10.2021
5873 Clear 6 1028 93 10000 5 210 00:22 15.10.2021
5874 Clear 6 1028 93 10000 5 210 22:54 14.10.2021
5875 Clear 6 1029 93 10000 5 210 22:20 14.10.2021
5876 Clear 6 1029 93 10000 5 210 21:37 14.10.2021
5877 Clouds 5 1030 100 10000 5 200 20:20 14.10.2021
5878 Clouds 6 1030 93 10000 5 210 19:46 14.10.2021
5879 Clouds 6 1030 93 10000 6 210 18:40 14.10.2021
5880 Clouds 5 1030 100 10000 5 200 16:59 14.10.2021
5881 Clouds 5 1031 100 10000 6 200 16:32 14.10.2021
5882 Clouds 5 1031 100 10000 4 200 14:50 14.10.2021
5883 Clouds 6 1031 93 10000 4 190 14:26 14.10.2021
5884 Clouds 6 1031 93 10000 5 200 13:33 14.10.2021
5885 Clouds 4 1031 100 10000 4 210 11:34 14.10.2021
5886 Clouds 5 1033 85 10000 3.93 212 08:26 14.10.2021
5887 Clouds 3 1033 92 10000 3.25 210 06:19 14.10.2021
5888 Clouds 3 1032 93 10000 2.66 215 00:41 14.10.2021
5889 Fog 2 1031 100 300 3 250 22:40 13.10.2021
5890 Fog 2 1031 100 250 3 240 21:36 13.10.2021
5891 Fog 2 1031 100 400 3 250 20:45 13.10.2021
5892 Fog 2 1031 100 500 2 230 19:24 13.10.2021
5893 Fog 2 1030 100 250 2 230 18:38 13.10.2021
5894 Fog 2 1030 100 500 3 200 16:37 13.10.2021
5895 Drizzle 2 1030 93 3100 2 190 14:47 13.10.2021
5896 Mist 2 1029 93 3500 3 200 14:25 13.10.2021
5897 Mist 2 1029 93 2700 4 190 12:48 13.10.2021
5898 Clouds 2 1029 93 10000 4 200 11:37 13.10.2021
5899 Clouds 1 1029 93 10000 4 190 09:56 13.10.2021
5900 Rain 1 1028 93 10000 5 180 07:53 13.10.2021
5901 Clouds 0 1028 93 10000 4 160 03:39 13.10.2021
5902 Snow 0 1028 93 7000 3 170 02:21 13.10.2021
5903 Clouds 0 1028 86 10000 3 170 23:36 12.10.2021
5904 Clouds 0 1028 86 10000 3 170 22:50 12.10.2021
5905 Clouds 0 1028 86 10000 3 180 22:29 12.10.2021
5906 Clouds 1 1028 75 10000 2 180 20:54 12.10.2021
5907 Clouds 1 1028 80 10000 3 190 20:31 12.10.2021
5908 Clouds 1 1028 80 10000 2 180 19:36 12.10.2021
5909 Clouds 1 1028 75 10000 3 170 18:25 12.10.2021
5910 Clouds 1 1027 80 10000 3 170 17:20 12.10.2021
5911 Clouds 1 1027 75 10000 2 170 16:22 12.10.2021
5912 Clouds 1 1027 75 10000 2 180 15:31 12.10.2021
5913 Clouds 1 1027 75 10000 2 180 15:31 12.10.2021
5914 Clouds 1 1027 75 10000 2 180 15:30 12.10.2021
5915 Clouds 2 1026 69 10000 2 180 13:46 12.10.2021
5916 Clouds 2 1026 69 10000 3 180 13:18 12.10.2021
5917 Clouds 2 1025 75 10000 3 170 11:29 12.10.2021
5918 Clouds 1 1025 75 10000 3 170 09:34 12.10.2021
5919 Clouds 0 1024 80 10000 3 150 08:20 12.10.2021
5920 Clouds -1 1024 86 10000 3 160 06:44 12.10.2021
5921 Clouds -2 1023 86 10000 3 130 04:38 12.10.2021
5922 Clouds -2 1023 86 10000 3 150 02:55 12.10.2021
5923 Clear -1 1023 69 10000 3 170 23:49 11.10.2021
5924 Clear -1 1023 74 10000 2 180 23:28 11.10.2021
5925 Clear -1 1023 74 10000 2 180 23:28 11.10.2021
5926 Clouds -1 1023 74 10000 2 170 22:47 11.10.2021
5927 Clouds 0 1023 64 10000 4 200 21:25 11.10.2021
5928 Clear 0 1023 59 10000 3 190 19:53 11.10.2021
5929 Clear 0 1023 64 10000 3 190 19:34 11.10.2021
5930 Clear 0 1024 64 10000 3 200 18:23 11.10.2021
5931 Clear 1 1024 55 10000 4 200 16:40 11.10.2021
5932 Clear 1 1024 55 10000 4 200 16:20 11.10.2021
5933 Clear 1 1024 51 10000 3 200 15:42 11.10.2021
5934 Clear 1 1024 55 10000 3 190 14:53 11.10.2021
5935 Clear 1 1024 69 10000 4 210 13:55 11.10.2021
5936 Clear 2 1024 64 10000 3 240 13:35 11.10.2021
5937 Clouds 1 1025 69 10000 4 240 11:18 11.10.2021
5938 Clouds 2 1025 69 10000 4 260 09:46 11.10.2021
5939 Clouds 0 1025 80 10000 3 280 07:57 11.10.2021
5940 Clear -2 1024 86 10000 3 270 01:44 11.10.2021
5941 Clear -2 1024 86 10000 3 270 00:57 11.10.2021
5942 Clear -2 1024 86 10000 3 280 00:36 11.10.2021
5943 Clouds -1 1023 80 10000 3 270 22:35 10.10.2021
5944 Clouds -2 1023 86 10000 3 280 21:49 10.10.2021
5945 Clouds -2 1023 86 10000 3 270 20:57 10.10.2021
5946 Clouds -2 1023 80 10000 3 280 20:38 10.10.2021
5947 Clouds -2 1023 80 10000 3 280 20:19 10.10.2021
5948 Clouds -2 1023 80 10000 3 290 19:40 10.10.2021
5949 Clouds -2 1023 80 10000 3 280 18:55 10.10.2021
5950 Clouds -1 1023 74 10000 3 290 17:58 10.10.2021
5951 Clouds 0 1022 74 10000 5 300 15:48 10.10.2021
5952 Clouds 0 1022 74 10000 4 300 14:45 10.10.2021
5953 Clouds 1 1021 75 10000 4 310 13:40 10.10.2021
5954 Clouds 1 1021 75 10000 6 320 12:43 10.10.2021
5955 Clouds 1 1020 69 10000 6 300 11:30 10.10.2021
5956 Clouds 2 1020 64 10000 5 310 10:26 10.10.2021
5957 Clouds 2 1019 64 10000 6 310 09:18 10.10.2021
5958 Clear 2 1019 64 10000 5 320 08:50 10.10.2021
5959 Clear -3 1017 93 10000 3 300 04:31 10.10.2021
5960 Clear -2 1016 80 10000 4 310 02:19 10.10.2021
5961 Clear -1 1014 80 10000 5 330 00:41 10.10.2021
5962 Clouds 0 1014 80 10000 5 330 23:26 09.10.2021
5963 Clear 0 1013 80 10000 4 290 21:55 09.10.2021
5964 Clear 0 1013 86 10000 5 290 21:30 09.10.2021
5965 Clear 1 1012 80 10000 5 280 20:19 09.10.2021
5966 Clear 2 1012 69 10000 6 280 19:41 09.10.2021
5967 Clear 2 1012 69 10000 6 280 19:41 09.10.2021
5968 Clear 2 1012 69 10000 6 280 18:48 09.10.2021
5969 Clear 3 1012 65 10000 6 280 17:57 09.10.2021
5970 Clear 3 1012 65 10000 5 280 16:20 09.10.2021
5971 Clear 4 1012 56 10000 8 290 14:28 09.10.2021
5972 Clouds 5 1011 56 10000 8 300 13:38 09.10.2021
5973 Clouds 6 1010 56 10000 11 290 12:27 09.10.2021
5974 Rain 5 1010 75 10000 9 290 10:44 09.10.2021
5975 Rain 5 1010 75 10000 9 290 10:19 09.10.2021
5976 Clouds 5 1009 75 10000 10 280 08:33 09.10.2021
5977 Clouds 4 1009 75 10000 10 290 07:54 09.10.2021
5978 Clouds 4 1008 75 10000 11 280 06:29 09.10.2021
5979 Clouds 4 1007 70 10000 6 300 04:31 09.10.2021
5980 Clouds 5 1006 70 10000 7 300 02:44 09.10.2021
5981 Rain 7 1005 81 10000 11 280 00:24 09.10.2021
5982 Clouds 8 1005 71 10000 8 280 23:31 08.10.2021
5983 Clouds 8 1005 71 10000 8 280 22:46 08.10.2021
5984 Clouds 8 1005 71 10000 7 260 21:44 08.10.2021
5985 Rain 8 1006 66 10000 8 250 19:49 08.10.2021
5986 Clear 8 1007 66 10000 8 250 18:23 08.10.2021
5987 Clear 9 1008 66 10000 9 250 16:55 08.10.2021
5988 Clear 9 1009 66 10000 10 250 16:24 08.10.2021
5989 Clear 9 1010 66 10000 7 250 14:56 08.10.2021
5990 Clear 9 1010 71 10000 7 240 13:45 08.10.2021
5991 Clear 10 1013 66 10000 8 250 11:41 08.10.2021
5992 Clear 9 1014 71 10000 9 240 10:42 08.10.2021
5993 Clear 9 1014 71 10000 7 250 09:47 08.10.2021
5994 Clear 4 1018 87 10000 5 280 03:38 08.10.2021
5995 Clear 5 1019 87 10000 5 250 23:24 07.10.2021
5996 Clear 6 1020 87 10000 4 250 21:48 07.10.2021
5997 Clear 6 1020 87 10000 5 250 21:28 07.10.2021
5998 Clear 6 1020 87 10000 5 250 21:28 07.10.2021
5999 Clear 7 1021 81 10000 5 250 20:29 07.10.2021
6000 Clear 7 1022 87 10000 5 250 19:32 07.10.2021
6001 Clear 8 1023 81 10000 5 250 18:40 07.10.2021
6002 Clear 8 1023 81 10000 5 280 17:32 07.10.2021
6003 Clear 7 1023 87 10000 3 250 16:25 07.10.2021
6004 Clear 6 1024 81 10000 3 280 14:48 07.10.2021
6005 Clouds 9 1024 76 10000 4 290 13:43 07.10.2021
6006 Clouds 10 1024 71 10000 7 290 12:53 07.10.2021
6007 Clouds 9 1024 76 10000 6 310 10:58 07.10.2021
6008 Clouds 9 1024 76 10000 7 310 10:22 07.10.2021
6009 Clouds 9 1023 76 10000 6 310 09:42 07.10.2021
6010 Clouds 9 1023 76 10000 6 310 08:53 07.10.2021
6011 Clouds 8 1023 81 10000 5 310 07:57 07.10.2021
6012 Clear 7 1023 87 10000 5 300 07:37 07.10.2021
6013 Clouds 4 1023 93 10000 5 290 04:24 07.10.2021
6014 Clear 3 1023 87 10000 5 280 00:29 07.10.2021
6015 Clear 2 1024 93 10000 5 280 22:55 06.10.2021
6016 Clear 3 1024 87 10000 5 280 22:24 06.10.2021
6017 Clear 4 1025 87 10000 5 280 20:51 06.10.2021
6018 Clear 4 1025 87 10000 6 280 20:26 06.10.2021
6019 Clear 5 1026 87 10000 6 280 18:43 06.10.2021
6020 Clear 5 1027 87 10000 4 280 16:58 06.10.2021
6021 Clear 6 1027 87 10000 3 250 15:33 06.10.2021
6022 Clear 8 1027 76 10000 3 290 14:30 06.10.2021
6023 Clear 9 1027 76 10000 6 290 13:24 06.10.2021
6024 Clear 10 1027 71 10000 5 290 12:45 06.10.2021
6025 Clear 10 1027 71 10000 6 300 12:23 06.10.2021
6026 Clear 9 1028 76 10000 5 300 10:36 06.10.2021
6027 Clear 7 1028 93 10000 5 300 09:39 06.10.2021
6028 Clear 6 1028 93 10000 4 290 08:57 06.10.2021
6029 Clear 5 1028 93 10000 4 280 07:53 06.10.2021
6030 Clouds 3 1028 93 10000 4 270 05:27 06.10.2021
6031 Clouds 3 1028 93 10000 4 270 05:27 06.10.2021
6032 Rain 1 1028 100 10000 3 240 01:23 06.10.2021
6033 Rain 1 1029 100 10000 3 250 00:20 06.10.2021
6034 Rain 1 1029 100 10000 3 250 23:48 05.10.2021
6035 Rain 1 1029 93 10000 3 240 23:29 05.10.2021
6036 Rain 1 1029 93 10000 4 250 22:28 05.10.2021
6037 Rain 1 1029 93 10000 4 250 21:50 05.10.2021
6038 Clouds 1 1030 93 10000 4 250 20:49 05.10.2021
6039 Clouds 1 1030 93 10000 4 250 20:25 05.10.2021
6040 Clouds 1 1030 93 10000 4 250 19:50 05.10.2021
6041 Clouds 1 1030 93 10000 4 260 19:18 05.10.2021
6042 Snow 1 1031 93 6000 5 250 16:58 05.10.2021
6043 Snow 1 1031 93 10000 4 250 14:57 05.10.2021
6044 Snow 1 1031 86 9000 4 250 13:43 05.10.2021
6045 Snow 1 1031 86 9000 5 240 12:54 05.10.2021
6046 Snow 1 1031 86 10000 5 250 12:19 05.10.2021
6047 Snow 2 1031 87 10000 5 250 11:21 05.10.2021
6048 Snow 1 1032 86 10000 6 250 09:27 05.10.2021
6049 Snow 0 1033 86 10000 3 240 05:25 05.10.2021
6050 Clear -3 1035 93 10000 2 270 23:54 04.10.2021
6051 Clear -4 1036 86 10000 2 280 22:39 04.10.2021
6052 Clear -4 1036 86 10000 1 250 20:43 04.10.2021
6053 Clouds -2 1036 80 10000 1 320 18:34 04.10.2021
6054 Clouds -1 1036 80 10000 2 320 16:39 04.10.2021
6055 Clouds -1 1036 80 10000 2 320 15:32 04.10.2021
6056 Clouds -1 1036 80 10000 2 320 15:32 04.10.2021
6057 Clouds -1 1036 86 10000 2 300 14:43 04.10.2021
6058 Clouds -1 1036 86 10000 3 280 13:57 04.10.2021
6059 Clouds 0 1036 80 10000 3 300 13:27 04.10.2021
6060 Clouds 0 1036 80 10000 3 350 12:28 04.10.2021
6061 Clouds 0 1035 80 10000 3 10 11:31 04.10.2021
6062 Clouds 0 1035 80 10000 3 350 10:23 04.10.2021
6063 Clouds 0 1035 80 10000 4 350 08:42 04.10.2021
6064 Clouds 0 1034 80 10000 4 10 07:37 04.10.2021
6065 Clouds -1 1032 93 10000 4 10 01:55 04.10.2021
6066 Clouds -1 1031 93 10000 4 30 22:41 03.10.2021
6067 Clouds -1 1030 93 10000 3 30 21:41 03.10.2021
6068 Clouds -1 1030 93 10000 3 30 21:22 03.10.2021
6069 Clear -1 1030 93 10000 3 20 20:21 03.10.2021
6070 Clouds 0 1029 93 10000 4 30 19:30 03.10.2021
6071 Clouds 1 1029 93 10000 4 40 18:28 03.10.2021
6072 Clouds 0 1028 100 10000 3 30 17:28 03.10.2021
6073 Clouds 2 1027 87 10000 3 20 14:48 03.10.2021
6074 Clouds 2 1026 87 10000 4 20 14:24 03.10.2021
6075 Clouds 2 1026 87 10000 4 30 13:34 03.10.2021
6076 Clouds 2 1025 93 9000 4 40 12:29 03.10.2021
6077 Clouds 2 1024 93 10000 3 40 10:52 03.10.2021
6078 Snow 1 1023 93 10000 3 40 08:53 03.10.2021
6079 Snow 0 1020 93 2000 3 330 03:29 03.10.2021
6080 Snow 0 1019 100 10000 3 330 22:43 02.10.2021
6081 Snow 0 1019 100 10000 3 340 21:21 02.10.2021
6082 Snow 0 1019 93 8000 5 10 19:50 02.10.2021
6083 Rain 1 1018 93 10000 4 10 18:55 02.10.2021
6084 Snow 1 1018 93 10000 5 360 17:57 02.10.2021
6085 Snow 1 1018 93 9000 5 10 17:26 02.10.2021
6086 Rain 1 1017 93 10000 4 340 15:38 02.10.2021
6087 Rain 4 1010 87 10000 5 290 16:50 30.09.2021
6088 Rain 5 1011 60 10000 3 280 15:36 30.09.2021
6089 Clear 6 1012 61 10000 4 290 13:45 30.09.2021
6090 Clear 8 1013 61 10000 4 300 11:37 30.09.2021
6091 Clear 7 1014 61 10000 4 300 10:43 30.09.2021
6092 Clear 6 1015 70 10000 3 330 09:41 30.09.2021
6093 Clear 5 1015 87 10000 4 10 08:29 30.09.2021
6094 Clear 5 1016 87 10000 4 360 07:33 30.09.2021
6095 Clear 0 1017 100 10000 2 340 04:58 30.09.2021
6096 Clear 0 1018 93 10000 2 340 01:20 30.09.2021
6097 Clear 0 1018 93 10000 3 20 23:55 29.09.2021
6098 Clear 1 1019 86 10000 3 20 22:28 29.09.2021
6099 Clear 2 1019 87 10000 4 20 21:24 29.09.2021
6100 Clear 1 1020 86 10000 3 20 20:26 29.09.2021
6101 Clear 1 1020 86 10000 4 20 19:50 29.09.2021
6102 Clear 2 1020 80 10000 3 20 18:29 29.09.2021
6103 Clear 3 1020 81 10000 4 20 17:34 29.09.2021
6104 Clear 3 1020 81 10000 3 10 16:46 29.09.2021
6105 Clear 4 1021 75 10000 3 20 15:55 29.09.2021
6106 Clear 5 1021 70 10000 4 10 14:39 29.09.2021
6107 Clear 7 1021 61 10000 5 10 13:42 29.09.2021
6108 Clear 7 1021 65 10000 4 10 12:50 29.09.2021
6109 Clear 7 1021 61 10000 6 20 11:54 29.09.2021
6110 Clear 7 1021 65 10000 5 30 10:44 29.09.2021
6111 Clear 8 1021 61 10000 5 40 09:49 29.09.2021
6112 Clear 6 1022 65 10000 4 40 08:49 29.09.2021
6113 Clear 5 1022 75 10000 4 20 07:31 29.09.2021
6114 Clear 2 1023 87 10000 3 30 03:39 29.09.2021
6115 Clear 3 1023 81 10000 3 10 23:26 28.09.2021
6116 Clear 3 1023 81 10000 3 20 22:23 28.09.2021
6117 Clear 3 1024 81 10000 3 30 21:35 28.09.2021
6118 Clear 3 1024 81 10000 3 30 20:35 28.09.2021
6119 Clear 3 1024 81 10000 3 30 19:42 28.09.2021
6120 Clear 4 1024 81 10000 3 20 18:45 28.09.2021
6121 Clear 4 1024 81 10000 3 20 17:53 28.09.2021
6122 Clear 4 1025 75 10000 3 20 15:44 28.09.2021
6123 Clear 8 1026 61 10000 4 360 13:38 28.09.2021
6124 Clear 8 1026 66 10000 5 360 12:47 28.09.2021
6125 Clear 8 1026 61 10000 5 360 12:19 28.09.2021
6126 Clear 9 1026 61 10000 4 10 11:45 28.09.2021
6127 Clear 8 1027 66 10000 5 350 10:55 28.09.2021
6128 Clear 8 1027 66 10000 4 20 09:53 28.09.2021
6129 Clear 8 1028 71 10000 5 10 08:57 28.09.2021
6130 Clear 7 1028 70 10000 5 20 08:34 28.09.2021
6131 Clear 5 1029 81 10000 4 360 06:51 28.09.2021
6132 Clear 2 1029 93 10000 2 20 05:27 28.09.2021
6133 Clear 1 1030 93 10000 2 60 01:22 28.09.2021
6134 Clear 1 1030 93 10000 2 70 00:24 28.09.2021
6135 Clear 1 1031 100 10000 3 50 23:32 27.09.2021
6136 Clear 1 1031 100 10000 3 40 22:55 27.09.2021
6137 Clear 2 1031 100 10000 4 50 21:44 27.09.2021
6138 Clear 2 1032 93 10000 4 40 20:39 27.09.2021
6139 Clear 2 1032 93 10000 4 50 19:53 27.09.2021
6140 Clear 3 1032 87 10000 3 40 19:27 27.09.2021
6141 Clear 3 1032 87 10000 3 30 18:48 27.09.2021
6142 Clear 4 1032 81 10000 3 30 17:29 27.09.2021
6143 Clear 4 1032 81 10000 3 30 16:48 27.09.2021
6144 Clear 5 1032 75 10000 3 30 15:43 27.09.2021
6145 Clear 7 1033 70 10000 3 40 14:56 27.09.2021
6146 Clear 8 1033 61 10000 4 50 13:31 27.09.2021
6147 Clear 9 1033 53 10000 6 50 11:31 27.09.2021
6148 Clear 8 1034 57 10000 4 50 10:32 27.09.2021
6149 Clear 8 1034 87 10000 4 70 08:48 27.09.2021
6150 Clear 1 1034 93 10000 1 0 05:21 27.09.2021
6151 Clear -1 1034 93 10000 1 0 02:59 27.09.2021
6152 Clear 0 1033 93 10000 1 0 22:32 26.09.2021
6153 Clear 0 1033 93 10000 2 70 21:50 26.09.2021
6154 Clear 0 1033 93 10000 2 60 20:58 26.09.2021
6155 Clear 1 1032 86 10000 2 70 20:21 26.09.2021
6156 Clear 1 1032 86 10000 2 60 19:48 26.09.2021
6157 Clear 1 1032 86 10000 3 50 18:45 26.09.2021
6158 Clear 2 1032 80 10000 4 50 17:56 26.09.2021
6159 Clear 2 1032 87 10000 4 50 17:22 26.09.2021
6160 Clear 3 1032 81 10000 3 30 16:40 26.09.2021
6161 Clear 3 1032 81 10000 2 30 15:59 26.09.2021
6162 Clear 5 1031 75 10000 2 30 14:59 26.09.2021
6163 Clouds 6 1031 65 10000 4 50 13:57 26.09.2021
6164 Clouds 6 1031 65 10000 4 40 13:20 26.09.2021
6165 Clouds 7 1031 65 10000 5 50 12:24 26.09.2021
6166 Clouds 6 1031 75 10000 5 70 11:42 26.09.2021
6167 Clear 5 1031 81 10000 4 50 10:25 26.09.2021
6168 Clear 4 1031 87 10000 4 40 09:20 26.09.2021
6169 Clear 4 1031 81 10000 5 40 07:39 26.09.2021
6170 Clear -1 1029 93 10000 4 30 00:23 26.09.2021
6171 Clear -1 1029 93 10000 4 30 23:30 25.09.2021
6172 Clear -1 1029 93 10000 4 30 22:38 25.09.2021
6173 Clear -1 1029 93 10000 4 20 21:55 25.09.2021
6174 Clear -1 1029 93 10000 4 30 21:32 25.09.2021
6175 Clear -1 1029 93 10000 4 20 20:48 25.09.2021
6176 Clouds 0 1029 86 10000 3 30 18:59 25.09.2021
6177 Clear 1 1029 80 10000 3 30 18:24 25.09.2021
6178 Clouds 3 1028 75 10000 3 20 15:48 25.09.2021
6179 Clouds 3 1028 81 10000 4 20 13:57 25.09.2021
6180 Clouds 3 1027 81 10000 3 60 13:31 25.09.2021
6181 Clouds 3 1027 75 10000 5 50 12:27 25.09.2021
6182 Clouds 4 1026 75 10000 5 40 10:35 25.09.2021
6183 Clouds 4 1026 75 10000 5 60 09:40 25.09.2021
6184 Clouds 5 1026 75 10000 5 30 08:20 25.09.2021
6185 Clouds 2 1025 87 10000 4 30 06:26 25.09.2021
6186 Clouds 2 1023 87 10000 2 20 23:55 24.09.2021
6187 Clouds 1 1023 93 10000 2 20 21:50 24.09.2021
6188 Clouds 3 1023 93 10000 3 50 20:39 24.09.2021
6189 Clouds 4 1023 87 10000 3 60 19:48 24.09.2021
6190 Clouds 4 1023 81 10000 2 330 18:34 24.09.2021
6191 Clouds 4 1022 87 10000 3 330 17:54 24.09.2021
6192 Clouds 4 1022 87 10000 3 320 17:36 24.09.2021
6193 Clouds 4 1022 87 10000 3 320 17:18 24.09.2021
6194 Rain 5 1022 87 10000 3 330 14:31 24.09.2021
6195 Rain 5 1022 87 9000 5 350 13:18 24.09.2021
6196 Rain 6 1022 81 10000 5 330 12:39 24.09.2021
6197 Clouds 6 1022 81 10000 5 330 12:20 24.09.2021
6198 Clouds 6 1021 81 10000 5 340 10:27 24.09.2021
6199 Clouds 5 1020 87 10000 6 330 08:54 24.09.2021
6200 Clouds 5 1020 87 10000 5 330 07:34 24.09.2021
6201 Clouds 4 1020 93 10000 6 320 06:46 24.09.2021
6202 Clouds 3 1020 93 10000 5 300 04:55 24.09.2021
6203 Clear 1 1020 100 10000 3 300 00:26 24.09.2021
6204 Clear 2 1020 100 10000 3 310 22:30 23.09.2021
6205 Clear 4 1020 93 10000 3 320 21:56 23.09.2021
6206 Clouds 5 1021 93 10000 3 300 20:34 23.09.2021
6207 Clouds 5 1021 100 10000 3 290 19:46 23.09.2021
6208 Clear 5 1021 93 10000 3 290 17:46 23.09.2021
6209 Clouds 5 1021 100 10000 3 290 15:30 23.09.2021
6210 Rain 5 1021 93 10000 4 290 14:59 23.09.2021
6211 Rain 5 1021 93 10000 3 290 13:45 23.09.2021
6212 Rain 6 1021 87 10000 4 300 13:20 23.09.2021
6213 Rain 6 1021 87 10000 4 290 12:52 23.09.2021
6214 Clouds 6 1021 87 10000 4 290 12:22 23.09.2021
6215 Rain 5 1021 93 10000 4 300 11:32 23.09.2021
6216 Clouds 5 1021 100 10000 4 320 10:26 23.09.2021
6217 Clouds 5 1021 100 10000 4 300 09:52 23.09.2021
6218 Drizzle 4 1020 100 8000 4 300 08:21 23.09.2021
6219 Rain 2 1021 100 10000 4 280 03:50 23.09.2021
6220 Clouds 1 1020 100 10000 3 290 23:27 22.09.2021
6221 Clouds 1 1020 100 10000 3 300 22:29 22.09.2021
6222 Clouds 1 1020 100 10000 3 290 21:56 22.09.2021
6223 Clouds 1 1020 93 10000 3 320 21:34 22.09.2021
6224 Clouds 0 1020 100 10000 3 300 20:54 22.09.2021
6225 Rain 2 1020 93 10000 2 340 19:32 22.09.2021
6226 Clouds 2 1020 93 10000 3 300 18:39 22.09.2021
6227 Clouds 2 1021 93 10000 3 310 17:47 22.09.2021
6228 Clouds 2 1021 83 10000 3.06 309 16:37 22.09.2021
6229 Clouds 3 1020 87 10000 4 330 15:19 22.09.2021
6230 Clouds 3 1020 87 10000 2 330 13:48 22.09.2021
6231 Rain 4 1019 75 10000 5 20 11:57 22.09.2021
6232 Rain 4 1018 75 10000 5 350 10:45 22.09.2021
6233 Clouds 3 1018 81 10000 4 360 09:24 22.09.2021
6234 Clouds 2 1018 87 10000 4 360 08:28 22.09.2021
6235 Clouds 1 1017 100 10000 4 360 06:59 22.09.2021
6236 Clouds 2 1017 93 10000 4 360 05:53 22.09.2021
6237 Clouds 2 1017 93 9000 3 340 05:32 22.09.2021
6238 Clouds 1 1016 93 10000 2 20 03:48 22.09.2021
6239 Clouds 2 1015 93 10000 3 10 00:21 22.09.2021
6240 Clouds 3 1014 93 10000 3 10 22:52 21.09.2021
6241 Clouds 3 1014 100 10000 3 320 21:33 21.09.2021
6242 Clouds 2 1014 98 43 2.98 16 20:24 21.09.2021
6243 Rain 3 1013 100 10000 3 310 19:20 21.09.2021
6244 Rain 2 1014 98 29 4.27 314 17:20 21.09.2021
6245 Rain 3 1013 100 8000 3 330 16:34 21.09.2021
6246 Rain 3 1013 100 7000 3 310 15:38 21.09.2021
6247 Rain 3 1013 100 10000 4 290 14:56 21.09.2021
6248 Rain 4 1013 93 10000 5 300 13:56 21.09.2021
6249 Rain 3 1013 100 10000 5 310 13:36 21.09.2021
6250 Rain 4 1013 93 10000 6 290 11:44 21.09.2021
6251 Rain 4 1013 93 10000 5 300 09:58 21.09.2021
6252 Rain 4 1014 93 10000 6 300 08:27 21.09.2021
6253 Rain 3 1015 93 10000 5 310 06:38 21.09.2021
6254 Clouds 4 1015 87 10000 5 320 23:58 20.09.2021
6255 Clouds 3 1016 87 10000 3 290 22:24 20.09.2021
6256 Clouds 3 1016 81 10000 3 350 21:37 20.09.2021
6257 Clear 3 1016 81 10000 5 360 20:30 20.09.2021
6258 Clouds 4 1016 75 10000 8 350 19:30 20.09.2021
6259 Clouds 3 1016 81 10000 7 360 17:46 20.09.2021
6260 Rain 3 1015 87 10000 6 340 16:43 20.09.2021
6261 Rain 4 1015 87 7000 7 340 15:49 20.09.2021
6262 Clouds 4 1014 87 10000 7 360 15:24 20.09.2021
6263 Rain 5 1013 81 6000 7 330 14:24 20.09.2021
6264 Clouds 8 1011 81 10000 6 350 12:35 20.09.2021
6265 Rain 8 1011 87 10000 8 350 11:25 20.09.2021
6266 Rain 9 1010 81 10000 7 350 10:18 20.09.2021
6267 Rain 7 1009 81 10000 7 350 09:36 20.09.2021
6268 Clouds 7 1009 81 10000 7 350 09:18 20.09.2021
6269 Rain 7 1008 87 10000 6 340 07:45 20.09.2021
6270 Clear 4 1002 93 10000 3 340 00:36 20.09.2021
6271 Clouds 3 1000 93 10000 2 360 22:26 19.09.2021
6272 Clouds 2 1000 100 10000 2 20 21:43 19.09.2021
6273 Clouds 2 999 100 10000 2 40 20:43 19.09.2021
6274 Rain 3 999 93 10000 2 40 19:31 19.09.2021
6275 Clouds 3 998 93 10000 2 40 18:29 19.09.2021
6276 Clouds 3 997 100 10000 3 70 17:23 19.09.2021
6277 Rain 3 996 100 10000 4 80 15:59 19.09.2021
6278 Rain 4 996 93 10000 3 100 15:30 19.09.2021
6279 Clouds 4 995 93 10000 2 140 14:48 19.09.2021
6280 Rain 4 994 100 10000 3 160 13:29 19.09.2021
6281 Rain 4 994 100 9000 3 160 12:51 19.09.2021
6282 Rain 4 992 100 8000 4 190 11:28 19.09.2021
6283 Rain 4 992 93 5000 4 190 10:53 19.09.2021
6284 Rain 4 991 93 9000 5 190 09:49 19.09.2021
6285 Rain 3 989 93 9000 5 190 08:35 19.09.2021
6286 Rain 2 988 100 10000 6 210 06:42 19.09.2021
6287 Snow 1 987 100 4600 5 230 23:43 18.09.2021
6288 Rain 2 988 100 9000 6 240 22:31 18.09.2021
6289 Rain 4 988 93 9000 8 240 20:56 18.09.2021
6290 Rain 4 988 93 9000 10 240 20:36 18.09.2021
6291 Rain 4 988 100 9000 8 240 19:39 18.09.2021
6292 Rain 4 988 100 9000 8 240 19:20 18.09.2021
6293 Rain 5 989 93 9000 9 240 18:32 18.09.2021
6294 Rain 5 989 93 10000 9 230 17:34 18.09.2021
6295 Rain 5 990 93 10000 6 240 16:20 18.09.2021
6296 Rain 5 991 93 4600 7 240 13:49 18.09.2021
6297 Rain 5 991 93 1800 7 240 13:29 18.09.2021
6298 Rain 5 990 93 5000 10 250 12:49 18.09.2021
6299 Rain 6 990 93 7000 7 250 11:41 18.09.2021
6300 Rain 6 989 93 7000 6 250 10:32 18.09.2021
6301 Rain 6 989 93 8000 6 250 09:28 18.09.2021
6302 Rain 6 989 93 9000 5 250 08:57 18.09.2021
6303 Clouds 2 989 94 1670 2.37 263 03:51 18.09.2021
6304 Clouds 4 989 94 10000 3.01 218 00:41 18.09.2021
6305 Clouds 4 989 93 10000 2.61 213 23:48 17.09.2021
6306 Clouds 4 989 92 10000 2.61 205 22:37 17.09.2021
6307 Clouds 5 987 93 10000 3 190 22:18 17.09.2021
6308 Clouds 5 988 100 10000 4 190 20:47 17.09.2021
6309 Clouds 6 988 93 10000 3 190 19:22 17.09.2021
6310 Clouds 7 989 93 10000 5 190 17:20 17.09.2021
6311 Clouds 8 989 81 10000 3 190 16:24 17.09.2021
6312 Clouds 9 988 76 10000 5 220 13:21 17.09.2021
6313 Clouds 10 987 76 10000 9 220 10:42 17.09.2021
6314 Clouds 9 986 87 10000 7 220 08:45 17.09.2021
6315 Rain 9 985 93 10000 6 230 06:50 17.09.2021
6316 Fog 9 989 100 500 4 70 00:59 17.09.2021
6317 Fog 9 992 100 450 5 70 22:54 16.09.2021
6318 Fog 9 992 100 450 5 70 22:24 16.09.2021
6319 Fog 9 993 100 450 5 80 21:41 16.09.2021
6320 Fog 9 993 100 450 5 80 21:20 16.09.2021
6321 Fog 9 994 100 650 5 80 20:18 16.09.2021
6322 Mist 9 995 100 1100 5 80 18:19 16.09.2021
6323 Mist 9 996 100 2600 5 90 17:29 16.09.2021
6324 Rain 9 997 93 10000 5 80 14:53 16.09.2021
6325 Clouds 9 998 100 10000 5 100 13:55 16.09.2021
6326 Clouds 9 998 100 10000 5 90 12:48 16.09.2021
6327 Clouds 9 998 100 10000 5 100 12:28 16.09.2021
6328 Clouds 9 998 93 10000 5 100 11:25 16.09.2021
6329 Clouds 9 998 93 10000 6 100 10:31 16.09.2021
6330 Clouds 9 998 93 10000 6 100 10:31 16.09.2021
6331 Clouds 9 998 93 10000 6 100 10:30 16.09.2021
6332 Clouds 9 999 93 10000 7 110 09:53 16.09.2021
6333 Clouds 8 999 100 10000 5 120 08:41 16.09.2021
6334 Rain 8 999 100 10000 9 110 07:22 16.09.2021
6335 Rain 8 1000 100 10000 6 120 06:39 16.09.2021
6336 Rain 8 1001 93 4400 6 110 04:34 16.09.2021
6337 Rain 8 1003 93 10000 7 110 01:26 16.09.2021
6338 Rain 8 1003 93 10000 7 110 01:26 16.09.2021
6339 Rain 8 1004 93 10000 8 100 23:35 15.09.2021
6340 Rain 8 1005 93 9000 5 110 22:46 15.09.2021
6341 Rain 7 1005 100 10000 6 100 21:41 15.09.2021
6342 Rain 7 1005 100 10000 6 100 21:23 15.09.2021
6343 Rain 7 1006 93 10000 5 110 19:51 15.09.2021
6344 Rain 7 1007 93 10000 4 100 19:19 15.09.2021
6345 Rain 9 1007 76 10000 3 130 17:49 15.09.2021
6346 Clear 9 1007 71 10000 4 120 16:48 15.09.2021
6347 Clear 10 1008 66 10000 4 100 15:30 15.09.2021
6348 Clear 10 1008 66 10000 3 100 14:44 15.09.2021
6349 Clear 11 1008 54 10000 4 120 13:51 15.09.2021
6350 Clear 12 1008 50 10000 5 110 13:29 15.09.2021
6351 Clear 12 1008 50 10000 3 150 12:34 15.09.2021
6352 Clear 12 1008 50 10000 3 130 11:51 15.09.2021
6353 Clear 12 1008 50 10000 3 160 11:18 15.09.2021
6354 Clear 12 1008 50 10000 3 160 10:35 15.09.2021
6355 Clear 11 1008 50 10000 2 160 09:23 15.09.2021
6356 Clear 10 1009 62 10000 2 170 07:30 15.09.2021
6357 Fog 1 1008 100 9000 0 0 04:19 15.09.2021
6358 Clear 2 1008 93 10000 1 0 22:38 14.09.2021
6359 Clear 3 1008 93 10000 2 240 21:38 14.09.2021
6360 Clear 4 1008 93 10000 0 0 20:26 14.09.2021
6361 Clear 5 1008 87 10000 2 250 19:41 14.09.2021
6362 Clear 7 1008 81 10000 3 240 17:34 14.09.2021
6363 Clouds 8 1008 76 10000 4 240 16:56 14.09.2021
6364 Clouds 8 1007 81 10000 3 240 15:27 14.09.2021
6365 Clouds 9 1007 76 10000 5 250 14:28 14.09.2021
6366 Clouds 9 1006 81 10000 8 280 11:50 14.09.2021
6367 Clouds 8 1005 87 10000 6 260 10:49 14.09.2021
6368 Clouds 6 1005 93 10000 7 270 09:50 14.09.2021
6369 Clouds 5 1004 93 10000 6 260 08:24 14.09.2021
6370 Clouds 4 1003 100 10000 8 280 05:38 14.09.2021
6371 Rain 4 1000 93 10000 7 280 23:36 13.09.2021
6372 Drizzle 4 1000 93 3600 7 270 22:29 13.09.2021
6373 Drizzle 4 1000 93 6000 7 280 21:59 13.09.2021
6374 Drizzle 3 1000 100 4600 7 280 21:39 13.09.2021
6375 Rain 3 1000 93 10000 7 270 19:41 13.09.2021
6376 Rain 2 1000 100 10000 7 270 18:45 13.09.2021
6377 Rain 3 1000 93 10000 8 280 17:39 13.09.2021
6378 Rain 4 1000 93 10000 7 270 16:50 13.09.2021
6379 Rain 5 999 93 10000 9 270 14:47 13.09.2021
6380 Rain 5 998 100 10000 8 280 11:45 13.09.2021
6381 Rain 5 997 100 9000 8 280 10:50 13.09.2021
6382 Rain 5 996 100 3200 7 270 08:55 13.09.2021
6383 Fog 7 993 100 200 2 70 00:48 13.09.2021
6384 Clouds 8 993 100 10000 3 80 22:51 12.09.2021
6385 Clouds 8 993 100 10000 2 70 22:23 12.09.2021
6386 Clouds 8 992 100 10000 3 80 21:21 12.09.2021
6387 Clouds 8 992 100 10000 3 90 20:19 12.09.2021
6388 Clouds 8 992 100 10000 3 90 19:37 12.09.2021
6389 Clouds 8 992 100 10000 2 100 19:18 12.09.2021
6390 Clouds 8 992 100 10000 3 90 18:18 12.09.2021
6391 Rain 9 992 93 10000 3 90 15:58 12.09.2021
6392 Clouds 10 991 81 10000 1 0 14:47 12.09.2021
6393 Clouds 11 991 93 10000 3 200 12:43 12.09.2021
6394 Rain 10 990 93 10000 2 160 10:32 12.09.2021
6395 Rain 10 989 93 10000 3 200 08:39 12.09.2021
6396 Rain 9 989 100 10000 3 210 07:30 12.09.2021
6397 Rain 9 990 100 5000 1 0 00:47 12.09.2021
6398 Rain 9 990 100 5000 1 0 00:47 12.09.2021
6399 Mist 9 990 100 2500 1 0 22:58 11.09.2021
6400 Rain 9 991 100 8000 0 0 21:39 11.09.2021
6401 Rain 9 991 100 9000 1 70 19:41 11.09.2021
6402 Rain 10 992 93 6000 0 0 18:28 11.09.2021
6403 Rain 10 992 93 3600 1 0 17:28 11.09.2021
6404 Rain 10 992 93 8000 1 0 15:36 11.09.2021
6405 Rain 11 992 93 10000 4 100 13:23 11.09.2021
6406 Rain 11 992 93 10000 5 110 11:42 11.09.2021
6407 Rain 11 992 93 10000 5 110 10:35 11.09.2021
6408 Rain 10 991 93 10000 5 110 08:51 11.09.2021
6409 Rain 10 991 93 10000 4 100 07:43 11.09.2021
6410 Rain 9 991 100 10000 5 100 04:23 11.09.2021
6411 Rain 9 992 100 10000 3 160 22:43 10.09.2021
6412 Rain 9 992 100 10000 3 140 21:57 10.09.2021
6413 Rain 9 993 100 10000 2 140 21:38 10.09.2021
6414 Clear 10 993 93 10000 4 160 19:31 10.09.2021
6415 Rain 11 994 93 10000 3 140 17:56 10.09.2021
6416 Clouds 12 994 87 10000 4 110 16:27 10.09.2021
6417 Clouds 13 995 76 10000 4 130 13:29 10.09.2021
6418 Clouds 12 995 76 10000 3 150 10:52 10.09.2021
6419 Clouds 10 996 87 10000 4 150 07:52 10.09.2021
6420 Clouds 9 996 87 10000 4 150 07:21 10.09.2021
6421 Clear 2 1000 93 10000 2 110 00:24 10.09.2021
6422 Clear 3 1001 93 10000 0 0 21:49 09.09.2021
6423 Clear 2 1001 93 10000 1 0 20:48 09.09.2021
6424 Clear 2 1002 93 10000 1 90 20:27 09.09.2021
6425 Clear 3 1002 93 10000 0 0 18:46 09.09.2021
6426 Clouds 5 1003 87 10000 0 0 17:47 09.09.2021
6427 Clear 8 1003 71 10000 3 280 16:28 09.09.2021
6428 Clear 10 1003 66 10000 3 250 15:24 09.09.2021
6429 Clear 12 1003 54 10000 3 350 12:24 09.09.2021
6430 Clouds 11 1003 58 10000 3 300 11:22 09.09.2021
6431 Clouds 12 1003 54 10000 3 280 09:35 09.09.2021
6432 Clear 11 1004 62 10000 2 240 07:45 09.09.2021
6433 Clear 7 1004 93 10000 2 270 05:47 09.09.2021
6434 Clear 1 1005 100 10000 0 0 23:55 08.09.2021
6435 Clear 4 1005 100 10000 1 0 21:48 08.09.2021
6436 Clear 3 1006 100 10000 2 100 20:49 08.09.2021
6437 Clear 5 1006 100 10000 0 0 19:46 08.09.2021
6438 Clear 7 1006 93 10000 3 240 18:47 08.09.2021
6439 Clear 7 1007 87 10000 2 240 18:25 08.09.2021
6440 Clear 7 1007 93 10000 2 190 17:39 08.09.2021
6441 Clouds 10 1007 71 10000 2 200 15:21 08.09.2021
6442 Clouds 13 1007 44 10000 4 220 13:33 08.09.2021
6443 Clouds 13 1007 41 10000 3 210 12:41 08.09.2021
6444 Clouds 13 1007 41 10000 3 210 12:23 08.09.2021
6445 Clear 13 1008 47 10000 2 250 11:26 08.09.2021
6446 Clear 12 1008 50 10000 4 210 10:31 08.09.2021
6447 Clear 11 1009 50 10000 5 250 09:55 08.09.2021
6448 Rain 11 1010 66 10000 3 230 07:45 08.09.2021
6449 Rain 11 1010 66 10000 3 230 07:45 08.09.2021
6450 Clear 10 1010 76 10000 3 220 06:43 08.09.2021
6451 Fog 4 1011 100 200 1 200 23:28 07.09.2021
6452 Fog 3 1011 100 2200 2 190 22:19 07.09.2021
6453 Fog 6 1012 100 2600 2 260 20:42 07.09.2021
6454 Mist 6 1013 100 1100 1 260 18:53 07.09.2021
6455 Fog 7 1013 100 2200 2 230 18:28 07.09.2021
6456 Mist 8 1013 100 4200 1 230 17:25 07.09.2021
6457 Clouds 9 1013 100 10000 3 190 15:56 07.09.2021
6458 Clouds 9 1013 100 10000 3 190 14:53 07.09.2021
6459 Rain 9 1014 100 10000 2 190 13:52 07.09.2021
6460 Rain 9 1014 100 10000 2 190 13:52 07.09.2021
6461 Rain 9 1014 100 10000 3 110 11:58 07.09.2021
6462 Rain 9 1015 93 9000 4 150 10:48 07.09.2021
6463 Rain 8 1016 100 10000 3 130 09:40 07.09.2021
6464 Rain 8 1017 93 10000 4 190 07:46 07.09.2021
6465 Rain 9 1017 87 10000 3 160 06:19 07.09.2021
6466 Clear 8 1018 81 10000 2 170 02:38 07.09.2021
6467 Clear 8 1018 81 10000 3 190 00:55 07.09.2021
6468 Clear 8 1018 81 10000 3 190 23:46 06.09.2021
6469 Clear 8 1018 81 10000 4 200 23:28 06.09.2021
6470 Clear 9 1018 71 10000 4 200 22:49 06.09.2021
6471 Clear 9 1018 76 10000 4 220 21:52 06.09.2021
6472 Clear 10 1017 71 10000 3 220 20:34 06.09.2021
6473 Clear 10 1017 66 10000 4 210 19:18 06.09.2021
6474 Clear 11 1017 62 10000 4 210 18:33 06.09.2021
6475 Clear 11 1017 66 10000 4 210 17:50 06.09.2021
6476 Clear 13 1016 54 10000 5 240 16:20 06.09.2021
6477 Clear 13 1016 54 10000 5 240 16:20 06.09.2021
6478 Clear 13 1016 54 10000 5 240 16:20 06.09.2021
6479 Clear 15 1015 44 10000 7 240 14:37 06.09.2021
6480 Clear 15 1014 44 10000 7 240 12:49 06.09.2021
6481 Clear 15 1013 47 10000 7 250 11:43 06.09.2021
6482 Clear 15 1013 44 10000 8 240 10:19 06.09.2021
6483 Clear 15 1011 47 10000 6 240 07:35 06.09.2021
6484 Clear 11 1009 93 10000 2 240 02:54 06.09.2021
6485 Clear 12 1008 82 10000 2 260 23:20 05.09.2021
6486 Clear 14 1008 77 10000 5 250 22:32 05.09.2021
6487 Clear 14 1008 77 10000 3 220 21:55 05.09.2021
6488 Clear 14 1008 77 10000 3 220 21:55 05.09.2021
6489 Clear 14 1008 77 10000 2 240 21:19 05.09.2021
6490 Clear 16 1007 72 10000 3 280 19:23 05.09.2021
6491 Clouds 17 1007 72 9000 3 220 17:51 05.09.2021
6492 Clear 19 1007 63 10000 0 0 15:42 05.09.2021
6493 Clear 20 1007 60 10000 2 190 14:56 05.09.2021
6494 Clear 22 1007 53 10000 5 220 12:43 05.09.2021
6495 Clear 21 1006 56 10000 5 190 11:22 05.09.2021
6496 Clear 21 1006 49 10000 5 180 10:36 05.09.2021
6497 Clear 20 1006 52 10000 5 180 09:32 05.09.2021
6498 Clear 20 1006 52 10000 5 190 08:26 05.09.2021
6499 Clear 15 1005 67 10000 6 150 03:21 05.09.2021
6500 Clear 15 1007 67 10000 5 140 00:34 05.09.2021
6501 Clear 16 1007 67 10000 5 140 23:52 04.09.2021
6502 Clear 16 1008 67 10000 4 150 22:55 04.09.2021
6503 Clear 17 1008 63 10000 5 140 22:34 04.09.2021
6504 Clear 18 1009 59 10000 6 160 19:58 04.09.2021
6505 Clear 18 1009 59 10000 6 160 19:32 04.09.2021
6506 Clear 20 1010 56 10000 5 150 16:48 04.09.2021
6507 Clear 23 1009 46 10000 5 160 14:28 04.09.2021
6508 Clear 22 1009 49 10000 6 170 11:22 04.09.2021
6509 Clear 20 1009 56 10000 6 170 09:39 04.09.2021
6510 Clear 17 1009 63 10000 5 160 07:30 04.09.2021
6511 Clear 13 1010 76 10000 3 160 00:48 04.09.2021
6512 Clear 14 1010 72 10000 4 150 23:32 03.09.2021
6513 Clear 16 1010 63 10000 5 170 22:57 03.09.2021
6514 Clear 16 1010 63 10000 5 190 21:37 03.09.2021
6515 Clear 16 1011 63 10000 5 190 20:53 03.09.2021
6516 Clear 17 1011 59 10000 5 190 19:57 03.09.2021
6517 Clear 17 1011 59 10000 5 190 19:30 03.09.2021
6518 Clear 18 1011 59 10000 5 190 17:58 03.09.2021
6519 Clear 18 1010 63 10000 5 180 16:44 03.09.2021
6520 Clear 19 1010 59 10000 4 190 15:34 03.09.2021
6521 Clear 20 1009 56 10000 6 190 12:59 03.09.2021
6522 Clear 17 1009 63 10000 6 160 10:43 03.09.2021
6523 Clear 16 1010 63 10000 5 180 09:19 03.09.2021
6524 Clouds 14 1010 67 10000 5 190 07:51 03.09.2021
6525 Rain 14 1010 67 10000 5 190 06:21 03.09.2021
6526 Clear 13 1010 67 10000 5 180 23:54 02.09.2021
6527 Clear 13 1012 67 10000 4 170 21:42 02.09.2021
6528 Clear 13 1012 67 10000 5 180 20:24 02.09.2021
6529 Clear 14 1013 67 10000 5 170 17:33 02.09.2021
6530 Clear 14 1013 67 10000 5 160 16:20 02.09.2021
6531 Clear 15 1015 63 10000 5 170 14:36 02.09.2021
6532 Clear 16 1016 55 10000 6 180 12:58 02.09.2021
6533 Clouds 15 1017 55 10000 6 180 11:40 02.09.2021
6534 Clear 16 1017 48 10000 6 200 10:37 02.09.2021
6535 Clear 15 1018 58 10000 5 180 08:40 02.09.2021
6536 Clear 12 1019 71 10000 4 190 07:20 02.09.2021
6537 Clear 12 1019 71 10000 4 190 07:20 02.09.2021
6538 Clear 10 1019 81 10000 4 180 05:31 02.09.2021
6539 Clear 8 1019 87 10000 2 180 02:35 02.09.2021
6540 Clear 7 1019 93 10000 2 200 01:34 02.09.2021
6541 Clear 9 1019 81 10000 3 200 23:40 01.09.2021
6542 Clear 9 1019 81 10000 2 200 22:42 01.09.2021
6543 Clear 10 1019 76 10000 2 210 21:41 01.09.2021
6544 Clear 9 1019 81 10000 2 200 20:53 01.09.2021
6545 Clouds 10 1019 81 10000 1 220 19:22 01.09.2021
6546 Clear 9 1019 87 10000 1 160 17:47 01.09.2021
6547 Clear 10 1019 76 10000 0 0 16:48 01.09.2021
6548 Clouds 10 1019 71 10000 1 260 15:52 01.09.2021
6549 Rain 11 1019 62 10000 4 320 12:41 01.09.2021
6550 Clouds 11 1018 62 10000 4 320 11:45 01.09.2021
6551 Clouds 10 1018 71 10000 4 290 08:56 01.09.2021
6552 Clouds 10 1018 76 10000 4 320 07:53 01.09.2021
6553 Clouds 9 1017 87 10000 5 300 05:39 01.09.2021
6554 Clouds 9 1014 81 10000 3 310 23:19 31.08.2021
6555 Clouds 9 1014 87 10000 3 310 21:40 31.08.2021
6556 Clouds 9 1013 87 10000 3 340 19:48 31.08.2021
6557 Clear 9 1013 87 10000 4 330 18:37 31.08.2021
6558 Clouds 8 1013 93 10000 4 300 17:38 31.08.2021
6559 Clouds 8 1013 93 10000 4 300 17:20 31.08.2021
6560 Clear 9 1013 81 10000 3 310 16:24 31.08.2021
6561 Clear 9 1013 81 10000 3 310 16:24 31.08.2021
6562 Clouds 11 1012 82 10000 4 340 13:40 31.08.2021
6563 Clouds 13 1011 67 10000 5 320 11:36 31.08.2021
6564 Rain 12 1011 71 10000 6 320 10:55 31.08.2021
6565 Rain 11 1011 76 10000 6 330 09:45 31.08.2021
6566 Rain 10 1011 87 8000 5 310 08:39 31.08.2021
6567 Rain 11 1010 76 10000 5 310 07:38 31.08.2021
6568 Clear 10 1010 81 10000 4 290 05:36 31.08.2021
6569 Clouds 9 1009 87 10000 2 300 23:35 30.08.2021
6570 Clear 9 1009 87 10000 3 310 21:52 30.08.2021
6571 Clear 9 1009 93 10000 3 320 21:32 30.08.2021
6572 Clear 9 1009 87 10000 2 270 20:20 30.08.2021
6573 Clear 9 1009 93 10000 2 290 19:29 30.08.2021
6574 Clouds 9 1009 87 10000 3 330 18:34 30.08.2021
6575 Clouds 9 1009 81 10000 2 290 17:45 30.08.2021
6576 Clear 10 1009 76 10000 3 300 16:22 30.08.2021
6577 Clouds 12 1009 66 10000 3 330 15:39 30.08.2021
6578 Clouds 13 1008 58 10000 6 330 13:43 30.08.2021
6579 Clouds 13 1008 62 10000 4 350 12:24 30.08.2021
6580 Rain 11 1008 93 9000 1 0 09:30 30.08.2021
6581 Clouds 9 1009 93 10000 3 220 22:28 29.08.2021
6582 Clouds 9 1009 93 10000 4 240 21:32 29.08.2021
6583 Clouds 10 1010 87 10000 4 240 19:59 29.08.2021
6584 Clouds 10 1010 87 10000 4 250 19:19 29.08.2021
6585 Clouds 10 1011 87 10000 4 250 17:47 29.08.2021
6586 Rain 11 1011 87 10000 3 240 15:47 29.08.2021
6587 Rain 10 1012 87 10000 3 290 14:18 29.08.2021
6588 Rain 13 1011 62 10000 5 260 13:33 29.08.2021
6589 Rain 13 1012 62 10000 6 260 12:32 29.08.2021
6590 Clouds 13 1012 62 10000 6 250 11:48 29.08.2021
6591 Clouds 14 1012 58 10000 5 240 10:52 29.08.2021
6592 Clouds 13 1013 62 10000 5 250 10:33 29.08.2021
6593 Clouds 13 1013 67 10000 5 240 09:54 29.08.2021
6594 Clear 11 1014 76 10000 4 250 06:55 29.08.2021
6595 Clear 6 1016 87 10000 3 280 00:20 29.08.2021
6596 Clear 5 1017 93 10000 2 280 20:55 28.08.2021
6597 Clear 5 1018 87 10000 2 280 19:53 28.08.2021
6598 Clear 6 1018 87 10000 0 0 18:27 28.08.2021
6599 Clear 7 1018 87 10000 1 0 17:48 28.08.2021
6600 Clear 7 1018 87 10000 1 0 17:48 28.08.2021
6601 Clear 9 1018 76 10000 1 0 16:58 28.08.2021
6602 Clear 12 1018 54 10000 3 360 15:32 28.08.2021
6603 Clouds 12 1018 54 10000 4 330 14:19 28.08.2021
6604 Clouds 12 1019 54 10000 5 340 13:43 28.08.2021
6605 Clouds 13 1019 47 10000 5 350 12:41 28.08.2021
6606 Clouds 13 1019 50 10000 5 10 11:51 28.08.2021
6607 Clouds 12 1020 54 10000 5 360 10:29 28.08.2021
6608 Clouds 11 1020 54 10000 6 360 08:36 28.08.2021
6609 Clear 10 1020 57 10000 6 20 05:22 28.08.2021
6610 Clear 11 1019 71 10000 2 10 22:26 27.08.2021
6611 Clouds 11 1019 71 10000 2 20 20:56 27.08.2021
6612 Clouds 11 1019 76 10000 3 30 19:59 27.08.2021
6613 Clouds 12 1019 66 10000 4 20 18:39 27.08.2021
6614 Clouds 12 1019 66 10000 4 20 18:20 27.08.2021
6615 Clouds 13 1019 67 10000 4 330 16:47 27.08.2021
6616 Clouds 13 1018 67 10000 3 340 15:21 27.08.2021
6617 Clouds 13 1018 71 10000 3 320 14:37 27.08.2021
6618 Clouds 13 1018 67 10000 4 330 12:28 27.08.2021
6619 Clouds 13 1018 67 10000 5 350 11:23 27.08.2021
6620 Clouds 13 1017 71 10000 5 330 10:41 27.08.2021
6621 Clouds 14 1017 67 10000 4 330 09:19 27.08.2021
6622 Clouds 13 1017 71 10000 4 330 08:38 27.08.2021
6623 Clouds 13 1016 76 10000 6 290 05:51 27.08.2021
6624 Clouds 14 1013 88 10000 5 310 00:50 27.08.2021
6625 Clouds 15 1013 88 10000 6 320 00:28 27.08.2021
6626 Clouds 17 1012 94 10000 3 280 22:28 26.08.2021
6627 Clouds 18 1012 88 10000 4 250 21:57 26.08.2021
6628 Clear 18 1012 88 10000 4 230 19:53 26.08.2021
6629 Clouds 19 1012 88 10000 5 230 18:36 26.08.2021
6630 Rain 20 1012 83 10000 3 200 17:26 26.08.2021
6631 Rain 20 1013 94 10000 2 140 16:30 26.08.2021
6632 Rain 19 1014 94 10000 3 180 14:53 26.08.2021
6633 Clouds 30 1011 37 10000 5.48 203 13:27 26.08.2021
6634 Clouds 31 1011 45 10000 5 190 12:34 26.08.2021
6635 Clouds 31 1012 42 10000 4 210 11:45 26.08.2021
6636 Clear 29 1013 54 10000 4 220 09:25 26.08.2021
6637 Clear 28 1066 54 10000 4 200 08:19 26.08.2021
6638 Clear 18 1016 100 10000 1 110 23:44 25.08.2021
6639 Clear 19 1016 100 10000 2 110 22:41 25.08.2021
6640 Clear 19 1016 100 10000 2 110 22:23 25.08.2021
6641 Clear 19 1016 100 10000 2 110 20:57 25.08.2021
6642 Clear 20 1016 100 10000 4 100 20:30 25.08.2021
6643 Clouds 20 1017 94 10000 3 90 19:42 25.08.2021
6644 Clear 21 1017 83 10000 3 90 17:53 25.08.2021
6645 Rain 24 1017 69 10000 3 70 15:59 25.08.2021
6646 Rain 25 1017 65 10000 2 60 15:33 25.08.2021
6647 Clouds 25 1017 65 10000 2 50 14:46 25.08.2021
6648 Clear 26 1017 61 10000 4 90 13:54 25.08.2021
6649 Clear 27 1017 57 10000 5 80 12:23 25.08.2021
6650 Clear 27 1017 54 10000 4 70 11:20 25.08.2021
6651 Clear 27 1017 57 10000 4 70 09:59 25.08.2021
6652 Clear 27 1017 57 10000 3 50 09:36 25.08.2021
6653 Clouds 25 1018 69 10000 3 40 08:36 25.08.2021
6654 Clouds 24 1018 78 10000 3 10 07:21 25.08.2021
6655 Clear 19 1017 100 10000 2 40 01:25 25.08.2021
6656 Clear 21 1017 100 10000 3 60 23:31 24.08.2021
6657 Clear 21 1017 100 10000 1 0 21:20 24.08.2021
6658 Clear 21 1017 100 10000 0 0 20:18 24.08.2021
6659 Clear 22 1017 100 10000 1 0 19:43 24.08.2021
6660 Clear 22 1017 100 10000 0 0 17:55 24.08.2021
6661 Clear 23 1017 100 10000 1 0 17:22 24.08.2021
6662 Clear 23 1017 100 10000 1 0 17:22 24.08.2021
6663 Clear 24 1017 88 10000 1 0 16:18 24.08.2021
6664 Clear 28 1017 61 10000 3 230 13:54 24.08.2021
6665 Clear 28 1017 54 10000 3 240 12:45 24.08.2021
6666 Clear 28 1017 54 10000 3 250 11:21 24.08.2021
6667 Clear 28 1017 54 10000 4 250 10:46 24.08.2021
6668 Clear 27 1017 61 10000 5 230 09:53 24.08.2021
6669 Clear 24 1017 64 10000 4 240 07:42 24.08.2021
6670 Clear 23 1016 68 10000 4 230 05:50 24.08.2021
6671 Clear 23 1016 68 10000 4 230 05:50 24.08.2021
6672 Clear 22 1016 68 10000 4 220 03:37 24.08.2021
6673 Clear 23 1016 64 10000 5 220 23:52 23.08.2021
6674 Clear 24 1016 60 10000 5 220 22:46 23.08.2021
6675 Clear 25 1016 57 10000 5 230 21:36 23.08.2021
6676 Clear 26 1017 53 10000 5 230 19:55 23.08.2021
6677 Clear 27 1017 50 10000 4 210 18:25 23.08.2021
6678 Clear 29 1017 51 10000 4 210 15:45 23.08.2021
6679 Clear 32 1017 43 10000 5 220 13:56 23.08.2021
6680 Clear 32 1018 43 10000 6 220 12:33 23.08.2021
6681 Clear 32 1018 43 10000 5 230 10:52 23.08.2021
6682 Clear 32 1018 40 10000 6 250 10:21 23.08.2021
6683 Clear 29 1018 54 10000 4 240 08:49 23.08.2021
6684 Clear 28 1019 54 10000 6 250 07:41 23.08.2021
6685 Clear 26 1018 69 10000 4 250 06:41 23.08.2021
6686 Clear 20 1018 100 10000 2 180 01:57 23.08.2021
6687 Clear 22 1018 94 10000 0 0 00:46 23.08.2021
6688 Clear 22 1018 100 10000 2 160 22:42 22.08.2021
6689 Clear 22 1018 100 10000 2 160 22:42 22.08.2021
6690 Clear 22 1018 100 10000 2 150 21:30 22.08.2021
6691 Clear 21 1019 100 10000 1 150 20:19 22.08.2021
6692 Clear 21 1019 100 10000 1 80 18:33 22.08.2021
6693 Clouds 26 1019 69 10000 0 0 15:56 22.08.2021
6694 Clear 27 1019 57 10000 1 0 14:54 22.08.2021
6695 Clear 29 1019 48 10000 1 0 13:50 22.08.2021
6696 Clear 29 1019 48 10000 2 340 13:19 22.08.2021
6697 Clear 29 1019 48 10000 3 320 12:48 22.08.2021
6698 Clear 28 1019 54 10000 4 320 11:45 22.08.2021
6699 Clear 29 1019 48 10000 6 330 11:20 22.08.2021
6700 Clear 27 1017 61 10000 6 270 08:44 22.08.2021
6701 Clear 27 1017 61 10000 5 260 07:53 22.08.2021
6702 Clear 21 1017 83 10000 3 240 04:32 22.08.2021
6703 Clear 19 1017 100 10000 0 0 22:38 21.08.2021
6704 Clear 21 1017 88 10000 3 250 21:40 21.08.2021
6705 Clear 21 1016 94 10000 2 280 18:58 21.08.2021
6706 Clear 21 1016 94 10000 3 280 18:39 21.08.2021
6707 Clear 25 1016 69 10000 4 260 16:58 21.08.2021
6708 Clear 25 1016 69 10000 5 270 16:32 21.08.2021
6709 Clear 26 1016 65 10000 5 250 15:39 21.08.2021
6710 Clear 27 1016 61 10000 6 260 15:21 21.08.2021
6711 Clear 28 1015 47 10000 6 300 13:43 21.08.2021
6712 Clear 28 1015 47 10000 9 300 12:39 21.08.2021
6713 Clear 28 1015 51 10000 7 290 10:55 21.08.2021
6714 Clouds 24 1014 64 10000 4 250 07:53 21.08.2021
6715 Clouds 15 1015 100 10000 3 190 00:44 21.08.2021
6716 Rain 14 1015 100 10000 3 160 22:28 20.08.2021
6717 Rain 15 1015 82 10000 4 150 19:43 20.08.2021
6718 Rain 15 1017 82 10000 3 160 17:35 20.08.2021
6719 Clear 17 1018 59 10000 3 190 14:34 20.08.2021
6720 Clear 17 1019 55 10000 3 190 11:59 20.08.2021
6721 Clear 16 1019 59 10000 3 210 11:29 20.08.2021
6722 Clear 15 1020 58 10000 2 240 10:21 20.08.2021
6723 Clear 15 1020 58 10000 2 200 09:27 20.08.2021
6724 Clear 15 1020 58 10000 2 230 08:36 20.08.2021
6725 Clear 11 1020 76 10000 1 0 04:42 20.08.2021
6726 Clear 11 1020 93 10000 2 70 04:20 20.08.2021
6727 Clear 7 1018 100 10000 1 0 23:27 19.08.2021
6728 Clear 8 1018 100